<?xml version="1.0" encoding="UTF-8" standalone="no" ?>
<gpx xmlns="http://www.topografix.com/GPX/1/1" xmlns:xsi="http://www.w3.org/2001/XMLSchema-instance" xsi:schemaLocation="http://www.topografix.com/GPX/1/1 http://www.topografix.com/GPX/1/1/gpx.xsd" version="1.1" creator="VisuGPX - https://www.visugpx.com">
  <metadata>
    <name>piste vtt sjdm</name>
    <desc><![CDATA[Repérage de la piste VTT de la forêt du Pays de Monts
Les tronçons balisés
vu le 07-04-2023 sjdm - fromentine
vu le 18-04-2023 sjdm - fontenelles 
vu le 18-06-2023 sjdm - fontenelles et delvallon
Vu le 30-06-2023 Piste inaugurée le 15 juin, mais la trace ne suit pas le balisage.
Relevage de la trace le 05/07/2023
Différence entre balisage et trace officielle à La Parée Jésus et à La Parée du Jonc. ]]></desc>
  </metadata>
  <trk>
    <name><![CDATA[Piste VTT sjdm - fromentine]]></name>
    <desc><![CDATA[Trace relevée le 05/07/2023]]></desc>
    <extensions>
      <line xmlns="http://www.topografix.com/GPX/gpx_style/0/2">
        <color>0008ff</color>
        <width>7</width>
      </line>
    </extensions>
    <trkseg>
      <trkpt lat="46.77888" lon="-2.03707">
        <ele>4.6</ele>
        <time>2023-07-05T06:41:00Z</time>
      </trkpt>
      <trkpt lat="46.77886" lon="-2.03708">
        <ele>4.6</ele>
        <time>2023-07-05T06:41:03Z</time>
      </trkpt>
      <trkpt lat="46.77882" lon="-2.03706">
        <ele>4.6</ele>
        <time>2023-07-05T06:41:06Z</time>
      </trkpt>
      <trkpt lat="46.77881" lon="-2.03701">
        <ele>4.6</ele>
        <time>2023-07-05T06:41:08Z</time>
      </trkpt>
      <trkpt lat="46.77884" lon="-2.03695">
        <ele>4.7</ele>
        <time>2023-07-05T06:41:10Z</time>
      </trkpt>
      <trkpt lat="46.77881" lon="-2.03681">
        <ele>4.7</ele>
        <time>2023-07-05T06:41:14Z</time>
      </trkpt>
      <trkpt lat="46.7788" lon="-2.03678">
        <ele>4.7</ele>
        <time>2023-07-05T06:41:15Z</time>
      </trkpt>
      <trkpt lat="46.77884" lon="-2.03658">
        <ele>4.9</ele>
        <time>2023-07-05T06:41:19Z</time>
      </trkpt>
      <trkpt lat="46.77887" lon="-2.03647">
        <ele>4.9</ele>
        <time>2023-07-05T06:41:21Z</time>
      </trkpt>
      <trkpt lat="46.77888" lon="-2.03636">
        <ele>5</ele>
        <time>2023-07-05T06:41:23Z</time>
      </trkpt>
      <trkpt lat="46.77896" lon="-2.03606">
        <ele>5.2</ele>
        <time>2023-07-05T06:41:28Z</time>
      </trkpt>
      <trkpt lat="46.77901" lon="-2.03593">
        <ele>5.4</ele>
        <time>2023-07-05T06:41:30Z</time>
      </trkpt>
      <trkpt lat="46.77909" lon="-2.03575">
        <ele>5.6</ele>
        <time>2023-07-05T06:41:33Z</time>
      </trkpt>
      <trkpt lat="46.77912" lon="-2.0357">
        <ele>5.8</ele>
        <time>2023-07-05T06:41:34Z</time>
      </trkpt>
      <trkpt lat="46.77919" lon="-2.03556">
        <ele>6</ele>
        <time>2023-07-05T06:41:37Z</time>
      </trkpt>
      <trkpt lat="46.77922" lon="-2.03547">
        <ele>6.2</ele>
        <time>2023-07-05T06:41:39Z</time>
      </trkpt>
      <trkpt lat="46.77926" lon="-2.03523">
        <ele>6.2</ele>
        <time>2023-07-05T06:41:43Z</time>
      </trkpt>
      <trkpt lat="46.77931" lon="-2.0348">
        <ele>5.7</ele>
        <time>2023-07-05T06:41:49Z</time>
      </trkpt>
      <trkpt lat="46.77929" lon="-2.03465">
        <ele>5.5</ele>
        <time>2023-07-05T06:41:52Z</time>
      </trkpt>
      <trkpt lat="46.77926" lon="-2.03463">
        <ele>5.6</ele>
        <time>2023-07-05T06:41:53Z</time>
      </trkpt>
      <trkpt lat="46.7791" lon="-2.03455">
        <ele>5.7</ele>
        <time>2023-07-05T06:41:58Z</time>
      </trkpt>
      <trkpt lat="46.77889" lon="-2.03443">
        <ele>6.1</ele>
        <time>2023-07-05T06:42:04Z</time>
      </trkpt>
      <trkpt lat="46.77867" lon="-2.03434">
        <ele>6.5</ele>
        <time>2023-07-05T06:42:10Z</time>
      </trkpt>
      <trkpt lat="46.77863" lon="-2.03432">
        <ele>6.5</ele>
        <time>2023-07-05T06:42:11Z</time>
      </trkpt>
      <trkpt lat="46.77852" lon="-2.03427">
        <ele>6.5</ele>
        <time>2023-07-05T06:42:14Z</time>
      </trkpt>
      <trkpt lat="46.77844" lon="-2.03424">
        <ele>6.4</ele>
        <time>2023-07-05T06:42:16Z</time>
      </trkpt>
      <trkpt lat="46.77831" lon="-2.03419">
        <ele>6.3</ele>
        <time>2023-07-05T06:42:19Z</time>
      </trkpt>
      <trkpt lat="46.77813" lon="-2.03409">
        <ele>6.1</ele>
        <time>2023-07-05T06:42:23Z</time>
      </trkpt>
      <trkpt lat="46.77803" lon="-2.03405">
        <ele>6.1</ele>
        <time>2023-07-05T06:42:25Z</time>
      </trkpt>
      <trkpt lat="46.77791" lon="-2.03395">
        <ele>6.2</ele>
        <time>2023-07-05T06:42:28Z</time>
      </trkpt>
      <trkpt lat="46.77788" lon="-2.03392">
        <ele>6.2</ele>
        <time>2023-07-05T06:42:29Z</time>
      </trkpt>
      <trkpt lat="46.7777" lon="-2.03375">
        <ele>6.1</ele>
        <time>2023-07-05T06:42:34Z</time>
      </trkpt>
      <trkpt lat="46.77755" lon="-2.03359">
        <ele>6.1</ele>
        <time>2023-07-05T06:42:38Z</time>
      </trkpt>
      <trkpt lat="46.77751" lon="-2.03356">
        <ele>6.1</ele>
        <time>2023-07-05T06:42:39Z</time>
      </trkpt>
      <trkpt lat="46.77736" lon="-2.03344">
        <ele>6</ele>
        <time>2023-07-05T06:42:43Z</time>
      </trkpt>
      <trkpt lat="46.77728" lon="-2.03338">
        <ele>6</ele>
        <time>2023-07-05T06:42:45Z</time>
      </trkpt>
      <trkpt lat="46.77714" lon="-2.03332">
        <ele>5.9</ele>
        <time>2023-07-05T06:42:48Z</time>
      </trkpt>
      <trkpt lat="46.7771" lon="-2.03329">
        <ele>5.9</ele>
        <time>2023-07-05T06:42:49Z</time>
      </trkpt>
      <trkpt lat="46.77688" lon="-2.03317">
        <ele>5.7</ele>
        <time>2023-07-05T06:42:54Z</time>
      </trkpt>
      <trkpt lat="46.77678" lon="-2.03312">
        <ele>5.7</ele>
        <time>2023-07-05T06:42:56Z</time>
      </trkpt>
      <trkpt lat="46.77664" lon="-2.03305">
        <ele>5.7</ele>
        <time>2023-07-05T06:42:59Z</time>
      </trkpt>
      <trkpt lat="46.77655" lon="-2.033">
        <ele>5.7</ele>
        <time>2023-07-05T06:43:01Z</time>
      </trkpt>
      <trkpt lat="46.77647" lon="-2.03293">
        <ele>5.8</ele>
        <time>2023-07-05T06:43:03Z</time>
      </trkpt>
      <trkpt lat="46.77644" lon="-2.0329">
        <ele>5.9</ele>
        <time>2023-07-05T06:43:04Z</time>
      </trkpt>
      <trkpt lat="46.7764" lon="-2.03286">
        <ele>5.9</ele>
        <time>2023-07-05T06:43:05Z</time>
      </trkpt>
      <trkpt lat="46.77625" lon="-2.0327">
        <ele>5.9</ele>
        <time>2023-07-05T06:43:09Z</time>
      </trkpt>
      <trkpt lat="46.77621" lon="-2.03265">
        <ele>5.9</ele>
        <time>2023-07-05T06:43:10Z</time>
      </trkpt>
      <trkpt lat="46.77618" lon="-2.0326">
        <ele>5.9</ele>
        <time>2023-07-05T06:43:11Z</time>
      </trkpt>
      <trkpt lat="46.77604" lon="-2.03242">
        <ele>6</ele>
        <time>2023-07-05T06:43:15Z</time>
      </trkpt>
      <trkpt lat="46.77586" lon="-2.03222">
        <ele>6.1</ele>
        <time>2023-07-05T06:43:20Z</time>
      </trkpt>
      <trkpt lat="46.77575" lon="-2.03205">
        <ele>6</ele>
        <time>2023-07-05T06:43:24Z</time>
      </trkpt>
      <trkpt lat="46.77571" lon="-2.03183">
        <ele>5.8</ele>
        <time>2023-07-05T06:43:28Z</time>
      </trkpt>
      <trkpt lat="46.77567" lon="-2.03172">
        <ele>5.8</ele>
        <time>2023-07-05T06:43:30Z</time>
      </trkpt>
      <trkpt lat="46.77562" lon="-2.0316">
        <ele>5.8</ele>
        <time>2023-07-05T06:43:32Z</time>
      </trkpt>
      <trkpt lat="46.77558" lon="-2.0315">
        <ele>5.8</ele>
        <time>2023-07-05T06:43:34Z</time>
      </trkpt>
      <trkpt lat="46.77554" lon="-2.0314">
        <ele>5.9</ele>
        <time>2023-07-05T06:43:36Z</time>
      </trkpt>
      <trkpt lat="46.77548" lon="-2.03125">
        <ele>5.9</ele>
        <time>2023-07-05T06:43:39Z</time>
      </trkpt>
      <trkpt lat="46.77544" lon="-2.03113">
        <ele>5.8</ele>
        <time>2023-07-05T06:43:41Z</time>
      </trkpt>
      <trkpt lat="46.77541" lon="-2.03101">
        <ele>5.8</ele>
        <time>2023-07-05T06:43:43Z</time>
      </trkpt>
      <trkpt lat="46.77534" lon="-2.03085">
        <ele>5.8</ele>
        <time>2023-07-05T06:43:46Z</time>
      </trkpt>
      <trkpt lat="46.77534" lon="-2.03063">
        <ele>5.8</ele>
        <time>2023-07-05T06:43:50Z</time>
      </trkpt>
      <trkpt lat="46.77534" lon="-2.03057">
        <ele>5.9</ele>
        <time>2023-07-05T06:43:51Z</time>
      </trkpt>
      <trkpt lat="46.77533" lon="-2.03051">
        <ele>5.9</ele>
        <time>2023-07-05T06:43:52Z</time>
      </trkpt>
      <trkpt lat="46.77531" lon="-2.03033">
        <ele>5.9</ele>
        <time>2023-07-05T06:43:55Z</time>
      </trkpt>
      <trkpt lat="46.77529" lon="-2.03028">
        <ele>5.9</ele>
        <time>2023-07-05T06:43:56Z</time>
      </trkpt>
      <trkpt lat="46.77526" lon="-2.03017">
        <ele>5.9</ele>
        <time>2023-07-05T06:43:58Z</time>
      </trkpt>
      <trkpt lat="46.77524" lon="-2.03011">
        <ele>5.9</ele>
        <time>2023-07-05T06:43:59Z</time>
      </trkpt>
      <trkpt lat="46.77519" lon="-2.02991">
        <ele>5.8</ele>
        <time>2023-07-05T06:44:02Z</time>
      </trkpt>
      <trkpt lat="46.77515" lon="-2.02978">
        <ele>5.7</ele>
        <time>2023-07-05T06:44:04Z</time>
      </trkpt>
      <trkpt lat="46.77511" lon="-2.02965">
        <ele>5.6</ele>
        <time>2023-07-05T06:44:06Z</time>
      </trkpt>
      <trkpt lat="46.77507" lon="-2.02952">
        <ele>5.6</ele>
        <time>2023-07-05T06:44:08Z</time>
      </trkpt>
      <trkpt lat="46.77497" lon="-2.02906">
        <ele>5.9</ele>
        <time>2023-07-05T06:44:15Z</time>
      </trkpt>
      <trkpt lat="46.77496" lon="-2.02901">
        <ele>6</ele>
        <time>2023-07-05T06:44:16Z</time>
      </trkpt>
      <trkpt lat="46.77498" lon="-2.02885">
        <ele>6.1</ele>
        <time>2023-07-05T06:44:19Z</time>
      </trkpt>
      <trkpt lat="46.77503" lon="-2.02876">
        <ele>6</ele>
        <time>2023-07-05T06:44:21Z</time>
      </trkpt>
      <trkpt lat="46.7751" lon="-2.02869">
        <ele>5.9</ele>
        <time>2023-07-05T06:44:23Z</time>
      </trkpt>
      <trkpt lat="46.7753" lon="-2.0285">
        <ele>5.6</ele>
        <time>2023-07-05T06:44:28Z</time>
      </trkpt>
      <trkpt lat="46.77538" lon="-2.02843">
        <ele>5.7</ele>
        <time>2023-07-05T06:44:30Z</time>
      </trkpt>
      <trkpt lat="46.77545" lon="-2.02834">
        <ele>5.9</ele>
        <time>2023-07-05T06:44:32Z</time>
      </trkpt>
      <trkpt lat="46.77556" lon="-2.02824">
        <ele>6.4</ele>
        <time>2023-07-05T06:44:35Z</time>
      </trkpt>
      <trkpt lat="46.7757" lon="-2.02811">
        <ele>7</ele>
        <time>2023-07-05T06:44:40Z</time>
      </trkpt>
      <trkpt lat="46.77581" lon="-2.02802">
        <ele>6.6</ele>
        <time>2023-07-05T06:44:44Z</time>
      </trkpt>
      <trkpt lat="46.77589" lon="-2.02794">
        <ele>6</ele>
        <time>2023-07-05T06:44:46Z</time>
      </trkpt>
      <trkpt lat="46.77599" lon="-2.02786">
        <ele>5.4</ele>
        <time>2023-07-05T06:44:48Z</time>
      </trkpt>
      <trkpt lat="46.7762" lon="-2.02765">
        <ele>4.8</ele>
        <time>2023-07-05T06:44:53Z</time>
      </trkpt>
      <trkpt lat="46.77624" lon="-2.02761">
        <ele>4.8</ele>
        <time>2023-07-05T06:44:54Z</time>
      </trkpt>
      <trkpt lat="46.77644" lon="-2.02748">
        <ele>5.9</ele>
        <time>2023-07-05T06:44:59Z</time>
      </trkpt>
      <trkpt lat="46.77652" lon="-2.02746">
        <ele>6.7</ele>
        <time>2023-07-05T06:45:01Z</time>
      </trkpt>
      <trkpt lat="46.77662" lon="-2.02741">
        <ele>8.1</ele>
        <time>2023-07-05T06:45:05Z</time>
      </trkpt>
      <trkpt lat="46.77668" lon="-2.02733">
        <ele>9.1</ele>
        <time>2023-07-05T06:45:09Z</time>
      </trkpt>
      <trkpt lat="46.77669" lon="-2.02727">
        <ele>9.4</ele>
        <time>2023-07-05T06:45:11Z</time>
      </trkpt>
      <trkpt lat="46.77671" lon="-2.02722">
        <ele>9.7</ele>
        <time>2023-07-05T06:45:13Z</time>
      </trkpt>
      <trkpt lat="46.77671" lon="-2.02707">
        <ele>9.8</ele>
        <time>2023-07-05T06:45:16Z</time>
      </trkpt>
      <trkpt lat="46.77676" lon="-2.0268">
        <ele>9</ele>
        <time>2023-07-05T06:45:20Z</time>
      </trkpt>
      <trkpt lat="46.77685" lon="-2.0264">
        <ele>9</ele>
        <time>2023-07-05T06:45:26Z</time>
      </trkpt>
      <trkpt lat="46.77689" lon="-2.02612">
        <ele>10</ele>
        <time>2023-07-05T06:45:32Z</time>
      </trkpt>
      <trkpt lat="46.77686" lon="-2.02592">
        <ele>10.9</ele>
        <time>2023-07-05T06:45:37Z</time>
      </trkpt>
      <trkpt lat="46.77684" lon="-2.0259">
        <ele>11</ele>
        <time>2023-07-05T06:45:38Z</time>
      </trkpt>
      <trkpt lat="46.77681" lon="-2.02584">
        <ele>11</ele>
        <time>2023-07-05T06:45:40Z</time>
      </trkpt>
      <trkpt lat="46.77673" lon="-2.02566">
        <ele>10.4</ele>
        <time>2023-07-05T06:45:45Z</time>
      </trkpt>
      <trkpt lat="46.77672" lon="-2.02561">
        <ele>10.2</ele>
        <time>2023-07-05T06:45:46Z</time>
      </trkpt>
      <trkpt lat="46.77674" lon="-2.0255">
        <ele>9.8</ele>
        <time>2023-07-05T06:45:48Z</time>
      </trkpt>
      <trkpt lat="46.77675" lon="-2.02524">
        <ele>9</ele>
        <time>2023-07-05T06:45:52Z</time>
      </trkpt>
      <trkpt lat="46.77674" lon="-2.025">
        <ele>8.7</ele>
        <time>2023-07-05T06:45:55Z</time>
      </trkpt>
      <trkpt lat="46.77673" lon="-2.02494">
        <ele>8.5</ele>
        <time>2023-07-05T06:45:56Z</time>
      </trkpt>
      <trkpt lat="46.77671" lon="-2.02489">
        <ele>8.4</ele>
        <time>2023-07-05T06:45:57Z</time>
      </trkpt>
      <trkpt lat="46.77666" lon="-2.02477">
        <ele>8</ele>
        <time>2023-07-05T06:45:59Z</time>
      </trkpt>
      <trkpt lat="46.77663" lon="-2.02471">
        <ele>7.7</ele>
        <time>2023-07-05T06:46:00Z</time>
      </trkpt>
      <trkpt lat="46.77652" lon="-2.02451">
        <ele>7</ele>
        <time>2023-07-05T06:46:03Z</time>
      </trkpt>
      <trkpt lat="46.77644" lon="-2.02442">
        <ele>6.8</ele>
        <time>2023-07-05T06:46:05Z</time>
      </trkpt>
      <trkpt lat="46.77624" lon="-2.02431">
        <ele>6.9</ele>
        <time>2023-07-05T06:46:10Z</time>
      </trkpt>
      <trkpt lat="46.77617" lon="-2.02418">
        <ele>7</ele>
        <time>2023-07-05T06:46:14Z</time>
      </trkpt>
      <trkpt lat="46.77609" lon="-2.02404">
        <ele>7.1</ele>
        <time>2023-07-05T06:46:18Z</time>
      </trkpt>
      <trkpt lat="46.77597" lon="-2.0238">
        <ele>6.9</ele>
        <time>2023-07-05T06:46:23Z</time>
      </trkpt>
      <trkpt lat="46.77594" lon="-2.02375">
        <ele>6.9</ele>
        <time>2023-07-05T06:46:24Z</time>
      </trkpt>
      <trkpt lat="46.7758" lon="-2.02344">
        <ele>7.3</ele>
        <time>2023-07-05T06:46:30Z</time>
      </trkpt>
      <trkpt lat="46.77566" lon="-2.02312">
        <ele>7.4</ele>
        <time>2023-07-05T06:46:37Z</time>
      </trkpt>
      <trkpt lat="46.77559" lon="-2.02296">
        <ele>7.3</ele>
        <time>2023-07-05T06:46:40Z</time>
      </trkpt>
      <trkpt lat="46.77555" lon="-2.02286">
        <ele>7.3</ele>
        <time>2023-07-05T06:46:42Z</time>
      </trkpt>
      <trkpt lat="46.77552" lon="-2.02282">
        <ele>7.4</ele>
        <time>2023-07-05T06:46:43Z</time>
      </trkpt>
      <trkpt lat="46.77549" lon="-2.02277">
        <ele>7.4</ele>
        <time>2023-07-05T06:46:44Z</time>
      </trkpt>
      <trkpt lat="46.77542" lon="-2.02262">
        <ele>7.5</ele>
        <time>2023-07-05T06:46:47Z</time>
      </trkpt>
      <trkpt lat="46.77532" lon="-2.0224">
        <ele>7.5</ele>
        <time>2023-07-05T06:46:52Z</time>
      </trkpt>
      <trkpt lat="46.77528" lon="-2.02234">
        <ele>7.4</ele>
        <time>2023-07-05T06:46:53Z</time>
      </trkpt>
      <trkpt lat="46.77523" lon="-2.02223">
        <ele>7.4</ele>
        <time>2023-07-05T06:46:55Z</time>
      </trkpt>
      <trkpt lat="46.7752" lon="-2.02217">
        <ele>7.4</ele>
        <time>2023-07-05T06:46:56Z</time>
      </trkpt>
      <trkpt lat="46.77516" lon="-2.02207">
        <ele>7.3</ele>
        <time>2023-07-05T06:46:58Z</time>
      </trkpt>
      <trkpt lat="46.77513" lon="-2.02204">
        <ele>7.2</ele>
        <time>2023-07-05T06:46:59Z</time>
      </trkpt>
      <trkpt lat="46.7751" lon="-2.022">
        <ele>7.1</ele>
        <time>2023-07-05T06:47:00Z</time>
      </trkpt>
      <trkpt lat="46.77507" lon="-2.0219">
        <ele>6.7</ele>
        <time>2023-07-05T06:47:02Z</time>
      </trkpt>
      <trkpt lat="46.77504" lon="-2.02184">
        <ele>6.4</ele>
        <time>2023-07-05T06:47:03Z</time>
      </trkpt>
      <trkpt lat="46.77499" lon="-2.02172">
        <ele>5.8</ele>
        <time>2023-07-05T06:47:05Z</time>
      </trkpt>
      <trkpt lat="46.77496" lon="-2.02167">
        <ele>5.6</ele>
        <time>2023-07-05T06:47:06Z</time>
      </trkpt>
      <trkpt lat="46.77493" lon="-2.0216">
        <ele>5.4</ele>
        <time>2023-07-05T06:47:07Z</time>
      </trkpt>
      <trkpt lat="46.77484" lon="-2.02139">
        <ele>5.4</ele>
        <time>2023-07-05T06:47:10Z</time>
      </trkpt>
      <trkpt lat="46.77475" lon="-2.02115">
        <ele>5.8</ele>
        <time>2023-07-05T06:47:14Z</time>
      </trkpt>
      <trkpt lat="46.77464" lon="-2.02085">
        <ele>6.8</ele>
        <time>2023-07-05T06:47:20Z</time>
      </trkpt>
      <trkpt lat="46.77458" lon="-2.02067">
        <ele>7.3</ele>
        <time>2023-07-05T06:47:24Z</time>
      </trkpt>
      <trkpt lat="46.77449" lon="-2.02047">
        <ele>7.6</ele>
        <time>2023-07-05T06:47:29Z</time>
      </trkpt>
      <trkpt lat="46.7744" lon="-2.02035">
        <ele>7.8</ele>
        <time>2023-07-05T06:47:32Z</time>
      </trkpt>
      <trkpt lat="46.77437" lon="-2.02032">
        <ele>7.8</ele>
        <time>2023-07-05T06:47:33Z</time>
      </trkpt>
      <trkpt lat="46.77427" lon="-2.02016">
        <ele>7.8</ele>
        <time>2023-07-05T06:47:37Z</time>
      </trkpt>
      <trkpt lat="46.77425" lon="-2.02011">
        <ele>7.7</ele>
        <time>2023-07-05T06:47:38Z</time>
      </trkpt>
      <trkpt lat="46.77417" lon="-2.01988">
        <ele>6.8</ele>
        <time>2023-07-05T06:47:42Z</time>
      </trkpt>
      <trkpt lat="46.77406" lon="-2.01959">
        <ele>5.4</ele>
        <time>2023-07-05T06:47:46Z</time>
      </trkpt>
      <trkpt lat="46.77403" lon="-2.01952">
        <ele>5.2</ele>
        <time>2023-07-05T06:47:47Z</time>
      </trkpt>
      <trkpt lat="46.77395" lon="-2.01936">
        <ele>4.7</ele>
        <time>2023-07-05T06:47:50Z</time>
      </trkpt>
      <trkpt lat="46.77381" lon="-2.0192">
        <ele>4.7</ele>
        <time>2023-07-05T06:47:54Z</time>
      </trkpt>
      <trkpt lat="46.77376" lon="-2.01909">
        <ele>4.7</ele>
        <time>2023-07-05T06:47:56Z</time>
      </trkpt>
      <trkpt lat="46.7737" lon="-2.01902">
        <ele>4.7</ele>
        <time>2023-07-05T06:47:58Z</time>
      </trkpt>
      <trkpt lat="46.77362" lon="-2.01896">
        <ele>4.7</ele>
        <time>2023-07-05T06:48:00Z</time>
      </trkpt>
      <trkpt lat="46.7735" lon="-2.0188">
        <ele>4.5</ele>
        <time>2023-07-05T06:48:04Z</time>
      </trkpt>
      <trkpt lat="46.77348" lon="-2.01875">
        <ele>4.5</ele>
        <time>2023-07-05T06:48:05Z</time>
      </trkpt>
      <trkpt lat="46.77341" lon="-2.0186">
        <ele>4.5</ele>
        <time>2023-07-05T06:48:08Z</time>
      </trkpt>
      <trkpt lat="46.77338" lon="-2.01855">
        <ele>4.5</ele>
        <time>2023-07-05T06:48:09Z</time>
      </trkpt>
      <trkpt lat="46.77332" lon="-2.01838">
        <ele>4.4</ele>
        <time>2023-07-05T06:48:12Z</time>
      </trkpt>
      <trkpt lat="46.77327" lon="-2.01825">
        <ele>4.5</ele>
        <time>2023-07-05T06:48:14Z</time>
      </trkpt>
      <trkpt lat="46.77319" lon="-2.01811">
        <ele>4.5</ele>
        <time>2023-07-05T06:48:17Z</time>
      </trkpt>
      <trkpt lat="46.77312" lon="-2.01802">
        <ele>4.5</ele>
        <time>2023-07-05T06:48:19Z</time>
      </trkpt>
      <trkpt lat="46.77306" lon="-2.01783">
        <ele>4.6</ele>
        <time>2023-07-05T06:48:22Z</time>
      </trkpt>
      <trkpt lat="46.77303" lon="-2.01765">
        <ele>4.8</ele>
        <time>2023-07-05T06:48:25Z</time>
      </trkpt>
      <trkpt lat="46.77302" lon="-2.01751">
        <ele>5.1</ele>
        <time>2023-07-05T06:48:27Z</time>
      </trkpt>
      <trkpt lat="46.77295" lon="-2.01726">
        <ele>6.7</ele>
        <time>2023-07-05T06:48:32Z</time>
      </trkpt>
      <trkpt lat="46.77288" lon="-2.01706">
        <ele>8.2</ele>
        <time>2023-07-05T06:48:37Z</time>
      </trkpt>
      <trkpt lat="46.77287" lon="-2.01704">
        <ele>8.3</ele>
        <time>2023-07-05T06:48:38Z</time>
      </trkpt>
      <trkpt lat="46.7728" lon="-2.017">
        <ele>8.5</ele>
        <time>2023-07-05T06:48:42Z</time>
      </trkpt>
      <trkpt lat="46.7727" lon="-2.01697">
        <ele>9</ele>
        <time>2023-07-05T06:48:48Z</time>
      </trkpt>
      <trkpt lat="46.77266" lon="-2.01694">
        <ele>9.1</ele>
        <time>2023-07-05T06:48:51Z</time>
      </trkpt>
      <trkpt lat="46.77263" lon="-2.01692">
        <ele>9.3</ele>
        <time>2023-07-05T06:48:53Z</time>
      </trkpt>
      <trkpt lat="46.77261" lon="-2.01689">
        <ele>9.5</ele>
        <time>2023-07-05T06:48:56Z</time>
      </trkpt>
      <trkpt lat="46.7726" lon="-2.01688">
        <ele>9.6</ele>
        <time>2023-07-05T06:48:57Z</time>
      </trkpt>
      <trkpt lat="46.77257" lon="-2.01687">
        <ele>9.7</ele>
        <time>2023-07-05T06:49:02Z</time>
      </trkpt>
      <trkpt lat="46.77253" lon="-2.01685">
        <ele>9.9</ele>
        <time>2023-07-05T06:49:06Z</time>
      </trkpt>
      <trkpt lat="46.77252" lon="-2.01684">
        <ele>10.1</ele>
        <time>2023-07-05T06:49:07Z</time>
      </trkpt>
      <trkpt lat="46.77248" lon="-2.01684">
        <ele>10.3</ele>
        <time>2023-07-05T06:49:10Z</time>
      </trkpt>
      <trkpt lat="46.77247" lon="-2.01685">
        <ele>10.3</ele>
        <time>2023-07-05T06:49:12Z</time>
      </trkpt>
      <trkpt lat="46.77244" lon="-2.01688">
        <ele>10.4</ele>
        <time>2023-07-05T06:49:18Z</time>
      </trkpt>
      <trkpt lat="46.77241" lon="-2.01687">
        <ele>10.4</ele>
        <time>2023-07-05T06:49:20Z</time>
      </trkpt>
      <trkpt lat="46.77236" lon="-2.01687">
        <ele>10.6</ele>
        <time>2023-07-05T06:49:23Z</time>
      </trkpt>
      <trkpt lat="46.77225" lon="-2.01689">
        <ele>10.8</ele>
        <time>2023-07-05T06:49:30Z</time>
      </trkpt>
      <trkpt lat="46.7722" lon="-2.01689">
        <ele>10.8</ele>
        <time>2023-07-05T06:49:35Z</time>
      </trkpt>
      <trkpt lat="46.77219" lon="-2.01689">
        <ele>10.8</ele>
        <time>2023-07-05T06:49:36Z</time>
      </trkpt>
      <trkpt lat="46.77219" lon="-2.01689">
        <ele>10.8</ele>
        <time>2023-07-05T06:49:46Z</time>
      </trkpt>
      <trkpt lat="46.77219" lon="-2.01689">
        <ele>10.9</ele>
        <time>2023-07-05T06:50:03Z</time>
      </trkpt>
      <trkpt lat="46.77217" lon="-2.01686">
        <ele>10.9</ele>
        <time>2023-07-05T06:50:11Z</time>
      </trkpt>
      <trkpt lat="46.77217" lon="-2.01666">
        <ele>11.7</ele>
        <time>2023-07-05T06:50:15Z</time>
      </trkpt>
      <trkpt lat="46.77217" lon="-2.0165">
        <ele>12.3</ele>
        <time>2023-07-05T06:50:17Z</time>
      </trkpt>
      <trkpt lat="46.77215" lon="-2.01642">
        <ele>12.9</ele>
        <time>2023-07-05T06:50:18Z</time>
      </trkpt>
      <trkpt lat="46.77213" lon="-2.01635">
        <ele>13.6</ele>
        <time>2023-07-05T06:50:19Z</time>
      </trkpt>
      <trkpt lat="46.77206" lon="-2.01621">
        <ele>15.4</ele>
        <time>2023-07-05T06:50:22Z</time>
      </trkpt>
      <trkpt lat="46.77198" lon="-2.01604">
        <ele>17.6</ele>
        <time>2023-07-05T06:50:27Z</time>
      </trkpt>
      <trkpt lat="46.7719" lon="-2.01593">
        <ele>18.4</ele>
        <time>2023-07-05T06:50:31Z</time>
      </trkpt>
      <trkpt lat="46.77181" lon="-2.01575">
        <ele>18.5</ele>
        <time>2023-07-05T06:50:36Z</time>
      </trkpt>
      <trkpt lat="46.77174" lon="-2.01564">
        <ele>17.2</ele>
        <time>2023-07-05T06:50:39Z</time>
      </trkpt>
      <trkpt lat="46.7717" lon="-2.01559">
        <ele>16.2</ele>
        <time>2023-07-05T06:50:40Z</time>
      </trkpt>
      <trkpt lat="46.77164" lon="-2.01553">
        <ele>14.9</ele>
        <time>2023-07-05T06:50:41Z</time>
      </trkpt>
      <trkpt lat="46.77152" lon="-2.01536">
        <ele>12.8</ele>
        <time>2023-07-05T06:50:43Z</time>
      </trkpt>
      <trkpt lat="46.77138" lon="-2.01529">
        <ele>12.1</ele>
        <time>2023-07-05T06:50:45Z</time>
      </trkpt>
      <trkpt lat="46.77127" lon="-2.01532">
        <ele>11.7</ele>
        <time>2023-07-05T06:50:47Z</time>
      </trkpt>
      <trkpt lat="46.77122" lon="-2.01536">
        <ele>11.4</ele>
        <time>2023-07-05T06:50:48Z</time>
      </trkpt>
      <trkpt lat="46.77116" lon="-2.01538">
        <ele>11.3</ele>
        <time>2023-07-05T06:50:49Z</time>
      </trkpt>
      <trkpt lat="46.771" lon="-2.0154">
        <ele>11.5</ele>
        <time>2023-07-05T06:50:52Z</time>
      </trkpt>
      <trkpt lat="46.77084" lon="-2.01542">
        <ele>12.5</ele>
        <time>2023-07-05T06:50:56Z</time>
      </trkpt>
      <trkpt lat="46.77076" lon="-2.01547">
        <ele>13.3</ele>
        <time>2023-07-05T06:50:59Z</time>
      </trkpt>
      <trkpt lat="46.77074" lon="-2.01547">
        <ele>13.5</ele>
        <time>2023-07-05T06:51:00Z</time>
      </trkpt>
      <trkpt lat="46.77063" lon="-2.01546">
        <ele>14.3</ele>
        <time>2023-07-05T06:51:04Z</time>
      </trkpt>
      <trkpt lat="46.7705" lon="-2.01545">
        <ele>14.5</ele>
        <time>2023-07-05T06:51:08Z</time>
      </trkpt>
      <trkpt lat="46.77037" lon="-2.0155">
        <ele>14.4</ele>
        <time>2023-07-05T06:51:12Z</time>
      </trkpt>
      <trkpt lat="46.77031" lon="-2.01555">
        <ele>14.3</ele>
        <time>2023-07-05T06:51:14Z</time>
      </trkpt>
      <trkpt lat="46.77028" lon="-2.01558">
        <ele>14.4</ele>
        <time>2023-07-05T06:51:15Z</time>
      </trkpt>
      <trkpt lat="46.77019" lon="-2.01581">
        <ele>14.7</ele>
        <time>2023-07-05T06:51:21Z</time>
      </trkpt>
      <trkpt lat="46.77018" lon="-2.0159">
        <ele>14.7</ele>
        <time>2023-07-05T06:51:23Z</time>
      </trkpt>
      <trkpt lat="46.77014" lon="-2.01597">
        <ele>14.6</ele>
        <time>2023-07-05T06:51:25Z</time>
      </trkpt>
      <trkpt lat="46.77011" lon="-2.016">
        <ele>14.5</ele>
        <time>2023-07-05T06:51:26Z</time>
      </trkpt>
      <trkpt lat="46.77006" lon="-2.01612">
        <ele>14</ele>
        <time>2023-07-05T06:51:28Z</time>
      </trkpt>
      <trkpt lat="46.77001" lon="-2.01622">
        <ele>13.5</ele>
        <time>2023-07-05T06:51:30Z</time>
      </trkpt>
      <trkpt lat="46.76999" lon="-2.01628">
        <ele>13.2</ele>
        <time>2023-07-05T06:51:31Z</time>
      </trkpt>
      <trkpt lat="46.76993" lon="-2.01641">
        <ele>12.5</ele>
        <time>2023-07-05T06:51:33Z</time>
      </trkpt>
      <trkpt lat="46.76986" lon="-2.01651">
        <ele>11.8</ele>
        <time>2023-07-05T06:51:35Z</time>
      </trkpt>
      <trkpt lat="46.76977" lon="-2.01662">
        <ele>10.7</ele>
        <time>2023-07-05T06:51:37Z</time>
      </trkpt>
      <trkpt lat="46.76973" lon="-2.01669">
        <ele>10.2</ele>
        <time>2023-07-05T06:51:38Z</time>
      </trkpt>
      <trkpt lat="46.76966" lon="-2.01681">
        <ele>9.6</ele>
        <time>2023-07-05T06:51:40Z</time>
      </trkpt>
      <trkpt lat="46.7696" lon="-2.01683">
        <ele>9.2</ele>
        <time>2023-07-05T06:51:41Z</time>
      </trkpt>
      <trkpt lat="46.76949" lon="-2.01688">
        <ele>8.4</ele>
        <time>2023-07-05T06:51:43Z</time>
      </trkpt>
      <trkpt lat="46.76938" lon="-2.01697">
        <ele>7.4</ele>
        <time>2023-07-05T06:51:45Z</time>
      </trkpt>
      <trkpt lat="46.76932" lon="-2.01703">
        <ele>7</ele>
        <time>2023-07-05T06:51:46Z</time>
      </trkpt>
      <trkpt lat="46.76923" lon="-2.01712">
        <ele>6.3</ele>
        <time>2023-07-05T06:51:48Z</time>
      </trkpt>
      <trkpt lat="46.76913" lon="-2.01712">
        <ele>6</ele>
        <time>2023-07-05T06:51:50Z</time>
      </trkpt>
      <trkpt lat="46.76908" lon="-2.01713">
        <ele>5.9</ele>
        <time>2023-07-05T06:51:51Z</time>
      </trkpt>
      <trkpt lat="46.76904" lon="-2.01714">
        <ele>5.7</ele>
        <time>2023-07-05T06:51:52Z</time>
      </trkpt>
      <trkpt lat="46.76887" lon="-2.01711">
        <ele>5.5</ele>
        <time>2023-07-05T06:51:56Z</time>
      </trkpt>
      <trkpt lat="46.76883" lon="-2.0171">
        <ele>5.5</ele>
        <time>2023-07-05T06:51:57Z</time>
      </trkpt>
      <trkpt lat="46.76869" lon="-2.01709">
        <ele>5.4</ele>
        <time>2023-07-05T06:52:01Z</time>
      </trkpt>
      <trkpt lat="46.76865" lon="-2.01711">
        <ele>5.4</ele>
        <time>2023-07-05T06:52:03Z</time>
      </trkpt>
      <trkpt lat="46.76861" lon="-2.0171">
        <ele>5.4</ele>
        <time>2023-07-05T06:52:04Z</time>
      </trkpt>
      <trkpt lat="46.76849" lon="-2.0171">
        <ele>5.4</ele>
        <time>2023-07-05T06:52:07Z</time>
      </trkpt>
      <trkpt lat="46.76834" lon="-2.01713">
        <ele>5.4</ele>
        <time>2023-07-05T06:52:11Z</time>
      </trkpt>
      <trkpt lat="46.76825" lon="-2.01711">
        <ele>5.4</ele>
        <time>2023-07-05T06:52:13Z</time>
      </trkpt>
      <trkpt lat="46.76817" lon="-2.01711">
        <ele>5.5</ele>
        <time>2023-07-05T06:52:15Z</time>
      </trkpt>
      <trkpt lat="46.76803" lon="-2.0171">
        <ele>5.7</ele>
        <time>2023-07-05T06:52:19Z</time>
      </trkpt>
      <trkpt lat="46.76795" lon="-2.0169">
        <ele>6</ele>
        <time>2023-07-05T06:52:23Z</time>
      </trkpt>
      <trkpt lat="46.7679" lon="-2.01674">
        <ele>6.1</ele>
        <time>2023-07-05T06:52:26Z</time>
      </trkpt>
      <trkpt lat="46.76785" lon="-2.01664">
        <ele>6.2</ele>
        <time>2023-07-05T06:52:28Z</time>
      </trkpt>
      <trkpt lat="46.76778" lon="-2.01657">
        <ele>6.3</ele>
        <time>2023-07-05T06:52:30Z</time>
      </trkpt>
      <trkpt lat="46.76772" lon="-2.01648">
        <ele>6.4</ele>
        <time>2023-07-05T06:52:32Z</time>
      </trkpt>
      <trkpt lat="46.76764" lon="-2.01617">
        <ele>6.7</ele>
        <time>2023-07-05T06:52:37Z</time>
      </trkpt>
      <trkpt lat="46.76757" lon="-2.01607">
        <ele>6.7</ele>
        <time>2023-07-05T06:52:40Z</time>
      </trkpt>
      <trkpt lat="46.76756" lon="-2.01589">
        <ele>6.6</ele>
        <time>2023-07-05T06:52:44Z</time>
      </trkpt>
      <trkpt lat="46.76762" lon="-2.01581">
        <ele>6.6</ele>
        <time>2023-07-05T06:52:48Z</time>
      </trkpt>
      <trkpt lat="46.76767" lon="-2.01575">
        <ele>6.6</ele>
        <time>2023-07-05T06:52:51Z</time>
      </trkpt>
      <trkpt lat="46.7677" lon="-2.01563">
        <ele>6.3</ele>
        <time>2023-07-05T06:52:53Z</time>
      </trkpt>
      <trkpt lat="46.76769" lon="-2.01547">
        <ele>6</ele>
        <time>2023-07-05T06:52:56Z</time>
      </trkpt>
      <trkpt lat="46.76773" lon="-2.01538">
        <ele>5.8</ele>
        <time>2023-07-05T06:52:58Z</time>
      </trkpt>
      <trkpt lat="46.76775" lon="-2.01534">
        <ele>5.7</ele>
        <time>2023-07-05T06:52:59Z</time>
      </trkpt>
      <trkpt lat="46.7678" lon="-2.01521">
        <ele>5.4</ele>
        <time>2023-07-05T06:53:01Z</time>
      </trkpt>
      <trkpt lat="46.76783" lon="-2.01516">
        <ele>5.3</ele>
        <time>2023-07-05T06:53:02Z</time>
      </trkpt>
      <trkpt lat="46.76793" lon="-2.01497">
        <ele>5.2</ele>
        <time>2023-07-05T06:53:05Z</time>
      </trkpt>
      <trkpt lat="46.76797" lon="-2.01493">
        <ele>5.2</ele>
        <time>2023-07-05T06:53:06Z</time>
      </trkpt>
      <trkpt lat="46.76814" lon="-2.01493">
        <ele>5.2</ele>
        <time>2023-07-05T06:53:10Z</time>
      </trkpt>
      <trkpt lat="46.76819" lon="-2.0149">
        <ele>5.2</ele>
        <time>2023-07-05T06:53:11Z</time>
      </trkpt>
      <trkpt lat="46.76828" lon="-2.01482">
        <ele>5.2</ele>
        <time>2023-07-05T06:53:13Z</time>
      </trkpt>
      <trkpt lat="46.76837" lon="-2.01466">
        <ele>5.1</ele>
        <time>2023-07-05T06:53:16Z</time>
      </trkpt>
      <trkpt lat="46.76844" lon="-2.01454">
        <ele>4.9</ele>
        <time>2023-07-05T06:53:18Z</time>
      </trkpt>
      <trkpt lat="46.76863" lon="-2.01423">
        <ele>4.4</ele>
        <time>2023-07-05T06:53:23Z</time>
      </trkpt>
      <trkpt lat="46.76865" lon="-2.01416">
        <ele>4.4</ele>
        <time>2023-07-05T06:53:24Z</time>
      </trkpt>
      <trkpt lat="46.76868" lon="-2.0141">
        <ele>4.3</ele>
        <time>2023-07-05T06:53:25Z</time>
      </trkpt>
      <trkpt lat="46.76876" lon="-2.01399">
        <ele>4.3</ele>
        <time>2023-07-05T06:53:27Z</time>
      </trkpt>
      <trkpt lat="46.7688" lon="-2.01394">
        <ele>4.2</ele>
        <time>2023-07-05T06:53:28Z</time>
      </trkpt>
      <trkpt lat="46.76888" lon="-2.0138">
        <ele>4.2</ele>
        <time>2023-07-05T06:53:31Z</time>
      </trkpt>
      <trkpt lat="46.76891" lon="-2.01358">
        <ele>4.3</ele>
        <time>2023-07-05T06:53:35Z</time>
      </trkpt>
      <trkpt lat="46.76898" lon="-2.01341">
        <ele>4.8</ele>
        <time>2023-07-05T06:53:39Z</time>
      </trkpt>
      <trkpt lat="46.76904" lon="-2.01329">
        <ele>5.4</ele>
        <time>2023-07-05T06:53:41Z</time>
      </trkpt>
      <trkpt lat="46.76911" lon="-2.01317">
        <ele>6.3</ele>
        <time>2023-07-05T06:53:43Z</time>
      </trkpt>
      <trkpt lat="46.76914" lon="-2.01308">
        <ele>7</ele>
        <time>2023-07-05T06:53:45Z</time>
      </trkpt>
      <trkpt lat="46.76919" lon="-2.01298">
        <ele>8.1</ele>
        <time>2023-07-05T06:53:47Z</time>
      </trkpt>
      <trkpt lat="46.76924" lon="-2.01282">
        <ele>10.2</ele>
        <time>2023-07-05T06:53:51Z</time>
      </trkpt>
      <trkpt lat="46.76926" lon="-2.01279">
        <ele>10.7</ele>
        <time>2023-07-05T06:53:52Z</time>
      </trkpt>
      <trkpt lat="46.7693" lon="-2.01268">
        <ele>12.1</ele>
        <time>2023-07-05T06:53:55Z</time>
      </trkpt>
      <trkpt lat="46.7693" lon="-2.01265">
        <ele>12.4</ele>
        <time>2023-07-05T06:53:56Z</time>
      </trkpt>
      <trkpt lat="46.7693" lon="-2.01263">
        <ele>12.6</ele>
        <time>2023-07-05T06:53:57Z</time>
      </trkpt>
      <trkpt lat="46.76932" lon="-2.01254">
        <ele>12.9</ele>
        <time>2023-07-05T06:54:00Z</time>
      </trkpt>
      <trkpt lat="46.76931" lon="-2.01238">
        <ele>13.2</ele>
        <time>2023-07-05T06:54:05Z</time>
      </trkpt>
      <trkpt lat="46.7693" lon="-2.01235">
        <ele>13.2</ele>
        <time>2023-07-05T06:54:06Z</time>
      </trkpt>
      <trkpt lat="46.76926" lon="-2.01222">
        <ele>13.2</ele>
        <time>2023-07-05T06:54:10Z</time>
      </trkpt>
      <trkpt lat="46.76926" lon="-2.01198">
        <ele>12.9</ele>
        <time>2023-07-05T06:54:15Z</time>
      </trkpt>
      <trkpt lat="46.76926" lon="-2.0119">
        <ele>12.5</ele>
        <time>2023-07-05T06:54:17Z</time>
      </trkpt>
      <trkpt lat="46.76928" lon="-2.01187">
        <ele>12.3</ele>
        <time>2023-07-05T06:54:18Z</time>
      </trkpt>
      <trkpt lat="46.76928" lon="-2.01183">
        <ele>12.1</ele>
        <time>2023-07-05T06:54:19Z</time>
      </trkpt>
      <trkpt lat="46.76928" lon="-2.01176">
        <ele>11.6</ele>
        <time>2023-07-05T06:54:21Z</time>
      </trkpt>
      <trkpt lat="46.76925" lon="-2.01172">
        <ele>11.2</ele>
        <time>2023-07-05T06:54:22Z</time>
      </trkpt>
      <trkpt lat="46.76924" lon="-2.01168">
        <ele>10.8</ele>
        <time>2023-07-05T06:54:23Z</time>
      </trkpt>
      <trkpt lat="46.76926" lon="-2.01163">
        <ele>10.1</ele>
        <time>2023-07-05T06:54:25Z</time>
      </trkpt>
      <trkpt lat="46.76931" lon="-2.01156">
        <ele>8.9</ele>
        <time>2023-07-05T06:54:29Z</time>
      </trkpt>
      <trkpt lat="46.76942" lon="-2.01149">
        <ele>7.1</ele>
        <time>2023-07-05T06:54:33Z</time>
      </trkpt>
      <trkpt lat="46.76946" lon="-2.01146">
        <ele>6.9</ele>
        <time>2023-07-05T06:54:34Z</time>
      </trkpt>
      <trkpt lat="46.76949" lon="-2.01144">
        <ele>6.7</ele>
        <time>2023-07-05T06:54:37Z</time>
      </trkpt>
      <trkpt lat="46.76952" lon="-2.01141">
        <ele>6.7</ele>
        <time>2023-07-05T06:54:39Z</time>
      </trkpt>
      <trkpt lat="46.76954" lon="-2.01138">
        <ele>7</ele>
        <time>2023-07-05T06:54:40Z</time>
      </trkpt>
      <trkpt lat="46.76957" lon="-2.01136">
        <ele>7.2</ele>
        <time>2023-07-05T06:54:41Z</time>
      </trkpt>
      <trkpt lat="46.76968" lon="-2.01127">
        <ele>8.3</ele>
        <time>2023-07-05T06:54:45Z</time>
      </trkpt>
      <trkpt lat="46.76974" lon="-2.01121">
        <ele>9.1</ele>
        <time>2023-07-05T06:54:48Z</time>
      </trkpt>
      <trkpt lat="46.76976" lon="-2.01117">
        <ele>9.3</ele>
        <time>2023-07-05T06:54:50Z</time>
      </trkpt>
      <trkpt lat="46.76976" lon="-2.01114">
        <ele>9.5</ele>
        <time>2023-07-05T06:54:52Z</time>
      </trkpt>
      <trkpt lat="46.76977" lon="-2.01111">
        <ele>9.7</ele>
        <time>2023-07-05T06:54:55Z</time>
      </trkpt>
      <trkpt lat="46.76977" lon="-2.01109">
        <ele>9.8</ele>
        <time>2023-07-05T06:54:56Z</time>
      </trkpt>
      <trkpt lat="46.76976" lon="-2.01104">
        <ele>10</ele>
        <time>2023-07-05T06:54:58Z</time>
      </trkpt>
      <trkpt lat="46.76979" lon="-2.01091">
        <ele>10.1</ele>
        <time>2023-07-05T06:55:01Z</time>
      </trkpt>
      <trkpt lat="46.7698" lon="-2.01087">
        <ele>10.1</ele>
        <time>2023-07-05T06:55:03Z</time>
      </trkpt>
      <trkpt lat="46.76981" lon="-2.01084">
        <ele>10.1</ele>
        <time>2023-07-05T06:55:04Z</time>
      </trkpt>
      <trkpt lat="46.76983" lon="-2.01075">
        <ele>10.1</ele>
        <time>2023-07-05T06:55:07Z</time>
      </trkpt>
      <trkpt lat="46.76983" lon="-2.01071">
        <ele>10.1</ele>
        <time>2023-07-05T06:55:08Z</time>
      </trkpt>
      <trkpt lat="46.76992" lon="-2.01053">
        <ele>10.6</ele>
        <time>2023-07-05T06:55:13Z</time>
      </trkpt>
      <trkpt lat="46.77" lon="-2.01046">
        <ele>11</ele>
        <time>2023-07-05T06:55:16Z</time>
      </trkpt>
      <trkpt lat="46.77003" lon="-2.01045">
        <ele>11.2</ele>
        <time>2023-07-05T06:55:19Z</time>
      </trkpt>
      <trkpt lat="46.77008" lon="-2.01047">
        <ele>11.3</ele>
        <time>2023-07-05T06:55:22Z</time>
      </trkpt>
      <trkpt lat="46.77009" lon="-2.0105">
        <ele>11</ele>
        <time>2023-07-05T06:55:24Z</time>
      </trkpt>
      <trkpt lat="46.77009" lon="-2.0105">
        <ele>11</ele>
        <time>2023-07-05T06:55:36Z</time>
      </trkpt>
      <trkpt lat="46.77009" lon="-2.0105">
        <ele>11</ele>
        <time>2023-07-05T06:55:41Z</time>
      </trkpt>
      <trkpt lat="46.77011" lon="-2.0105">
        <ele>11</ele>
        <time>2023-07-05T06:55:43Z</time>
      </trkpt>
      <trkpt lat="46.77015" lon="-2.01046">
        <ele>10.4</ele>
        <time>2023-07-05T06:55:46Z</time>
      </trkpt>
      <trkpt lat="46.77018" lon="-2.01041">
        <ele>10</ele>
        <time>2023-07-05T06:55:47Z</time>
      </trkpt>
      <trkpt lat="46.77021" lon="-2.01034">
        <ele>9.7</ele>
        <time>2023-07-05T06:55:48Z</time>
      </trkpt>
      <trkpt lat="46.77021" lon="-2.01016">
        <ele>9.9</ele>
        <time>2023-07-05T06:55:52Z</time>
      </trkpt>
      <trkpt lat="46.77019" lon="-2.01007">
        <ele>10.4</ele>
        <time>2023-07-05T06:55:56Z</time>
      </trkpt>
      <trkpt lat="46.77022" lon="-2.01005">
        <ele>10.8</ele>
        <time>2023-07-05T06:55:58Z</time>
      </trkpt>
      <trkpt lat="46.77026" lon="-2.01002">
        <ele>11.3</ele>
        <time>2023-07-05T06:56:00Z</time>
      </trkpt>
      <trkpt lat="46.77032" lon="-2.00997">
        <ele>11.9</ele>
        <time>2023-07-05T06:56:03Z</time>
      </trkpt>
      <trkpt lat="46.77033" lon="-2.00997">
        <ele>12.1</ele>
        <time>2023-07-05T06:56:04Z</time>
      </trkpt>
      <trkpt lat="46.7704" lon="-2.00994">
        <ele>12.8</ele>
        <time>2023-07-05T06:56:07Z</time>
      </trkpt>
      <trkpt lat="46.77051" lon="-2.00989">
        <ele>14.1</ele>
        <time>2023-07-05T06:56:11Z</time>
      </trkpt>
      <trkpt lat="46.77056" lon="-2.00987">
        <ele>14.7</ele>
        <time>2023-07-05T06:56:13Z</time>
      </trkpt>
      <trkpt lat="46.77063" lon="-2.00987">
        <ele>15.5</ele>
        <time>2023-07-05T06:56:16Z</time>
      </trkpt>
      <trkpt lat="46.7707" lon="-2.00989">
        <ele>16.3</ele>
        <time>2023-07-05T06:56:20Z</time>
      </trkpt>
      <trkpt lat="46.77072" lon="-2.0099">
        <ele>16.5</ele>
        <time>2023-07-05T06:56:21Z</time>
      </trkpt>
      <trkpt lat="46.77076" lon="-2.00994">
        <ele>17</ele>
        <time>2023-07-05T06:56:26Z</time>
      </trkpt>
      <trkpt lat="46.77087" lon="-2.01005">
        <ele>17.6</ele>
        <time>2023-07-05T06:56:33Z</time>
      </trkpt>
      <trkpt lat="46.77092" lon="-2.01009">
        <ele>17.6</ele>
        <time>2023-07-05T06:56:36Z</time>
      </trkpt>
      <trkpt lat="46.77097" lon="-2.0101">
        <ele>17.6</ele>
        <time>2023-07-05T06:56:38Z</time>
      </trkpt>
      <trkpt lat="46.7711" lon="-2.01011">
        <ele>16.9</ele>
        <time>2023-07-05T06:56:43Z</time>
      </trkpt>
      <trkpt lat="46.77116" lon="-2.01019">
        <ele>16</ele>
        <time>2023-07-05T06:56:45Z</time>
      </trkpt>
      <trkpt lat="46.77116" lon="-2.01025">
        <ele>15.7</ele>
        <time>2023-07-05T06:56:46Z</time>
      </trkpt>
      <trkpt lat="46.77117" lon="-2.01031">
        <ele>15.4</ele>
        <time>2023-07-05T06:56:47Z</time>
      </trkpt>
      <trkpt lat="46.77122" lon="-2.01044">
        <ele>14.5</ele>
        <time>2023-07-05T06:56:49Z</time>
      </trkpt>
      <trkpt lat="46.77131" lon="-2.01057">
        <ele>13.1</ele>
        <time>2023-07-05T06:56:52Z</time>
      </trkpt>
      <trkpt lat="46.77136" lon="-2.01079">
        <ele>11.7</ele>
        <time>2023-07-05T06:56:55Z</time>
      </trkpt>
      <trkpt lat="46.77143" lon="-2.01089">
        <ele>11.3</ele>
        <time>2023-07-05T06:56:57Z</time>
      </trkpt>
      <trkpt lat="46.77147" lon="-2.01093">
        <ele>11.3</ele>
        <time>2023-07-05T06:56:58Z</time>
      </trkpt>
      <trkpt lat="46.77155" lon="-2.01103">
        <ele>11.2</ele>
        <time>2023-07-05T06:57:02Z</time>
      </trkpt>
      <trkpt lat="46.77161" lon="-2.01114">
        <ele>11.2</ele>
        <time>2023-07-05T06:57:09Z</time>
      </trkpt>
      <trkpt lat="46.77166" lon="-2.01125">
        <ele>11.3</ele>
        <time>2023-07-05T06:57:15Z</time>
      </trkpt>
      <trkpt lat="46.77172" lon="-2.01137">
        <ele>11.5</ele>
        <time>2023-07-05T06:57:22Z</time>
      </trkpt>
      <trkpt lat="46.77173" lon="-2.01138">
        <ele>11.6</ele>
        <time>2023-07-05T06:57:23Z</time>
      </trkpt>
      <trkpt lat="46.77178" lon="-2.01139">
        <ele>11.7</ele>
        <time>2023-07-05T06:57:28Z</time>
      </trkpt>
      <trkpt lat="46.77179" lon="-2.01139">
        <ele>11.8</ele>
        <time>2023-07-05T06:57:32Z</time>
      </trkpt>
      <trkpt lat="46.7718" lon="-2.01138">
        <ele>11.8</ele>
        <time>2023-07-05T06:57:38Z</time>
      </trkpt>
      <trkpt lat="46.7718" lon="-2.01138">
        <ele>11.8</ele>
        <time>2023-07-05T06:57:39Z</time>
      </trkpt>
      <trkpt lat="46.77187" lon="-2.01133">
        <ele>11.8</ele>
        <time>2023-07-05T06:57:43Z</time>
      </trkpt>
      <trkpt lat="46.7719" lon="-2.01132">
        <ele>11.9</ele>
        <time>2023-07-05T06:57:47Z</time>
      </trkpt>
      <trkpt lat="46.77191" lon="-2.01133">
        <ele>12</ele>
        <time>2023-07-05T06:57:49Z</time>
      </trkpt>
      <trkpt lat="46.77191" lon="-2.01133">
        <ele>12</ele>
        <time>2023-07-05T06:57:54Z</time>
      </trkpt>
      <trkpt lat="46.77191" lon="-2.01133">
        <ele>12.1</ele>
        <time>2023-07-05T06:58:02Z</time>
      </trkpt>
      <trkpt lat="46.77191" lon="-2.01133">
        <ele>12.1</ele>
        <time>2023-07-05T06:58:12Z</time>
      </trkpt>
      <trkpt lat="46.77191" lon="-2.01133">
        <ele>12.2</ele>
        <time>2023-07-05T06:58:26Z</time>
      </trkpt>
      <trkpt lat="46.77195" lon="-2.01134">
        <ele>12.3</ele>
        <time>2023-07-05T06:58:37Z</time>
      </trkpt>
      <trkpt lat="46.77197" lon="-2.01134">
        <ele>12.3</ele>
        <time>2023-07-05T06:58:43Z</time>
      </trkpt>
      <trkpt lat="46.77202" lon="-2.01136">
        <ele>12.6</ele>
        <time>2023-07-05T06:58:48Z</time>
      </trkpt>
      <trkpt lat="46.77215" lon="-2.01142">
        <ele>13</ele>
        <time>2023-07-05T06:58:52Z</time>
      </trkpt>
      <trkpt lat="46.77219" lon="-2.01142">
        <ele>13</ele>
        <time>2023-07-05T06:58:53Z</time>
      </trkpt>
      <trkpt lat="46.77227" lon="-2.01147">
        <ele>13.3</ele>
        <time>2023-07-05T06:58:56Z</time>
      </trkpt>
      <trkpt lat="46.77232" lon="-2.01143">
        <ele>13.2</ele>
        <time>2023-07-05T06:58:58Z</time>
      </trkpt>
      <trkpt lat="46.77239" lon="-2.01139">
        <ele>13</ele>
        <time>2023-07-05T06:59:00Z</time>
      </trkpt>
      <trkpt lat="46.77243" lon="-2.01139">
        <ele>13</ele>
        <time>2023-07-05T06:59:01Z</time>
      </trkpt>
      <trkpt lat="46.77247" lon="-2.01141">
        <ele>13.2</ele>
        <time>2023-07-05T06:59:02Z</time>
      </trkpt>
      <trkpt lat="46.77254" lon="-2.01148">
        <ele>13.3</ele>
        <time>2023-07-05T06:59:04Z</time>
      </trkpt>
      <trkpt lat="46.77266" lon="-2.01164">
        <ele>13.5</ele>
        <time>2023-07-05T06:59:10Z</time>
      </trkpt>
      <trkpt lat="46.77271" lon="-2.01169">
        <ele>13.4</ele>
        <time>2023-07-05T06:59:13Z</time>
      </trkpt>
      <trkpt lat="46.77274" lon="-2.01173">
        <ele>13.3</ele>
        <time>2023-07-05T06:59:16Z</time>
      </trkpt>
      <trkpt lat="46.77278" lon="-2.01181">
        <ele>13.2</ele>
        <time>2023-07-05T06:59:21Z</time>
      </trkpt>
      <trkpt lat="46.77279" lon="-2.01182">
        <ele>13.2</ele>
        <time>2023-07-05T06:59:22Z</time>
      </trkpt>
      <trkpt lat="46.77282" lon="-2.01187">
        <ele>13.2</ele>
        <time>2023-07-05T06:59:27Z</time>
      </trkpt>
      <trkpt lat="46.77286" lon="-2.01187">
        <ele>13.2</ele>
        <time>2023-07-05T06:59:31Z</time>
      </trkpt>
      <trkpt lat="46.77288" lon="-2.01187">
        <ele>13.2</ele>
        <time>2023-07-05T06:59:32Z</time>
      </trkpt>
      <trkpt lat="46.77293" lon="-2.0119">
        <ele>13.2</ele>
        <time>2023-07-05T06:59:35Z</time>
      </trkpt>
      <trkpt lat="46.77295" lon="-2.01194">
        <ele>13.1</ele>
        <time>2023-07-05T06:59:37Z</time>
      </trkpt>
      <trkpt lat="46.77295" lon="-2.01198">
        <ele>13.1</ele>
        <time>2023-07-05T06:59:38Z</time>
      </trkpt>
      <trkpt lat="46.77299" lon="-2.0121">
        <ele>13</ele>
        <time>2023-07-05T06:59:41Z</time>
      </trkpt>
      <trkpt lat="46.77305" lon="-2.01216">
        <ele>13</ele>
        <time>2023-07-05T06:59:43Z</time>
      </trkpt>
      <trkpt lat="46.77308" lon="-2.01217">
        <ele>13</ele>
        <time>2023-07-05T06:59:44Z</time>
      </trkpt>
      <trkpt lat="46.77322" lon="-2.01218">
        <ele>13.2</ele>
        <time>2023-07-05T06:59:48Z</time>
      </trkpt>
      <trkpt lat="46.77332" lon="-2.01215">
        <ele>13.3</ele>
        <time>2023-07-05T06:59:52Z</time>
      </trkpt>
      <trkpt lat="46.77334" lon="-2.01214">
        <ele>13.4</ele>
        <time>2023-07-05T06:59:53Z</time>
      </trkpt>
      <trkpt lat="46.77344" lon="-2.01214">
        <ele>13.5</ele>
        <time>2023-07-05T06:59:57Z</time>
      </trkpt>
      <trkpt lat="46.7735" lon="-2.01221">
        <ele>13.7</ele>
        <time>2023-07-05T06:59:59Z</time>
      </trkpt>
      <trkpt lat="46.77353" lon="-2.01227">
        <ele>13.9</ele>
        <time>2023-07-05T07:00:00Z</time>
      </trkpt>
      <trkpt lat="46.7736" lon="-2.0124">
        <ele>13.9</ele>
        <time>2023-07-05T07:00:04Z</time>
      </trkpt>
      <trkpt lat="46.77364" lon="-2.01245">
        <ele>13.9</ele>
        <time>2023-07-05T07:00:06Z</time>
      </trkpt>
      <trkpt lat="46.7737" lon="-2.01252">
        <ele>13.9</ele>
        <time>2023-07-05T07:00:09Z</time>
      </trkpt>
      <trkpt lat="46.77377" lon="-2.01262">
        <ele>13.8</ele>
        <time>2023-07-05T07:00:13Z</time>
      </trkpt>
      <trkpt lat="46.77386" lon="-2.0127">
        <ele>13.6</ele>
        <time>2023-07-05T07:00:17Z</time>
      </trkpt>
      <trkpt lat="46.7739" lon="-2.01271">
        <ele>13.6</ele>
        <time>2023-07-05T07:00:19Z</time>
      </trkpt>
      <trkpt lat="46.77394" lon="-2.01272">
        <ele>13.6</ele>
        <time>2023-07-05T07:00:21Z</time>
      </trkpt>
      <trkpt lat="46.77398" lon="-2.01275">
        <ele>13.5</ele>
        <time>2023-07-05T07:00:24Z</time>
      </trkpt>
      <trkpt lat="46.77401" lon="-2.01279">
        <ele>13.3</ele>
        <time>2023-07-05T07:00:26Z</time>
      </trkpt>
      <trkpt lat="46.77405" lon="-2.01297">
        <ele>12.7</ele>
        <time>2023-07-05T07:00:32Z</time>
      </trkpt>
      <trkpt lat="46.77405" lon="-2.01313">
        <ele>12.1</ele>
        <time>2023-07-05T07:00:37Z</time>
      </trkpt>
      <trkpt lat="46.77402" lon="-2.01326">
        <ele>11.7</ele>
        <time>2023-07-05T07:00:41Z</time>
      </trkpt>
      <trkpt lat="46.774" lon="-2.01328">
        <ele>11.8</ele>
        <time>2023-07-05T07:00:42Z</time>
      </trkpt>
      <trkpt lat="46.77395" lon="-2.01335">
        <ele>11.6</ele>
        <time>2023-07-05T07:00:45Z</time>
      </trkpt>
      <trkpt lat="46.77392" lon="-2.01345">
        <ele>11.4</ele>
        <time>2023-07-05T07:00:47Z</time>
      </trkpt>
      <trkpt lat="46.7739" lon="-2.01353">
        <ele>11.2</ele>
        <time>2023-07-05T07:00:48Z</time>
      </trkpt>
      <trkpt lat="46.77386" lon="-2.0137">
        <ele>10.8</ele>
        <time>2023-07-05T07:00:50Z</time>
      </trkpt>
      <trkpt lat="46.77386" lon="-2.01386">
        <ele>10.4</ele>
        <time>2023-07-05T07:00:52Z</time>
      </trkpt>
      <trkpt lat="46.77385" lon="-2.014">
        <ele>10</ele>
        <time>2023-07-05T07:00:54Z</time>
      </trkpt>
      <trkpt lat="46.77382" lon="-2.01407">
        <ele>9.9</ele>
        <time>2023-07-05T07:00:55Z</time>
      </trkpt>
      <trkpt lat="46.77381" lon="-2.01414">
        <ele>9.9</ele>
        <time>2023-07-05T07:00:56Z</time>
      </trkpt>
      <trkpt lat="46.77381" lon="-2.01426">
        <ele>9.7</ele>
        <time>2023-07-05T07:00:58Z</time>
      </trkpt>
      <trkpt lat="46.77381" lon="-2.01432">
        <ele>9.7</ele>
        <time>2023-07-05T07:00:59Z</time>
      </trkpt>
      <trkpt lat="46.77382" lon="-2.01452">
        <ele>9.6</ele>
        <time>2023-07-05T07:01:01Z</time>
      </trkpt>
      <trkpt lat="46.77382" lon="-2.01462">
        <ele>9.5</ele>
        <time>2023-07-05T07:01:02Z</time>
      </trkpt>
      <trkpt lat="46.77381" lon="-2.01481">
        <ele>9.3</ele>
        <time>2023-07-05T07:01:04Z</time>
      </trkpt>
      <trkpt lat="46.7738" lon="-2.0151">
        <ele>8.8</ele>
        <time>2023-07-05T07:01:08Z</time>
      </trkpt>
      <trkpt lat="46.77378" lon="-2.0153">
        <ele>8.3</ele>
        <time>2023-07-05T07:01:12Z</time>
      </trkpt>
      <trkpt lat="46.77376" lon="-2.01543">
        <ele>7.9</ele>
        <time>2023-07-05T07:01:16Z</time>
      </trkpt>
      <trkpt lat="46.77376" lon="-2.01547">
        <ele>7.8</ele>
        <time>2023-07-05T07:01:18Z</time>
      </trkpt>
      <trkpt lat="46.77373" lon="-2.01562">
        <ele>7.5</ele>
        <time>2023-07-05T07:01:24Z</time>
      </trkpt>
      <trkpt lat="46.77366" lon="-2.01583">
        <ele>7.5</ele>
        <time>2023-07-05T07:01:31Z</time>
      </trkpt>
      <trkpt lat="46.77361" lon="-2.01596">
        <ele>7.7</ele>
        <time>2023-07-05T07:01:36Z</time>
      </trkpt>
      <trkpt lat="46.77359" lon="-2.01607">
        <ele>7.8</ele>
        <time>2023-07-05T07:01:39Z</time>
      </trkpt>
      <trkpt lat="46.77358" lon="-2.01613">
        <ele>7.9</ele>
        <time>2023-07-05T07:01:41Z</time>
      </trkpt>
      <trkpt lat="46.77358" lon="-2.01618">
        <ele>8</ele>
        <time>2023-07-05T07:01:43Z</time>
      </trkpt>
      <trkpt lat="46.77358" lon="-2.01623">
        <ele>8.1</ele>
        <time>2023-07-05T07:01:45Z</time>
      </trkpt>
      <trkpt lat="46.77361" lon="-2.01642">
        <ele>8</ele>
        <time>2023-07-05T07:01:51Z</time>
      </trkpt>
      <trkpt lat="46.77372" lon="-2.01659">
        <ele>8.3</ele>
        <time>2023-07-05T07:01:56Z</time>
      </trkpt>
      <trkpt lat="46.77379" lon="-2.01673">
        <ele>8.6</ele>
        <time>2023-07-05T07:02:01Z</time>
      </trkpt>
      <trkpt lat="46.7739" lon="-2.01693">
        <ele>9</ele>
        <time>2023-07-05T07:02:07Z</time>
      </trkpt>
      <trkpt lat="46.774" lon="-2.01693">
        <ele>9.1</ele>
        <time>2023-07-05T07:02:12Z</time>
      </trkpt>
      <trkpt lat="46.77413" lon="-2.01701">
        <ele>8.9</ele>
        <time>2023-07-05T07:02:17Z</time>
      </trkpt>
      <trkpt lat="46.77428" lon="-2.01707">
        <ele>8.7</ele>
        <time>2023-07-05T07:02:22Z</time>
      </trkpt>
      <trkpt lat="46.77431" lon="-2.01708">
        <ele>8.7</ele>
        <time>2023-07-05T07:02:23Z</time>
      </trkpt>
      <trkpt lat="46.77437" lon="-2.01714">
        <ele>8.8</ele>
        <time>2023-07-05T07:02:25Z</time>
      </trkpt>
      <trkpt lat="46.77448" lon="-2.01729">
        <ele>9.4</ele>
        <time>2023-07-05T07:02:30Z</time>
      </trkpt>
      <trkpt lat="46.77456" lon="-2.01747">
        <ele>10.3</ele>
        <time>2023-07-05T07:02:35Z</time>
      </trkpt>
      <trkpt lat="46.77463" lon="-2.01775">
        <ele>11.2</ele>
        <time>2023-07-05T07:02:42Z</time>
      </trkpt>
      <trkpt lat="46.7747" lon="-2.01799">
        <ele>10.8</ele>
        <time>2023-07-05T07:02:48Z</time>
      </trkpt>
      <trkpt lat="46.77473" lon="-2.01819">
        <ele>9.6</ele>
        <time>2023-07-05T07:02:52Z</time>
      </trkpt>
      <trkpt lat="46.77476" lon="-2.01838">
        <ele>7.7</ele>
        <time>2023-07-05T07:02:56Z</time>
      </trkpt>
      <trkpt lat="46.77479" lon="-2.01843">
        <ele>7</ele>
        <time>2023-07-05T07:02:57Z</time>
      </trkpt>
      <trkpt lat="46.77489" lon="-2.01853">
        <ele>5.8</ele>
        <time>2023-07-05T07:02:59Z</time>
      </trkpt>
      <trkpt lat="46.77501" lon="-2.01864">
        <ele>5.1</ele>
        <time>2023-07-05T07:03:02Z</time>
      </trkpt>
      <trkpt lat="46.77512" lon="-2.01876">
        <ele>5.4</ele>
        <time>2023-07-05T07:03:07Z</time>
      </trkpt>
      <trkpt lat="46.7752" lon="-2.01884">
        <ele>5.5</ele>
        <time>2023-07-05T07:03:12Z</time>
      </trkpt>
      <trkpt lat="46.77523" lon="-2.01894">
        <ele>5.7</ele>
        <time>2023-07-05T07:03:17Z</time>
      </trkpt>
      <trkpt lat="46.77525" lon="-2.01908">
        <ele>5.9</ele>
        <time>2023-07-05T07:03:25Z</time>
      </trkpt>
      <trkpt lat="46.77524" lon="-2.01912">
        <ele>6</ele>
        <time>2023-07-05T07:03:28Z</time>
      </trkpt>
      <trkpt lat="46.77524" lon="-2.01913">
        <ele>6</ele>
        <time>2023-07-05T07:03:31Z</time>
      </trkpt>
      <trkpt lat="46.77524" lon="-2.01913">
        <ele>6.1</ele>
        <time>2023-07-05T07:03:37Z</time>
      </trkpt>
      <trkpt lat="46.77524" lon="-2.01913">
        <ele>6.1</ele>
        <time>2023-07-05T07:03:39Z</time>
      </trkpt>
      <trkpt lat="46.77524" lon="-2.01917">
        <ele>6.2</ele>
        <time>2023-07-05T07:03:42Z</time>
      </trkpt>
      <trkpt lat="46.77521" lon="-2.01923">
        <ele>6.3</ele>
        <time>2023-07-05T07:03:47Z</time>
      </trkpt>
      <trkpt lat="46.77519" lon="-2.01926">
        <ele>6.4</ele>
        <time>2023-07-05T07:03:49Z</time>
      </trkpt>
      <trkpt lat="46.77517" lon="-2.01929">
        <ele>6.4</ele>
        <time>2023-07-05T07:03:51Z</time>
      </trkpt>
      <trkpt lat="46.77517" lon="-2.01931">
        <ele>6.5</ele>
        <time>2023-07-05T07:03:52Z</time>
      </trkpt>
      <trkpt lat="46.77517" lon="-2.01931">
        <ele>6.6</ele>
        <time>2023-07-05T07:03:59Z</time>
      </trkpt>
      <trkpt lat="46.77517" lon="-2.01933">
        <ele>6.6</ele>
        <time>2023-07-05T07:04:01Z</time>
      </trkpt>
      <trkpt lat="46.77517" lon="-2.01936">
        <ele>6.7</ele>
        <time>2023-07-05T07:04:03Z</time>
      </trkpt>
      <trkpt lat="46.77517" lon="-2.01941">
        <ele>6.7</ele>
        <time>2023-07-05T07:04:06Z</time>
      </trkpt>
      <trkpt lat="46.77519" lon="-2.01947">
        <ele>6.8</ele>
        <time>2023-07-05T07:04:09Z</time>
      </trkpt>
      <trkpt lat="46.77521" lon="-2.01949">
        <ele>6.8</ele>
        <time>2023-07-05T07:04:11Z</time>
      </trkpt>
      <trkpt lat="46.77523" lon="-2.0195">
        <ele>6.8</ele>
        <time>2023-07-05T07:04:16Z</time>
      </trkpt>
      <trkpt lat="46.77524" lon="-2.01951">
        <ele>6.9</ele>
        <time>2023-07-05T07:04:17Z</time>
      </trkpt>
      <trkpt lat="46.77529" lon="-2.01957">
        <ele>6.9</ele>
        <time>2023-07-05T07:04:22Z</time>
      </trkpt>
      <trkpt lat="46.77533" lon="-2.01961">
        <ele>7</ele>
        <time>2023-07-05T07:04:28Z</time>
      </trkpt>
      <trkpt lat="46.77533" lon="-2.01962">
        <ele>7</ele>
        <time>2023-07-05T07:04:29Z</time>
      </trkpt>
      <trkpt lat="46.77536" lon="-2.01968">
        <ele>7.1</ele>
        <time>2023-07-05T07:04:34Z</time>
      </trkpt>
      <trkpt lat="46.77537" lon="-2.01969">
        <ele>7.1</ele>
        <time>2023-07-05T07:04:35Z</time>
      </trkpt>
      <trkpt lat="46.77541" lon="-2.01973">
        <ele>7.2</ele>
        <time>2023-07-05T07:04:40Z</time>
      </trkpt>
      <trkpt lat="46.77546" lon="-2.01977">
        <ele>7.2</ele>
        <time>2023-07-05T07:04:46Z</time>
      </trkpt>
      <trkpt lat="46.77552" lon="-2.01984">
        <ele>7.2</ele>
        <time>2023-07-05T07:04:51Z</time>
      </trkpt>
      <trkpt lat="46.77553" lon="-2.01985">
        <ele>7.2</ele>
        <time>2023-07-05T07:04:52Z</time>
      </trkpt>
      <trkpt lat="46.77552" lon="-2.01986">
        <ele>7.2</ele>
        <time>2023-07-05T07:04:55Z</time>
      </trkpt>
      <trkpt lat="46.77552" lon="-2.01986">
        <ele>7.3</ele>
        <time>2023-07-05T07:05:14Z</time>
      </trkpt>
      <trkpt lat="46.77553" lon="-2.01988">
        <ele>7.3</ele>
        <time>2023-07-05T07:05:17Z</time>
      </trkpt>
      <trkpt lat="46.77552" lon="-2.01993">
        <ele>7.3</ele>
        <time>2023-07-05T07:05:19Z</time>
      </trkpt>
      <trkpt lat="46.77558" lon="-2.02008">
        <ele>7.2</ele>
        <time>2023-07-05T07:05:22Z</time>
      </trkpt>
      <trkpt lat="46.7756" lon="-2.02013">
        <ele>7.1</ele>
        <time>2023-07-05T07:05:23Z</time>
      </trkpt>
      <trkpt lat="46.77561" lon="-2.02021">
        <ele>7</ele>
        <time>2023-07-05T07:05:24Z</time>
      </trkpt>
      <trkpt lat="46.77561" lon="-2.02028">
        <ele>7</ele>
        <time>2023-07-05T07:05:25Z</time>
      </trkpt>
      <trkpt lat="46.77564" lon="-2.02042">
        <ele>6.7</ele>
        <time>2023-07-05T07:05:27Z</time>
      </trkpt>
      <trkpt lat="46.77565" lon="-2.02046">
        <ele>6.6</ele>
        <time>2023-07-05T07:05:28Z</time>
      </trkpt>
      <trkpt lat="46.77567" lon="-2.02051">
        <ele>6.6</ele>
        <time>2023-07-05T07:05:30Z</time>
      </trkpt>
      <trkpt lat="46.7757" lon="-2.02057">
        <ele>6.6</ele>
        <time>2023-07-05T07:05:34Z</time>
      </trkpt>
      <trkpt lat="46.77569" lon="-2.02063">
        <ele>6.4</ele>
        <time>2023-07-05T07:05:36Z</time>
      </trkpt>
      <trkpt lat="46.77565" lon="-2.02077">
        <ele>6.2</ele>
        <time>2023-07-05T07:05:39Z</time>
      </trkpt>
      <trkpt lat="46.77567" lon="-2.02083">
        <ele>6.2</ele>
        <time>2023-07-05T07:05:40Z</time>
      </trkpt>
      <trkpt lat="46.77569" lon="-2.02089">
        <ele>6</ele>
        <time>2023-07-05T07:05:41Z</time>
      </trkpt>
      <trkpt lat="46.77575" lon="-2.02102">
        <ele>5.6</ele>
        <time>2023-07-05T07:05:43Z</time>
      </trkpt>
      <trkpt lat="46.77578" lon="-2.02109">
        <ele>5.5</ele>
        <time>2023-07-05T07:05:44Z</time>
      </trkpt>
      <trkpt lat="46.77583" lon="-2.02115">
        <ele>5.2</ele>
        <time>2023-07-05T07:05:45Z</time>
      </trkpt>
      <trkpt lat="46.77589" lon="-2.02127">
        <ele>5.1</ele>
        <time>2023-07-05T07:05:47Z</time>
      </trkpt>
      <trkpt lat="46.77594" lon="-2.0214">
        <ele>4.8</ele>
        <time>2023-07-05T07:05:50Z</time>
      </trkpt>
      <trkpt lat="46.77599" lon="-2.02153">
        <ele>4.6</ele>
        <time>2023-07-05T07:05:53Z</time>
      </trkpt>
      <trkpt lat="46.77602" lon="-2.02155">
        <ele>4.7</ele>
        <time>2023-07-05T07:05:55Z</time>
      </trkpt>
      <trkpt lat="46.77602" lon="-2.02154">
        <ele>4.8</ele>
        <time>2023-07-05T07:05:57Z</time>
      </trkpt>
      <trkpt lat="46.77603" lon="-2.02154">
        <ele>4.9</ele>
        <time>2023-07-05T07:06:00Z</time>
      </trkpt>
      <trkpt lat="46.77604" lon="-2.02152">
        <ele>5</ele>
        <time>2023-07-05T07:06:01Z</time>
      </trkpt>
      <trkpt lat="46.77607" lon="-2.02151">
        <ele>5.1</ele>
        <time>2023-07-05T07:06:02Z</time>
      </trkpt>
      <trkpt lat="46.77614" lon="-2.02149">
        <ele>5.3</ele>
        <time>2023-07-05T07:06:04Z</time>
      </trkpt>
      <trkpt lat="46.77631" lon="-2.02147">
        <ele>5.9</ele>
        <time>2023-07-05T07:06:08Z</time>
      </trkpt>
      <trkpt lat="46.77634" lon="-2.02147">
        <ele>6.1</ele>
        <time>2023-07-05T07:06:09Z</time>
      </trkpt>
      <trkpt lat="46.77637" lon="-2.02148">
        <ele>6.2</ele>
        <time>2023-07-05T07:06:11Z</time>
      </trkpt>
      <trkpt lat="46.77649" lon="-2.0216">
        <ele>6.2</ele>
        <time>2023-07-05T07:06:15Z</time>
      </trkpt>
      <trkpt lat="46.77652" lon="-2.02165">
        <ele>6.2</ele>
        <time>2023-07-05T07:06:16Z</time>
      </trkpt>
      <trkpt lat="46.77662" lon="-2.02186">
        <ele>6.1</ele>
        <time>2023-07-05T07:06:20Z</time>
      </trkpt>
      <trkpt lat="46.77667" lon="-2.02199">
        <ele>6</ele>
        <time>2023-07-05T07:06:23Z</time>
      </trkpt>
      <trkpt lat="46.7767" lon="-2.02201">
        <ele>6</ele>
        <time>2023-07-05T07:06:24Z</time>
      </trkpt>
      <trkpt lat="46.77679" lon="-2.02209">
        <ele>6.1</ele>
        <time>2023-07-05T07:06:28Z</time>
      </trkpt>
      <trkpt lat="46.77686" lon="-2.02216">
        <ele>6.3</ele>
        <time>2023-07-05T07:06:31Z</time>
      </trkpt>
      <trkpt lat="46.77693" lon="-2.02231">
        <ele>6.4</ele>
        <time>2023-07-05T07:06:34Z</time>
      </trkpt>
      <trkpt lat="46.777" lon="-2.02252">
        <ele>6.7</ele>
        <time>2023-07-05T07:06:38Z</time>
      </trkpt>
      <trkpt lat="46.77705" lon="-2.02262">
        <ele>6.9</ele>
        <time>2023-07-05T07:06:41Z</time>
      </trkpt>
      <trkpt lat="46.77707" lon="-2.02266">
        <ele>6.9</ele>
        <time>2023-07-05T07:06:42Z</time>
      </trkpt>
      <trkpt lat="46.77711" lon="-2.02285">
        <ele>6.8</ele>
        <time>2023-07-05T07:06:47Z</time>
      </trkpt>
      <trkpt lat="46.77713" lon="-2.02294">
        <ele>6.9</ele>
        <time>2023-07-05T07:06:50Z</time>
      </trkpt>
      <trkpt lat="46.77714" lon="-2.02296">
        <ele>7</ele>
        <time>2023-07-05T07:06:51Z</time>
      </trkpt>
      <trkpt lat="46.77722" lon="-2.02308">
        <ele>7</ele>
        <time>2023-07-05T07:06:56Z</time>
      </trkpt>
      <trkpt lat="46.77724" lon="-2.02312">
        <ele>7.1</ele>
        <time>2023-07-05T07:06:57Z</time>
      </trkpt>
      <trkpt lat="46.77729" lon="-2.02327">
        <ele>7.1</ele>
        <time>2023-07-05T07:07:02Z</time>
      </trkpt>
      <trkpt lat="46.7773" lon="-2.0233">
        <ele>7.1</ele>
        <time>2023-07-05T07:07:03Z</time>
      </trkpt>
      <trkpt lat="46.77735" lon="-2.02334">
        <ele>7.2</ele>
        <time>2023-07-05T07:07:06Z</time>
      </trkpt>
      <trkpt lat="46.77739" lon="-2.02336">
        <ele>7.3</ele>
        <time>2023-07-05T07:07:08Z</time>
      </trkpt>
      <trkpt lat="46.77742" lon="-2.02339">
        <ele>7.3</ele>
        <time>2023-07-05T07:07:09Z</time>
      </trkpt>
      <trkpt lat="46.77755" lon="-2.02353">
        <ele>7.4</ele>
        <time>2023-07-05T07:07:14Z</time>
      </trkpt>
      <trkpt lat="46.77766" lon="-2.02362">
        <ele>7.5</ele>
        <time>2023-07-05T07:07:19Z</time>
      </trkpt>
      <trkpt lat="46.77773" lon="-2.02374">
        <ele>7.6</ele>
        <time>2023-07-05T07:07:24Z</time>
      </trkpt>
      <trkpt lat="46.77779" lon="-2.02392">
        <ele>7.8</ele>
        <time>2023-07-05T07:07:28Z</time>
      </trkpt>
      <trkpt lat="46.7778" lon="-2.02397">
        <ele>7.6</ele>
        <time>2023-07-05T07:07:29Z</time>
      </trkpt>
      <trkpt lat="46.77788" lon="-2.02423">
        <ele>7</ele>
        <time>2023-07-05T07:07:33Z</time>
      </trkpt>
      <trkpt lat="46.77795" lon="-2.02448">
        <ele>6.6</ele>
        <time>2023-07-05T07:07:36Z</time>
      </trkpt>
      <trkpt lat="46.77803" lon="-2.0247">
        <ele>6.7</ele>
        <time>2023-07-05T07:07:39Z</time>
      </trkpt>
      <trkpt lat="46.77817" lon="-2.02497">
        <ele>7.1</ele>
        <time>2023-07-05T07:07:44Z</time>
      </trkpt>
      <trkpt lat="46.77831" lon="-2.02526">
        <ele>7.8</ele>
        <time>2023-07-05T07:07:50Z</time>
      </trkpt>
      <trkpt lat="46.77844" lon="-2.02547">
        <ele>8.2</ele>
        <time>2023-07-05T07:07:56Z</time>
      </trkpt>
      <trkpt lat="46.77848" lon="-2.02557">
        <ele>8.3</ele>
        <time>2023-07-05T07:07:58Z</time>
      </trkpt>
      <trkpt lat="46.77849" lon="-2.02569">
        <ele>8.4</ele>
        <time>2023-07-05T07:08:00Z</time>
      </trkpt>
      <trkpt lat="46.77848" lon="-2.0259">
        <ele>8.6</ele>
        <time>2023-07-05T07:08:04Z</time>
      </trkpt>
      <trkpt lat="46.77858" lon="-2.02602">
        <ele>8.4</ele>
        <time>2023-07-05T07:08:08Z</time>
      </trkpt>
      <trkpt lat="46.77869" lon="-2.02617">
        <ele>8.2</ele>
        <time>2023-07-05T07:08:13Z</time>
      </trkpt>
      <trkpt lat="46.77874" lon="-2.02621">
        <ele>8.1</ele>
        <time>2023-07-05T07:08:15Z</time>
      </trkpt>
      <trkpt lat="46.77878" lon="-2.02622">
        <ele>8</ele>
        <time>2023-07-05T07:08:16Z</time>
      </trkpt>
      <trkpt lat="46.77882" lon="-2.02624">
        <ele>7.9</ele>
        <time>2023-07-05T07:08:17Z</time>
      </trkpt>
      <trkpt lat="46.77895" lon="-2.02629">
        <ele>7.6</ele>
        <time>2023-07-05T07:08:20Z</time>
      </trkpt>
      <trkpt lat="46.77909" lon="-2.02632">
        <ele>7.4</ele>
        <time>2023-07-05T07:08:24Z</time>
      </trkpt>
      <trkpt lat="46.77917" lon="-2.02638">
        <ele>7.3</ele>
        <time>2023-07-05T07:08:26Z</time>
      </trkpt>
      <trkpt lat="46.77923" lon="-2.02646">
        <ele>7.2</ele>
        <time>2023-07-05T07:08:28Z</time>
      </trkpt>
      <trkpt lat="46.77931" lon="-2.02667">
        <ele>7</ele>
        <time>2023-07-05T07:08:32Z</time>
      </trkpt>
      <trkpt lat="46.77939" lon="-2.0268">
        <ele>7</ele>
        <time>2023-07-05T07:08:35Z</time>
      </trkpt>
      <trkpt lat="46.77944" lon="-2.02693">
        <ele>7</ele>
        <time>2023-07-05T07:08:37Z</time>
      </trkpt>
      <trkpt lat="46.77949" lon="-2.02712">
        <ele>7.1</ele>
        <time>2023-07-05T07:08:40Z</time>
      </trkpt>
      <trkpt lat="46.77951" lon="-2.02722">
        <ele>7.2</ele>
        <time>2023-07-05T07:08:42Z</time>
      </trkpt>
      <trkpt lat="46.77954" lon="-2.0273">
        <ele>7.3</ele>
        <time>2023-07-05T07:08:44Z</time>
      </trkpt>
      <trkpt lat="46.77956" lon="-2.02732">
        <ele>7.3</ele>
        <time>2023-07-05T07:08:45Z</time>
      </trkpt>
      <trkpt lat="46.77959" lon="-2.02733">
        <ele>7.3</ele>
        <time>2023-07-05T07:08:46Z</time>
      </trkpt>
      <trkpt lat="46.77967" lon="-2.02736">
        <ele>7.4</ele>
        <time>2023-07-05T07:08:48Z</time>
      </trkpt>
      <trkpt lat="46.77978" lon="-2.02747">
        <ele>7.5</ele>
        <time>2023-07-05T07:08:52Z</time>
      </trkpt>
      <trkpt lat="46.77979" lon="-2.02751">
        <ele>7.6</ele>
        <time>2023-07-05T07:08:53Z</time>
      </trkpt>
      <trkpt lat="46.77984" lon="-2.02759">
        <ele>7.6</ele>
        <time>2023-07-05T07:08:55Z</time>
      </trkpt>
      <trkpt lat="46.77993" lon="-2.02775">
        <ele>7.8</ele>
        <time>2023-07-05T07:08:59Z</time>
      </trkpt>
      <trkpt lat="46.78002" lon="-2.02796">
        <ele>7.9</ele>
        <time>2023-07-05T07:09:04Z</time>
      </trkpt>
      <trkpt lat="46.78009" lon="-2.02814">
        <ele>7.8</ele>
        <time>2023-07-05T07:09:09Z</time>
      </trkpt>
      <trkpt lat="46.78013" lon="-2.02816">
        <ele>7.8</ele>
        <time>2023-07-05T07:09:11Z</time>
      </trkpt>
      <trkpt lat="46.78019" lon="-2.02819">
        <ele>7.7</ele>
        <time>2023-07-05T07:09:13Z</time>
      </trkpt>
      <trkpt lat="46.78021" lon="-2.02822">
        <ele>7.6</ele>
        <time>2023-07-05T07:09:14Z</time>
      </trkpt>
      <trkpt lat="46.7803" lon="-2.02834">
        <ele>7.5</ele>
        <time>2023-07-05T07:09:17Z</time>
      </trkpt>
      <trkpt lat="46.7804" lon="-2.02858">
        <ele>7.6</ele>
        <time>2023-07-05T07:09:22Z</time>
      </trkpt>
      <trkpt lat="46.78042" lon="-2.02884">
        <ele>7.9</ele>
        <time>2023-07-05T07:09:27Z</time>
      </trkpt>
      <trkpt lat="46.78044" lon="-2.02904">
        <ele>8.1</ele>
        <time>2023-07-05T07:09:32Z</time>
      </trkpt>
      <trkpt lat="46.78047" lon="-2.02908">
        <ele>8.2</ele>
        <time>2023-07-05T07:09:34Z</time>
      </trkpt>
      <trkpt lat="46.78049" lon="-2.02912">
        <ele>8.3</ele>
        <time>2023-07-05T07:09:35Z</time>
      </trkpt>
      <trkpt lat="46.78056" lon="-2.02918">
        <ele>8.5</ele>
        <time>2023-07-05T07:09:37Z</time>
      </trkpt>
      <trkpt lat="46.78065" lon="-2.02919">
        <ele>8.5</ele>
        <time>2023-07-05T07:09:39Z</time>
      </trkpt>
      <trkpt lat="46.78072" lon="-2.02925">
        <ele>8.6</ele>
        <time>2023-07-05T07:09:41Z</time>
      </trkpt>
      <trkpt lat="46.78075" lon="-2.02929">
        <ele>8.7</ele>
        <time>2023-07-05T07:09:42Z</time>
      </trkpt>
      <trkpt lat="46.78079" lon="-2.02937">
        <ele>8.9</ele>
        <time>2023-07-05T07:09:44Z</time>
      </trkpt>
      <trkpt lat="46.78085" lon="-2.02951">
        <ele>9.3</ele>
        <time>2023-07-05T07:09:48Z</time>
      </trkpt>
      <trkpt lat="46.78093" lon="-2.02964">
        <ele>9.6</ele>
        <time>2023-07-05T07:09:53Z</time>
      </trkpt>
      <trkpt lat="46.78093" lon="-2.02965">
        <ele>9.6</ele>
        <time>2023-07-05T07:09:58Z</time>
      </trkpt>
      <trkpt lat="46.78094" lon="-2.02967">
        <ele>9.7</ele>
        <time>2023-07-05T07:10:03Z</time>
      </trkpt>
      <trkpt lat="46.78095" lon="-2.02971">
        <ele>9.8</ele>
        <time>2023-07-05T07:10:05Z</time>
      </trkpt>
      <trkpt lat="46.78098" lon="-2.02991">
        <ele>10.7</ele>
        <time>2023-07-05T07:10:11Z</time>
      </trkpt>
      <trkpt lat="46.78103" lon="-2.03007">
        <ele>11.3</ele>
        <time>2023-07-05T07:10:16Z</time>
      </trkpt>
      <trkpt lat="46.78115" lon="-2.03014">
        <ele>11.6</ele>
        <time>2023-07-05T07:10:20Z</time>
      </trkpt>
      <trkpt lat="46.78119" lon="-2.03026">
        <ele>11.8</ele>
        <time>2023-07-05T07:10:23Z</time>
      </trkpt>
      <trkpt lat="46.78122" lon="-2.03039">
        <ele>11.8</ele>
        <time>2023-07-05T07:10:27Z</time>
      </trkpt>
      <trkpt lat="46.78126" lon="-2.03056">
        <ele>11.6</ele>
        <time>2023-07-05T07:10:31Z</time>
      </trkpt>
      <trkpt lat="46.78137" lon="-2.03074">
        <ele>11.7</ele>
        <time>2023-07-05T07:10:35Z</time>
      </trkpt>
      <trkpt lat="46.7815" lon="-2.03088">
        <ele>11.7</ele>
        <time>2023-07-05T07:10:41Z</time>
      </trkpt>
      <trkpt lat="46.78161" lon="-2.031">
        <ele>11</ele>
        <time>2023-07-05T07:10:45Z</time>
      </trkpt>
      <trkpt lat="46.78167" lon="-2.03108">
        <ele>10.7</ele>
        <time>2023-07-05T07:10:47Z</time>
      </trkpt>
      <trkpt lat="46.78169" lon="-2.03118">
        <ele>10.6</ele>
        <time>2023-07-05T07:10:49Z</time>
      </trkpt>
      <trkpt lat="46.78172" lon="-2.03134">
        <ele>10.6</ele>
        <time>2023-07-05T07:10:53Z</time>
      </trkpt>
      <trkpt lat="46.78184" lon="-2.03156">
        <ele>10.2</ele>
        <time>2023-07-05T07:10:59Z</time>
      </trkpt>
      <trkpt lat="46.7819" lon="-2.03167">
        <ele>9.8</ele>
        <time>2023-07-05T07:11:01Z</time>
      </trkpt>
      <trkpt lat="46.78194" lon="-2.03177">
        <ele>9.5</ele>
        <time>2023-07-05T07:11:03Z</time>
      </trkpt>
      <trkpt lat="46.78203" lon="-2.03196">
        <ele>8.9</ele>
        <time>2023-07-05T07:11:07Z</time>
      </trkpt>
      <trkpt lat="46.78207" lon="-2.03202">
        <ele>8.8</ele>
        <time>2023-07-05T07:11:08Z</time>
      </trkpt>
      <trkpt lat="46.7821" lon="-2.03208">
        <ele>8.8</ele>
        <time>2023-07-05T07:11:09Z</time>
      </trkpt>
      <trkpt lat="46.78213" lon="-2.03221">
        <ele>8.9</ele>
        <time>2023-07-05T07:11:11Z</time>
      </trkpt>
      <trkpt lat="46.78218" lon="-2.03258">
        <ele>10.6</ele>
        <time>2023-07-05T07:11:18Z</time>
      </trkpt>
      <trkpt lat="46.7822" lon="-2.03277">
        <ele>11.2</ele>
        <time>2023-07-05T07:11:23Z</time>
      </trkpt>
      <trkpt lat="46.78221" lon="-2.03292">
        <ele>10.9</ele>
        <time>2023-07-05T07:11:27Z</time>
      </trkpt>
      <trkpt lat="46.78223" lon="-2.03297">
        <ele>10.7</ele>
        <time>2023-07-05T07:11:28Z</time>
      </trkpt>
      <trkpt lat="46.78229" lon="-2.03305">
        <ele>9.8</ele>
        <time>2023-07-05T07:11:30Z</time>
      </trkpt>
      <trkpt lat="46.78232" lon="-2.03308">
        <ele>9.4</ele>
        <time>2023-07-05T07:11:31Z</time>
      </trkpt>
      <trkpt lat="46.78234" lon="-2.03319">
        <ele>8.4</ele>
        <time>2023-07-05T07:11:33Z</time>
      </trkpt>
      <trkpt lat="46.78235" lon="-2.03355">
        <ele>5.8</ele>
        <time>2023-07-05T07:11:37Z</time>
      </trkpt>
      <trkpt lat="46.78234" lon="-2.03375">
        <ele>5.4</ele>
        <time>2023-07-05T07:11:39Z</time>
      </trkpt>
      <trkpt lat="46.78232" lon="-2.03382">
        <ele>5.4</ele>
        <time>2023-07-05T07:11:40Z</time>
      </trkpt>
      <trkpt lat="46.78228" lon="-2.034">
        <ele>5.5</ele>
        <time>2023-07-05T07:11:43Z</time>
      </trkpt>
      <trkpt lat="46.78228" lon="-2.03405">
        <ele>5.6</ele>
        <time>2023-07-05T07:11:44Z</time>
      </trkpt>
      <trkpt lat="46.78225" lon="-2.03424">
        <ele>5.9</ele>
        <time>2023-07-05T07:11:48Z</time>
      </trkpt>
      <trkpt lat="46.78225" lon="-2.03447">
        <ele>6.3</ele>
        <time>2023-07-05T07:11:53Z</time>
      </trkpt>
      <trkpt lat="46.78225" lon="-2.03462">
        <ele>6.5</ele>
        <time>2023-07-05T07:11:56Z</time>
      </trkpt>
      <trkpt lat="46.78224" lon="-2.03473">
        <ele>6.7</ele>
        <time>2023-07-05T07:11:59Z</time>
      </trkpt>
      <trkpt lat="46.78226" lon="-2.03488">
        <ele>6.9</ele>
        <time>2023-07-05T07:12:03Z</time>
      </trkpt>
      <trkpt lat="46.78231" lon="-2.03498">
        <ele>6.7</ele>
        <time>2023-07-05T07:12:05Z</time>
      </trkpt>
      <trkpt lat="46.78233" lon="-2.03506">
        <ele>6.4</ele>
        <time>2023-07-05T07:12:06Z</time>
      </trkpt>
      <trkpt lat="46.78234" lon="-2.03516">
        <ele>5.8</ele>
        <time>2023-07-05T07:12:07Z</time>
      </trkpt>
      <trkpt lat="46.78238" lon="-2.03534">
        <ele>5</ele>
        <time>2023-07-05T07:12:09Z</time>
      </trkpt>
      <trkpt lat="46.78239" lon="-2.03551">
        <ele>4.6</ele>
        <time>2023-07-05T07:12:11Z</time>
      </trkpt>
      <trkpt lat="46.78242" lon="-2.03565">
        <ele>4.7</ele>
        <time>2023-07-05T07:12:13Z</time>
      </trkpt>
      <trkpt lat="46.78248" lon="-2.03578">
        <ele>5.2</ele>
        <time>2023-07-05T07:12:16Z</time>
      </trkpt>
      <trkpt lat="46.78253" lon="-2.03583">
        <ele>5.5</ele>
        <time>2023-07-05T07:12:18Z</time>
      </trkpt>
      <trkpt lat="46.78258" lon="-2.03591">
        <ele>5.6</ele>
        <time>2023-07-05T07:12:20Z</time>
      </trkpt>
      <trkpt lat="46.78261" lon="-2.03595">
        <ele>5.6</ele>
        <time>2023-07-05T07:12:21Z</time>
      </trkpt>
      <trkpt lat="46.78271" lon="-2.03598">
        <ele>5.4</ele>
        <time>2023-07-05T07:12:23Z</time>
      </trkpt>
      <trkpt lat="46.78285" lon="-2.03597">
        <ele>5.2</ele>
        <time>2023-07-05T07:12:27Z</time>
      </trkpt>
      <trkpt lat="46.78293" lon="-2.03596">
        <ele>5.4</ele>
        <time>2023-07-05T07:12:32Z</time>
      </trkpt>
      <trkpt lat="46.78295" lon="-2.03596">
        <ele>5.5</ele>
        <time>2023-07-05T07:12:33Z</time>
      </trkpt>
      <trkpt lat="46.78301" lon="-2.03596">
        <ele>5.8</ele>
        <time>2023-07-05T07:12:35Z</time>
      </trkpt>
      <trkpt lat="46.78308" lon="-2.03593">
        <ele>6.1</ele>
        <time>2023-07-05T07:12:37Z</time>
      </trkpt>
      <trkpt lat="46.7831" lon="-2.03591">
        <ele>6.2</ele>
        <time>2023-07-05T07:12:38Z</time>
      </trkpt>
      <trkpt lat="46.78314" lon="-2.03586">
        <ele>6.3</ele>
        <time>2023-07-05T07:12:40Z</time>
      </trkpt>
      <trkpt lat="46.7832" lon="-2.03583">
        <ele>6.4</ele>
        <time>2023-07-05T07:12:42Z</time>
      </trkpt>
      <trkpt lat="46.78333" lon="-2.03585">
        <ele>6.6</ele>
        <time>2023-07-05T07:12:46Z</time>
      </trkpt>
      <trkpt lat="46.78336" lon="-2.03587">
        <ele>6.7</ele>
        <time>2023-07-05T07:12:47Z</time>
      </trkpt>
      <trkpt lat="46.7834" lon="-2.03591">
        <ele>6.8</ele>
        <time>2023-07-05T07:12:49Z</time>
      </trkpt>
      <trkpt lat="46.78344" lon="-2.03598">
        <ele>6.8</ele>
        <time>2023-07-05T07:12:51Z</time>
      </trkpt>
      <trkpt lat="46.78344" lon="-2.03602">
        <ele>6.9</ele>
        <time>2023-07-05T07:12:52Z</time>
      </trkpt>
      <trkpt lat="46.78345" lon="-2.03603">
        <ele>6.9</ele>
        <time>2023-07-05T07:12:53Z</time>
      </trkpt>
      <trkpt lat="46.78349" lon="-2.03607">
        <ele>6.9</ele>
        <time>2023-07-05T07:12:55Z</time>
      </trkpt>
      <trkpt lat="46.78352" lon="-2.03611">
        <ele>6.9</ele>
        <time>2023-07-05T07:12:57Z</time>
      </trkpt>
      <trkpt lat="46.78358" lon="-2.03617">
        <ele>6.8</ele>
        <time>2023-07-05T07:13:00Z</time>
      </trkpt>
      <trkpt lat="46.78366" lon="-2.03626">
        <ele>6.6</ele>
        <time>2023-07-05T07:13:05Z</time>
      </trkpt>
      <trkpt lat="46.7837" lon="-2.03629">
        <ele>6.4</ele>
        <time>2023-07-05T07:13:10Z</time>
      </trkpt>
      <trkpt lat="46.78374" lon="-2.03632">
        <ele>6.2</ele>
        <time>2023-07-05T07:13:15Z</time>
      </trkpt>
      <trkpt lat="46.78375" lon="-2.03635">
        <ele>6</ele>
        <time>2023-07-05T07:13:29Z</time>
      </trkpt>
      <trkpt lat="46.78383" lon="-2.03647">
        <ele>5.3</ele>
        <time>2023-07-05T07:13:34Z</time>
      </trkpt>
      <trkpt lat="46.78391" lon="-2.03663">
        <ele>5.8</ele>
        <time>2023-07-05T07:13:39Z</time>
      </trkpt>
      <trkpt lat="46.78392" lon="-2.03683">
        <ele>5.9</ele>
        <time>2023-07-05T07:13:44Z</time>
      </trkpt>
      <trkpt lat="46.78391" lon="-2.03707">
        <ele>5.9</ele>
        <time>2023-07-05T07:13:49Z</time>
      </trkpt>
      <trkpt lat="46.78384" lon="-2.03717">
        <ele>5.7</ele>
        <time>2023-07-05T07:13:52Z</time>
      </trkpt>
      <trkpt lat="46.78367" lon="-2.03726">
        <ele>5.2</ele>
        <time>2023-07-05T07:13:56Z</time>
      </trkpt>
      <trkpt lat="46.78356" lon="-2.03737">
        <ele>5.1</ele>
        <time>2023-07-05T07:14:00Z</time>
      </trkpt>
      <trkpt lat="46.78345" lon="-2.03744">
        <ele>5.1</ele>
        <time>2023-07-05T07:14:03Z</time>
      </trkpt>
      <trkpt lat="46.78342" lon="-2.03747">
        <ele>5.2</ele>
        <time>2023-07-05T07:14:04Z</time>
      </trkpt>
      <trkpt lat="46.78339" lon="-2.03754">
        <ele>5.3</ele>
        <time>2023-07-05T07:14:06Z</time>
      </trkpt>
      <trkpt lat="46.78339" lon="-2.03757">
        <ele>5.3</ele>
        <time>2023-07-05T07:14:07Z</time>
      </trkpt>
      <trkpt lat="46.78334" lon="-2.03772">
        <ele>5.6</ele>
        <time>2023-07-05T07:14:10Z</time>
      </trkpt>
      <trkpt lat="46.78332" lon="-2.03776">
        <ele>5.7</ele>
        <time>2023-07-05T07:14:11Z</time>
      </trkpt>
      <trkpt lat="46.78328" lon="-2.0379">
        <ele>6.1</ele>
        <time>2023-07-05T07:14:14Z</time>
      </trkpt>
      <trkpt lat="46.78318" lon="-2.03806">
        <ele>6.4</ele>
        <time>2023-07-05T07:14:18Z</time>
      </trkpt>
      <trkpt lat="46.78306" lon="-2.03826">
        <ele>6.6</ele>
        <time>2023-07-05T07:14:23Z</time>
      </trkpt>
      <trkpt lat="46.783" lon="-2.03831">
        <ele>6.6</ele>
        <time>2023-07-05T07:14:25Z</time>
      </trkpt>
      <trkpt lat="46.78294" lon="-2.03835">
        <ele>6.6</ele>
        <time>2023-07-05T07:14:26Z</time>
      </trkpt>
      <trkpt lat="46.78288" lon="-2.03843">
        <ele>6.6</ele>
        <time>2023-07-05T07:14:28Z</time>
      </trkpt>
      <trkpt lat="46.78281" lon="-2.03849">
        <ele>6.7</ele>
        <time>2023-07-05T07:14:30Z</time>
      </trkpt>
      <trkpt lat="46.78279" lon="-2.03854">
        <ele>6.8</ele>
        <time>2023-07-05T07:14:31Z</time>
      </trkpt>
      <trkpt lat="46.7827" lon="-2.03875">
        <ele>7.7</ele>
        <time>2023-07-05T07:14:36Z</time>
      </trkpt>
      <trkpt lat="46.78268" lon="-2.03882">
        <ele>8</ele>
        <time>2023-07-05T07:14:38Z</time>
      </trkpt>
      <trkpt lat="46.78268" lon="-2.03893">
        <ele>9.4</ele>
        <time>2023-07-05T07:14:41Z</time>
      </trkpt>
      <trkpt lat="46.78268" lon="-2.03908">
        <ele>10.2</ele>
        <time>2023-07-05T07:14:46Z</time>
      </trkpt>
      <trkpt lat="46.78269" lon="-2.03928">
        <ele>11.1</ele>
        <time>2023-07-05T07:14:51Z</time>
      </trkpt>
      <trkpt lat="46.7827" lon="-2.03947">
        <ele>11.8</ele>
        <time>2023-07-05T07:14:55Z</time>
      </trkpt>
      <trkpt lat="46.78274" lon="-2.03966">
        <ele>12.5</ele>
        <time>2023-07-05T07:15:00Z</time>
      </trkpt>
      <trkpt lat="46.78278" lon="-2.03981">
        <ele>12.7</ele>
        <time>2023-07-05T07:15:04Z</time>
      </trkpt>
      <trkpt lat="46.78281" lon="-2.03992">
        <ele>12.8</ele>
        <time>2023-07-05T07:15:06Z</time>
      </trkpt>
      <trkpt lat="46.78285" lon="-2.04">
        <ele>12.8</ele>
        <time>2023-07-05T07:15:08Z</time>
      </trkpt>
      <trkpt lat="46.78293" lon="-2.04008">
        <ele>12.6</ele>
        <time>2023-07-05T07:15:11Z</time>
      </trkpt>
      <trkpt lat="46.78296" lon="-2.04012">
        <ele>12.4</ele>
        <time>2023-07-05T07:15:12Z</time>
      </trkpt>
      <trkpt lat="46.783" lon="-2.04017">
        <ele>12.1</ele>
        <time>2023-07-05T07:15:14Z</time>
      </trkpt>
      <trkpt lat="46.78303" lon="-2.04019">
        <ele>12</ele>
        <time>2023-07-05T07:15:15Z</time>
      </trkpt>
      <trkpt lat="46.78311" lon="-2.04031">
        <ele>11.3</ele>
        <time>2023-07-05T07:15:18Z</time>
      </trkpt>
      <trkpt lat="46.7832" lon="-2.0404">
        <ele>11.1</ele>
        <time>2023-07-05T07:15:21Z</time>
      </trkpt>
      <trkpt lat="46.78322" lon="-2.0404">
        <ele>11.1</ele>
        <time>2023-07-05T07:15:22Z</time>
      </trkpt>
      <trkpt lat="46.78323" lon="-2.04041">
        <ele>11.1</ele>
        <time>2023-07-05T07:15:23Z</time>
      </trkpt>
      <trkpt lat="46.78328" lon="-2.04045">
        <ele>11</ele>
        <time>2023-07-05T07:15:25Z</time>
      </trkpt>
      <trkpt lat="46.78334" lon="-2.04061">
        <ele>11.1</ele>
        <time>2023-07-05T07:15:30Z</time>
      </trkpt>
      <trkpt lat="46.78338" lon="-2.0407">
        <ele>11</ele>
        <time>2023-07-05T07:15:33Z</time>
      </trkpt>
      <trkpt lat="46.7834" lon="-2.04072">
        <ele>11</ele>
        <time>2023-07-05T07:15:34Z</time>
      </trkpt>
      <trkpt lat="46.78349" lon="-2.04083">
        <ele>10.3</ele>
        <time>2023-07-05T07:15:39Z</time>
      </trkpt>
      <trkpt lat="46.78351" lon="-2.04088">
        <ele>10</ele>
        <time>2023-07-05T07:15:41Z</time>
      </trkpt>
      <trkpt lat="46.78353" lon="-2.04092">
        <ele>9.7</ele>
        <time>2023-07-05T07:15:44Z</time>
      </trkpt>
      <trkpt lat="46.78353" lon="-2.04094">
        <ele>9.5</ele>
        <time>2023-07-05T07:15:45Z</time>
      </trkpt>
      <trkpt lat="46.78354" lon="-2.041">
        <ele>9.2</ele>
        <time>2023-07-05T07:15:47Z</time>
      </trkpt>
      <trkpt lat="46.78354" lon="-2.04103">
        <ele>9.1</ele>
        <time>2023-07-05T07:15:48Z</time>
      </trkpt>
      <trkpt lat="46.78354" lon="-2.04105">
        <ele>9.2</ele>
        <time>2023-07-05T07:15:49Z</time>
      </trkpt>
      <trkpt lat="46.78355" lon="-2.0411">
        <ele>9.4</ele>
        <time>2023-07-05T07:15:51Z</time>
      </trkpt>
      <trkpt lat="46.78356" lon="-2.04115">
        <ele>9.6</ele>
        <time>2023-07-05T07:15:53Z</time>
      </trkpt>
      <trkpt lat="46.78358" lon="-2.04121">
        <ele>9.9</ele>
        <time>2023-07-05T07:15:56Z</time>
      </trkpt>
      <trkpt lat="46.78358" lon="-2.04126">
        <ele>10.2</ele>
        <time>2023-07-05T07:15:59Z</time>
      </trkpt>
      <trkpt lat="46.78361" lon="-2.04139">
        <ele>10.8</ele>
        <time>2023-07-05T07:16:05Z</time>
      </trkpt>
      <trkpt lat="46.78361" lon="-2.04154">
        <ele>11.2</ele>
        <time>2023-07-05T07:16:09Z</time>
      </trkpt>
      <trkpt lat="46.78362" lon="-2.04157">
        <ele>11.3</ele>
        <time>2023-07-05T07:16:10Z</time>
      </trkpt>
      <trkpt lat="46.78364" lon="-2.04163">
        <ele>11.4</ele>
        <time>2023-07-05T07:16:12Z</time>
      </trkpt>
      <trkpt lat="46.78366" lon="-2.0417">
        <ele>11.5</ele>
        <time>2023-07-05T07:16:14Z</time>
      </trkpt>
      <trkpt lat="46.7837" lon="-2.04195">
        <ele>11.5</ele>
        <time>2023-07-05T07:16:19Z</time>
      </trkpt>
      <trkpt lat="46.78369" lon="-2.04201">
        <ele>11.5</ele>
        <time>2023-07-05T07:16:20Z</time>
      </trkpt>
      <trkpt lat="46.78369" lon="-2.0422">
        <ele>11.6</ele>
        <time>2023-07-05T07:16:23Z</time>
      </trkpt>
      <trkpt lat="46.78374" lon="-2.04245">
        <ele>12.7</ele>
        <time>2023-07-05T07:16:28Z</time>
      </trkpt>
      <trkpt lat="46.78374" lon="-2.04258">
        <ele>13.4</ele>
        <time>2023-07-05T07:16:32Z</time>
      </trkpt>
      <trkpt lat="46.78374" lon="-2.04263">
        <ele>13.7</ele>
        <time>2023-07-05T07:16:34Z</time>
      </trkpt>
      <trkpt lat="46.78377" lon="-2.04271">
        <ele>14</ele>
        <time>2023-07-05T07:16:37Z</time>
      </trkpt>
      <trkpt lat="46.78379" lon="-2.04282">
        <ele>14.3</ele>
        <time>2023-07-05T07:16:40Z</time>
      </trkpt>
      <trkpt lat="46.78381" lon="-2.04289">
        <ele>14.4</ele>
        <time>2023-07-05T07:16:43Z</time>
      </trkpt>
      <trkpt lat="46.78382" lon="-2.04291">
        <ele>14.3</ele>
        <time>2023-07-05T07:16:44Z</time>
      </trkpt>
      <trkpt lat="46.78387" lon="-2.04299">
        <ele>14.2</ele>
        <time>2023-07-05T07:16:47Z</time>
      </trkpt>
      <trkpt lat="46.78389" lon="-2.04308">
        <ele>13.8</ele>
        <time>2023-07-05T07:16:49Z</time>
      </trkpt>
      <trkpt lat="46.7839" lon="-2.04322">
        <ele>13.4</ele>
        <time>2023-07-05T07:16:51Z</time>
      </trkpt>
      <trkpt lat="46.78392" lon="-2.04336">
        <ele>13.3</ele>
        <time>2023-07-05T07:16:53Z</time>
      </trkpt>
      <trkpt lat="46.78393" lon="-2.04347">
        <ele>13.6</ele>
        <time>2023-07-05T07:16:56Z</time>
      </trkpt>
      <trkpt lat="46.78394" lon="-2.0435">
        <ele>13.7</ele>
        <time>2023-07-05T07:16:57Z</time>
      </trkpt>
      <trkpt lat="46.78395" lon="-2.0436">
        <ele>14</ele>
        <time>2023-07-05T07:17:00Z</time>
      </trkpt>
      <trkpt lat="46.78399" lon="-2.04383">
        <ele>14.7</ele>
        <time>2023-07-05T07:17:06Z</time>
      </trkpt>
      <trkpt lat="46.78404" lon="-2.04405">
        <ele>15</ele>
        <time>2023-07-05T07:17:11Z</time>
      </trkpt>
      <trkpt lat="46.78406" lon="-2.04413">
        <ele>15.2</ele>
        <time>2023-07-05T07:17:13Z</time>
      </trkpt>
      <trkpt lat="46.78408" lon="-2.04416">
        <ele>15.3</ele>
        <time>2023-07-05T07:17:14Z</time>
      </trkpt>
      <trkpt lat="46.78409" lon="-2.04419">
        <ele>15.4</ele>
        <time>2023-07-05T07:17:15Z</time>
      </trkpt>
      <trkpt lat="46.7841" lon="-2.04424">
        <ele>15.6</ele>
        <time>2023-07-05T07:17:17Z</time>
      </trkpt>
      <trkpt lat="46.78413" lon="-2.04433">
        <ele>16.1</ele>
        <time>2023-07-05T07:17:21Z</time>
      </trkpt>
      <trkpt lat="46.78414" lon="-2.04435">
        <ele>16.2</ele>
        <time>2023-07-05T07:17:22Z</time>
      </trkpt>
      <trkpt lat="46.78412" lon="-2.0445">
        <ele>16.8</ele>
        <time>2023-07-05T07:17:27Z</time>
      </trkpt>
      <trkpt lat="46.7841" lon="-2.04464">
        <ele>17.2</ele>
        <time>2023-07-05T07:17:31Z</time>
      </trkpt>
      <trkpt lat="46.7841" lon="-2.0448">
        <ele>17.3</ele>
        <time>2023-07-05T07:17:35Z</time>
      </trkpt>
      <trkpt lat="46.7841" lon="-2.04485">
        <ele>17.3</ele>
        <time>2023-07-05T07:17:36Z</time>
      </trkpt>
      <trkpt lat="46.78413" lon="-2.04509">
        <ele>17</ele>
        <time>2023-07-05T07:17:42Z</time>
      </trkpt>
      <trkpt lat="46.78415" lon="-2.04519">
        <ele>16.7</ele>
        <time>2023-07-05T07:17:44Z</time>
      </trkpt>
      <trkpt lat="46.78413" lon="-2.04535">
        <ele>16.3</ele>
        <time>2023-07-05T07:17:46Z</time>
      </trkpt>
      <trkpt lat="46.78402" lon="-2.0455">
        <ele>16.8</ele>
        <time>2023-07-05T07:17:49Z</time>
      </trkpt>
      <trkpt lat="46.78394" lon="-2.04561">
        <ele>17</ele>
        <time>2023-07-05T07:17:53Z</time>
      </trkpt>
      <trkpt lat="46.78387" lon="-2.04565">
        <ele>17.1</ele>
        <time>2023-07-05T07:17:56Z</time>
      </trkpt>
      <trkpt lat="46.78385" lon="-2.04567">
        <ele>17.5</ele>
        <time>2023-07-05T07:17:57Z</time>
      </trkpt>
      <trkpt lat="46.7838" lon="-2.04576">
        <ele>17.6</ele>
        <time>2023-07-05T07:18:01Z</time>
      </trkpt>
      <trkpt lat="46.78375" lon="-2.04582">
        <ele>17.7</ele>
        <time>2023-07-05T07:18:04Z</time>
      </trkpt>
      <trkpt lat="46.78373" lon="-2.04584">
        <ele>18.2</ele>
        <time>2023-07-05T07:18:05Z</time>
      </trkpt>
      <trkpt lat="46.78365" lon="-2.04596">
        <ele>18.2</ele>
        <time>2023-07-05T07:18:09Z</time>
      </trkpt>
      <trkpt lat="46.78363" lon="-2.04611">
        <ele>18.4</ele>
        <time>2023-07-05T07:18:13Z</time>
      </trkpt>
      <trkpt lat="46.78368" lon="-2.04627">
        <ele>18.7</ele>
        <time>2023-07-05T07:18:19Z</time>
      </trkpt>
      <trkpt lat="46.78367" lon="-2.04638">
        <ele>18.9</ele>
        <time>2023-07-05T07:18:23Z</time>
      </trkpt>
      <trkpt lat="46.78367" lon="-2.04641">
        <ele>19.4</ele>
        <time>2023-07-05T07:18:24Z</time>
      </trkpt>
      <trkpt lat="46.78362" lon="-2.04658">
        <ele>19.4</ele>
        <time>2023-07-05T07:18:30Z</time>
      </trkpt>
      <trkpt lat="46.7836" lon="-2.0466">
        <ele>19.5</ele>
        <time>2023-07-05T07:18:31Z</time>
      </trkpt>
      <trkpt lat="46.78359" lon="-2.04663">
        <ele>19.6</ele>
        <time>2023-07-05T07:18:35Z</time>
      </trkpt>
      <trkpt lat="46.78359" lon="-2.04663">
        <ele>19.6</ele>
        <time>2023-07-05T07:18:47Z</time>
      </trkpt>
      <trkpt lat="46.78359" lon="-2.04663">
        <ele>19.6</ele>
        <time>2023-07-05T07:19:08Z</time>
      </trkpt>
      <trkpt lat="46.78359" lon="-2.04663">
        <ele>19.6</ele>
        <time>2023-07-05T07:19:32Z</time>
      </trkpt>
      <trkpt lat="46.78359" lon="-2.04663">
        <ele>19.6</ele>
        <time>2023-07-05T07:19:50Z</time>
      </trkpt>
      <trkpt lat="46.7836" lon="-2.04663">
        <ele>19.6</ele>
        <time>2023-07-05T07:20:08Z</time>
      </trkpt>
      <trkpt lat="46.7836" lon="-2.04663">
        <ele>19.6</ele>
        <time>2023-07-05T07:20:27Z</time>
      </trkpt>
      <trkpt lat="46.7836" lon="-2.04663">
        <ele>19.6</ele>
        <time>2023-07-05T07:20:45Z</time>
      </trkpt>
      <trkpt lat="46.7836" lon="-2.04663">
        <ele>19.6</ele>
        <time>2023-07-05T07:21:05Z</time>
      </trkpt>
      <trkpt lat="46.78361" lon="-2.04663">
        <ele>19.6</ele>
        <time>2023-07-05T07:21:21Z</time>
      </trkpt>
      <trkpt lat="46.78361" lon="-2.04663">
        <ele>19.6</ele>
        <time>2023-07-05T07:21:39Z</time>
      </trkpt>
      <trkpt lat="46.7836" lon="-2.04663">
        <ele>19.6</ele>
        <time>2023-07-05T07:21:58Z</time>
      </trkpt>
      <trkpt lat="46.7836" lon="-2.04663">
        <ele>19.6</ele>
        <time>2023-07-05T07:22:17Z</time>
      </trkpt>
      <trkpt lat="46.78361" lon="-2.04663">
        <ele>19.6</ele>
        <time>2023-07-05T07:22:33Z</time>
      </trkpt>
      <trkpt lat="46.78361" lon="-2.04663">
        <ele>19.6</ele>
        <time>2023-07-05T07:22:51Z</time>
      </trkpt>
      <trkpt lat="46.78361" lon="-2.04663">
        <ele>19.6</ele>
        <time>2023-07-05T07:23:10Z</time>
      </trkpt>
      <trkpt lat="46.78361" lon="-2.04664">
        <ele>19.6</ele>
        <time>2023-07-05T07:23:20Z</time>
      </trkpt>
      <trkpt lat="46.78361" lon="-2.04664">
        <ele>19.6</ele>
        <time>2023-07-05T07:23:39Z</time>
      </trkpt>
      <trkpt lat="46.78361" lon="-2.04665">
        <ele>19.7</ele>
        <time>2023-07-05T07:24:00Z</time>
      </trkpt>
      <trkpt lat="46.78361" lon="-2.04665">
        <ele>19.7</ele>
        <time>2023-07-05T07:24:24Z</time>
      </trkpt>
      <trkpt lat="46.7836" lon="-2.04666">
        <ele>19.7</ele>
        <time>2023-07-05T07:24:51Z</time>
      </trkpt>
      <trkpt lat="46.78359" lon="-2.04668">
        <ele>19.7</ele>
        <time>2023-07-05T07:24:56Z</time>
      </trkpt>
      <trkpt lat="46.78359" lon="-2.04674">
        <ele>19.7</ele>
        <time>2023-07-05T07:24:58Z</time>
      </trkpt>
      <trkpt lat="46.78359" lon="-2.0468">
        <ele>19.6</ele>
        <time>2023-07-05T07:24:59Z</time>
      </trkpt>
      <trkpt lat="46.78358" lon="-2.04702">
        <ele>19.3</ele>
        <time>2023-07-05T07:25:03Z</time>
      </trkpt>
      <trkpt lat="46.78355" lon="-2.04711">
        <ele>19.1</ele>
        <time>2023-07-05T07:25:07Z</time>
      </trkpt>
      <trkpt lat="46.78352" lon="-2.04723">
        <ele>18.8</ele>
        <time>2023-07-05T07:25:11Z</time>
      </trkpt>
      <trkpt lat="46.78351" lon="-2.04727">
        <ele>18.6</ele>
        <time>2023-07-05T07:25:12Z</time>
      </trkpt>
      <trkpt lat="46.78348" lon="-2.04743">
        <ele>17.9</ele>
        <time>2023-07-05T07:25:16Z</time>
      </trkpt>
      <trkpt lat="46.78348" lon="-2.04748">
        <ele>17.7</ele>
        <time>2023-07-05T07:25:17Z</time>
      </trkpt>
      <trkpt lat="46.78346" lon="-2.04763">
        <ele>16.7</ele>
        <time>2023-07-05T07:25:20Z</time>
      </trkpt>
      <trkpt lat="46.78345" lon="-2.04772">
        <ele>16.1</ele>
        <time>2023-07-05T07:25:22Z</time>
      </trkpt>
      <trkpt lat="46.78349" lon="-2.04779">
        <ele>15.6</ele>
        <time>2023-07-05T07:25:24Z</time>
      </trkpt>
      <trkpt lat="46.78351" lon="-2.04784">
        <ele>15.2</ele>
        <time>2023-07-05T07:25:25Z</time>
      </trkpt>
      <trkpt lat="46.78357" lon="-2.04793">
        <ele>14.4</ele>
        <time>2023-07-05T07:25:27Z</time>
      </trkpt>
      <trkpt lat="46.78363" lon="-2.04801">
        <ele>13.9</ele>
        <time>2023-07-05T07:25:29Z</time>
      </trkpt>
      <trkpt lat="46.78365" lon="-2.04806">
        <ele>13.7</ele>
        <time>2023-07-05T07:25:30Z</time>
      </trkpt>
      <trkpt lat="46.78366" lon="-2.04817">
        <ele>13.3</ele>
        <time>2023-07-05T07:25:33Z</time>
      </trkpt>
      <trkpt lat="46.78366" lon="-2.04822">
        <ele>13.2</ele>
        <time>2023-07-05T07:25:34Z</time>
      </trkpt>
      <trkpt lat="46.78359" lon="-2.04852">
        <ele>12.7</ele>
        <time>2023-07-05T07:25:40Z</time>
      </trkpt>
      <trkpt lat="46.78359" lon="-2.04864">
        <ele>12.4</ele>
        <time>2023-07-05T07:25:42Z</time>
      </trkpt>
      <trkpt lat="46.7836" lon="-2.04872">
        <ele>12.1</ele>
        <time>2023-07-05T07:25:43Z</time>
      </trkpt>
      <trkpt lat="46.78362" lon="-2.04881">
        <ele>11.8</ele>
        <time>2023-07-05T07:25:44Z</time>
      </trkpt>
      <trkpt lat="46.78359" lon="-2.04894">
        <ele>11.5</ele>
        <time>2023-07-05T07:25:46Z</time>
      </trkpt>
      <trkpt lat="46.78355" lon="-2.04898">
        <ele>11.4</ele>
        <time>2023-07-05T07:25:47Z</time>
      </trkpt>
      <trkpt lat="46.78351" lon="-2.04898">
        <ele>11.3</ele>
        <time>2023-07-05T07:25:48Z</time>
      </trkpt>
      <trkpt lat="46.78348" lon="-2.049">
        <ele>11.3</ele>
        <time>2023-07-05T07:25:49Z</time>
      </trkpt>
      <trkpt lat="46.78342" lon="-2.04907">
        <ele>11.6</ele>
        <time>2023-07-05T07:25:51Z</time>
      </trkpt>
      <trkpt lat="46.78336" lon="-2.04918">
        <ele>12.6</ele>
        <time>2023-07-05T07:25:55Z</time>
      </trkpt>
      <trkpt lat="46.78338" lon="-2.04926">
        <ele>13.2</ele>
        <time>2023-07-05T07:25:57Z</time>
      </trkpt>
      <trkpt lat="46.78341" lon="-2.04933">
        <ele>13.7</ele>
        <time>2023-07-05T07:25:59Z</time>
      </trkpt>
      <trkpt lat="46.78346" lon="-2.04953">
        <ele>15.2</ele>
        <time>2023-07-05T07:26:04Z</time>
      </trkpt>
      <trkpt lat="46.78352" lon="-2.0497">
        <ele>16.4</ele>
        <time>2023-07-05T07:26:09Z</time>
      </trkpt>
      <trkpt lat="46.78356" lon="-2.04986">
        <ele>17.2</ele>
        <time>2023-07-05T07:26:13Z</time>
      </trkpt>
      <trkpt lat="46.78359" lon="-2.04993">
        <ele>17.5</ele>
        <time>2023-07-05T07:26:15Z</time>
      </trkpt>
      <trkpt lat="46.78363" lon="-2.05002">
        <ele>17.8</ele>
        <time>2023-07-05T07:26:17Z</time>
      </trkpt>
      <trkpt lat="46.78368" lon="-2.05024">
        <ele>18.1</ele>
        <time>2023-07-05T07:26:22Z</time>
      </trkpt>
      <trkpt lat="46.78372" lon="-2.05037">
        <ele>18</ele>
        <time>2023-07-05T07:26:25Z</time>
      </trkpt>
      <trkpt lat="46.78373" lon="-2.05041">
        <ele>17.9</ele>
        <time>2023-07-05T07:26:26Z</time>
      </trkpt>
      <trkpt lat="46.78373" lon="-2.05061">
        <ele>17.6</ele>
        <time>2023-07-05T07:26:30Z</time>
      </trkpt>
      <trkpt lat="46.7837" lon="-2.05076">
        <ele>17.4</ele>
        <time>2023-07-05T07:26:33Z</time>
      </trkpt>
      <trkpt lat="46.78354" lon="-2.05099">
        <ele>17.3</ele>
        <time>2023-07-05T07:26:38Z</time>
      </trkpt>
      <trkpt lat="46.78339" lon="-2.05115">
        <ele>17.6</ele>
        <time>2023-07-05T07:26:43Z</time>
      </trkpt>
      <trkpt lat="46.78324" lon="-2.05121">
        <ele>17.7</ele>
        <time>2023-07-05T07:26:48Z</time>
      </trkpt>
      <trkpt lat="46.78315" lon="-2.05128">
        <ele>17.6</ele>
        <time>2023-07-05T07:26:51Z</time>
      </trkpt>
      <trkpt lat="46.78302" lon="-2.05145">
        <ele>17.6</ele>
        <time>2023-07-05T07:26:55Z</time>
      </trkpt>
      <trkpt lat="46.78296" lon="-2.05153">
        <ele>17.5</ele>
        <time>2023-07-05T07:26:57Z</time>
      </trkpt>
      <trkpt lat="46.78293" lon="-2.0516">
        <ele>17.4</ele>
        <time>2023-07-05T07:26:58Z</time>
      </trkpt>
      <trkpt lat="46.78289" lon="-2.05172">
        <ele>17.3</ele>
        <time>2023-07-05T07:27:00Z</time>
      </trkpt>
      <trkpt lat="46.78289" lon="-2.05182">
        <ele>17.3</ele>
        <time>2023-07-05T07:27:02Z</time>
      </trkpt>
      <trkpt lat="46.78289" lon="-2.05194">
        <ele>17.2</ele>
        <time>2023-07-05T07:27:05Z</time>
      </trkpt>
      <trkpt lat="46.78289" lon="-2.05197">
        <ele>17.2</ele>
        <time>2023-07-05T07:27:06Z</time>
      </trkpt>
      <trkpt lat="46.7829" lon="-2.05201">
        <ele>17.1</ele>
        <time>2023-07-05T07:27:07Z</time>
      </trkpt>
      <trkpt lat="46.7829" lon="-2.05208">
        <ele>17</ele>
        <time>2023-07-05T07:27:09Z</time>
      </trkpt>
      <trkpt lat="46.7829" lon="-2.05216">
        <ele>16.9</ele>
        <time>2023-07-05T07:27:11Z</time>
      </trkpt>
      <trkpt lat="46.78291" lon="-2.05226">
        <ele>16.7</ele>
        <time>2023-07-05T07:27:14Z</time>
      </trkpt>
      <trkpt lat="46.78291" lon="-2.05229">
        <ele>16.6</ele>
        <time>2023-07-05T07:27:15Z</time>
      </trkpt>
      <trkpt lat="46.7829" lon="-2.05235">
        <ele>16.4</ele>
        <time>2023-07-05T07:27:17Z</time>
      </trkpt>
      <trkpt lat="46.7829" lon="-2.05237">
        <ele>16.4</ele>
        <time>2023-07-05T07:27:18Z</time>
      </trkpt>
      <trkpt lat="46.78289" lon="-2.05242">
        <ele>16.2</ele>
        <time>2023-07-05T07:27:20Z</time>
      </trkpt>
      <trkpt lat="46.78288" lon="-2.05252">
        <ele>15.9</ele>
        <time>2023-07-05T07:27:23Z</time>
      </trkpt>
      <trkpt lat="46.78286" lon="-2.05262">
        <ele>15.8</ele>
        <time>2023-07-05T07:27:27Z</time>
      </trkpt>
      <trkpt lat="46.78279" lon="-2.05277">
        <ele>15.6</ele>
        <time>2023-07-05T07:27:31Z</time>
      </trkpt>
      <trkpt lat="46.78274" lon="-2.05294">
        <ele>15.2</ele>
        <time>2023-07-05T07:27:34Z</time>
      </trkpt>
      <trkpt lat="46.78272" lon="-2.05302">
        <ele>15</ele>
        <time>2023-07-05T07:27:35Z</time>
      </trkpt>
      <trkpt lat="46.78264" lon="-2.05324">
        <ele>14.5</ele>
        <time>2023-07-05T07:27:38Z</time>
      </trkpt>
      <trkpt lat="46.7826" lon="-2.05331">
        <ele>14.2</ele>
        <time>2023-07-05T07:27:39Z</time>
      </trkpt>
      <trkpt lat="46.78256" lon="-2.05339">
        <ele>13.9</ele>
        <time>2023-07-05T07:27:40Z</time>
      </trkpt>
      <trkpt lat="46.78254" lon="-2.05349">
        <ele>13.5</ele>
        <time>2023-07-05T07:27:41Z</time>
      </trkpt>
      <trkpt lat="46.78254" lon="-2.05358">
        <ele>13</ele>
        <time>2023-07-05T07:27:42Z</time>
      </trkpt>
      <trkpt lat="46.78255" lon="-2.05376">
        <ele>12</ele>
        <time>2023-07-05T07:27:44Z</time>
      </trkpt>
      <trkpt lat="46.78257" lon="-2.05394">
        <ele>11.2</ele>
        <time>2023-07-05T07:27:46Z</time>
      </trkpt>
      <trkpt lat="46.78257" lon="-2.05404">
        <ele>10.7</ele>
        <time>2023-07-05T07:27:47Z</time>
      </trkpt>
      <trkpt lat="46.78257" lon="-2.05413">
        <ele>10.3</ele>
        <time>2023-07-05T07:27:48Z</time>
      </trkpt>
      <trkpt lat="46.78256" lon="-2.0543">
        <ele>9.5</ele>
        <time>2023-07-05T07:27:50Z</time>
      </trkpt>
      <trkpt lat="46.78252" lon="-2.05443">
        <ele>9</ele>
        <time>2023-07-05T07:27:52Z</time>
      </trkpt>
      <trkpt lat="46.78249" lon="-2.05456">
        <ele>8.2</ele>
        <time>2023-07-05T07:27:54Z</time>
      </trkpt>
      <trkpt lat="46.78248" lon="-2.05461">
        <ele>8</ele>
        <time>2023-07-05T07:27:55Z</time>
      </trkpt>
      <trkpt lat="46.78248" lon="-2.05468">
        <ele>7.7</ele>
        <time>2023-07-05T07:27:57Z</time>
      </trkpt>
      <trkpt lat="46.78248" lon="-2.05473">
        <ele>7.5</ele>
        <time>2023-07-05T07:27:59Z</time>
      </trkpt>
      <trkpt lat="46.78252" lon="-2.0548">
        <ele>7.1</ele>
        <time>2023-07-05T07:28:02Z</time>
      </trkpt>
      <trkpt lat="46.78253" lon="-2.05482">
        <ele>7</ele>
        <time>2023-07-05T07:28:03Z</time>
      </trkpt>
      <trkpt lat="46.78257" lon="-2.0549">
        <ele>6.5</ele>
        <time>2023-07-05T07:28:05Z</time>
      </trkpt>
      <trkpt lat="46.7826" lon="-2.05495">
        <ele>6.2</ele>
        <time>2023-07-05T07:28:06Z</time>
      </trkpt>
      <trkpt lat="46.78264" lon="-2.05506">
        <ele>5.7</ele>
        <time>2023-07-05T07:28:08Z</time>
      </trkpt>
      <trkpt lat="46.78273" lon="-2.05536">
        <ele>4.8</ele>
        <time>2023-07-05T07:28:14Z</time>
      </trkpt>
      <trkpt lat="46.78283" lon="-2.05564">
        <ele>4.3</ele>
        <time>2023-07-05T07:28:21Z</time>
      </trkpt>
      <trkpt lat="46.78287" lon="-2.05568">
        <ele>4.2</ele>
        <time>2023-07-05T07:28:23Z</time>
      </trkpt>
      <trkpt lat="46.78292" lon="-2.05567">
        <ele>4.1</ele>
        <time>2023-07-05T07:28:25Z</time>
      </trkpt>
      <trkpt lat="46.78307" lon="-2.05554">
        <ele>4.2</ele>
        <time>2023-07-05T07:28:31Z</time>
      </trkpt>
      <trkpt lat="46.78318" lon="-2.05541">
        <ele>4.5</ele>
        <time>2023-07-05T07:28:36Z</time>
      </trkpt>
      <trkpt lat="46.78322" lon="-2.05535">
        <ele>4.6</ele>
        <time>2023-07-05T07:28:38Z</time>
      </trkpt>
      <trkpt lat="46.78326" lon="-2.05528">
        <ele>4.6</ele>
        <time>2023-07-05T07:28:40Z</time>
      </trkpt>
      <trkpt lat="46.78334" lon="-2.05504">
        <ele>4.4</ele>
        <time>2023-07-05T07:28:45Z</time>
      </trkpt>
      <trkpt lat="46.7834" lon="-2.05484">
        <ele>4.3</ele>
        <time>2023-07-05T07:28:49Z</time>
      </trkpt>
      <trkpt lat="46.78345" lon="-2.05469">
        <ele>4.2</ele>
        <time>2023-07-05T07:28:52Z</time>
      </trkpt>
      <trkpt lat="46.78347" lon="-2.05464">
        <ele>4.1</ele>
        <time>2023-07-05T07:28:53Z</time>
      </trkpt>
      <trkpt lat="46.78351" lon="-2.05451">
        <ele>3.9</ele>
        <time>2023-07-05T07:28:55Z</time>
      </trkpt>
      <trkpt lat="46.78354" lon="-2.05445">
        <ele>3.8</ele>
        <time>2023-07-05T07:28:56Z</time>
      </trkpt>
      <trkpt lat="46.78365" lon="-2.0541">
        <ele>3.6</ele>
        <time>2023-07-05T07:29:02Z</time>
      </trkpt>
      <trkpt lat="46.78367" lon="-2.05403">
        <ele>3.6</ele>
        <time>2023-07-05T07:29:03Z</time>
      </trkpt>
      <trkpt lat="46.78377" lon="-2.0538">
        <ele>3.5</ele>
        <time>2023-07-05T07:29:07Z</time>
      </trkpt>
      <trkpt lat="46.78384" lon="-2.05364">
        <ele>3.6</ele>
        <time>2023-07-05T07:29:10Z</time>
      </trkpt>
      <trkpt lat="46.78386" lon="-2.05359">
        <ele>3.6</ele>
        <time>2023-07-05T07:29:11Z</time>
      </trkpt>
      <trkpt lat="46.7839" lon="-2.05343">
        <ele>3.8</ele>
        <time>2023-07-05T07:29:14Z</time>
      </trkpt>
      <trkpt lat="46.78393" lon="-2.05333">
        <ele>5.7</ele>
        <time>2023-07-05T07:29:16Z</time>
      </trkpt>
      <trkpt lat="46.78395" lon="-2.0533">
        <ele>8</ele>
        <time>2023-07-05T07:29:17Z</time>
      </trkpt>
      <trkpt lat="46.78401" lon="-2.05329">
        <ele>10.3</ele>
        <time>2023-07-05T07:29:19Z</time>
      </trkpt>
      <trkpt lat="46.78412" lon="-2.05329">
        <ele>12.8</ele>
        <time>2023-07-05T07:29:23Z</time>
      </trkpt>
      <trkpt lat="46.78416" lon="-2.05338">
        <ele>13.5</ele>
        <time>2023-07-05T07:29:27Z</time>
      </trkpt>
      <trkpt lat="46.7842" lon="-2.05347">
        <ele>14.4</ele>
        <time>2023-07-05T07:29:31Z</time>
      </trkpt>
      <trkpt lat="46.78421" lon="-2.05349">
        <ele>14.6</ele>
        <time>2023-07-05T07:29:32Z</time>
      </trkpt>
      <trkpt lat="46.78424" lon="-2.05353">
        <ele>15.3</ele>
        <time>2023-07-05T07:29:34Z</time>
      </trkpt>
      <trkpt lat="46.78428" lon="-2.05359">
        <ele>16.2</ele>
        <time>2023-07-05T07:29:37Z</time>
      </trkpt>
      <trkpt lat="46.78426" lon="-2.05362">
        <ele>16.7</ele>
        <time>2023-07-05T07:29:41Z</time>
      </trkpt>
      <trkpt lat="46.78425" lon="-2.05361">
        <ele>17.1</ele>
        <time>2023-07-05T07:29:48Z</time>
      </trkpt>
      <trkpt lat="46.78424" lon="-2.05361">
        <ele>17.2</ele>
        <time>2023-07-05T07:29:52Z</time>
      </trkpt>
      <trkpt lat="46.78424" lon="-2.05361">
        <ele>17.2</ele>
        <time>2023-07-05T07:30:04Z</time>
      </trkpt>
      <trkpt lat="46.78424" lon="-2.05361">
        <ele>17.2</ele>
        <time>2023-07-05T07:30:08Z</time>
      </trkpt>
      <trkpt lat="46.78425" lon="-2.05363">
        <ele>17.6</ele>
        <time>2023-07-05T07:30:10Z</time>
      </trkpt>
      <trkpt lat="46.78427" lon="-2.05367">
        <ele>18.2</ele>
        <time>2023-07-05T07:30:13Z</time>
      </trkpt>
      <trkpt lat="46.78427" lon="-2.05369">
        <ele>18.5</ele>
        <time>2023-07-05T07:30:14Z</time>
      </trkpt>
      <trkpt lat="46.78426" lon="-2.05376">
        <ele>19.5</ele>
        <time>2023-07-05T07:30:20Z</time>
      </trkpt>
      <trkpt lat="46.78427" lon="-2.05384">
        <ele>20.5</ele>
        <time>2023-07-05T07:30:27Z</time>
      </trkpt>
      <trkpt lat="46.78428" lon="-2.05388">
        <ele>21</ele>
        <time>2023-07-05T07:30:32Z</time>
      </trkpt>
      <trkpt lat="46.78429" lon="-2.05393">
        <ele>21.5</ele>
        <time>2023-07-05T07:30:37Z</time>
      </trkpt>
      <trkpt lat="46.78429" lon="-2.05395">
        <ele>21.8</ele>
        <time>2023-07-05T07:30:39Z</time>
      </trkpt>
      <trkpt lat="46.78431" lon="-2.05401">
        <ele>22.3</ele>
        <time>2023-07-05T07:30:44Z</time>
      </trkpt>
      <trkpt lat="46.78432" lon="-2.05403">
        <ele>22.6</ele>
        <time>2023-07-05T07:30:47Z</time>
      </trkpt>
      <trkpt lat="46.78434" lon="-2.05407">
        <ele>23</ele>
        <time>2023-07-05T07:30:50Z</time>
      </trkpt>
      <trkpt lat="46.78437" lon="-2.05416">
        <ele>23.7</ele>
        <time>2023-07-05T07:30:57Z</time>
      </trkpt>
      <trkpt lat="46.7844" lon="-2.05425">
        <ele>24.2</ele>
        <time>2023-07-05T07:31:04Z</time>
      </trkpt>
      <trkpt lat="46.78443" lon="-2.05432">
        <ele>24.4</ele>
        <time>2023-07-05T07:31:10Z</time>
      </trkpt>
      <trkpt lat="46.78443" lon="-2.05435">
        <ele>24.4</ele>
        <time>2023-07-05T07:31:13Z</time>
      </trkpt>
      <trkpt lat="46.78444" lon="-2.0544">
        <ele>24.4</ele>
        <time>2023-07-05T07:31:16Z</time>
      </trkpt>
      <trkpt lat="46.78444" lon="-2.05441">
        <ele>24.3</ele>
        <time>2023-07-05T07:31:22Z</time>
      </trkpt>
      <trkpt lat="46.78447" lon="-2.05447">
        <ele>24.1</ele>
        <time>2023-07-05T07:31:27Z</time>
      </trkpt>
      <trkpt lat="46.78449" lon="-2.05449">
        <ele>24</ele>
        <time>2023-07-05T07:31:28Z</time>
      </trkpt>
      <trkpt lat="46.78457" lon="-2.05464">
        <ele>23</ele>
        <time>2023-07-05T07:31:31Z</time>
      </trkpt>
      <trkpt lat="46.7846" lon="-2.0547">
        <ele>22.6</ele>
        <time>2023-07-05T07:31:32Z</time>
      </trkpt>
      <trkpt lat="46.78464" lon="-2.05482">
        <ele>21.9</ele>
        <time>2023-07-05T07:31:34Z</time>
      </trkpt>
      <trkpt lat="46.78469" lon="-2.05494">
        <ele>21.1</ele>
        <time>2023-07-05T07:31:36Z</time>
      </trkpt>
      <trkpt lat="46.78471" lon="-2.05501">
        <ele>20.6</ele>
        <time>2023-07-05T07:31:37Z</time>
      </trkpt>
      <trkpt lat="46.78474" lon="-2.05509">
        <ele>20.1</ele>
        <time>2023-07-05T07:31:38Z</time>
      </trkpt>
      <trkpt lat="46.78481" lon="-2.05524">
        <ele>19.4</ele>
        <time>2023-07-05T07:31:40Z</time>
      </trkpt>
      <trkpt lat="46.78488" lon="-2.05542">
        <ele>18.7</ele>
        <time>2023-07-05T07:31:43Z</time>
      </trkpt>
      <trkpt lat="46.78491" lon="-2.05547">
        <ele>18.5</ele>
        <time>2023-07-05T07:31:44Z</time>
      </trkpt>
      <trkpt lat="46.78497" lon="-2.05559">
        <ele>17.8</ele>
        <time>2023-07-05T07:31:46Z</time>
      </trkpt>
      <trkpt lat="46.78506" lon="-2.05577">
        <ele>16.6</ele>
        <time>2023-07-05T07:31:49Z</time>
      </trkpt>
      <trkpt lat="46.78513" lon="-2.05591">
        <ele>15.6</ele>
        <time>2023-07-05T07:31:51Z</time>
      </trkpt>
      <trkpt lat="46.78521" lon="-2.05604">
        <ele>14.4</ele>
        <time>2023-07-05T07:31:53Z</time>
      </trkpt>
      <trkpt lat="46.78525" lon="-2.0561">
        <ele>13.6</ele>
        <time>2023-07-05T07:31:54Z</time>
      </trkpt>
      <trkpt lat="46.78534" lon="-2.05628">
        <ele>11.4</ele>
        <time>2023-07-05T07:31:56Z</time>
      </trkpt>
      <trkpt lat="46.78538" lon="-2.05639">
        <ele>10.1</ele>
        <time>2023-07-05T07:31:57Z</time>
      </trkpt>
      <trkpt lat="46.78542" lon="-2.0565">
        <ele>9.2</ele>
        <time>2023-07-05T07:31:58Z</time>
      </trkpt>
      <trkpt lat="46.78551" lon="-2.05672">
        <ele>7.5</ele>
        <time>2023-07-05T07:32:00Z</time>
      </trkpt>
      <trkpt lat="46.7857" lon="-2.05718">
        <ele>4.9</ele>
        <time>2023-07-05T07:32:04Z</time>
      </trkpt>
      <trkpt lat="46.78574" lon="-2.0573">
        <ele>4.7</ele>
        <time>2023-07-05T07:32:05Z</time>
      </trkpt>
      <trkpt lat="46.78577" lon="-2.05749">
        <ele>4.5</ele>
        <time>2023-07-05T07:32:07Z</time>
      </trkpt>
      <trkpt lat="46.78573" lon="-2.05761">
        <ele>4.5</ele>
        <time>2023-07-05T07:32:09Z</time>
      </trkpt>
      <trkpt lat="46.78563" lon="-2.05768">
        <ele>4.4</ele>
        <time>2023-07-05T07:32:11Z</time>
      </trkpt>
      <trkpt lat="46.7856" lon="-2.05771">
        <ele>4.4</ele>
        <time>2023-07-05T07:32:12Z</time>
      </trkpt>
      <trkpt lat="46.78551" lon="-2.05781">
        <ele>4.5</ele>
        <time>2023-07-05T07:32:16Z</time>
      </trkpt>
      <trkpt lat="46.7854" lon="-2.05792">
        <ele>4.6</ele>
        <time>2023-07-05T07:32:22Z</time>
      </trkpt>
      <trkpt lat="46.78534" lon="-2.05798">
        <ele>4.7</ele>
        <time>2023-07-05T07:32:25Z</time>
      </trkpt>
      <trkpt lat="46.78532" lon="-2.058">
        <ele>4.7</ele>
        <time>2023-07-05T07:32:26Z</time>
      </trkpt>
      <trkpt lat="46.78525" lon="-2.05806">
        <ele>4.8</ele>
        <time>2023-07-05T07:32:29Z</time>
      </trkpt>
      <trkpt lat="46.78516" lon="-2.05813">
        <ele>4.8</ele>
        <time>2023-07-05T07:32:32Z</time>
      </trkpt>
      <trkpt lat="46.78499" lon="-2.05826">
        <ele>5</ele>
        <time>2023-07-05T07:32:37Z</time>
      </trkpt>
      <trkpt lat="46.78494" lon="-2.05833">
        <ele>5.1</ele>
        <time>2023-07-05T07:32:39Z</time>
      </trkpt>
      <trkpt lat="46.78494" lon="-2.05839">
        <ele>5</ele>
        <time>2023-07-05T07:32:41Z</time>
      </trkpt>
      <trkpt lat="46.78497" lon="-2.05842">
        <ele>5</ele>
        <time>2023-07-05T07:32:43Z</time>
      </trkpt>
      <trkpt lat="46.785" lon="-2.05843">
        <ele>5</ele>
        <time>2023-07-05T07:32:44Z</time>
      </trkpt>
      <trkpt lat="46.78527" lon="-2.05843">
        <ele>5</ele>
        <time>2023-07-05T07:32:52Z</time>
      </trkpt>
      <trkpt lat="46.78539" lon="-2.05843">
        <ele>4.9</ele>
        <time>2023-07-05T07:32:55Z</time>
      </trkpt>
      <trkpt lat="46.78543" lon="-2.05843">
        <ele>4.9</ele>
        <time>2023-07-05T07:32:56Z</time>
      </trkpt>
      <trkpt lat="46.78561" lon="-2.05845">
        <ele>4.8</ele>
        <time>2023-07-05T07:33:00Z</time>
      </trkpt>
      <trkpt lat="46.78566" lon="-2.05847">
        <ele>5</ele>
        <time>2023-07-05T07:33:01Z</time>
      </trkpt>
      <trkpt lat="46.78576" lon="-2.05849">
        <ele>5.4</ele>
        <time>2023-07-05T07:33:03Z</time>
      </trkpt>
      <trkpt lat="46.7858" lon="-2.05851">
        <ele>5.7</ele>
        <time>2023-07-05T07:33:04Z</time>
      </trkpt>
      <trkpt lat="46.78596" lon="-2.05856">
        <ele>7.4</ele>
        <time>2023-07-05T07:33:09Z</time>
      </trkpt>
      <trkpt lat="46.78609" lon="-2.0586">
        <ele>8.8</ele>
        <time>2023-07-05T07:33:13Z</time>
      </trkpt>
      <trkpt lat="46.78622" lon="-2.05862">
        <ele>10.1</ele>
        <time>2023-07-05T07:33:17Z</time>
      </trkpt>
      <trkpt lat="46.78636" lon="-2.05865">
        <ele>11.2</ele>
        <time>2023-07-05T07:33:22Z</time>
      </trkpt>
      <trkpt lat="46.78642" lon="-2.05871">
        <ele>11.6</ele>
        <time>2023-07-05T07:33:26Z</time>
      </trkpt>
      <trkpt lat="46.78644" lon="-2.05876">
        <ele>11.7</ele>
        <time>2023-07-05T07:33:28Z</time>
      </trkpt>
      <trkpt lat="46.78652" lon="-2.05888">
        <ele>12</ele>
        <time>2023-07-05T07:33:34Z</time>
      </trkpt>
      <trkpt lat="46.7866" lon="-2.05901">
        <ele>12.2</ele>
        <time>2023-07-05T07:33:39Z</time>
      </trkpt>
      <trkpt lat="46.78671" lon="-2.05917">
        <ele>12.5</ele>
        <time>2023-07-05T07:33:45Z</time>
      </trkpt>
      <trkpt lat="46.78685" lon="-2.05937">
        <ele>12.7</ele>
        <time>2023-07-05T07:33:52Z</time>
      </trkpt>
      <trkpt lat="46.78687" lon="-2.0596">
        <ele>12.4</ele>
        <time>2023-07-05T07:33:57Z</time>
      </trkpt>
      <trkpt lat="46.78687" lon="-2.05989">
        <ele>11.5</ele>
        <time>2023-07-05T07:34:02Z</time>
      </trkpt>
      <trkpt lat="46.78684" lon="-2.06019">
        <ele>10.4</ele>
        <time>2023-07-05T07:34:06Z</time>
      </trkpt>
      <trkpt lat="46.78684" lon="-2.06027">
        <ele>10.1</ele>
        <time>2023-07-05T07:34:07Z</time>
      </trkpt>
      <trkpt lat="46.78684" lon="-2.06035">
        <ele>9.8</ele>
        <time>2023-07-05T07:34:08Z</time>
      </trkpt>
      <trkpt lat="46.78689" lon="-2.06052">
        <ele>9.1</ele>
        <time>2023-07-05T07:34:10Z</time>
      </trkpt>
      <trkpt lat="46.78692" lon="-2.06059">
        <ele>8.7</ele>
        <time>2023-07-05T07:34:11Z</time>
      </trkpt>
      <trkpt lat="46.78701" lon="-2.06072">
        <ele>8</ele>
        <time>2023-07-05T07:34:13Z</time>
      </trkpt>
      <trkpt lat="46.78724" lon="-2.06108">
        <ele>6.9</ele>
        <time>2023-07-05T07:34:18Z</time>
      </trkpt>
      <trkpt lat="46.78729" lon="-2.06115">
        <ele>6.8</ele>
        <time>2023-07-05T07:34:19Z</time>
      </trkpt>
      <trkpt lat="46.78758" lon="-2.06145">
        <ele>6</ele>
        <time>2023-07-05T07:34:25Z</time>
      </trkpt>
      <trkpt lat="46.78768" lon="-2.06153">
        <ele>5.9</ele>
        <time>2023-07-05T07:34:27Z</time>
      </trkpt>
      <trkpt lat="46.78783" lon="-2.06169">
        <ele>5.6</ele>
        <time>2023-07-05T07:34:30Z</time>
      </trkpt>
      <trkpt lat="46.78814" lon="-2.062">
        <ele>5.2</ele>
        <time>2023-07-05T07:34:36Z</time>
      </trkpt>
      <trkpt lat="46.78828" lon="-2.06216">
        <ele>5.1</ele>
        <time>2023-07-05T07:34:39Z</time>
      </trkpt>
      <trkpt lat="46.78836" lon="-2.06227">
        <ele>5.2</ele>
        <time>2023-07-05T07:34:41Z</time>
      </trkpt>
      <trkpt lat="46.7886" lon="-2.0625">
        <ele>5.6</ele>
        <time>2023-07-05T07:34:46Z</time>
      </trkpt>
      <trkpt lat="46.78865" lon="-2.06253">
        <ele>5.9</ele>
        <time>2023-07-05T07:34:47Z</time>
      </trkpt>
      <trkpt lat="46.78869" lon="-2.06254">
        <ele>6.1</ele>
        <time>2023-07-05T07:34:48Z</time>
      </trkpt>
      <trkpt lat="46.78882" lon="-2.06255">
        <ele>7</ele>
        <time>2023-07-05T07:34:51Z</time>
      </trkpt>
      <trkpt lat="46.789" lon="-2.06256">
        <ele>8.3</ele>
        <time>2023-07-05T07:34:56Z</time>
      </trkpt>
      <trkpt lat="46.78926" lon="-2.06258">
        <ele>9.6</ele>
        <time>2023-07-05T07:35:03Z</time>
      </trkpt>
      <trkpt lat="46.78952" lon="-2.06256">
        <ele>10.2</ele>
        <time>2023-07-05T07:35:10Z</time>
      </trkpt>
      <trkpt lat="46.78976" lon="-2.06254">
        <ele>10.7</ele>
        <time>2023-07-05T07:35:17Z</time>
      </trkpt>
      <trkpt lat="46.78991" lon="-2.06257">
        <ele>10.8</ele>
        <time>2023-07-05T07:35:24Z</time>
      </trkpt>
      <trkpt lat="46.78997" lon="-2.06269">
        <ele>10.8</ele>
        <time>2023-07-05T07:35:29Z</time>
      </trkpt>
      <trkpt lat="46.79001" lon="-2.06281">
        <ele>10.8</ele>
        <time>2023-07-05T07:35:33Z</time>
      </trkpt>
      <trkpt lat="46.78999" lon="-2.06284">
        <ele>10.8</ele>
        <time>2023-07-05T07:35:35Z</time>
      </trkpt>
      <trkpt lat="46.78988" lon="-2.06292">
        <ele>10.7</ele>
        <time>2023-07-05T07:35:41Z</time>
      </trkpt>
      <trkpt lat="46.78976" lon="-2.063">
        <ele>10.6</ele>
        <time>2023-07-05T07:35:46Z</time>
      </trkpt>
      <trkpt lat="46.78974" lon="-2.06304">
        <ele>10.9</ele>
        <time>2023-07-05T07:35:47Z</time>
      </trkpt>
      <trkpt lat="46.78972" lon="-2.06314">
        <ele>11.3</ele>
        <time>2023-07-05T07:35:49Z</time>
      </trkpt>
      <trkpt lat="46.78969" lon="-2.06334">
        <ele>12</ele>
        <time>2023-07-05T07:35:53Z</time>
      </trkpt>
      <trkpt lat="46.78966" lon="-2.06343">
        <ele>12.6</ele>
        <time>2023-07-05T07:35:55Z</time>
      </trkpt>
      <trkpt lat="46.78961" lon="-2.0635">
        <ele>13</ele>
        <time>2023-07-05T07:35:57Z</time>
      </trkpt>
      <trkpt lat="46.78955" lon="-2.06367">
        <ele>13.8</ele>
        <time>2023-07-05T07:36:03Z</time>
      </trkpt>
      <trkpt lat="46.78954" lon="-2.06369">
        <ele>14.1</ele>
        <time>2023-07-05T07:36:04Z</time>
      </trkpt>
      <trkpt lat="46.78953" lon="-2.06376">
        <ele>14.6</ele>
        <time>2023-07-05T07:36:07Z</time>
      </trkpt>
      <trkpt lat="46.78951" lon="-2.0639">
        <ele>15.1</ele>
        <time>2023-07-05T07:36:12Z</time>
      </trkpt>
      <trkpt lat="46.78944" lon="-2.06402">
        <ele>15.4</ele>
        <time>2023-07-05T07:36:17Z</time>
      </trkpt>
      <trkpt lat="46.78942" lon="-2.06405">
        <ele>15.4</ele>
        <time>2023-07-05T07:36:18Z</time>
      </trkpt>
      <trkpt lat="46.7894" lon="-2.06411">
        <ele>15.7</ele>
        <time>2023-07-05T07:36:20Z</time>
      </trkpt>
      <trkpt lat="46.78939" lon="-2.06414">
        <ele>15.8</ele>
        <time>2023-07-05T07:36:21Z</time>
      </trkpt>
      <trkpt lat="46.78935" lon="-2.06432">
        <ele>15.9</ele>
        <time>2023-07-05T07:36:26Z</time>
      </trkpt>
      <trkpt lat="46.78935" lon="-2.06437">
        <ele>16.1</ele>
        <time>2023-07-05T07:36:27Z</time>
      </trkpt>
      <trkpt lat="46.78934" lon="-2.06445">
        <ele>16.2</ele>
        <time>2023-07-05T07:36:29Z</time>
      </trkpt>
      <trkpt lat="46.78932" lon="-2.06448">
        <ele>16.2</ele>
        <time>2023-07-05T07:36:30Z</time>
      </trkpt>
      <trkpt lat="46.78927" lon="-2.06465">
        <ele>15.8</ele>
        <time>2023-07-05T07:36:37Z</time>
      </trkpt>
      <trkpt lat="46.78925" lon="-2.0648">
        <ele>15.4</ele>
        <time>2023-07-05T07:36:42Z</time>
      </trkpt>
      <trkpt lat="46.78922" lon="-2.06494">
        <ele>14.8</ele>
        <time>2023-07-05T07:36:45Z</time>
      </trkpt>
      <trkpt lat="46.78923" lon="-2.06499">
        <ele>14.5</ele>
        <time>2023-07-05T07:36:46Z</time>
      </trkpt>
      <trkpt lat="46.78925" lon="-2.06505">
        <ele>14.1</ele>
        <time>2023-07-05T07:36:47Z</time>
      </trkpt>
      <trkpt lat="46.78923" lon="-2.06521">
        <ele>13.1</ele>
        <time>2023-07-05T07:36:49Z</time>
      </trkpt>
      <trkpt lat="46.78922" lon="-2.0653">
        <ele>12.5</ele>
        <time>2023-07-05T07:36:50Z</time>
      </trkpt>
      <trkpt lat="46.78922" lon="-2.0656">
        <ele>10.7</ele>
        <time>2023-07-05T07:36:53Z</time>
      </trkpt>
      <trkpt lat="46.7892" lon="-2.06582">
        <ele>9.7</ele>
        <time>2023-07-05T07:36:55Z</time>
      </trkpt>
      <trkpt lat="46.78919" lon="-2.06592">
        <ele>9.4</ele>
        <time>2023-07-05T07:36:56Z</time>
      </trkpt>
      <trkpt lat="46.78917" lon="-2.06611">
        <ele>9.2</ele>
        <time>2023-07-05T07:36:58Z</time>
      </trkpt>
      <trkpt lat="46.78919" lon="-2.06619">
        <ele>9.2</ele>
        <time>2023-07-05T07:36:59Z</time>
      </trkpt>
      <trkpt lat="46.78923" lon="-2.06624">
        <ele>9.2</ele>
        <time>2023-07-05T07:37:00Z</time>
      </trkpt>
      <trkpt lat="46.78927" lon="-2.06625">
        <ele>9.5</ele>
        <time>2023-07-05T07:37:01Z</time>
      </trkpt>
      <trkpt lat="46.78948" lon="-2.06623">
        <ele>10.4</ele>
        <time>2023-07-05T07:37:06Z</time>
      </trkpt>
      <trkpt lat="46.78962" lon="-2.06617">
        <ele>11.1</ele>
        <time>2023-07-05T07:37:11Z</time>
      </trkpt>
      <trkpt lat="46.78983" lon="-2.06608">
        <ele>12.1</ele>
        <time>2023-07-05T07:37:18Z</time>
      </trkpt>
      <trkpt lat="46.78985" lon="-2.06618">
        <ele>12.5</ele>
        <time>2023-07-05T07:37:21Z</time>
      </trkpt>
      <trkpt lat="46.78984" lon="-2.0663">
        <ele>12.9</ele>
        <time>2023-07-05T07:37:25Z</time>
      </trkpt>
      <trkpt lat="46.78983" lon="-2.06633">
        <ele>12.9</ele>
        <time>2023-07-05T07:37:26Z</time>
      </trkpt>
      <trkpt lat="46.78983" lon="-2.06636">
        <ele>13</ele>
        <time>2023-07-05T07:37:27Z</time>
      </trkpt>
      <trkpt lat="46.78984" lon="-2.06643">
        <ele>13.1</ele>
        <time>2023-07-05T07:37:30Z</time>
      </trkpt>
      <trkpt lat="46.78985" lon="-2.06646">
        <ele>13</ele>
        <time>2023-07-05T07:37:31Z</time>
      </trkpt>
      <trkpt lat="46.78988" lon="-2.06648">
        <ele>12.9</ele>
        <time>2023-07-05T07:37:33Z</time>
      </trkpt>
      <trkpt lat="46.7899" lon="-2.06654">
        <ele>12.7</ele>
        <time>2023-07-05T07:37:38Z</time>
      </trkpt>
      <trkpt lat="46.78996" lon="-2.06665">
        <ele>12.5</ele>
        <time>2023-07-05T07:37:43Z</time>
      </trkpt>
      <trkpt lat="46.79001" lon="-2.0668">
        <ele>12.2</ele>
        <time>2023-07-05T07:37:47Z</time>
      </trkpt>
      <trkpt lat="46.79001" lon="-2.06689">
        <ele>12</ele>
        <time>2023-07-05T07:37:49Z</time>
      </trkpt>
      <trkpt lat="46.79001" lon="-2.06693">
        <ele>11.8</ele>
        <time>2023-07-05T07:37:50Z</time>
      </trkpt>
      <trkpt lat="46.79002" lon="-2.06699">
        <ele>11.6</ele>
        <time>2023-07-05T07:37:51Z</time>
      </trkpt>
      <trkpt lat="46.79004" lon="-2.06711">
        <ele>11</ele>
        <time>2023-07-05T07:37:53Z</time>
      </trkpt>
      <trkpt lat="46.79004" lon="-2.06719">
        <ele>10.6</ele>
        <time>2023-07-05T07:37:54Z</time>
      </trkpt>
      <trkpt lat="46.79002" lon="-2.06736">
        <ele>10.2</ele>
        <time>2023-07-05T07:37:56Z</time>
      </trkpt>
      <trkpt lat="46.79" lon="-2.06753">
        <ele>10</ele>
        <time>2023-07-05T07:37:58Z</time>
      </trkpt>
      <trkpt lat="46.79" lon="-2.06771">
        <ele>10.2</ele>
        <time>2023-07-05T07:38:01Z</time>
      </trkpt>
      <trkpt lat="46.79001" lon="-2.06797">
        <ele>11.2</ele>
        <time>2023-07-05T07:38:07Z</time>
      </trkpt>
      <trkpt lat="46.79003" lon="-2.06808">
        <ele>11.6</ele>
        <time>2023-07-05T07:38:10Z</time>
      </trkpt>
      <trkpt lat="46.79004" lon="-2.06813">
        <ele>11.7</ele>
        <time>2023-07-05T07:38:11Z</time>
      </trkpt>
      <trkpt lat="46.79008" lon="-2.06837">
        <ele>11.4</ele>
        <time>2023-07-05T07:38:15Z</time>
      </trkpt>
      <trkpt lat="46.79014" lon="-2.06856">
        <ele>10.9</ele>
        <time>2023-07-05T07:38:18Z</time>
      </trkpt>
      <trkpt lat="46.7902" lon="-2.06867">
        <ele>10.6</ele>
        <time>2023-07-05T07:38:20Z</time>
      </trkpt>
      <trkpt lat="46.7903" lon="-2.06883">
        <ele>10.4</ele>
        <time>2023-07-05T07:38:24Z</time>
      </trkpt>
      <trkpt lat="46.79035" lon="-2.06898">
        <ele>10</ele>
        <time>2023-07-05T07:38:27Z</time>
      </trkpt>
      <trkpt lat="46.7904" lon="-2.06906">
        <ele>9.8</ele>
        <time>2023-07-05T07:38:30Z</time>
      </trkpt>
      <trkpt lat="46.7905" lon="-2.06912">
        <ele>9.6</ele>
        <time>2023-07-05T07:38:34Z</time>
      </trkpt>
      <trkpt lat="46.79057" lon="-2.06916">
        <ele>9.8</ele>
        <time>2023-07-05T07:38:36Z</time>
      </trkpt>
      <trkpt lat="46.79061" lon="-2.06916">
        <ele>9.9</ele>
        <time>2023-07-05T07:38:37Z</time>
      </trkpt>
      <trkpt lat="46.79069" lon="-2.06919">
        <ele>10.2</ele>
        <time>2023-07-05T07:38:41Z</time>
      </trkpt>
      <trkpt lat="46.79079" lon="-2.06921">
        <ele>10.4</ele>
        <time>2023-07-05T07:38:46Z</time>
      </trkpt>
      <trkpt lat="46.79089" lon="-2.06928">
        <ele>10.3</ele>
        <time>2023-07-05T07:38:50Z</time>
      </trkpt>
      <trkpt lat="46.79098" lon="-2.06938">
        <ele>10.1</ele>
        <time>2023-07-05T07:38:54Z</time>
      </trkpt>
      <trkpt lat="46.7911" lon="-2.06946">
        <ele>10.5</ele>
        <time>2023-07-05T07:39:00Z</time>
      </trkpt>
      <trkpt lat="46.79122" lon="-2.06948">
        <ele>11.3</ele>
        <time>2023-07-05T07:39:04Z</time>
      </trkpt>
      <trkpt lat="46.79124" lon="-2.06951">
        <ele>11.5</ele>
        <time>2023-07-05T07:39:06Z</time>
      </trkpt>
      <trkpt lat="46.79126" lon="-2.06954">
        <ele>11.5</ele>
        <time>2023-07-05T07:39:08Z</time>
      </trkpt>
      <trkpt lat="46.79128" lon="-2.06966">
        <ele>11.6</ele>
        <time>2023-07-05T07:39:11Z</time>
      </trkpt>
      <trkpt lat="46.79129" lon="-2.06983">
        <ele>11.3</ele>
        <time>2023-07-05T07:39:14Z</time>
      </trkpt>
      <trkpt lat="46.79128" lon="-2.0699">
        <ele>11</ele>
        <time>2023-07-05T07:39:15Z</time>
      </trkpt>
      <trkpt lat="46.79125" lon="-2.07005">
        <ele>10.7</ele>
        <time>2023-07-05T07:39:17Z</time>
      </trkpt>
      <trkpt lat="46.79126" lon="-2.07011">
        <ele>10.7</ele>
        <time>2023-07-05T07:39:18Z</time>
      </trkpt>
      <trkpt lat="46.79132" lon="-2.07026">
        <ele>11.4</ele>
        <time>2023-07-05T07:39:22Z</time>
      </trkpt>
      <trkpt lat="46.79133" lon="-2.07028">
        <ele>11.6</ele>
        <time>2023-07-05T07:39:23Z</time>
      </trkpt>
      <trkpt lat="46.79134" lon="-2.07034">
        <ele>12.1</ele>
        <time>2023-07-05T07:39:25Z</time>
      </trkpt>
      <trkpt lat="46.79134" lon="-2.07037">
        <ele>12.3</ele>
        <time>2023-07-05T07:39:26Z</time>
      </trkpt>
      <trkpt lat="46.79134" lon="-2.0704">
        <ele>12.6</ele>
        <time>2023-07-05T07:39:27Z</time>
      </trkpt>
      <trkpt lat="46.79134" lon="-2.07047">
        <ele>13.3</ele>
        <time>2023-07-05T07:39:30Z</time>
      </trkpt>
      <trkpt lat="46.79135" lon="-2.07064">
        <ele>14.4</ele>
        <time>2023-07-05T07:39:35Z</time>
      </trkpt>
      <trkpt lat="46.79134" lon="-2.0708">
        <ele>14.8</ele>
        <time>2023-07-05T07:39:39Z</time>
      </trkpt>
      <trkpt lat="46.79137" lon="-2.07097">
        <ele>14.8</ele>
        <time>2023-07-05T07:39:43Z</time>
      </trkpt>
      <trkpt lat="46.79145" lon="-2.07117">
        <ele>14.7</ele>
        <time>2023-07-05T07:39:49Z</time>
      </trkpt>
      <trkpt lat="46.79146" lon="-2.07119">
        <ele>14.9</ele>
        <time>2023-07-05T07:39:53Z</time>
      </trkpt>
      <trkpt lat="46.79146" lon="-2.0712">
        <ele>14.9</ele>
        <time>2023-07-05T07:40:00Z</time>
      </trkpt>
      <trkpt lat="46.79146" lon="-2.0712">
        <ele>14.9</ele>
        <time>2023-07-05T07:40:15Z</time>
      </trkpt>
      <trkpt lat="46.79149" lon="-2.07124">
        <ele>15.2</ele>
        <time>2023-07-05T07:40:17Z</time>
      </trkpt>
      <trkpt lat="46.79152" lon="-2.07129">
        <ele>15.6</ele>
        <time>2023-07-05T07:40:19Z</time>
      </trkpt>
      <trkpt lat="46.79167" lon="-2.07144">
        <ele>17.3</ele>
        <time>2023-07-05T07:40:26Z</time>
      </trkpt>
      <trkpt lat="46.79181" lon="-2.07156">
        <ele>18.6</ele>
        <time>2023-07-05T07:40:32Z</time>
      </trkpt>
      <trkpt lat="46.79195" lon="-2.0717">
        <ele>19.4</ele>
        <time>2023-07-05T07:40:38Z</time>
      </trkpt>
      <trkpt lat="46.79207" lon="-2.07185">
        <ele>19.4</ele>
        <time>2023-07-05T07:40:43Z</time>
      </trkpt>
      <trkpt lat="46.79225" lon="-2.07204">
        <ele>18.2</ele>
        <time>2023-07-05T07:40:48Z</time>
      </trkpt>
      <trkpt lat="46.79233" lon="-2.07228">
        <ele>17</ele>
        <time>2023-07-05T07:40:51Z</time>
      </trkpt>
      <trkpt lat="46.79239" lon="-2.07244">
        <ele>16.6</ele>
        <time>2023-07-05T07:40:53Z</time>
      </trkpt>
      <trkpt lat="46.79248" lon="-2.07265">
        <ele>16.4</ele>
        <time>2023-07-05T07:40:56Z</time>
      </trkpt>
      <trkpt lat="46.79251" lon="-2.07269">
        <ele>16.4</ele>
        <time>2023-07-05T07:40:57Z</time>
      </trkpt>
      <trkpt lat="46.79263" lon="-2.07271">
        <ele>16.1</ele>
        <time>2023-07-05T07:41:00Z</time>
      </trkpt>
      <trkpt lat="46.79268" lon="-2.07273">
        <ele>15.9</ele>
        <time>2023-07-05T07:41:01Z</time>
      </trkpt>
      <trkpt lat="46.79277" lon="-2.07277">
        <ele>15.6</ele>
        <time>2023-07-05T07:41:03Z</time>
      </trkpt>
      <trkpt lat="46.79292" lon="-2.0728">
        <ele>15.2</ele>
        <time>2023-07-05T07:41:06Z</time>
      </trkpt>
      <trkpt lat="46.79302" lon="-2.07291">
        <ele>14.9</ele>
        <time>2023-07-05T07:41:09Z</time>
      </trkpt>
      <trkpt lat="46.7931" lon="-2.07301">
        <ele>14.8</ele>
        <time>2023-07-05T07:41:11Z</time>
      </trkpt>
      <trkpt lat="46.79314" lon="-2.07305">
        <ele>14.7</ele>
        <time>2023-07-05T07:41:12Z</time>
      </trkpt>
      <trkpt lat="46.79322" lon="-2.07308">
        <ele>14.7</ele>
        <time>2023-07-05T07:41:14Z</time>
      </trkpt>
      <trkpt lat="46.79333" lon="-2.07309">
        <ele>15</ele>
        <time>2023-07-05T07:41:17Z</time>
      </trkpt>
      <trkpt lat="46.79336" lon="-2.07313">
        <ele>15.1</ele>
        <time>2023-07-05T07:41:18Z</time>
      </trkpt>
      <trkpt lat="46.79345" lon="-2.07327">
        <ele>15.8</ele>
        <time>2023-07-05T07:41:21Z</time>
      </trkpt>
      <trkpt lat="46.79351" lon="-2.07333">
        <ele>16.3</ele>
        <time>2023-07-05T07:41:23Z</time>
      </trkpt>
      <trkpt lat="46.79355" lon="-2.07337">
        <ele>16.6</ele>
        <time>2023-07-05T07:41:25Z</time>
      </trkpt>
      <trkpt lat="46.79359" lon="-2.07338">
        <ele>16.8</ele>
        <time>2023-07-05T07:41:26Z</time>
      </trkpt>
      <trkpt lat="46.79369" lon="-2.07345">
        <ele>17.2</ele>
        <time>2023-07-05T07:41:29Z</time>
      </trkpt>
      <trkpt lat="46.79377" lon="-2.07349">
        <ele>17.5</ele>
        <time>2023-07-05T07:41:31Z</time>
      </trkpt>
      <trkpt lat="46.79386" lon="-2.07354">
        <ele>17.9</ele>
        <time>2023-07-05T07:41:35Z</time>
      </trkpt>
      <trkpt lat="46.79388" lon="-2.07356">
        <ele>18</ele>
        <time>2023-07-05T07:41:36Z</time>
      </trkpt>
      <trkpt lat="46.79406" lon="-2.07369">
        <ele>19.2</ele>
        <time>2023-07-05T07:41:43Z</time>
      </trkpt>
      <trkpt lat="46.79419" lon="-2.07373">
        <ele>19.8</ele>
        <time>2023-07-05T07:41:48Z</time>
      </trkpt>
      <trkpt lat="46.79433" lon="-2.07377">
        <ele>20.4</ele>
        <time>2023-07-05T07:41:53Z</time>
      </trkpt>
      <trkpt lat="46.79444" lon="-2.07379">
        <ele>20.9</ele>
        <time>2023-07-05T07:41:58Z</time>
      </trkpt>
      <trkpt lat="46.79445" lon="-2.0738">
        <ele>21</ele>
        <time>2023-07-05T07:41:59Z</time>
      </trkpt>
      <trkpt lat="46.79451" lon="-2.07381">
        <ele>21.2</ele>
        <time>2023-07-05T07:42:03Z</time>
      </trkpt>
      <trkpt lat="46.79452" lon="-2.07382">
        <ele>21.3</ele>
        <time>2023-07-05T07:42:04Z</time>
      </trkpt>
      <trkpt lat="46.79458" lon="-2.07391">
        <ele>21.4</ele>
        <time>2023-07-05T07:42:07Z</time>
      </trkpt>
      <trkpt lat="46.79466" lon="-2.07399">
        <ele>21</ele>
        <time>2023-07-05T07:42:09Z</time>
      </trkpt>
      <trkpt lat="46.79471" lon="-2.07403">
        <ele>20.7</ele>
        <time>2023-07-05T07:42:10Z</time>
      </trkpt>
      <trkpt lat="46.79476" lon="-2.07406">
        <ele>20.1</ele>
        <time>2023-07-05T07:42:11Z</time>
      </trkpt>
      <trkpt lat="46.79486" lon="-2.07415">
        <ele>18.8</ele>
        <time>2023-07-05T07:42:13Z</time>
      </trkpt>
      <trkpt lat="46.7949" lon="-2.07433">
        <ele>17.1</ele>
        <time>2023-07-05T07:42:15Z</time>
      </trkpt>
      <trkpt lat="46.79491" lon="-2.07448">
        <ele>16.2</ele>
        <time>2023-07-05T07:42:17Z</time>
      </trkpt>
      <trkpt lat="46.79493" lon="-2.07451">
        <ele>16</ele>
        <time>2023-07-05T07:42:18Z</time>
      </trkpt>
      <trkpt lat="46.79502" lon="-2.07462">
        <ele>15.7</ele>
        <time>2023-07-05T07:42:23Z</time>
      </trkpt>
      <trkpt lat="46.7951" lon="-2.07482">
        <ele>16.3</ele>
        <time>2023-07-05T07:42:30Z</time>
      </trkpt>
      <trkpt lat="46.79518" lon="-2.07499">
        <ele>16.5</ele>
        <time>2023-07-05T07:42:35Z</time>
      </trkpt>
      <trkpt lat="46.79526" lon="-2.07519">
        <ele>16.3</ele>
        <time>2023-07-05T07:42:39Z</time>
      </trkpt>
      <trkpt lat="46.79526" lon="-2.07535">
        <ele>16.1</ele>
        <time>2023-07-05T07:42:42Z</time>
      </trkpt>
      <trkpt lat="46.79528" lon="-2.07538">
        <ele>16.1</ele>
        <time>2023-07-05T07:42:43Z</time>
      </trkpt>
      <trkpt lat="46.79537" lon="-2.07543">
        <ele>16.1</ele>
        <time>2023-07-05T07:42:47Z</time>
      </trkpt>
      <trkpt lat="46.79544" lon="-2.07548">
        <ele>16.2</ele>
        <time>2023-07-05T07:42:53Z</time>
      </trkpt>
      <trkpt lat="46.79549" lon="-2.07551">
        <ele>16.3</ele>
        <time>2023-07-05T07:42:57Z</time>
      </trkpt>
      <trkpt lat="46.79552" lon="-2.07553">
        <ele>16.3</ele>
        <time>2023-07-05T07:42:59Z</time>
      </trkpt>
      <trkpt lat="46.7956" lon="-2.07559">
        <ele>16.4</ele>
        <time>2023-07-05T07:43:04Z</time>
      </trkpt>
      <trkpt lat="46.79572" lon="-2.07577">
        <ele>16.2</ele>
        <time>2023-07-05T07:43:10Z</time>
      </trkpt>
      <trkpt lat="46.79587" lon="-2.07604">
        <ele>16</ele>
        <time>2023-07-05T07:43:16Z</time>
      </trkpt>
      <trkpt lat="46.79599" lon="-2.07625">
        <ele>16.2</ele>
        <time>2023-07-05T07:43:21Z</time>
      </trkpt>
      <trkpt lat="46.79612" lon="-2.07643">
        <ele>16.2</ele>
        <time>2023-07-05T07:43:26Z</time>
      </trkpt>
      <trkpt lat="46.79615" lon="-2.07654">
        <ele>15.9</ele>
        <time>2023-07-05T07:43:28Z</time>
      </trkpt>
      <trkpt lat="46.79616" lon="-2.0766">
        <ele>15.7</ele>
        <time>2023-07-05T07:43:29Z</time>
      </trkpt>
      <trkpt lat="46.79614" lon="-2.07677">
        <ele>15.1</ele>
        <time>2023-07-05T07:43:33Z</time>
      </trkpt>
      <trkpt lat="46.79617" lon="-2.07681">
        <ele>15</ele>
        <time>2023-07-05T07:43:36Z</time>
      </trkpt>
      <trkpt lat="46.79618" lon="-2.07683">
        <ele>14.9</ele>
        <time>2023-07-05T07:43:37Z</time>
      </trkpt>
      <trkpt lat="46.7962" lon="-2.0769">
        <ele>14.7</ele>
        <time>2023-07-05T07:43:39Z</time>
      </trkpt>
      <trkpt lat="46.79619" lon="-2.07694">
        <ele>14.6</ele>
        <time>2023-07-05T07:43:40Z</time>
      </trkpt>
      <trkpt lat="46.79619" lon="-2.07696">
        <ele>14.5</ele>
        <time>2023-07-05T07:43:41Z</time>
      </trkpt>
      <trkpt lat="46.79619" lon="-2.07707">
        <ele>14.4</ele>
        <time>2023-07-05T07:43:45Z</time>
      </trkpt>
      <trkpt lat="46.79617" lon="-2.07728">
        <ele>15.3</ele>
        <time>2023-07-05T07:43:52Z</time>
      </trkpt>
      <trkpt lat="46.79616" lon="-2.07741">
        <ele>16</ele>
        <time>2023-07-05T07:43:56Z</time>
      </trkpt>
      <trkpt lat="46.79615" lon="-2.07743">
        <ele>16.2</ele>
        <time>2023-07-05T07:43:57Z</time>
      </trkpt>
      <trkpt lat="46.79614" lon="-2.07757">
        <ele>17.1</ele>
        <time>2023-07-05T07:44:03Z</time>
      </trkpt>
      <trkpt lat="46.79615" lon="-2.0777">
        <ele>18</ele>
        <time>2023-07-05T07:44:08Z</time>
      </trkpt>
      <trkpt lat="46.79617" lon="-2.07774">
        <ele>18.4</ele>
        <time>2023-07-05T07:44:10Z</time>
      </trkpt>
      <trkpt lat="46.79618" lon="-2.0778">
        <ele>18.8</ele>
        <time>2023-07-05T07:44:12Z</time>
      </trkpt>
      <trkpt lat="46.79618" lon="-2.07786">
        <ele>19.2</ele>
        <time>2023-07-05T07:44:14Z</time>
      </trkpt>
      <trkpt lat="46.79619" lon="-2.07798">
        <ele>20</ele>
        <time>2023-07-05T07:44:18Z</time>
      </trkpt>
      <trkpt lat="46.79621" lon="-2.07819">
        <ele>21.2</ele>
        <time>2023-07-05T07:44:24Z</time>
      </trkpt>
      <trkpt lat="46.79621" lon="-2.07836">
        <ele>22.1</ele>
        <time>2023-07-05T07:44:29Z</time>
      </trkpt>
      <trkpt lat="46.7962" lon="-2.07845">
        <ele>22.4</ele>
        <time>2023-07-05T07:44:32Z</time>
      </trkpt>
      <trkpt lat="46.79621" lon="-2.0785">
        <ele>22.6</ele>
        <time>2023-07-05T07:44:34Z</time>
      </trkpt>
      <trkpt lat="46.79623" lon="-2.07855">
        <ele>22.8</ele>
        <time>2023-07-05T07:44:36Z</time>
      </trkpt>
      <trkpt lat="46.79625" lon="-2.0786">
        <ele>23</ele>
        <time>2023-07-05T07:44:38Z</time>
      </trkpt>
      <trkpt lat="46.79632" lon="-2.07877">
        <ele>23.4</ele>
        <time>2023-07-05T07:44:43Z</time>
      </trkpt>
      <trkpt lat="46.79638" lon="-2.07901">
        <ele>23.9</ele>
        <time>2023-07-05T07:44:49Z</time>
      </trkpt>
      <trkpt lat="46.79643" lon="-2.07927">
        <ele>24.8</ele>
        <time>2023-07-05T07:44:56Z</time>
      </trkpt>
      <trkpt lat="46.79647" lon="-2.07949">
        <ele>25.3</ele>
        <time>2023-07-05T07:45:02Z</time>
      </trkpt>
      <trkpt lat="46.79656" lon="-2.07985">
        <ele>24.9</ele>
        <time>2023-07-05T07:45:11Z</time>
      </trkpt>
      <trkpt lat="46.79664" lon="-2.07995">
        <ele>24.4</ele>
        <time>2023-07-05T07:45:14Z</time>
      </trkpt>
      <trkpt lat="46.79674" lon="-2.07995">
        <ele>24.2</ele>
        <time>2023-07-05T07:45:16Z</time>
      </trkpt>
      <trkpt lat="46.79678" lon="-2.07993">
        <ele>24.1</ele>
        <time>2023-07-05T07:45:17Z</time>
      </trkpt>
      <trkpt lat="46.7969" lon="-2.07992">
        <ele>24.2</ele>
        <time>2023-07-05T07:45:21Z</time>
      </trkpt>
      <trkpt lat="46.79702" lon="-2.07999">
        <ele>24.3</ele>
        <time>2023-07-05T07:45:25Z</time>
      </trkpt>
      <trkpt lat="46.79714" lon="-2.08008">
        <ele>24.1</ele>
        <time>2023-07-05T07:45:30Z</time>
      </trkpt>
      <trkpt lat="46.79724" lon="-2.08024">
        <ele>23.1</ele>
        <time>2023-07-05T07:45:34Z</time>
      </trkpt>
      <trkpt lat="46.7973" lon="-2.08038">
        <ele>21.7</ele>
        <time>2023-07-05T07:45:36Z</time>
      </trkpt>
      <trkpt lat="46.79733" lon="-2.08046">
        <ele>20.6</ele>
        <time>2023-07-05T07:45:37Z</time>
      </trkpt>
      <trkpt lat="46.79744" lon="-2.08064">
        <ele>17.8</ele>
        <time>2023-07-05T07:45:39Z</time>
      </trkpt>
      <trkpt lat="46.79754" lon="-2.08079">
        <ele>15.7</ele>
        <time>2023-07-05T07:45:41Z</time>
      </trkpt>
      <trkpt lat="46.79756" lon="-2.08093">
        <ele>14.7</ele>
        <time>2023-07-05T07:45:43Z</time>
      </trkpt>
      <trkpt lat="46.79757" lon="-2.081">
        <ele>14.3</ele>
        <time>2023-07-05T07:45:44Z</time>
      </trkpt>
      <trkpt lat="46.7976" lon="-2.08123">
        <ele>13.3</ele>
        <time>2023-07-05T07:45:48Z</time>
      </trkpt>
      <trkpt lat="46.79755" lon="-2.08143">
        <ele>13.1</ele>
        <time>2023-07-05T07:45:52Z</time>
      </trkpt>
      <trkpt lat="46.79749" lon="-2.0817">
        <ele>13.2</ele>
        <time>2023-07-05T07:45:57Z</time>
      </trkpt>
      <trkpt lat="46.79752" lon="-2.08176">
        <ele>13.3</ele>
        <time>2023-07-05T07:45:59Z</time>
      </trkpt>
      <trkpt lat="46.79754" lon="-2.08177">
        <ele>13.3</ele>
        <time>2023-07-05T07:46:00Z</time>
      </trkpt>
      <trkpt lat="46.79772" lon="-2.08178">
        <ele>13.2</ele>
        <time>2023-07-05T07:46:06Z</time>
      </trkpt>
      <trkpt lat="46.79784" lon="-2.08179">
        <ele>13.2</ele>
        <time>2023-07-05T07:46:09Z</time>
      </trkpt>
      <trkpt lat="46.79792" lon="-2.08181">
        <ele>13.3</ele>
        <time>2023-07-05T07:46:11Z</time>
      </trkpt>
      <trkpt lat="46.79803" lon="-2.08185">
        <ele>13.9</ele>
        <time>2023-07-05T07:46:15Z</time>
      </trkpt>
      <trkpt lat="46.79819" lon="-2.08194">
        <ele>14.7</ele>
        <time>2023-07-05T07:46:22Z</time>
      </trkpt>
      <trkpt lat="46.79825" lon="-2.08202">
        <ele>15.3</ele>
        <time>2023-07-05T07:46:26Z</time>
      </trkpt>
      <trkpt lat="46.79828" lon="-2.08206">
        <ele>15.9</ele>
        <time>2023-07-05T07:46:28Z</time>
      </trkpt>
      <trkpt lat="46.79831" lon="-2.08209">
        <ele>16.4</ele>
        <time>2023-07-05T07:46:30Z</time>
      </trkpt>
      <trkpt lat="46.79839" lon="-2.08216">
        <ele>17.6</ele>
        <time>2023-07-05T07:46:35Z</time>
      </trkpt>
      <trkpt lat="46.79846" lon="-2.08221">
        <ele>18.6</ele>
        <time>2023-07-05T07:46:39Z</time>
      </trkpt>
      <trkpt lat="46.79849" lon="-2.08224">
        <ele>19</ele>
        <time>2023-07-05T07:46:41Z</time>
      </trkpt>
      <trkpt lat="46.79852" lon="-2.08228">
        <ele>19.7</ele>
        <time>2023-07-05T07:46:44Z</time>
      </trkpt>
      <trkpt lat="46.79856" lon="-2.08233">
        <ele>20.3</ele>
        <time>2023-07-05T07:46:47Z</time>
      </trkpt>
      <trkpt lat="46.79857" lon="-2.08236">
        <ele>20.6</ele>
        <time>2023-07-05T07:46:49Z</time>
      </trkpt>
      <trkpt lat="46.79864" lon="-2.08247">
        <ele>21.4</ele>
        <time>2023-07-05T07:46:55Z</time>
      </trkpt>
      <trkpt lat="46.79874" lon="-2.08264">
        <ele>21.8</ele>
        <time>2023-07-05T07:47:00Z</time>
      </trkpt>
      <trkpt lat="46.79881" lon="-2.08273">
        <ele>21.9</ele>
        <time>2023-07-05T07:47:04Z</time>
      </trkpt>
      <trkpt lat="46.79887" lon="-2.08281">
        <ele>22</ele>
        <time>2023-07-05T07:47:08Z</time>
      </trkpt>
      <trkpt lat="46.79889" lon="-2.08283">
        <ele>22</ele>
        <time>2023-07-05T07:47:09Z</time>
      </trkpt>
      <trkpt lat="46.79901" lon="-2.08298">
        <ele>22</ele>
        <time>2023-07-05T07:47:15Z</time>
      </trkpt>
      <trkpt lat="46.79909" lon="-2.0831">
        <ele>21.8</ele>
        <time>2023-07-05T07:47:19Z</time>
      </trkpt>
      <trkpt lat="46.7991" lon="-2.08312">
        <ele>21.7</ele>
        <time>2023-07-05T07:47:20Z</time>
      </trkpt>
      <trkpt lat="46.79915" lon="-2.08327">
        <ele>21.4</ele>
        <time>2023-07-05T07:47:24Z</time>
      </trkpt>
      <trkpt lat="46.79924" lon="-2.08354">
        <ele>20.6</ele>
        <time>2023-07-05T07:47:29Z</time>
      </trkpt>
      <trkpt lat="46.79928" lon="-2.08363">
        <ele>20.3</ele>
        <time>2023-07-05T07:47:31Z</time>
      </trkpt>
      <trkpt lat="46.79932" lon="-2.08375">
        <ele>19.9</ele>
        <time>2023-07-05T07:47:33Z</time>
      </trkpt>
      <trkpt lat="46.79934" lon="-2.08381">
        <ele>19.7</ele>
        <time>2023-07-05T07:47:34Z</time>
      </trkpt>
      <trkpt lat="46.79941" lon="-2.08402">
        <ele>19.2</ele>
        <time>2023-07-05T07:47:37Z</time>
      </trkpt>
      <trkpt lat="46.79943" lon="-2.08408">
        <ele>19.2</ele>
        <time>2023-07-05T07:47:38Z</time>
      </trkpt>
      <trkpt lat="46.79946" lon="-2.08417">
        <ele>19.4</ele>
        <time>2023-07-05T07:47:40Z</time>
      </trkpt>
      <trkpt lat="46.79947" lon="-2.08426">
        <ele>19.5</ele>
        <time>2023-07-05T07:47:42Z</time>
      </trkpt>
      <trkpt lat="46.79945" lon="-2.08432">
        <ele>19.7</ele>
        <time>2023-07-05T07:47:44Z</time>
      </trkpt>
      <trkpt lat="46.7994" lon="-2.08454">
        <ele>20.4</ele>
        <time>2023-07-05T07:47:51Z</time>
      </trkpt>
      <trkpt lat="46.79938" lon="-2.08467">
        <ele>20.5</ele>
        <time>2023-07-05T07:47:56Z</time>
      </trkpt>
      <trkpt lat="46.79938" lon="-2.08469">
        <ele>20.5</ele>
        <time>2023-07-05T07:47:57Z</time>
      </trkpt>
      <trkpt lat="46.7994" lon="-2.08487">
        <ele>20.2</ele>
        <time>2023-07-05T07:48:02Z</time>
      </trkpt>
      <trkpt lat="46.7994" lon="-2.08493">
        <ele>20</ele>
        <time>2023-07-05T07:48:03Z</time>
      </trkpt>
      <trkpt lat="46.79944" lon="-2.08507">
        <ele>19.6</ele>
        <time>2023-07-05T07:48:06Z</time>
      </trkpt>
      <trkpt lat="46.79948" lon="-2.0852">
        <ele>19.4</ele>
        <time>2023-07-05T07:48:11Z</time>
      </trkpt>
      <trkpt lat="46.79947" lon="-2.08525">
        <ele>19</ele>
        <time>2023-07-05T07:48:13Z</time>
      </trkpt>
      <trkpt lat="46.79944" lon="-2.0853">
        <ele>18.6</ele>
        <time>2023-07-05T07:48:15Z</time>
      </trkpt>
      <trkpt lat="46.79941" lon="-2.08539">
        <ele>17.9</ele>
        <time>2023-07-05T07:48:19Z</time>
      </trkpt>
      <trkpt lat="46.7994" lon="-2.08543">
        <ele>17.5</ele>
        <time>2023-07-05T07:48:21Z</time>
      </trkpt>
      <trkpt lat="46.79941" lon="-2.08545">
        <ele>17.4</ele>
        <time>2023-07-05T07:48:22Z</time>
      </trkpt>
      <trkpt lat="46.79941" lon="-2.08545">
        <ele>17.3</ele>
        <time>2023-07-05T07:48:25Z</time>
      </trkpt>
      <trkpt lat="46.79941" lon="-2.08545">
        <ele>17.3</ele>
        <time>2023-07-05T07:48:37Z</time>
      </trkpt>
      <trkpt lat="46.79944" lon="-2.0855">
        <ele>16.7</ele>
        <time>2023-07-05T07:48:49Z</time>
      </trkpt>
      <trkpt lat="46.79946" lon="-2.08554">
        <ele>16.2</ele>
        <time>2023-07-05T07:48:50Z</time>
      </trkpt>
      <trkpt lat="46.79952" lon="-2.08567">
        <ele>15</ele>
        <time>2023-07-05T07:48:52Z</time>
      </trkpt>
      <trkpt lat="46.79955" lon="-2.08574">
        <ele>14.7</ele>
        <time>2023-07-05T07:48:53Z</time>
      </trkpt>
      <trkpt lat="46.79962" lon="-2.0859">
        <ele>14.8</ele>
        <time>2023-07-05T07:48:56Z</time>
      </trkpt>
      <trkpt lat="46.79968" lon="-2.08606">
        <ele>15.6</ele>
        <time>2023-07-05T07:49:01Z</time>
      </trkpt>
      <trkpt lat="46.79976" lon="-2.08626">
        <ele>16.8</ele>
        <time>2023-07-05T07:49:07Z</time>
      </trkpt>
      <trkpt lat="46.79978" lon="-2.08633">
        <ele>17.1</ele>
        <time>2023-07-05T07:49:09Z</time>
      </trkpt>
      <trkpt lat="46.79977" lon="-2.0864">
        <ele>17.4</ele>
        <time>2023-07-05T07:49:11Z</time>
      </trkpt>
      <trkpt lat="46.79976" lon="-2.08642">
        <ele>17.6</ele>
        <time>2023-07-05T07:49:12Z</time>
      </trkpt>
      <trkpt lat="46.79965" lon="-2.08655">
        <ele>18.5</ele>
        <time>2023-07-05T07:49:18Z</time>
      </trkpt>
      <trkpt lat="46.79956" lon="-2.08671">
        <ele>19.5</ele>
        <time>2023-07-05T07:49:23Z</time>
      </trkpt>
      <trkpt lat="46.79955" lon="-2.08682">
        <ele>20.2</ele>
        <time>2023-07-05T07:49:26Z</time>
      </trkpt>
      <trkpt lat="46.79955" lon="-2.08688">
        <ele>20.6</ele>
        <time>2023-07-05T07:49:28Z</time>
      </trkpt>
      <trkpt lat="46.79955" lon="-2.08703">
        <ele>21.5</ele>
        <time>2023-07-05T07:49:33Z</time>
      </trkpt>
      <trkpt lat="46.79958" lon="-2.08716">
        <ele>22.3</ele>
        <time>2023-07-05T07:49:38Z</time>
      </trkpt>
      <trkpt lat="46.79963" lon="-2.08724">
        <ele>22.7</ele>
        <time>2023-07-05T07:49:41Z</time>
      </trkpt>
      <trkpt lat="46.79967" lon="-2.08729">
        <ele>23</ele>
        <time>2023-07-05T07:49:43Z</time>
      </trkpt>
      <trkpt lat="46.79975" lon="-2.08739">
        <ele>23.2</ele>
        <time>2023-07-05T07:49:47Z</time>
      </trkpt>
      <trkpt lat="46.79977" lon="-2.08749">
        <ele>23.4</ele>
        <time>2023-07-05T07:49:50Z</time>
      </trkpt>
      <trkpt lat="46.79977" lon="-2.08757">
        <ele>23.4</ele>
        <time>2023-07-05T07:49:52Z</time>
      </trkpt>
      <trkpt lat="46.79977" lon="-2.08771">
        <ele>23.6</ele>
        <time>2023-07-05T07:49:55Z</time>
      </trkpt>
      <trkpt lat="46.79978" lon="-2.0878">
        <ele>23.8</ele>
        <time>2023-07-05T07:49:57Z</time>
      </trkpt>
      <trkpt lat="46.79978" lon="-2.08784">
        <ele>23.9</ele>
        <time>2023-07-05T07:49:58Z</time>
      </trkpt>
      <trkpt lat="46.7998" lon="-2.08796">
        <ele>24.2</ele>
        <time>2023-07-05T07:50:01Z</time>
      </trkpt>
      <trkpt lat="46.79983" lon="-2.08813">
        <ele>24.8</ele>
        <time>2023-07-05T07:50:06Z</time>
      </trkpt>
      <trkpt lat="46.79983" lon="-2.08818">
        <ele>25</ele>
        <time>2023-07-05T07:50:07Z</time>
      </trkpt>
      <trkpt lat="46.79979" lon="-2.08831">
        <ele>25.5</ele>
        <time>2023-07-05T07:50:10Z</time>
      </trkpt>
      <trkpt lat="46.79978" lon="-2.08836">
        <ele>25.7</ele>
        <time>2023-07-05T07:50:11Z</time>
      </trkpt>
      <trkpt lat="46.79977" lon="-2.08843">
        <ele>26.1</ele>
        <time>2023-07-05T07:50:13Z</time>
      </trkpt>
      <trkpt lat="46.79977" lon="-2.08861">
        <ele>27.1</ele>
        <time>2023-07-05T07:50:18Z</time>
      </trkpt>
      <trkpt lat="46.79977" lon="-2.0888">
        <ele>28.4</ele>
        <time>2023-07-05T07:50:25Z</time>
      </trkpt>
      <trkpt lat="46.79973" lon="-2.08897">
        <ele>29.5</ele>
        <time>2023-07-05T07:50:31Z</time>
      </trkpt>
      <trkpt lat="46.79972" lon="-2.08899">
        <ele>29.6</ele>
        <time>2023-07-05T07:50:32Z</time>
      </trkpt>
      <trkpt lat="46.79971" lon="-2.08904">
        <ele>29.8</ele>
        <time>2023-07-05T07:50:35Z</time>
      </trkpt>
      <trkpt lat="46.79969" lon="-2.08906">
        <ele>29.9</ele>
        <time>2023-07-05T07:50:37Z</time>
      </trkpt>
      <trkpt lat="46.7997" lon="-2.0891">
        <ele>30.1</ele>
        <time>2023-07-05T07:50:40Z</time>
      </trkpt>
      <trkpt lat="46.7997" lon="-2.0891">
        <ele>30.1</ele>
        <time>2023-07-05T07:50:51Z</time>
      </trkpt>
      <trkpt lat="46.7997" lon="-2.0891">
        <ele>30.1</ele>
        <time>2023-07-05T07:50:54Z</time>
      </trkpt>
      <trkpt lat="46.79968" lon="-2.08916">
        <ele>30.2</ele>
        <time>2023-07-05T07:50:57Z</time>
      </trkpt>
      <trkpt lat="46.79966" lon="-2.08922">
        <ele>30.2</ele>
        <time>2023-07-05T07:51:00Z</time>
      </trkpt>
      <trkpt lat="46.79966" lon="-2.08926">
        <ele>30.1</ele>
        <time>2023-07-05T07:51:02Z</time>
      </trkpt>
      <trkpt lat="46.79964" lon="-2.0893">
        <ele>30</ele>
        <time>2023-07-05T07:51:08Z</time>
      </trkpt>
      <trkpt lat="46.79964" lon="-2.0893">
        <ele>30</ele>
        <time>2023-07-05T07:51:17Z</time>
      </trkpt>
      <trkpt lat="46.79965" lon="-2.08932">
        <ele>29.9</ele>
        <time>2023-07-05T07:51:23Z</time>
      </trkpt>
      <trkpt lat="46.79965" lon="-2.08932">
        <ele>29.9</ele>
        <time>2023-07-05T07:51:48Z</time>
      </trkpt>
      <trkpt lat="46.79964" lon="-2.08933">
        <ele>29.9</ele>
        <time>2023-07-05T07:52:14Z</time>
      </trkpt>
      <trkpt lat="46.79964" lon="-2.08933">
        <ele>29.9</ele>
        <time>2023-07-05T07:52:38Z</time>
      </trkpt>
      <trkpt lat="46.79964" lon="-2.08934">
        <ele>29.9</ele>
        <time>2023-07-05T07:53:06Z</time>
      </trkpt>
      <trkpt lat="46.79964" lon="-2.08934">
        <ele>29.8</ele>
        <time>2023-07-05T07:53:33Z</time>
      </trkpt>
      <trkpt lat="46.79964" lon="-2.08934">
        <ele>29.8</ele>
        <time>2023-07-05T07:53:36Z</time>
      </trkpt>
      <trkpt lat="46.79964" lon="-2.08932">
        <ele>29.8</ele>
        <time>2023-07-05T07:53:38Z</time>
      </trkpt>
      <trkpt lat="46.79964" lon="-2.08931">
        <ele>29.7</ele>
        <time>2023-07-05T07:53:45Z</time>
      </trkpt>
      <trkpt lat="46.79965" lon="-2.08929">
        <ele>29.6</ele>
        <time>2023-07-05T07:53:47Z</time>
      </trkpt>
      <trkpt lat="46.79967" lon="-2.08927">
        <ele>29.3</ele>
        <time>2023-07-05T07:53:50Z</time>
      </trkpt>
      <trkpt lat="46.79977" lon="-2.08925">
        <ele>28.3</ele>
        <time>2023-07-05T07:53:54Z</time>
      </trkpt>
      <trkpt lat="46.79984" lon="-2.08925">
        <ele>27.5</ele>
        <time>2023-07-05T07:53:56Z</time>
      </trkpt>
      <trkpt lat="46.79989" lon="-2.08927">
        <ele>27</ele>
        <time>2023-07-05T07:53:57Z</time>
      </trkpt>
      <trkpt lat="46.79994" lon="-2.0893">
        <ele>26.5</ele>
        <time>2023-07-05T07:53:58Z</time>
      </trkpt>
      <trkpt lat="46.80007" lon="-2.08934">
        <ele>25.6</ele>
        <time>2023-07-05T07:54:00Z</time>
      </trkpt>
      <trkpt lat="46.80019" lon="-2.0894">
        <ele>24.8</ele>
        <time>2023-07-05T07:54:02Z</time>
      </trkpt>
      <trkpt lat="46.80032" lon="-2.08945">
        <ele>24.1</ele>
        <time>2023-07-05T07:54:04Z</time>
      </trkpt>
      <trkpt lat="46.80041" lon="-2.08952">
        <ele>23.4</ele>
        <time>2023-07-05T07:54:06Z</time>
      </trkpt>
      <trkpt lat="46.80047" lon="-2.08959">
        <ele>23.1</ele>
        <time>2023-07-05T07:54:07Z</time>
      </trkpt>
      <trkpt lat="46.80051" lon="-2.08966">
        <ele>22.9</ele>
        <time>2023-07-05T07:54:08Z</time>
      </trkpt>
      <trkpt lat="46.80059" lon="-2.08978">
        <ele>22.7</ele>
        <time>2023-07-05T07:54:10Z</time>
      </trkpt>
      <trkpt lat="46.80064" lon="-2.08982">
        <ele>22.7</ele>
        <time>2023-07-05T07:54:11Z</time>
      </trkpt>
      <trkpt lat="46.80068" lon="-2.08985">
        <ele>22.8</ele>
        <time>2023-07-05T07:54:12Z</time>
      </trkpt>
      <trkpt lat="46.8008" lon="-2.08992">
        <ele>22.5</ele>
        <time>2023-07-05T07:54:15Z</time>
      </trkpt>
      <trkpt lat="46.80084" lon="-2.09007">
        <ele>22.3</ele>
        <time>2023-07-05T07:54:18Z</time>
      </trkpt>
      <trkpt lat="46.80091" lon="-2.09026">
        <ele>22</ele>
        <time>2023-07-05T07:54:22Z</time>
      </trkpt>
      <trkpt lat="46.801" lon="-2.09038">
        <ele>22</ele>
        <time>2023-07-05T07:54:26Z</time>
      </trkpt>
      <trkpt lat="46.80114" lon="-2.09047">
        <ele>22.3</ele>
        <time>2023-07-05T07:54:31Z</time>
      </trkpt>
      <trkpt lat="46.80118" lon="-2.09052">
        <ele>22.4</ele>
        <time>2023-07-05T07:54:33Z</time>
      </trkpt>
      <trkpt lat="46.80123" lon="-2.09056">
        <ele>22.6</ele>
        <time>2023-07-05T07:54:35Z</time>
      </trkpt>
      <trkpt lat="46.80138" lon="-2.09075">
        <ele>22.5</ele>
        <time>2023-07-05T07:54:41Z</time>
      </trkpt>
      <trkpt lat="46.80146" lon="-2.09087">
        <ele>22.1</ele>
        <time>2023-07-05T07:54:44Z</time>
      </trkpt>
      <trkpt lat="46.80148" lon="-2.09091">
        <ele>22</ele>
        <time>2023-07-05T07:54:45Z</time>
      </trkpt>
      <trkpt lat="46.80154" lon="-2.09106">
        <ele>21.6</ele>
        <time>2023-07-05T07:54:48Z</time>
      </trkpt>
      <trkpt lat="46.80158" lon="-2.09116">
        <ele>21.4</ele>
        <time>2023-07-05T07:54:50Z</time>
      </trkpt>
      <trkpt lat="46.8016" lon="-2.09128">
        <ele>21.3</ele>
        <time>2023-07-05T07:54:52Z</time>
      </trkpt>
      <trkpt lat="46.80167" lon="-2.09146">
        <ele>21.7</ele>
        <time>2023-07-05T07:54:56Z</time>
      </trkpt>
      <trkpt lat="46.80169" lon="-2.09153">
        <ele>21.9</ele>
        <time>2023-07-05T07:54:58Z</time>
      </trkpt>
      <trkpt lat="46.80169" lon="-2.09158">
        <ele>22.1</ele>
        <time>2023-07-05T07:54:59Z</time>
      </trkpt>
      <trkpt lat="46.80173" lon="-2.09181">
        <ele>22.8</ele>
        <time>2023-07-05T07:55:03Z</time>
      </trkpt>
      <trkpt lat="46.80168" lon="-2.09205">
        <ele>23.7</ele>
        <time>2023-07-05T07:55:07Z</time>
      </trkpt>
      <trkpt lat="46.80167" lon="-2.09218">
        <ele>24.9</ele>
        <time>2023-07-05T07:55:11Z</time>
      </trkpt>
      <trkpt lat="46.80163" lon="-2.0923">
        <ele>26</ele>
        <time>2023-07-05T07:55:15Z</time>
      </trkpt>
      <trkpt lat="46.80163" lon="-2.09238">
        <ele>26.3</ele>
        <time>2023-07-05T07:55:17Z</time>
      </trkpt>
      <trkpt lat="46.80164" lon="-2.09243">
        <ele>26.3</ele>
        <time>2023-07-05T07:55:18Z</time>
      </trkpt>
      <trkpt lat="46.80166" lon="-2.09254">
        <ele>26.1</ele>
        <time>2023-07-05T07:55:20Z</time>
      </trkpt>
      <trkpt lat="46.80173" lon="-2.09273">
        <ele>25</ele>
        <time>2023-07-05T07:55:23Z</time>
      </trkpt>
      <trkpt lat="46.80175" lon="-2.09276">
        <ele>24.7</ele>
        <time>2023-07-05T07:55:24Z</time>
      </trkpt>
      <trkpt lat="46.80179" lon="-2.09278">
        <ele>24.4</ele>
        <time>2023-07-05T07:55:26Z</time>
      </trkpt>
      <trkpt lat="46.80187" lon="-2.0928">
        <ele>23.7</ele>
        <time>2023-07-05T07:55:29Z</time>
      </trkpt>
      <trkpt lat="46.80198" lon="-2.09289">
        <ele>23.1</ele>
        <time>2023-07-05T07:55:32Z</time>
      </trkpt>
      <trkpt lat="46.80213" lon="-2.09314">
        <ele>22.7</ele>
        <time>2023-07-05T07:55:37Z</time>
      </trkpt>
      <trkpt lat="46.80225" lon="-2.09329">
        <ele>23.1</ele>
        <time>2023-07-05T07:55:42Z</time>
      </trkpt>
      <trkpt lat="46.8023" lon="-2.09342">
        <ele>23.4</ele>
        <time>2023-07-05T07:55:48Z</time>
      </trkpt>
      <trkpt lat="46.80238" lon="-2.09351">
        <ele>23.3</ele>
        <time>2023-07-05T07:55:53Z</time>
      </trkpt>
      <trkpt lat="46.80243" lon="-2.09361">
        <ele>22.7</ele>
        <time>2023-07-05T07:55:57Z</time>
      </trkpt>
      <trkpt lat="46.80244" lon="-2.09365">
        <ele>22.7</ele>
        <time>2023-07-05T07:55:58Z</time>
      </trkpt>
      <trkpt lat="46.80249" lon="-2.09388">
        <ele>22.4</ele>
        <time>2023-07-05T07:56:03Z</time>
      </trkpt>
      <trkpt lat="46.80254" lon="-2.09419">
        <ele>22.1</ele>
        <time>2023-07-05T07:56:09Z</time>
      </trkpt>
      <trkpt lat="46.80259" lon="-2.09442">
        <ele>22.5</ele>
        <time>2023-07-05T07:56:15Z</time>
      </trkpt>
      <trkpt lat="46.8026" lon="-2.09458">
        <ele>23.3</ele>
        <time>2023-07-05T07:56:20Z</time>
      </trkpt>
      <trkpt lat="46.8026" lon="-2.09461">
        <ele>23.5</ele>
        <time>2023-07-05T07:56:21Z</time>
      </trkpt>
      <trkpt lat="46.80257" lon="-2.0947">
        <ele>24.1</ele>
        <time>2023-07-05T07:56:24Z</time>
      </trkpt>
      <trkpt lat="46.80256" lon="-2.09476">
        <ele>24.5</ele>
        <time>2023-07-05T07:56:26Z</time>
      </trkpt>
      <trkpt lat="46.80258" lon="-2.09493">
        <ele>24.8</ele>
        <time>2023-07-05T07:56:31Z</time>
      </trkpt>
      <trkpt lat="46.8026" lon="-2.09515">
        <ele>24.1</ele>
        <time>2023-07-05T07:56:35Z</time>
      </trkpt>
      <trkpt lat="46.80261" lon="-2.09523">
        <ele>23.8</ele>
        <time>2023-07-05T07:56:36Z</time>
      </trkpt>
      <trkpt lat="46.80266" lon="-2.09559">
        <ele>23.7</ele>
        <time>2023-07-05T07:56:41Z</time>
      </trkpt>
      <trkpt lat="46.8027" lon="-2.09581">
        <ele>25.5</ele>
        <time>2023-07-05T07:56:47Z</time>
      </trkpt>
      <trkpt lat="46.80279" lon="-2.09593">
        <ele>25.4</ele>
        <time>2023-07-05T07:56:53Z</time>
      </trkpt>
      <trkpt lat="46.80294" lon="-2.09601">
        <ele>24.2</ele>
        <time>2023-07-05T07:56:58Z</time>
      </trkpt>
      <trkpt lat="46.80303" lon="-2.09601">
        <ele>23.1</ele>
        <time>2023-07-05T07:57:01Z</time>
      </trkpt>
      <trkpt lat="46.80305" lon="-2.09601">
        <ele>22.9</ele>
        <time>2023-07-05T07:57:02Z</time>
      </trkpt>
      <trkpt lat="46.80307" lon="-2.09603">
        <ele>22.9</ele>
        <time>2023-07-05T07:57:04Z</time>
      </trkpt>
      <trkpt lat="46.80306" lon="-2.09605">
        <ele>22.7</ele>
        <time>2023-07-05T07:57:08Z</time>
      </trkpt>
      <trkpt lat="46.80304" lon="-2.09609">
        <ele>22.4</ele>
        <time>2023-07-05T07:57:10Z</time>
      </trkpt>
      <trkpt lat="46.80303" lon="-2.09612">
        <ele>22.1</ele>
        <time>2023-07-05T07:57:11Z</time>
      </trkpt>
      <trkpt lat="46.80301" lon="-2.09621">
        <ele>21.5</ele>
        <time>2023-07-05T07:57:13Z</time>
      </trkpt>
      <trkpt lat="46.80306" lon="-2.09643">
        <ele>20</ele>
        <time>2023-07-05T07:57:17Z</time>
      </trkpt>
      <trkpt lat="46.80312" lon="-2.09662">
        <ele>18.5</ele>
        <time>2023-07-05T07:57:20Z</time>
      </trkpt>
      <trkpt lat="46.80316" lon="-2.09668">
        <ele>17.9</ele>
        <time>2023-07-05T07:57:21Z</time>
      </trkpt>
      <trkpt lat="46.80321" lon="-2.09676">
        <ele>17.2</ele>
        <time>2023-07-05T07:57:23Z</time>
      </trkpt>
      <trkpt lat="46.80324" lon="-2.09688">
        <ele>16.6</ele>
        <time>2023-07-05T07:57:25Z</time>
      </trkpt>
      <trkpt lat="46.80327" lon="-2.097">
        <ele>16.1</ele>
        <time>2023-07-05T07:57:27Z</time>
      </trkpt>
      <trkpt lat="46.80329" lon="-2.09714">
        <ele>15.8</ele>
        <time>2023-07-05T07:57:30Z</time>
      </trkpt>
      <trkpt lat="46.80329" lon="-2.09717">
        <ele>15.7</ele>
        <time>2023-07-05T07:57:31Z</time>
      </trkpt>
      <trkpt lat="46.80329" lon="-2.0972">
        <ele>15.7</ele>
        <time>2023-07-05T07:57:34Z</time>
      </trkpt>
      <trkpt lat="46.80329" lon="-2.0972">
        <ele>15.7</ele>
        <time>2023-07-05T07:57:42Z</time>
      </trkpt>
      <trkpt lat="46.80329" lon="-2.0972">
        <ele>15.7</ele>
        <time>2023-07-05T07:57:48Z</time>
      </trkpt>
      <trkpt lat="46.80329" lon="-2.0972">
        <ele>15.7</ele>
        <time>2023-07-05T07:57:56Z</time>
      </trkpt>
      <trkpt lat="46.80329" lon="-2.0972">
        <ele>15.7</ele>
        <time>2023-07-05T07:58:03Z</time>
      </trkpt>
      <trkpt lat="46.80331" lon="-2.09732">
        <ele>16.6</ele>
        <time>2023-07-05T07:58:09Z</time>
      </trkpt>
      <trkpt lat="46.80332" lon="-2.09734">
        <ele>16.9</ele>
        <time>2023-07-05T07:58:11Z</time>
      </trkpt>
      <trkpt lat="46.80335" lon="-2.09741">
        <ele>17.8</ele>
        <time>2023-07-05T07:58:14Z</time>
      </trkpt>
      <trkpt lat="46.80335" lon="-2.09744">
        <ele>18.2</ele>
        <time>2023-07-05T07:58:16Z</time>
      </trkpt>
      <trkpt lat="46.80336" lon="-2.09755">
        <ele>19.6</ele>
        <time>2023-07-05T07:58:19Z</time>
      </trkpt>
      <trkpt lat="46.80336" lon="-2.09755">
        <ele>19.6</ele>
        <time>2023-07-05T07:58:25Z</time>
      </trkpt>
      <trkpt lat="46.80336" lon="-2.09755">
        <ele>19.6</ele>
        <time>2023-07-05T07:58:32Z</time>
      </trkpt>
      <trkpt lat="46.80337" lon="-2.09761">
        <ele>20.4</ele>
        <time>2023-07-05T07:58:34Z</time>
      </trkpt>
      <trkpt lat="46.80339" lon="-2.0977">
        <ele>21.4</ele>
        <time>2023-07-05T07:58:37Z</time>
      </trkpt>
      <trkpt lat="46.8034" lon="-2.09774">
        <ele>21.7</ele>
        <time>2023-07-05T07:58:38Z</time>
      </trkpt>
      <trkpt lat="46.80341" lon="-2.09783">
        <ele>22.3</ele>
        <time>2023-07-05T07:58:43Z</time>
      </trkpt>
      <trkpt lat="46.80341" lon="-2.09787">
        <ele>22.5</ele>
        <time>2023-07-05T07:58:45Z</time>
      </trkpt>
      <trkpt lat="46.8034" lon="-2.09796">
        <ele>22.9</ele>
        <time>2023-07-05T07:58:49Z</time>
      </trkpt>
      <trkpt lat="46.8034" lon="-2.09796">
        <ele>22.9</ele>
        <time>2023-07-05T07:59:03Z</time>
      </trkpt>
      <trkpt lat="46.8034" lon="-2.09796">
        <ele>22.9</ele>
        <time>2023-07-05T07:59:26Z</time>
      </trkpt>
      <trkpt lat="46.8034" lon="-2.09807">
        <ele>23.1</ele>
        <time>2023-07-05T07:59:32Z</time>
      </trkpt>
      <trkpt lat="46.80341" lon="-2.09813">
        <ele>23.2</ele>
        <time>2023-07-05T07:59:34Z</time>
      </trkpt>
      <trkpt lat="46.80344" lon="-2.09822">
        <ele>23</ele>
        <time>2023-07-05T07:59:36Z</time>
      </trkpt>
      <trkpt lat="46.80346" lon="-2.09835">
        <ele>22.6</ele>
        <time>2023-07-05T07:59:38Z</time>
      </trkpt>
      <trkpt lat="46.80346" lon="-2.09843">
        <ele>22.2</ele>
        <time>2023-07-05T07:59:39Z</time>
      </trkpt>
      <trkpt lat="46.80347" lon="-2.0985">
        <ele>21.7</ele>
        <time>2023-07-05T07:59:40Z</time>
      </trkpt>
      <trkpt lat="46.80346" lon="-2.0987">
        <ele>20.4</ele>
        <time>2023-07-05T07:59:42Z</time>
      </trkpt>
      <trkpt lat="46.80346" lon="-2.09879">
        <ele>19.7</ele>
        <time>2023-07-05T07:59:43Z</time>
      </trkpt>
      <trkpt lat="46.80345" lon="-2.09889">
        <ele>19.2</ele>
        <time>2023-07-05T07:59:44Z</time>
      </trkpt>
      <trkpt lat="46.80341" lon="-2.0991">
        <ele>17.9</ele>
        <time>2023-07-05T07:59:46Z</time>
      </trkpt>
      <trkpt lat="46.80335" lon="-2.09933">
        <ele>16.8</ele>
        <time>2023-07-05T07:59:48Z</time>
      </trkpt>
      <trkpt lat="46.80329" lon="-2.09952">
        <ele>16.2</ele>
        <time>2023-07-05T07:59:50Z</time>
      </trkpt>
      <trkpt lat="46.80322" lon="-2.0998">
        <ele>15.8</ele>
        <time>2023-07-05T07:59:53Z</time>
      </trkpt>
      <trkpt lat="46.80321" lon="-2.09997">
        <ele>15.3</ele>
        <time>2023-07-05T07:59:55Z</time>
      </trkpt>
      <trkpt lat="46.80318" lon="-2.10015">
        <ele>14.7</ele>
        <time>2023-07-05T07:59:57Z</time>
      </trkpt>
      <trkpt lat="46.80314" lon="-2.10022">
        <ele>14.3</ele>
        <time>2023-07-05T07:59:58Z</time>
      </trkpt>
      <trkpt lat="46.80308" lon="-2.10027">
        <ele>13.7</ele>
        <time>2023-07-05T07:59:59Z</time>
      </trkpt>
      <trkpt lat="46.80294" lon="-2.10036">
        <ele>11.8</ele>
        <time>2023-07-05T08:00:01Z</time>
      </trkpt>
      <trkpt lat="46.8029" lon="-2.10046">
        <ele>10.5</ele>
        <time>2023-07-05T08:00:03Z</time>
      </trkpt>
      <trkpt lat="46.80292" lon="-2.10062">
        <ele>8.4</ele>
        <time>2023-07-05T08:00:06Z</time>
      </trkpt>
      <trkpt lat="46.80295" lon="-2.10077">
        <ele>7.1</ele>
        <time>2023-07-05T08:00:08Z</time>
      </trkpt>
      <trkpt lat="46.80298" lon="-2.10085">
        <ele>6.5</ele>
        <time>2023-07-05T08:00:09Z</time>
      </trkpt>
      <trkpt lat="46.80308" lon="-2.10105">
        <ele>5.2</ele>
        <time>2023-07-05T08:00:12Z</time>
      </trkpt>
      <trkpt lat="46.80315" lon="-2.10113">
        <ele>4.9</ele>
        <time>2023-07-05T08:00:14Z</time>
      </trkpt>
      <trkpt lat="46.80318" lon="-2.10117">
        <ele>4.9</ele>
        <time>2023-07-05T08:00:15Z</time>
      </trkpt>
      <trkpt lat="46.80338" lon="-2.1014">
        <ele>5.4</ele>
        <time>2023-07-05T08:00:21Z</time>
      </trkpt>
      <trkpt lat="46.80348" lon="-2.10151">
        <ele>6.1</ele>
        <time>2023-07-05T08:00:25Z</time>
      </trkpt>
      <trkpt lat="46.80358" lon="-2.10158">
        <ele>6.6</ele>
        <time>2023-07-05T08:00:29Z</time>
      </trkpt>
      <trkpt lat="46.80367" lon="-2.10169">
        <ele>7</ele>
        <time>2023-07-05T08:00:34Z</time>
      </trkpt>
      <trkpt lat="46.80374" lon="-2.10181">
        <ele>7.7</ele>
        <time>2023-07-05T08:00:39Z</time>
      </trkpt>
      <trkpt lat="46.80378" lon="-2.10197">
        <ele>8.5</ele>
        <time>2023-07-05T08:00:45Z</time>
      </trkpt>
      <trkpt lat="46.80381" lon="-2.10201">
        <ele>8.8</ele>
        <time>2023-07-05T08:00:47Z</time>
      </trkpt>
      <trkpt lat="46.80385" lon="-2.10205">
        <ele>9.2</ele>
        <time>2023-07-05T08:00:50Z</time>
      </trkpt>
      <trkpt lat="46.80389" lon="-2.1021">
        <ele>9.7</ele>
        <time>2023-07-05T08:00:54Z</time>
      </trkpt>
      <trkpt lat="46.80391" lon="-2.10212">
        <ele>9.8</ele>
        <time>2023-07-05T08:00:56Z</time>
      </trkpt>
      <trkpt lat="46.80393" lon="-2.10218">
        <ele>10.2</ele>
        <time>2023-07-05T08:01:00Z</time>
      </trkpt>
      <trkpt lat="46.80393" lon="-2.10224">
        <ele>10.6</ele>
        <time>2023-07-05T08:01:03Z</time>
      </trkpt>
      <trkpt lat="46.80393" lon="-2.10226">
        <ele>10.7</ele>
        <time>2023-07-05T08:01:04Z</time>
      </trkpt>
      <trkpt lat="46.80397" lon="-2.10233">
        <ele>11</ele>
        <time>2023-07-05T08:01:09Z</time>
      </trkpt>
      <trkpt lat="46.80402" lon="-2.10244">
        <ele>11.5</ele>
        <time>2023-07-05T08:01:16Z</time>
      </trkpt>
      <trkpt lat="46.80402" lon="-2.10247">
        <ele>11.6</ele>
        <time>2023-07-05T08:01:19Z</time>
      </trkpt>
      <trkpt lat="46.80403" lon="-2.10252">
        <ele>11.8</ele>
        <time>2023-07-05T08:01:22Z</time>
      </trkpt>
      <trkpt lat="46.80406" lon="-2.10267">
        <ele>12.3</ele>
        <time>2023-07-05T08:01:30Z</time>
      </trkpt>
      <trkpt lat="46.80408" lon="-2.10272">
        <ele>12.6</ele>
        <time>2023-07-05T08:01:35Z</time>
      </trkpt>
      <trkpt lat="46.80408" lon="-2.10273">
        <ele>12.6</ele>
        <time>2023-07-05T08:01:36Z</time>
      </trkpt>
      <trkpt lat="46.80415" lon="-2.10278">
        <ele>15.6</ele>
        <time>2023-07-05T08:01:42Z</time>
      </trkpt>
      <trkpt lat="46.8042" lon="-2.10279">
        <ele>16.1</ele>
        <time>2023-07-05T08:01:45Z</time>
      </trkpt>
      <trkpt lat="46.80424" lon="-2.10282">
        <ele>16.5</ele>
        <time>2023-07-05T08:01:48Z</time>
      </trkpt>
      <trkpt lat="46.80427" lon="-2.10285">
        <ele>16.9</ele>
        <time>2023-07-05T08:01:51Z</time>
      </trkpt>
      <trkpt lat="46.80431" lon="-2.10288">
        <ele>17.2</ele>
        <time>2023-07-05T08:01:54Z</time>
      </trkpt>
      <trkpt lat="46.80432" lon="-2.10288">
        <ele>17.2</ele>
        <time>2023-07-05T08:01:55Z</time>
      </trkpt>
      <trkpt lat="46.80437" lon="-2.10292">
        <ele>17.4</ele>
        <time>2023-07-05T08:02:00Z</time>
      </trkpt>
      <trkpt lat="46.80447" lon="-2.10296">
        <ele>17.3</ele>
        <time>2023-07-05T08:02:07Z</time>
      </trkpt>
      <trkpt lat="46.80456" lon="-2.10306">
        <ele>16.7</ele>
        <time>2023-07-05T08:02:14Z</time>
      </trkpt>
      <trkpt lat="46.80457" lon="-2.10314">
        <ele>16.3</ele>
        <time>2023-07-05T08:02:16Z</time>
      </trkpt>
      <trkpt lat="46.80456" lon="-2.10325">
        <ele>15.6</ele>
        <time>2023-07-05T08:02:18Z</time>
      </trkpt>
      <trkpt lat="46.80458" lon="-2.10359">
        <ele>14</ele>
        <time>2023-07-05T08:02:22Z</time>
      </trkpt>
      <trkpt lat="46.8046" lon="-2.10368">
        <ele>13.7</ele>
        <time>2023-07-05T08:02:23Z</time>
      </trkpt>
      <trkpt lat="46.80466" lon="-2.10385">
        <ele>13.3</ele>
        <time>2023-07-05T08:02:25Z</time>
      </trkpt>
      <trkpt lat="46.80471" lon="-2.10391">
        <ele>13.1</ele>
        <time>2023-07-05T08:02:26Z</time>
      </trkpt>
      <trkpt lat="46.80477" lon="-2.10395">
        <ele>12.9</ele>
        <time>2023-07-05T08:02:27Z</time>
      </trkpt>
      <trkpt lat="46.80489" lon="-2.10399">
        <ele>12.8</ele>
        <time>2023-07-05T08:02:29Z</time>
      </trkpt>
      <trkpt lat="46.80494" lon="-2.10399">
        <ele>12.9</ele>
        <time>2023-07-05T08:02:30Z</time>
      </trkpt>
      <trkpt lat="46.805" lon="-2.10401">
        <ele>13</ele>
        <time>2023-07-05T08:02:31Z</time>
      </trkpt>
      <trkpt lat="46.8051" lon="-2.10405">
        <ele>13.4</ele>
        <time>2023-07-05T08:02:33Z</time>
      </trkpt>
      <trkpt lat="46.80513" lon="-2.10408">
        <ele>13.6</ele>
        <time>2023-07-05T08:02:34Z</time>
      </trkpt>
      <trkpt lat="46.80523" lon="-2.1042">
        <ele>14.4</ele>
        <time>2023-07-05T08:02:39Z</time>
      </trkpt>
      <trkpt lat="46.80533" lon="-2.1043">
        <ele>15.2</ele>
        <time>2023-07-05T08:02:44Z</time>
      </trkpt>
      <trkpt lat="46.80535" lon="-2.10432">
        <ele>15.4</ele>
        <time>2023-07-05T08:02:45Z</time>
      </trkpt>
      <trkpt lat="46.80538" lon="-2.10437">
        <ele>15.8</ele>
        <time>2023-07-05T08:02:48Z</time>
      </trkpt>
      <trkpt lat="46.80545" lon="-2.10444">
        <ele>16.5</ele>
        <time>2023-07-05T08:02:53Z</time>
      </trkpt>
      <trkpt lat="46.80546" lon="-2.10445">
        <ele>16.6</ele>
        <time>2023-07-05T08:02:54Z</time>
      </trkpt>
      <trkpt lat="46.80554" lon="-2.10449">
        <ele>17</ele>
        <time>2023-07-05T08:02:59Z</time>
      </trkpt>
      <trkpt lat="46.80563" lon="-2.10461">
        <ele>17.3</ele>
        <time>2023-07-05T08:03:04Z</time>
      </trkpt>
      <trkpt lat="46.80569" lon="-2.10474">
        <ele>17.3</ele>
        <time>2023-07-05T08:03:07Z</time>
      </trkpt>
      <trkpt lat="46.80566" lon="-2.10483">
        <ele>17.3</ele>
        <time>2023-07-05T08:03:10Z</time>
      </trkpt>
      <trkpt lat="46.80563" lon="-2.10504">
        <ele>17.3</ele>
        <time>2023-07-05T08:03:17Z</time>
      </trkpt>
      <trkpt lat="46.80558" lon="-2.10524">
        <ele>17</ele>
        <time>2023-07-05T08:03:21Z</time>
      </trkpt>
      <trkpt lat="46.80553" lon="-2.10543">
        <ele>16.8</ele>
        <time>2023-07-05T08:03:25Z</time>
      </trkpt>
      <trkpt lat="46.80552" lon="-2.10554">
        <ele>16.7</ele>
        <time>2023-07-05T08:03:28Z</time>
      </trkpt>
      <trkpt lat="46.80552" lon="-2.10558">
        <ele>16.6</ele>
        <time>2023-07-05T08:03:29Z</time>
      </trkpt>
      <trkpt lat="46.80554" lon="-2.10574">
        <ele>16.1</ele>
        <time>2023-07-05T08:03:32Z</time>
      </trkpt>
      <trkpt lat="46.80555" lon="-2.10581">
        <ele>15.8</ele>
        <time>2023-07-05T08:03:33Z</time>
      </trkpt>
      <trkpt lat="46.80553" lon="-2.1059">
        <ele>15.4</ele>
        <time>2023-07-05T08:03:34Z</time>
      </trkpt>
      <trkpt lat="46.80552" lon="-2.10608">
        <ele>14.4</ele>
        <time>2023-07-05T08:03:36Z</time>
      </trkpt>
      <trkpt lat="46.80552" lon="-2.10617">
        <ele>13.8</ele>
        <time>2023-07-05T08:03:37Z</time>
      </trkpt>
      <trkpt lat="46.80551" lon="-2.10627">
        <ele>13.2</ele>
        <time>2023-07-05T08:03:38Z</time>
      </trkpt>
      <trkpt lat="46.80549" lon="-2.10649">
        <ele>11.8</ele>
        <time>2023-07-05T08:03:40Z</time>
      </trkpt>
      <trkpt lat="46.80547" lon="-2.10677">
        <ele>10</ele>
        <time>2023-07-05T08:03:43Z</time>
      </trkpt>
      <trkpt lat="46.80547" lon="-2.10682">
        <ele>9.8</ele>
        <time>2023-07-05T08:03:45Z</time>
      </trkpt>
      <trkpt lat="46.80547" lon="-2.10684">
        <ele>9.7</ele>
        <time>2023-07-05T08:03:46Z</time>
      </trkpt>
      <trkpt lat="46.80549" lon="-2.10691">
        <ele>9.2</ele>
        <time>2023-07-05T08:03:51Z</time>
      </trkpt>
      <trkpt lat="46.80554" lon="-2.10692">
        <ele>9.7</ele>
        <time>2023-07-05T08:03:56Z</time>
      </trkpt>
      <trkpt lat="46.80555" lon="-2.10692">
        <ele>9.7</ele>
        <time>2023-07-05T08:03:57Z</time>
      </trkpt>
      <trkpt lat="46.80558" lon="-2.10692">
        <ele>9.9</ele>
        <time>2023-07-05T08:03:59Z</time>
      </trkpt>
      <trkpt lat="46.80562" lon="-2.1069">
        <ele>10.2</ele>
        <time>2023-07-05T08:04:03Z</time>
      </trkpt>
      <trkpt lat="46.80567" lon="-2.10685">
        <ele>10.4</ele>
        <time>2023-07-05T08:04:08Z</time>
      </trkpt>
      <trkpt lat="46.80567" lon="-2.10684">
        <ele>10.4</ele>
        <time>2023-07-05T08:04:09Z</time>
      </trkpt>
      <trkpt lat="46.80572" lon="-2.10674">
        <ele>10.5</ele>
        <time>2023-07-05T08:04:16Z</time>
      </trkpt>
      <trkpt lat="46.80578" lon="-2.10666">
        <ele>10.3</ele>
        <time>2023-07-05T08:04:22Z</time>
      </trkpt>
      <trkpt lat="46.80579" lon="-2.10664">
        <ele>10.3</ele>
        <time>2023-07-05T08:04:23Z</time>
      </trkpt>
      <trkpt lat="46.80582" lon="-2.10659">
        <ele>9.9</ele>
        <time>2023-07-05T08:04:27Z</time>
      </trkpt>
      <trkpt lat="46.80585" lon="-2.10659">
        <ele>9.8</ele>
        <time>2023-07-05T08:04:29Z</time>
      </trkpt>
      <trkpt lat="46.80594" lon="-2.10657">
        <ele>8.8</ele>
        <time>2023-07-05T08:04:36Z</time>
      </trkpt>
      <trkpt lat="46.80598" lon="-2.10659">
        <ele>8.7</ele>
        <time>2023-07-05T08:04:40Z</time>
      </trkpt>
      <trkpt lat="46.80599" lon="-2.10662">
        <ele>8.8</ele>
        <time>2023-07-05T08:04:42Z</time>
      </trkpt>
      <trkpt lat="46.80601" lon="-2.10668">
        <ele>8.8</ele>
        <time>2023-07-05T08:04:45Z</time>
      </trkpt>
      <trkpt lat="46.80603" lon="-2.10673">
        <ele>8.7</ele>
        <time>2023-07-05T08:04:48Z</time>
      </trkpt>
      <trkpt lat="46.80605" lon="-2.10681">
        <ele>9</ele>
        <time>2023-07-05T08:04:52Z</time>
      </trkpt>
      <trkpt lat="46.80604" lon="-2.10686">
        <ele>9.2</ele>
        <time>2023-07-05T08:04:54Z</time>
      </trkpt>
      <trkpt lat="46.80606" lon="-2.10693">
        <ele>9.3</ele>
        <time>2023-07-05T08:04:58Z</time>
      </trkpt>
      <trkpt lat="46.80606" lon="-2.10698">
        <ele>9.5</ele>
        <time>2023-07-05T08:05:00Z</time>
      </trkpt>
      <trkpt lat="46.80608" lon="-2.10711">
        <ele>10.1</ele>
        <time>2023-07-05T08:05:06Z</time>
      </trkpt>
      <trkpt lat="46.80607" lon="-2.10725">
        <ele>10.7</ele>
        <time>2023-07-05T08:05:11Z</time>
      </trkpt>
      <trkpt lat="46.80608" lon="-2.1073">
        <ele>10.9</ele>
        <time>2023-07-05T08:05:13Z</time>
      </trkpt>
      <trkpt lat="46.80607" lon="-2.10738">
        <ele>11.2</ele>
        <time>2023-07-05T08:05:15Z</time>
      </trkpt>
      <trkpt lat="46.80607" lon="-2.10749">
        <ele>11.5</ele>
        <time>2023-07-05T08:05:17Z</time>
      </trkpt>
      <trkpt lat="46.80605" lon="-2.1076">
        <ele>11.8</ele>
        <time>2023-07-05T08:05:19Z</time>
      </trkpt>
      <trkpt lat="46.80606" lon="-2.10778">
        <ele>11.9</ele>
        <time>2023-07-05T08:05:22Z</time>
      </trkpt>
      <trkpt lat="46.80614" lon="-2.10796">
        <ele>12</ele>
        <time>2023-07-05T08:05:27Z</time>
      </trkpt>
      <trkpt lat="46.8062" lon="-2.10812">
        <ele>12</ele>
        <time>2023-07-05T08:05:32Z</time>
      </trkpt>
      <trkpt lat="46.80623" lon="-2.10817">
        <ele>12.1</ele>
        <time>2023-07-05T08:05:34Z</time>
      </trkpt>
      <trkpt lat="46.80625" lon="-2.10824">
        <ele>11.9</ele>
        <time>2023-07-05T08:05:36Z</time>
      </trkpt>
      <trkpt lat="46.80628" lon="-2.10834">
        <ele>11.9</ele>
        <time>2023-07-05T08:05:39Z</time>
      </trkpt>
      <trkpt lat="46.80628" lon="-2.10836">
        <ele>11.7</ele>
        <time>2023-07-05T08:05:40Z</time>
      </trkpt>
      <trkpt lat="46.80632" lon="-2.10842">
        <ele>11.8</ele>
        <time>2023-07-05T08:05:42Z</time>
      </trkpt>
      <trkpt lat="46.80634" lon="-2.10845">
        <ele>11.8</ele>
        <time>2023-07-05T08:05:43Z</time>
      </trkpt>
      <trkpt lat="46.80638" lon="-2.1085">
        <ele>12</ele>
        <time>2023-07-05T08:05:45Z</time>
      </trkpt>
      <trkpt lat="46.80642" lon="-2.10855">
        <ele>12</ele>
        <time>2023-07-05T08:05:47Z</time>
      </trkpt>
      <trkpt lat="46.80647" lon="-2.10863">
        <ele>12</ele>
        <time>2023-07-05T08:05:51Z</time>
      </trkpt>
      <trkpt lat="46.80649" lon="-2.10868">
        <ele>12</ele>
        <time>2023-07-05T08:05:53Z</time>
      </trkpt>
      <trkpt lat="46.80651" lon="-2.10872">
        <ele>12.1</ele>
        <time>2023-07-05T08:05:55Z</time>
      </trkpt>
      <trkpt lat="46.8066" lon="-2.10875">
        <ele>12.2</ele>
        <time>2023-07-05T08:06:00Z</time>
      </trkpt>
      <trkpt lat="46.80673" lon="-2.1088">
        <ele>11.8</ele>
        <time>2023-07-05T08:06:04Z</time>
      </trkpt>
      <trkpt lat="46.80685" lon="-2.10881">
        <ele>10.8</ele>
        <time>2023-07-05T08:06:07Z</time>
      </trkpt>
      <trkpt lat="46.80692" lon="-2.10882">
        <ele>10.3</ele>
        <time>2023-07-05T08:06:10Z</time>
      </trkpt>
      <trkpt lat="46.80694" lon="-2.10882">
        <ele>10</ele>
        <time>2023-07-05T08:06:11Z</time>
      </trkpt>
      <trkpt lat="46.80699" lon="-2.10881">
        <ele>9.8</ele>
        <time>2023-07-05T08:06:15Z</time>
      </trkpt>
      <trkpt lat="46.80708" lon="-2.10878">
        <ele>8.9</ele>
        <time>2023-07-05T08:06:20Z</time>
      </trkpt>
      <trkpt lat="46.8071" lon="-2.10878">
        <ele>8.6</ele>
        <time>2023-07-05T08:06:24Z</time>
      </trkpt>
      <trkpt lat="46.80711" lon="-2.10883">
        <ele>8.7</ele>
        <time>2023-07-05T08:06:30Z</time>
      </trkpt>
      <trkpt lat="46.80712" lon="-2.10886">
        <ele>8.7</ele>
        <time>2023-07-05T08:06:36Z</time>
      </trkpt>
      <trkpt lat="46.80715" lon="-2.10891">
        <ele>9.1</ele>
        <time>2023-07-05T08:06:42Z</time>
      </trkpt>
      <trkpt lat="46.80716" lon="-2.10892">
        <ele>9.1</ele>
        <time>2023-07-05T08:06:44Z</time>
      </trkpt>
      <trkpt lat="46.8072" lon="-2.10895">
        <ele>8.9</ele>
        <time>2023-07-05T08:06:48Z</time>
      </trkpt>
      <trkpt lat="46.80721" lon="-2.10896">
        <ele>8.9</ele>
        <time>2023-07-05T08:06:49Z</time>
      </trkpt>
      <trkpt lat="46.80722" lon="-2.109">
        <ele>9.2</ele>
        <time>2023-07-05T08:06:53Z</time>
      </trkpt>
      <trkpt lat="46.80722" lon="-2.109">
        <ele>9.3</ele>
        <time>2023-07-05T08:06:59Z</time>
      </trkpt>
      <trkpt lat="46.80722" lon="-2.109">
        <ele>9.3</ele>
        <time>2023-07-05T08:07:20Z</time>
      </trkpt>
      <trkpt lat="46.80723" lon="-2.109">
        <ele>9.4</ele>
        <time>2023-07-05T08:07:45Z</time>
      </trkpt>
      <trkpt lat="46.80723" lon="-2.109">
        <ele>9.4</ele>
        <time>2023-07-05T08:08:11Z</time>
      </trkpt>
      <trkpt lat="46.80723" lon="-2.109">
        <ele>9.5</ele>
        <time>2023-07-05T08:08:35Z</time>
      </trkpt>
      <trkpt lat="46.80723" lon="-2.109">
        <ele>9.5</ele>
        <time>2023-07-05T08:08:58Z</time>
      </trkpt>
      <trkpt lat="46.80723" lon="-2.109">
        <ele>9.6</ele>
        <time>2023-07-05T08:09:15Z</time>
      </trkpt>
      <trkpt lat="46.80723" lon="-2.10901">
        <ele>9.3</ele>
        <time>2023-07-05T08:09:19Z</time>
      </trkpt>
      <trkpt lat="46.80726" lon="-2.10903">
        <ele>9.3</ele>
        <time>2023-07-05T08:09:21Z</time>
      </trkpt>
      <trkpt lat="46.80731" lon="-2.1091">
        <ele>9.2</ele>
        <time>2023-07-05T08:09:25Z</time>
      </trkpt>
      <trkpt lat="46.80733" lon="-2.10918">
        <ele>9.3</ele>
        <time>2023-07-05T08:09:29Z</time>
      </trkpt>
      <trkpt lat="46.80734" lon="-2.10923">
        <ele>9.5</ele>
        <time>2023-07-05T08:09:32Z</time>
      </trkpt>
      <trkpt lat="46.80735" lon="-2.10926">
        <ele>9.4</ele>
        <time>2023-07-05T08:09:33Z</time>
      </trkpt>
      <trkpt lat="46.8074" lon="-2.10936">
        <ele>8.9</ele>
        <time>2023-07-05T08:09:36Z</time>
      </trkpt>
      <trkpt lat="46.80744" lon="-2.10942">
        <ele>8.7</ele>
        <time>2023-07-05T08:09:38Z</time>
      </trkpt>
      <trkpt lat="46.8075" lon="-2.10954">
        <ele>8.1</ele>
        <time>2023-07-05T08:09:41Z</time>
      </trkpt>
      <trkpt lat="46.80754" lon="-2.1097">
        <ele>8</ele>
        <time>2023-07-05T08:09:44Z</time>
      </trkpt>
      <trkpt lat="46.80755" lon="-2.1098">
        <ele>7.8</ele>
        <time>2023-07-05T08:09:46Z</time>
      </trkpt>
      <trkpt lat="46.80753" lon="-2.10984">
        <ele>8.4</ele>
        <time>2023-07-05T08:09:47Z</time>
      </trkpt>
      <trkpt lat="46.80755" lon="-2.10986">
        <ele>8</ele>
        <time>2023-07-05T08:09:48Z</time>
      </trkpt>
      <trkpt lat="46.80756" lon="-2.10992">
        <ele>8.1</ele>
        <time>2023-07-05T08:09:49Z</time>
      </trkpt>
      <trkpt lat="46.8076" lon="-2.11001">
        <ele>7.6</ele>
        <time>2023-07-05T08:09:51Z</time>
      </trkpt>
      <trkpt lat="46.80759" lon="-2.11008">
        <ele>7.8</ele>
        <time>2023-07-05T08:09:53Z</time>
      </trkpt>
      <trkpt lat="46.80765" lon="-2.11018">
        <ele>7.2</ele>
        <time>2023-07-05T08:09:56Z</time>
      </trkpt>
      <trkpt lat="46.80768" lon="-2.11033">
        <ele>7.3</ele>
        <time>2023-07-05T08:10:00Z</time>
      </trkpt>
      <trkpt lat="46.80767" lon="-2.11037">
        <ele>7.4</ele>
        <time>2023-07-05T08:10:01Z</time>
      </trkpt>
      <trkpt lat="46.80762" lon="-2.11053">
        <ele>8.6</ele>
        <time>2023-07-05T08:10:05Z</time>
      </trkpt>
      <trkpt lat="46.80759" lon="-2.11056">
        <ele>9.1</ele>
        <time>2023-07-05T08:10:06Z</time>
      </trkpt>
      <trkpt lat="46.80758" lon="-2.11065">
        <ele>10</ele>
        <time>2023-07-05T08:10:08Z</time>
      </trkpt>
      <trkpt lat="46.80759" lon="-2.11073">
        <ele>9.6</ele>
        <time>2023-07-05T08:10:11Z</time>
      </trkpt>
      <trkpt lat="46.80758" lon="-2.11076">
        <ele>9.7</ele>
        <time>2023-07-05T08:10:12Z</time>
      </trkpt>
      <trkpt lat="46.80757" lon="-2.11087">
        <ele>10.4</ele>
        <time>2023-07-05T08:10:15Z</time>
      </trkpt>
      <trkpt lat="46.80757" lon="-2.1109">
        <ele>10.5</ele>
        <time>2023-07-05T08:10:16Z</time>
      </trkpt>
      <trkpt lat="46.80758" lon="-2.11091">
        <ele>10</ele>
        <time>2023-07-05T08:10:17Z</time>
      </trkpt>
      <trkpt lat="46.80758" lon="-2.11099">
        <ele>10.6</ele>
        <time>2023-07-05T08:10:19Z</time>
      </trkpt>
      <trkpt lat="46.80757" lon="-2.11109">
        <ele>10.6</ele>
        <time>2023-07-05T08:10:22Z</time>
      </trkpt>
      <trkpt lat="46.80755" lon="-2.11114">
        <ele>10.6</ele>
        <time>2023-07-05T08:10:23Z</time>
      </trkpt>
      <trkpt lat="46.80754" lon="-2.11126">
        <ele>10.7</ele>
        <time>2023-07-05T08:10:26Z</time>
      </trkpt>
      <trkpt lat="46.80753" lon="-2.11134">
        <ele>10.6</ele>
        <time>2023-07-05T08:10:28Z</time>
      </trkpt>
      <trkpt lat="46.80751" lon="-2.11142">
        <ele>10.4</ele>
        <time>2023-07-05T08:10:30Z</time>
      </trkpt>
      <trkpt lat="46.80754" lon="-2.1115">
        <ele>10.2</ele>
        <time>2023-07-05T08:10:33Z</time>
      </trkpt>
      <trkpt lat="46.80754" lon="-2.11159">
        <ele>10</ele>
        <time>2023-07-05T08:10:35Z</time>
      </trkpt>
      <trkpt lat="46.8075" lon="-2.11173">
        <ele>9.6</ele>
        <time>2023-07-05T08:10:38Z</time>
      </trkpt>
      <trkpt lat="46.80749" lon="-2.11178">
        <ele>9.4</ele>
        <time>2023-07-05T08:10:39Z</time>
      </trkpt>
      <trkpt lat="46.80743" lon="-2.11201">
        <ele>8.7</ele>
        <time>2023-07-05T08:10:43Z</time>
      </trkpt>
      <trkpt lat="46.80743" lon="-2.11214">
        <ele>8.3</ele>
        <time>2023-07-05T08:10:46Z</time>
      </trkpt>
      <trkpt lat="46.80744" lon="-2.11219">
        <ele>8.3</ele>
        <time>2023-07-05T08:10:48Z</time>
      </trkpt>
      <trkpt lat="46.80744" lon="-2.11227">
        <ele>8.1</ele>
        <time>2023-07-05T08:10:51Z</time>
      </trkpt>
      <trkpt lat="46.80745" lon="-2.11238">
        <ele>7.8</ele>
        <time>2023-07-05T08:10:54Z</time>
      </trkpt>
      <trkpt lat="46.80752" lon="-2.11258">
        <ele>7.4</ele>
        <time>2023-07-05T08:10:58Z</time>
      </trkpt>
      <trkpt lat="46.80758" lon="-2.1127">
        <ele>7.2</ele>
        <time>2023-07-05T08:11:00Z</time>
      </trkpt>
      <trkpt lat="46.80758" lon="-2.11279">
        <ele>7.1</ele>
        <time>2023-07-05T08:11:01Z</time>
      </trkpt>
      <trkpt lat="46.80757" lon="-2.11295">
        <ele>6.8</ele>
        <time>2023-07-05T08:11:03Z</time>
      </trkpt>
      <trkpt lat="46.80756" lon="-2.113">
        <ele>6.8</ele>
        <time>2023-07-05T08:11:04Z</time>
      </trkpt>
      <trkpt lat="46.8075" lon="-2.11321">
        <ele>6.4</ele>
        <time>2023-07-05T08:11:08Z</time>
      </trkpt>
      <trkpt lat="46.80749" lon="-2.11328">
        <ele>6.6</ele>
        <time>2023-07-05T08:11:11Z</time>
      </trkpt>
      <trkpt lat="46.8075" lon="-2.11331">
        <ele>6.7</ele>
        <time>2023-07-05T08:11:13Z</time>
      </trkpt>
      <trkpt lat="46.80752" lon="-2.11329">
        <ele>6.7</ele>
        <time>2023-07-05T08:11:15Z</time>
      </trkpt>
      <trkpt lat="46.80753" lon="-2.11326">
        <ele>6.8</ele>
        <time>2023-07-05T08:11:20Z</time>
      </trkpt>
      <trkpt lat="46.80755" lon="-2.11324">
        <ele>6.9</ele>
        <time>2023-07-05T08:11:31Z</time>
      </trkpt>
      <trkpt lat="46.80756" lon="-2.11323">
        <ele>6.9</ele>
        <time>2023-07-05T08:11:32Z</time>
      </trkpt>
      <trkpt lat="46.80761" lon="-2.11313">
        <ele>7.1</ele>
        <time>2023-07-05T08:11:38Z</time>
      </trkpt>
      <trkpt lat="46.80769" lon="-2.113">
        <ele>7.3</ele>
        <time>2023-07-05T08:11:43Z</time>
      </trkpt>
      <trkpt lat="46.80781" lon="-2.11273">
        <ele>7.5</ele>
        <time>2023-07-05T08:11:50Z</time>
      </trkpt>
      <trkpt lat="46.80798" lon="-2.11245">
        <ele>7.7</ele>
        <time>2023-07-05T08:11:57Z</time>
      </trkpt>
      <trkpt lat="46.80823" lon="-2.11216">
        <ele>7.4</ele>
        <time>2023-07-05T08:12:04Z</time>
      </trkpt>
      <trkpt lat="46.80845" lon="-2.11187">
        <ele>7</ele>
        <time>2023-07-05T08:12:11Z</time>
      </trkpt>
      <trkpt lat="46.80849" lon="-2.11183">
        <ele>6.9</ele>
        <time>2023-07-05T08:12:13Z</time>
      </trkpt>
      <trkpt lat="46.8085" lon="-2.11184">
        <ele>6.9</ele>
        <time>2023-07-05T08:12:14Z</time>
      </trkpt>
      <trkpt lat="46.80857" lon="-2.11198">
        <ele>7</ele>
        <time>2023-07-05T08:12:19Z</time>
      </trkpt>
      <trkpt lat="46.80866" lon="-2.11216">
        <ele>7</ele>
        <time>2023-07-05T08:12:24Z</time>
      </trkpt>
      <trkpt lat="46.80872" lon="-2.1123">
        <ele>7</ele>
        <time>2023-07-05T08:12:28Z</time>
      </trkpt>
      <trkpt lat="46.80881" lon="-2.11254">
        <ele>6.9</ele>
        <time>2023-07-05T08:12:33Z</time>
      </trkpt>
      <trkpt lat="46.80886" lon="-2.11279">
        <ele>6.7</ele>
        <time>2023-07-05T08:12:37Z</time>
      </trkpt>
      <trkpt lat="46.80886" lon="-2.11286">
        <ele>6.7</ele>
        <time>2023-07-05T08:12:38Z</time>
      </trkpt>
      <trkpt lat="46.80891" lon="-2.11304">
        <ele>6.7</ele>
        <time>2023-07-05T08:12:41Z</time>
      </trkpt>
      <trkpt lat="46.80892" lon="-2.1131">
        <ele>6.7</ele>
        <time>2023-07-05T08:12:42Z</time>
      </trkpt>
      <trkpt lat="46.809" lon="-2.11345">
        <ele>6.5</ele>
        <time>2023-07-05T08:12:48Z</time>
      </trkpt>
      <trkpt lat="46.80909" lon="-2.11369">
        <ele>6.2</ele>
        <time>2023-07-05T08:12:52Z</time>
      </trkpt>
      <trkpt lat="46.80923" lon="-2.11403">
        <ele>5.8</ele>
        <time>2023-07-05T08:12:57Z</time>
      </trkpt>
      <trkpt lat="46.80928" lon="-2.11415">
        <ele>5.8</ele>
        <time>2023-07-05T08:12:59Z</time>
      </trkpt>
      <trkpt lat="46.8093" lon="-2.11422">
        <ele>5.8</ele>
        <time>2023-07-05T08:13:00Z</time>
      </trkpt>
      <trkpt lat="46.80941" lon="-2.11455">
        <ele>6.2</ele>
        <time>2023-07-05T08:13:05Z</time>
      </trkpt>
      <trkpt lat="46.80943" lon="-2.11462">
        <ele>6.3</ele>
        <time>2023-07-05T08:13:06Z</time>
      </trkpt>
      <trkpt lat="46.80945" lon="-2.11469">
        <ele>6.4</ele>
        <time>2023-07-05T08:13:07Z</time>
      </trkpt>
      <trkpt lat="46.8095" lon="-2.11485">
        <ele>6.8</ele>
        <time>2023-07-05T08:13:10Z</time>
      </trkpt>
      <trkpt lat="46.80954" lon="-2.1151">
        <ele>7.2</ele>
        <time>2023-07-05T08:13:15Z</time>
      </trkpt>
      <trkpt lat="46.80962" lon="-2.11536">
        <ele>7.7</ele>
        <time>2023-07-05T08:13:20Z</time>
      </trkpt>
      <trkpt lat="46.8097" lon="-2.11564">
        <ele>8</ele>
        <time>2023-07-05T08:13:25Z</time>
      </trkpt>
      <trkpt lat="46.8098" lon="-2.11603">
        <ele>7.9</ele>
        <time>2023-07-05T08:13:31Z</time>
      </trkpt>
      <trkpt lat="46.80993" lon="-2.11631">
        <ele>7.7</ele>
        <time>2023-07-05T08:13:36Z</time>
      </trkpt>
      <trkpt lat="46.80998" lon="-2.11642">
        <ele>7.7</ele>
        <time>2023-07-05T08:13:38Z</time>
      </trkpt>
      <trkpt lat="46.81001" lon="-2.11656">
        <ele>7.7</ele>
        <time>2023-07-05T08:13:40Z</time>
      </trkpt>
      <trkpt lat="46.81009" lon="-2.11698">
        <ele>8</ele>
        <time>2023-07-05T08:13:46Z</time>
      </trkpt>
      <trkpt lat="46.81015" lon="-2.1172">
        <ele>8.1</ele>
        <time>2023-07-05T08:13:50Z</time>
      </trkpt>
      <trkpt lat="46.81016" lon="-2.11725">
        <ele>8.1</ele>
        <time>2023-07-05T08:13:51Z</time>
      </trkpt>
      <trkpt lat="46.81023" lon="-2.11744">
        <ele>8.2</ele>
        <time>2023-07-05T08:13:55Z</time>
      </trkpt>
      <trkpt lat="46.81028" lon="-2.11755">
        <ele>8.2</ele>
        <time>2023-07-05T08:13:57Z</time>
      </trkpt>
      <trkpt lat="46.81032" lon="-2.11766">
        <ele>8.3</ele>
        <time>2023-07-05T08:13:59Z</time>
      </trkpt>
      <trkpt lat="46.81037" lon="-2.11783">
        <ele>8.4</ele>
        <time>2023-07-05T08:14:02Z</time>
      </trkpt>
      <trkpt lat="46.81043" lon="-2.11795">
        <ele>8.5</ele>
        <time>2023-07-05T08:14:04Z</time>
      </trkpt>
      <trkpt lat="46.81062" lon="-2.11822">
        <ele>8.8</ele>
        <time>2023-07-05T08:14:10Z</time>
      </trkpt>
      <trkpt lat="46.81079" lon="-2.11834">
        <ele>8.7</ele>
        <time>2023-07-05T08:14:15Z</time>
      </trkpt>
      <trkpt lat="46.81088" lon="-2.11837">
        <ele>8.3</ele>
        <time>2023-07-05T08:14:17Z</time>
      </trkpt>
      <trkpt lat="46.81097" lon="-2.11842">
        <ele>8</ele>
        <time>2023-07-05T08:14:19Z</time>
      </trkpt>
      <trkpt lat="46.81122" lon="-2.1186">
        <ele>7.2</ele>
        <time>2023-07-05T08:14:25Z</time>
      </trkpt>
      <trkpt lat="46.81132" lon="-2.11866">
        <ele>6.9</ele>
        <time>2023-07-05T08:14:27Z</time>
      </trkpt>
      <trkpt lat="46.81148" lon="-2.11873">
        <ele>6.4</ele>
        <time>2023-07-05T08:14:30Z</time>
      </trkpt>
      <trkpt lat="46.81158" lon="-2.11879">
        <ele>6.2</ele>
        <time>2023-07-05T08:14:32Z</time>
      </trkpt>
      <trkpt lat="46.81167" lon="-2.11886">
        <ele>6</ele>
        <time>2023-07-05T08:14:34Z</time>
      </trkpt>
      <trkpt lat="46.8118" lon="-2.11898">
        <ele>5.8</ele>
        <time>2023-07-05T08:14:37Z</time>
      </trkpt>
      <trkpt lat="46.81185" lon="-2.11903">
        <ele>5.8</ele>
        <time>2023-07-05T08:14:38Z</time>
      </trkpt>
      <trkpt lat="46.81193" lon="-2.11914">
        <ele>5.8</ele>
        <time>2023-07-05T08:14:40Z</time>
      </trkpt>
      <trkpt lat="46.81199" lon="-2.11924">
        <ele>5.8</ele>
        <time>2023-07-05T08:14:42Z</time>
      </trkpt>
      <trkpt lat="46.81214" lon="-2.1195">
        <ele>6</ele>
        <time>2023-07-05T08:14:47Z</time>
      </trkpt>
      <trkpt lat="46.81225" lon="-2.11965">
        <ele>6.2</ele>
        <time>2023-07-05T08:14:50Z</time>
      </trkpt>
      <trkpt lat="46.81228" lon="-2.1197">
        <ele>6.3</ele>
        <time>2023-07-05T08:14:51Z</time>
      </trkpt>
      <trkpt lat="46.81242" lon="-2.11991">
        <ele>6.4</ele>
        <time>2023-07-05T08:14:55Z</time>
      </trkpt>
      <trkpt lat="46.81245" lon="-2.11996">
        <ele>6.5</ele>
        <time>2023-07-05T08:14:56Z</time>
      </trkpt>
      <trkpt lat="46.81248" lon="-2.12002">
        <ele>6.5</ele>
        <time>2023-07-05T08:14:57Z</time>
      </trkpt>
      <trkpt lat="46.81261" lon="-2.12027">
        <ele>6.5</ele>
        <time>2023-07-05T08:15:01Z</time>
      </trkpt>
      <trkpt lat="46.81264" lon="-2.12033">
        <ele>6.5</ele>
        <time>2023-07-05T08:15:02Z</time>
      </trkpt>
      <trkpt lat="46.8127" lon="-2.12045">
        <ele>6.5</ele>
        <time>2023-07-05T08:15:04Z</time>
      </trkpt>
      <trkpt lat="46.81273" lon="-2.1205">
        <ele>6.5</ele>
        <time>2023-07-05T08:15:05Z</time>
      </trkpt>
      <trkpt lat="46.81293" lon="-2.12088">
        <ele>6.6</ele>
        <time>2023-07-05T08:15:11Z</time>
      </trkpt>
      <trkpt lat="46.81307" lon="-2.12117">
        <ele>6.4</ele>
        <time>2023-07-05T08:15:16Z</time>
      </trkpt>
      <trkpt lat="46.81315" lon="-2.12134">
        <ele>6.2</ele>
        <time>2023-07-05T08:15:19Z</time>
      </trkpt>
      <trkpt lat="46.81319" lon="-2.1214">
        <ele>6.1</ele>
        <time>2023-07-05T08:15:20Z</time>
      </trkpt>
      <trkpt lat="46.81334" lon="-2.12168">
        <ele>5.9</ele>
        <time>2023-07-05T08:15:25Z</time>
      </trkpt>
      <trkpt lat="46.81335" lon="-2.12172">
        <ele>6</ele>
        <time>2023-07-05T08:15:26Z</time>
      </trkpt>
      <trkpt lat="46.81336" lon="-2.1218">
        <ele>6</ele>
        <time>2023-07-05T08:15:28Z</time>
      </trkpt>
      <trkpt lat="46.81329" lon="-2.12193">
        <ele>6.1</ele>
        <time>2023-07-05T08:15:32Z</time>
      </trkpt>
      <trkpt lat="46.81324" lon="-2.122">
        <ele>6.3</ele>
        <time>2023-07-05T08:15:36Z</time>
      </trkpt>
      <trkpt lat="46.81313" lon="-2.12214">
        <ele>6.7</ele>
        <time>2023-07-05T08:15:40Z</time>
      </trkpt>
      <trkpt lat="46.813" lon="-2.12236">
        <ele>7.3</ele>
        <time>2023-07-05T08:15:45Z</time>
      </trkpt>
      <trkpt lat="46.81286" lon="-2.12272">
        <ele>8</ele>
        <time>2023-07-05T08:15:52Z</time>
      </trkpt>
      <trkpt lat="46.81278" lon="-2.12293">
        <ele>8.5</ele>
        <time>2023-07-05T08:15:57Z</time>
      </trkpt>
      <trkpt lat="46.81277" lon="-2.12298">
        <ele>8.4</ele>
        <time>2023-07-05T08:15:58Z</time>
      </trkpt>
      <trkpt lat="46.81273" lon="-2.12307">
        <ele>8</ele>
        <time>2023-07-05T08:16:00Z</time>
      </trkpt>
      <trkpt lat="46.81257" lon="-2.12336">
        <ele>6.8</ele>
        <time>2023-07-05T08:16:05Z</time>
      </trkpt>
      <trkpt lat="46.81254" lon="-2.12343">
        <ele>6.6</ele>
        <time>2023-07-05T08:16:06Z</time>
      </trkpt>
      <trkpt lat="46.81245" lon="-2.12364">
        <ele>6</ele>
        <time>2023-07-05T08:16:09Z</time>
      </trkpt>
      <trkpt lat="46.81242" lon="-2.12372">
        <ele>5.9</ele>
        <time>2023-07-05T08:16:10Z</time>
      </trkpt>
      <trkpt lat="46.81234" lon="-2.12393">
        <ele>5.6</ele>
        <time>2023-07-05T08:16:13Z</time>
      </trkpt>
      <trkpt lat="46.81228" lon="-2.12406">
        <ele>5.4</ele>
        <time>2023-07-05T08:16:15Z</time>
      </trkpt>
      <trkpt lat="46.81213" lon="-2.12438">
        <ele>5.4</ele>
        <time>2023-07-05T08:16:20Z</time>
      </trkpt>
      <trkpt lat="46.81201" lon="-2.12466">
        <ele>5.4</ele>
        <time>2023-07-05T08:16:25Z</time>
      </trkpt>
      <trkpt lat="46.81199" lon="-2.12489">
        <ele>5.4</ele>
        <time>2023-07-05T08:16:30Z</time>
      </trkpt>
      <trkpt lat="46.81208" lon="-2.12502">
        <ele>5.5</ele>
        <time>2023-07-05T08:16:34Z</time>
      </trkpt>
      <trkpt lat="46.81217" lon="-2.12504">
        <ele>5.6</ele>
        <time>2023-07-05T08:16:38Z</time>
      </trkpt>
      <trkpt lat="46.8123" lon="-2.12505">
        <ele>5.9</ele>
        <time>2023-07-05T08:16:42Z</time>
      </trkpt>
      <trkpt lat="46.81245" lon="-2.12514">
        <ele>6.3</ele>
        <time>2023-07-05T08:16:46Z</time>
      </trkpt>
      <trkpt lat="46.81253" lon="-2.12522">
        <ele>6.6</ele>
        <time>2023-07-05T08:16:49Z</time>
      </trkpt>
      <trkpt lat="46.81258" lon="-2.12524">
        <ele>6.8</ele>
        <time>2023-07-05T08:16:51Z</time>
      </trkpt>
      <trkpt lat="46.81268" lon="-2.12525">
        <ele>7.1</ele>
        <time>2023-07-05T08:16:54Z</time>
      </trkpt>
      <trkpt lat="46.81274" lon="-2.12524">
        <ele>7.3</ele>
        <time>2023-07-05T08:16:55Z</time>
      </trkpt>
      <trkpt lat="46.81293" lon="-2.12517">
        <ele>8.1</ele>
        <time>2023-07-05T08:16:59Z</time>
      </trkpt>
      <trkpt lat="46.81296" lon="-2.12516">
        <ele>8.3</ele>
        <time>2023-07-05T08:17:00Z</time>
      </trkpt>
      <trkpt lat="46.813" lon="-2.12517">
        <ele>8.3</ele>
        <time>2023-07-05T08:17:02Z</time>
      </trkpt>
      <trkpt lat="46.8131" lon="-2.12516">
        <ele>8.7</ele>
        <time>2023-07-05T08:17:07Z</time>
      </trkpt>
      <trkpt lat="46.8132" lon="-2.12517">
        <ele>9</ele>
        <time>2023-07-05T08:17:12Z</time>
      </trkpt>
      <trkpt lat="46.81322" lon="-2.12517">
        <ele>9</ele>
        <time>2023-07-05T08:17:13Z</time>
      </trkpt>
      <trkpt lat="46.81327" lon="-2.12521">
        <ele>9.1</ele>
        <time>2023-07-05T08:17:16Z</time>
      </trkpt>
      <trkpt lat="46.81328" lon="-2.12523">
        <ele>9.1</ele>
        <time>2023-07-05T08:17:17Z</time>
      </trkpt>
      <trkpt lat="46.81333" lon="-2.12529">
        <ele>9.1</ele>
        <time>2023-07-05T08:17:19Z</time>
      </trkpt>
      <trkpt lat="46.81343" lon="-2.12538">
        <ele>9.2</ele>
        <time>2023-07-05T08:17:21Z</time>
      </trkpt>
      <trkpt lat="46.81349" lon="-2.12545">
        <ele>9.1</ele>
        <time>2023-07-05T08:17:22Z</time>
      </trkpt>
      <trkpt lat="46.81354" lon="-2.12553">
        <ele>9.1</ele>
        <time>2023-07-05T08:17:23Z</time>
      </trkpt>
      <trkpt lat="46.81363" lon="-2.12571">
        <ele>8.9</ele>
        <time>2023-07-05T08:17:25Z</time>
      </trkpt>
      <trkpt lat="46.81368" lon="-2.12586">
        <ele>8.6</ele>
        <time>2023-07-05T08:17:28Z</time>
      </trkpt>
      <trkpt lat="46.81375" lon="-2.12598">
        <ele>8.4</ele>
        <time>2023-07-05T08:17:30Z</time>
      </trkpt>
      <trkpt lat="46.81377" lon="-2.12608">
        <ele>8.2</ele>
        <time>2023-07-05T08:17:31Z</time>
      </trkpt>
      <trkpt lat="46.8138" lon="-2.12625">
        <ele>7.7</ele>
        <time>2023-07-05T08:17:33Z</time>
      </trkpt>
      <trkpt lat="46.81385" lon="-2.12646">
        <ele>7.1</ele>
        <time>2023-07-05T08:17:36Z</time>
      </trkpt>
      <trkpt lat="46.81392" lon="-2.12659">
        <ele>6.8</ele>
        <time>2023-07-05T08:17:40Z</time>
      </trkpt>
      <trkpt lat="46.81395" lon="-2.12669">
        <ele>6.7</ele>
        <time>2023-07-05T08:17:45Z</time>
      </trkpt>
      <trkpt lat="46.81397" lon="-2.1267">
        <ele>6.8</ele>
        <time>2023-07-05T08:17:46Z</time>
      </trkpt>
      <trkpt lat="46.81403" lon="-2.12673">
        <ele>6.8</ele>
        <time>2023-07-05T08:17:48Z</time>
      </trkpt>
      <trkpt lat="46.81406" lon="-2.12675">
        <ele>6.9</ele>
        <time>2023-07-05T08:17:49Z</time>
      </trkpt>
      <trkpt lat="46.81417" lon="-2.12677">
        <ele>7.1</ele>
        <time>2023-07-05T08:17:52Z</time>
      </trkpt>
      <trkpt lat="46.8142" lon="-2.12678">
        <ele>7.2</ele>
        <time>2023-07-05T08:17:53Z</time>
      </trkpt>
      <trkpt lat="46.81426" lon="-2.12684">
        <ele>7.3</ele>
        <time>2023-07-05T08:17:56Z</time>
      </trkpt>
      <trkpt lat="46.81437" lon="-2.12694">
        <ele>7.6</ele>
        <time>2023-07-05T08:18:00Z</time>
      </trkpt>
      <trkpt lat="46.81445" lon="-2.1271">
        <ele>7.8</ele>
        <time>2023-07-05T08:18:04Z</time>
      </trkpt>
      <trkpt lat="46.81451" lon="-2.12718">
        <ele>8.2</ele>
        <time>2023-07-05T08:18:07Z</time>
      </trkpt>
      <trkpt lat="46.81458" lon="-2.12719">
        <ele>8.5</ele>
        <time>2023-07-05T08:18:10Z</time>
      </trkpt>
      <trkpt lat="46.81459" lon="-2.12718">
        <ele>8.5</ele>
        <time>2023-07-05T08:18:11Z</time>
      </trkpt>
      <trkpt lat="46.81472" lon="-2.12715">
        <ele>9.2</ele>
        <time>2023-07-05T08:18:16Z</time>
      </trkpt>
      <trkpt lat="46.81475" lon="-2.12715">
        <ele>9.4</ele>
        <time>2023-07-05T08:18:18Z</time>
      </trkpt>
      <trkpt lat="46.81479" lon="-2.12715">
        <ele>9.5</ele>
        <time>2023-07-05T08:18:21Z</time>
      </trkpt>
      <trkpt lat="46.81487" lon="-2.12712">
        <ele>9.9</ele>
        <time>2023-07-05T08:18:24Z</time>
      </trkpt>
      <trkpt lat="46.81493" lon="-2.12707">
        <ele>10</ele>
        <time>2023-07-05T08:18:26Z</time>
      </trkpt>
      <trkpt lat="46.81501" lon="-2.12697">
        <ele>10.2</ele>
        <time>2023-07-05T08:18:29Z</time>
      </trkpt>
      <trkpt lat="46.81505" lon="-2.12697">
        <ele>10.3</ele>
        <time>2023-07-05T08:18:31Z</time>
      </trkpt>
      <trkpt lat="46.81508" lon="-2.12699">
        <ele>10.3</ele>
        <time>2023-07-05T08:18:32Z</time>
      </trkpt>
      <trkpt lat="46.81517" lon="-2.12709">
        <ele>10.3</ele>
        <time>2023-07-05T08:18:35Z</time>
      </trkpt>
      <trkpt lat="46.81527" lon="-2.12722">
        <ele>10.2</ele>
        <time>2023-07-05T08:18:39Z</time>
      </trkpt>
      <trkpt lat="46.81528" lon="-2.12727">
        <ele>10.2</ele>
        <time>2023-07-05T08:18:40Z</time>
      </trkpt>
      <trkpt lat="46.81533" lon="-2.12745">
        <ele>10</ele>
        <time>2023-07-05T08:18:43Z</time>
      </trkpt>
      <trkpt lat="46.81539" lon="-2.1277">
        <ele>9.8</ele>
        <time>2023-07-05T08:18:47Z</time>
      </trkpt>
      <trkpt lat="46.81549" lon="-2.12793">
        <ele>9.8</ele>
        <time>2023-07-05T08:18:52Z</time>
      </trkpt>
      <trkpt lat="46.81552" lon="-2.12808">
        <ele>9.7</ele>
        <time>2023-07-05T08:18:55Z</time>
      </trkpt>
      <trkpt lat="46.81556" lon="-2.12825">
        <ele>9.7</ele>
        <time>2023-07-05T08:18:59Z</time>
      </trkpt>
      <trkpt lat="46.81558" lon="-2.12833">
        <ele>9.7</ele>
        <time>2023-07-05T08:19:01Z</time>
      </trkpt>
      <trkpt lat="46.81565" lon="-2.12842">
        <ele>9.8</ele>
        <time>2023-07-05T08:19:05Z</time>
      </trkpt>
      <trkpt lat="46.81576" lon="-2.12849">
        <ele>10</ele>
        <time>2023-07-05T08:19:10Z</time>
      </trkpt>
      <trkpt lat="46.81583" lon="-2.12858">
        <ele>10.1</ele>
        <time>2023-07-05T08:19:13Z</time>
      </trkpt>
      <trkpt lat="46.81588" lon="-2.1287">
        <ele>10.3</ele>
        <time>2023-07-05T08:19:16Z</time>
      </trkpt>
      <trkpt lat="46.81596" lon="-2.12887">
        <ele>10.5</ele>
        <time>2023-07-05T08:19:21Z</time>
      </trkpt>
      <trkpt lat="46.81611" lon="-2.12894">
        <ele>10.9</ele>
        <time>2023-07-05T08:19:25Z</time>
      </trkpt>
      <trkpt lat="46.81621" lon="-2.12907">
        <ele>11.3</ele>
        <time>2023-07-05T08:19:29Z</time>
      </trkpt>
      <trkpt lat="46.81635" lon="-2.12931">
        <ele>11.8</ele>
        <time>2023-07-05T08:19:36Z</time>
      </trkpt>
      <trkpt lat="46.81642" lon="-2.12947">
        <ele>12.1</ele>
        <time>2023-07-05T08:19:41Z</time>
      </trkpt>
      <trkpt lat="46.81646" lon="-2.12959">
        <ele>12.2</ele>
        <time>2023-07-05T08:19:46Z</time>
      </trkpt>
      <trkpt lat="46.81655" lon="-2.12976">
        <ele>12.1</ele>
        <time>2023-07-05T08:19:51Z</time>
      </trkpt>
      <trkpt lat="46.81667" lon="-2.12993">
        <ele>11.6</ele>
        <time>2023-07-05T08:19:56Z</time>
      </trkpt>
      <trkpt lat="46.81679" lon="-2.1301">
        <ele>11</ele>
        <time>2023-07-05T08:20:00Z</time>
      </trkpt>
      <trkpt lat="46.8169" lon="-2.13027">
        <ele>10.5</ele>
        <time>2023-07-05T08:20:04Z</time>
      </trkpt>
      <trkpt lat="46.81697" lon="-2.13036">
        <ele>10.3</ele>
        <time>2023-07-05T08:20:06Z</time>
      </trkpt>
      <trkpt lat="46.81706" lon="-2.13044">
        <ele>9.9</ele>
        <time>2023-07-05T08:20:09Z</time>
      </trkpt>
      <trkpt lat="46.81709" lon="-2.13046">
        <ele>9.8</ele>
        <time>2023-07-05T08:20:10Z</time>
      </trkpt>
      <trkpt lat="46.81715" lon="-2.13053">
        <ele>9.7</ele>
        <time>2023-07-05T08:20:12Z</time>
      </trkpt>
      <trkpt lat="46.81725" lon="-2.13072">
        <ele>9.6</ele>
        <time>2023-07-05T08:20:17Z</time>
      </trkpt>
      <trkpt lat="46.81735" lon="-2.13086">
        <ele>9.5</ele>
        <time>2023-07-05T08:20:21Z</time>
      </trkpt>
      <trkpt lat="46.81743" lon="-2.13092">
        <ele>9.3</ele>
        <time>2023-07-05T08:20:23Z</time>
      </trkpt>
      <trkpt lat="46.81755" lon="-2.13101">
        <ele>9.1</ele>
        <time>2023-07-05T08:20:26Z</time>
      </trkpt>
      <trkpt lat="46.81759" lon="-2.13103">
        <ele>9.1</ele>
        <time>2023-07-05T08:20:27Z</time>
      </trkpt>
      <trkpt lat="46.81764" lon="-2.13106">
        <ele>9</ele>
        <time>2023-07-05T08:20:28Z</time>
      </trkpt>
      <trkpt lat="46.81776" lon="-2.13111">
        <ele>8.8</ele>
        <time>2023-07-05T08:20:31Z</time>
      </trkpt>
      <trkpt lat="46.81793" lon="-2.13112">
        <ele>8.3</ele>
        <time>2023-07-05T08:20:35Z</time>
      </trkpt>
      <trkpt lat="46.81809" lon="-2.13111">
        <ele>7.9</ele>
        <time>2023-07-05T08:20:39Z</time>
      </trkpt>
      <trkpt lat="46.81827" lon="-2.1312">
        <ele>7.8</ele>
        <time>2023-07-05T08:20:44Z</time>
      </trkpt>
      <trkpt lat="46.81831" lon="-2.13122">
        <ele>7.8</ele>
        <time>2023-07-05T08:20:45Z</time>
      </trkpt>
      <trkpt lat="46.8185" lon="-2.1313">
        <ele>7.5</ele>
        <time>2023-07-05T08:20:49Z</time>
      </trkpt>
      <trkpt lat="46.81865" lon="-2.13141">
        <ele>7.6</ele>
        <time>2023-07-05T08:20:52Z</time>
      </trkpt>
      <trkpt lat="46.81872" lon="-2.13144">
        <ele>7.5</ele>
        <time>2023-07-05T08:20:54Z</time>
      </trkpt>
      <trkpt lat="46.81876" lon="-2.13144">
        <ele>7.5</ele>
        <time>2023-07-05T08:20:55Z</time>
      </trkpt>
      <trkpt lat="46.81886" lon="-2.1315">
        <ele>7.3</ele>
        <time>2023-07-05T08:20:58Z</time>
      </trkpt>
      <trkpt lat="46.8189" lon="-2.13153">
        <ele>7.3</ele>
        <time>2023-07-05T08:20:59Z</time>
      </trkpt>
      <trkpt lat="46.81894" lon="-2.13157">
        <ele>7.3</ele>
        <time>2023-07-05T08:21:00Z</time>
      </trkpt>
      <trkpt lat="46.81904" lon="-2.13172">
        <ele>7.1</ele>
        <time>2023-07-05T08:21:03Z</time>
      </trkpt>
      <trkpt lat="46.81912" lon="-2.13181">
        <ele>7</ele>
        <time>2023-07-05T08:21:05Z</time>
      </trkpt>
      <trkpt lat="46.8192" lon="-2.13191">
        <ele>6.8</ele>
        <time>2023-07-05T08:21:07Z</time>
      </trkpt>
      <trkpt lat="46.81927" lon="-2.13202">
        <ele>6.7</ele>
        <time>2023-07-05T08:21:09Z</time>
      </trkpt>
      <trkpt lat="46.81931" lon="-2.13216">
        <ele>6.5</ele>
        <time>2023-07-05T08:21:11Z</time>
      </trkpt>
      <trkpt lat="46.81931" lon="-2.13233">
        <ele>6.5</ele>
        <time>2023-07-05T08:21:13Z</time>
      </trkpt>
      <trkpt lat="46.81934" lon="-2.13249">
        <ele>6.7</ele>
        <time>2023-07-05T08:21:15Z</time>
      </trkpt>
      <trkpt lat="46.81936" lon="-2.13289">
        <ele>7.3</ele>
        <time>2023-07-05T08:21:20Z</time>
      </trkpt>
      <trkpt lat="46.81938" lon="-2.13312">
        <ele>7.7</ele>
        <time>2023-07-05T08:21:24Z</time>
      </trkpt>
      <trkpt lat="46.8194" lon="-2.13334">
        <ele>8</ele>
        <time>2023-07-05T08:21:28Z</time>
      </trkpt>
      <trkpt lat="46.8194" lon="-2.1334">
        <ele>8.1</ele>
        <time>2023-07-05T08:21:29Z</time>
      </trkpt>
      <trkpt lat="46.81944" lon="-2.13347">
        <ele>8.2</ele>
        <time>2023-07-05T08:21:31Z</time>
      </trkpt>
      <trkpt lat="46.8195" lon="-2.13358">
        <ele>8.4</ele>
        <time>2023-07-05T08:21:35Z</time>
      </trkpt>
      <trkpt lat="46.81952" lon="-2.1336">
        <ele>8.4</ele>
        <time>2023-07-05T08:21:36Z</time>
      </trkpt>
      <trkpt lat="46.81953" lon="-2.13364">
        <ele>8.5</ele>
        <time>2023-07-05T08:21:37Z</time>
      </trkpt>
      <trkpt lat="46.81954" lon="-2.13373">
        <ele>8.6</ele>
        <time>2023-07-05T08:21:39Z</time>
      </trkpt>
      <trkpt lat="46.81953" lon="-2.13394">
        <ele>8</ele>
        <time>2023-07-05T08:21:42Z</time>
      </trkpt>
      <trkpt lat="46.81951" lon="-2.13408">
        <ele>8</ele>
        <time>2023-07-05T08:21:45Z</time>
      </trkpt>
      <trkpt lat="46.8195" lon="-2.13421">
        <ele>8</ele>
        <time>2023-07-05T08:21:47Z</time>
      </trkpt>
      <trkpt lat="46.81951" lon="-2.13432">
        <ele>8</ele>
        <time>2023-07-05T08:21:50Z</time>
      </trkpt>
      <trkpt lat="46.81951" lon="-2.13437">
        <ele>8</ele>
        <time>2023-07-05T08:21:52Z</time>
      </trkpt>
      <trkpt lat="46.81955" lon="-2.13446">
        <ele>8</ele>
        <time>2023-07-05T08:21:57Z</time>
      </trkpt>
      <trkpt lat="46.81959" lon="-2.13452">
        <ele>8</ele>
        <time>2023-07-05T08:22:01Z</time>
      </trkpt>
      <trkpt lat="46.81962" lon="-2.13455">
        <ele>8</ele>
      </trkpt>
      <trkpt lat="46.81964" lon="-2.13458">
        <ele>8</ele>
        <time>2023-07-05T08:22:02Z</time>
      </trkpt>
      <trkpt lat="46.81968" lon="-2.13464">
        <ele>8</ele>
        <time>2023-07-05T08:22:07Z</time>
      </trkpt>
      <trkpt lat="46.81974" lon="-2.13468">
        <ele>7.9</ele>
        <time>2023-07-05T08:22:09Z</time>
      </trkpt>
      <trkpt lat="46.81981" lon="-2.13474">
        <ele>7.7</ele>
        <time>2023-07-05T08:22:10Z</time>
      </trkpt>
      <trkpt lat="46.81995" lon="-2.13477">
        <ele>7.3</ele>
        <time>2023-07-05T08:22:13Z</time>
      </trkpt>
      <trkpt lat="46.82" lon="-2.13478">
        <ele>7.2</ele>
      </trkpt>
      <trkpt lat="46.82008" lon="-2.13477">
        <ele>9.9</ele>
        <time>2023-07-05T08:22:17Z</time>
      </trkpt>
      <trkpt lat="46.82026" lon="-2.13485">
        <ele>9.8</ele>
        <time>2023-07-05T08:22:22Z</time>
      </trkpt>
      <trkpt lat="46.82046" lon="-2.13497">
        <ele>9.5</ele>
        <time>2023-07-05T08:22:27Z</time>
      </trkpt>
      <trkpt lat="46.82064" lon="-2.13507">
        <ele>9.1</ele>
        <time>2023-07-05T08:22:32Z</time>
      </trkpt>
      <trkpt lat="46.82076" lon="-2.13509">
        <ele>8.8</ele>
        <time>2023-07-05T08:22:36Z</time>
      </trkpt>
      <trkpt lat="46.82086" lon="-2.1351">
        <ele>8.5</ele>
        <time>2023-07-05T08:22:39Z</time>
      </trkpt>
      <trkpt lat="46.82089" lon="-2.13511">
        <ele>8.5</ele>
        <time>2023-07-05T08:22:40Z</time>
      </trkpt>
      <trkpt lat="46.82102" lon="-2.13514">
        <ele>8.3</ele>
        <time>2023-07-05T08:22:43Z</time>
      </trkpt>
      <trkpt lat="46.82107" lon="-2.13519">
        <ele>8.1</ele>
        <time>2023-07-05T08:22:45Z</time>
      </trkpt>
      <trkpt lat="46.82108" lon="-2.13523">
        <ele>8.1</ele>
        <time>2023-07-05T08:22:46Z</time>
      </trkpt>
      <trkpt lat="46.82109" lon="-2.13523">
        <ele>8.1</ele>
        <time>2023-07-05T08:22:47Z</time>
      </trkpt>
      <trkpt lat="46.82108" lon="-2.13523">
        <ele>8.2</ele>
        <time>2023-07-05T08:22:49Z</time>
      </trkpt>
      <trkpt lat="46.82106" lon="-2.13528">
        <ele>8.2</ele>
        <time>2023-07-05T08:22:50Z</time>
      </trkpt>
      <trkpt lat="46.82107" lon="-2.1354">
        <ele>8.1</ele>
        <time>2023-07-05T08:22:53Z</time>
      </trkpt>
      <trkpt lat="46.82108" lon="-2.13547">
        <ele>8.1</ele>
        <time>2023-07-05T08:22:55Z</time>
      </trkpt>
      <trkpt lat="46.82111" lon="-2.13553">
        <ele>8.1</ele>
        <time>2023-07-05T08:22:57Z</time>
      </trkpt>
      <trkpt lat="46.82116" lon="-2.13559">
        <ele>8.1</ele>
        <time>2023-07-05T08:22:59Z</time>
      </trkpt>
      <trkpt lat="46.82118" lon="-2.1357">
        <ele>8.1</ele>
        <time>2023-07-05T08:23:01Z</time>
      </trkpt>
      <trkpt lat="46.82122" lon="-2.1358">
        <ele>8</ele>
        <time>2023-07-05T08:23:03Z</time>
      </trkpt>
      <trkpt lat="46.82131" lon="-2.13585">
        <ele>8.1</ele>
        <time>2023-07-05T08:23:05Z</time>
      </trkpt>
      <trkpt lat="46.82145" lon="-2.13588">
        <ele>8</ele>
        <time>2023-07-05T08:23:08Z</time>
      </trkpt>
      <trkpt lat="46.82159" lon="-2.13601">
        <ele>7.5</ele>
        <time>2023-07-05T08:23:12Z</time>
      </trkpt>
      <trkpt lat="46.82173" lon="-2.13614">
        <ele>6.9</ele>
        <time>2023-07-05T08:23:16Z</time>
      </trkpt>
      <trkpt lat="46.82183" lon="-2.13629">
        <ele>6.3</ele>
        <time>2023-07-05T08:23:19Z</time>
      </trkpt>
      <trkpt lat="46.82188" lon="-2.13643">
        <ele>6.1</ele>
        <time>2023-07-05T08:23:22Z</time>
      </trkpt>
      <trkpt lat="46.82189" lon="-2.13647">
        <ele>6</ele>
        <time>2023-07-05T08:23:23Z</time>
      </trkpt>
      <trkpt lat="46.82193" lon="-2.13656">
        <ele>5.8</ele>
        <time>2023-07-05T08:23:26Z</time>
      </trkpt>
      <trkpt lat="46.822" lon="-2.13663">
        <ele>5.6</ele>
        <time>2023-07-05T08:23:29Z</time>
      </trkpt>
      <trkpt lat="46.82203" lon="-2.13666">
        <ele>5.4</ele>
        <time>2023-07-05T08:23:30Z</time>
      </trkpt>
      <trkpt lat="46.82213" lon="-2.13676">
        <ele>5.2</ele>
        <time>2023-07-05T08:23:34Z</time>
      </trkpt>
      <trkpt lat="46.8222" lon="-2.13686">
        <ele>5.1</ele>
        <time>2023-07-05T08:23:37Z</time>
      </trkpt>
      <trkpt lat="46.82224" lon="-2.13693">
        <ele>5</ele>
        <time>2023-07-05T08:23:39Z</time>
      </trkpt>
      <trkpt lat="46.82228" lon="-2.13724">
        <ele>5</ele>
        <time>2023-07-05T08:23:45Z</time>
      </trkpt>
      <trkpt lat="46.82228" lon="-2.13754">
        <ele>5.2</ele>
        <time>2023-07-05T08:23:51Z</time>
      </trkpt>
      <trkpt lat="46.8223" lon="-2.13757">
        <ele>5.2</ele>
        <time>2023-07-05T08:23:52Z</time>
      </trkpt>
      <trkpt lat="46.82243" lon="-2.13761">
        <ele>5.2</ele>
        <time>2023-07-05T08:23:56Z</time>
      </trkpt>
      <trkpt lat="46.82267" lon="-2.13761">
        <ele>5.4</ele>
        <time>2023-07-05T08:24:03Z</time>
      </trkpt>
      <trkpt lat="46.82287" lon="-2.13761">
        <ele>5.7</ele>
        <time>2023-07-05T08:24:08Z</time>
      </trkpt>
      <trkpt lat="46.82291" lon="-2.1376">
        <ele>5.7</ele>
        <time>2023-07-05T08:24:09Z</time>
      </trkpt>
      <trkpt lat="46.82298" lon="-2.13756">
        <ele>5.7</ele>
        <time>2023-07-05T08:24:11Z</time>
      </trkpt>
      <trkpt lat="46.82299" lon="-2.13751">
        <ele>5.7</ele>
        <time>2023-07-05T08:24:12Z</time>
      </trkpt>
      <trkpt lat="46.82303" lon="-2.13734">
        <ele>5.7</ele>
        <time>2023-07-05T08:24:16Z</time>
      </trkpt>
      <trkpt lat="46.82311" lon="-2.13711">
        <ele>5.7</ele>
        <time>2023-07-05T08:24:21Z</time>
      </trkpt>
      <trkpt lat="46.82318" lon="-2.13691">
        <ele>5.8</ele>
        <time>2023-07-05T08:24:24Z</time>
      </trkpt>
      <trkpt lat="46.8232" lon="-2.13686">
        <ele>5.8</ele>
        <time>2023-07-05T08:24:25Z</time>
      </trkpt>
      <trkpt lat="46.82327" lon="-2.13671">
        <ele>6</ele>
        <time>2023-07-05T08:24:29Z</time>
      </trkpt>
      <trkpt lat="46.82328" lon="-2.13667">
        <ele>6</ele>
        <time>2023-07-05T08:24:30Z</time>
      </trkpt>
      <trkpt lat="46.82329" lon="-2.13659">
        <ele>6.1</ele>
        <time>2023-07-05T08:24:32Z</time>
      </trkpt>
      <trkpt lat="46.82326" lon="-2.1364">
        <ele>6.3</ele>
        <time>2023-07-05T08:24:36Z</time>
      </trkpt>
      <trkpt lat="46.82326" lon="-2.13634">
        <ele>6.4</ele>
        <time>2023-07-05T08:24:37Z</time>
      </trkpt>
      <trkpt lat="46.82327" lon="-2.13596">
        <ele>7.2</ele>
        <time>2023-07-05T08:24:44Z</time>
      </trkpt>
      <trkpt lat="46.82333" lon="-2.13579">
        <ele>7.7</ele>
        <time>2023-07-05T08:24:49Z</time>
      </trkpt>
      <trkpt lat="46.82335" lon="-2.13572">
        <ele>7.9</ele>
        <time>2023-07-05T08:24:51Z</time>
      </trkpt>
      <trkpt lat="46.8234" lon="-2.13568">
        <ele>8</ele>
        <time>2023-07-05T08:24:53Z</time>
      </trkpt>
      <trkpt lat="46.8235" lon="-2.13563">
        <ele>8.3</ele>
        <time>2023-07-05T08:24:57Z</time>
      </trkpt>
      <trkpt lat="46.82366" lon="-2.13559">
        <ele>8.5</ele>
        <time>2023-07-05T08:25:02Z</time>
      </trkpt>
      <trkpt lat="46.82377" lon="-2.13555">
        <ele>8.6</ele>
        <time>2023-07-05T08:25:05Z</time>
      </trkpt>
      <trkpt lat="46.82381" lon="-2.13553">
        <ele>8.6</ele>
        <time>2023-07-05T08:25:06Z</time>
      </trkpt>
      <trkpt lat="46.82401" lon="-2.13548">
        <ele>8.8</ele>
        <time>2023-07-05T08:25:11Z</time>
      </trkpt>
      <trkpt lat="46.82411" lon="-2.13544">
        <ele>8.9</ele>
        <time>2023-07-05T08:25:15Z</time>
      </trkpt>
      <trkpt lat="46.82417" lon="-2.13546">
        <ele>8.9</ele>
        <time>2023-07-05T08:25:20Z</time>
      </trkpt>
      <trkpt lat="46.82421" lon="-2.13552">
        <ele>8.9</ele>
        <time>2023-07-05T08:25:25Z</time>
      </trkpt>
      <trkpt lat="46.82419" lon="-2.13553">
        <ele>8.9</ele>
        <time>2023-07-05T08:25:27Z</time>
      </trkpt>
      <trkpt lat="46.82418" lon="-2.13557">
        <ele>8.9</ele>
        <time>2023-07-05T08:25:31Z</time>
      </trkpt>
      <trkpt lat="46.82418" lon="-2.13564">
        <ele>8.9</ele>
        <time>2023-07-05T08:25:38Z</time>
      </trkpt>
      <trkpt lat="46.82419" lon="-2.13566">
        <ele>8.9</ele>
        <time>2023-07-05T08:25:43Z</time>
      </trkpt>
      <trkpt lat="46.82424" lon="-2.13567">
        <ele>8.9</ele>
        <time>2023-07-05T08:25:48Z</time>
      </trkpt>
      <trkpt lat="46.82431" lon="-2.13566">
        <ele>8.9</ele>
        <time>2023-07-05T08:25:55Z</time>
      </trkpt>
      <trkpt lat="46.82439" lon="-2.13567">
        <ele>8.9</ele>
        <time>2023-07-05T08:26:00Z</time>
      </trkpt>
      <trkpt lat="46.82452" lon="-2.13571">
        <ele>8.9</ele>
        <time>2023-07-05T08:26:06Z</time>
      </trkpt>
      <trkpt lat="46.82469" lon="-2.13574">
        <ele>8.9</ele>
        <time>2023-07-05T08:26:12Z</time>
      </trkpt>
      <trkpt lat="46.82481" lon="-2.13577">
        <ele>8.8</ele>
        <time>2023-07-05T08:26:16Z</time>
      </trkpt>
      <trkpt lat="46.82483" lon="-2.13577">
        <ele>8.8</ele>
        <time>2023-07-05T08:26:17Z</time>
      </trkpt>
      <trkpt lat="46.82489" lon="-2.13579">
        <ele>8.8</ele>
        <time>2023-07-05T08:26:20Z</time>
      </trkpt>
      <trkpt lat="46.82497" lon="-2.13581">
        <ele>8.8</ele>
        <time>2023-07-05T08:26:23Z</time>
      </trkpt>
      <trkpt lat="46.825" lon="-2.13582">
        <ele>8.7</ele>
        <time>2023-07-05T08:26:24Z</time>
      </trkpt>
      <trkpt lat="46.82505" lon="-2.13584">
        <ele>8.7</ele>
        <time>2023-07-05T08:26:26Z</time>
      </trkpt>
      <trkpt lat="46.8252" lon="-2.1359">
        <ele>8.5</ele>
        <time>2023-07-05T08:26:31Z</time>
      </trkpt>
      <trkpt lat="46.82531" lon="-2.13594">
        <ele>8.5</ele>
        <time>2023-07-05T08:26:36Z</time>
      </trkpt>
      <trkpt lat="46.82534" lon="-2.13594">
        <ele>8.5</ele>
        <time>2023-07-05T08:26:37Z</time>
      </trkpt>
      <trkpt lat="46.82549" lon="-2.13596">
        <ele>8.4</ele>
        <time>2023-07-05T08:26:43Z</time>
      </trkpt>
      <trkpt lat="46.82561" lon="-2.13598">
        <ele>8.4</ele>
        <time>2023-07-05T08:26:47Z</time>
      </trkpt>
      <trkpt lat="46.82579" lon="-2.13608">
        <ele>8.6</ele>
        <time>2023-07-05T08:26:52Z</time>
      </trkpt>
      <trkpt lat="46.82597" lon="-2.13615">
        <ele>8.7</ele>
        <time>2023-07-05T08:26:57Z</time>
      </trkpt>
      <trkpt lat="46.82612" lon="-2.13621">
        <ele>9</ele>
        <time>2023-07-05T08:27:02Z</time>
      </trkpt>
      <trkpt lat="46.82621" lon="-2.13619">
        <ele>9</ele>
        <time>2023-07-05T08:27:06Z</time>
      </trkpt>
      <trkpt lat="46.82631" lon="-2.13625">
        <ele>9.2</ele>
        <time>2023-07-05T08:27:10Z</time>
      </trkpt>
      <trkpt lat="46.82641" lon="-2.13636">
        <ele>9.4</ele>
        <time>2023-07-05T08:27:14Z</time>
      </trkpt>
      <trkpt lat="46.82644" lon="-2.13641">
        <ele>9.5</ele>
        <time>2023-07-05T08:27:15Z</time>
      </trkpt>
      <trkpt lat="46.82653" lon="-2.13652">
        <ele>9.6</ele>
        <time>2023-07-05T08:27:18Z</time>
      </trkpt>
      <trkpt lat="46.82663" lon="-2.13669">
        <ele>9.5</ele>
        <time>2023-07-05T08:27:23Z</time>
      </trkpt>
      <trkpt lat="46.82676" lon="-2.13681">
        <ele>9.3</ele>
        <time>2023-07-05T08:27:26Z</time>
      </trkpt>
      <trkpt lat="46.82688" lon="-2.13701">
        <ele>8.9</ele>
        <time>2023-07-05T08:27:31Z</time>
      </trkpt>
      <trkpt lat="46.82689" lon="-2.13705">
        <ele>8.9</ele>
        <time>2023-07-05T08:27:32Z</time>
      </trkpt>
      <trkpt lat="46.82692" lon="-2.13715">
        <ele>8.8</ele>
        <time>2023-07-05T08:27:34Z</time>
      </trkpt>
      <trkpt lat="46.82698" lon="-2.13735">
        <ele>8.5</ele>
        <time>2023-07-05T08:27:39Z</time>
      </trkpt>
      <trkpt lat="46.82699" lon="-2.13739">
        <ele>8.4</ele>
        <time>2023-07-05T08:27:40Z</time>
      </trkpt>
      <trkpt lat="46.82697" lon="-2.13751">
        <ele>8.2</ele>
        <time>2023-07-05T08:27:43Z</time>
      </trkpt>
      <trkpt lat="46.82697" lon="-2.13759">
        <ele>8.1</ele>
        <time>2023-07-05T08:27:46Z</time>
      </trkpt>
      <trkpt lat="46.82693" lon="-2.13768">
        <ele>7.9</ele>
        <time>2023-07-05T08:27:47Z</time>
      </trkpt>
      <trkpt lat="46.82691" lon="-2.13772">
        <ele>7.8</ele>
        <time>2023-07-05T08:27:50Z</time>
      </trkpt>
      <trkpt lat="46.8269" lon="-2.13779">
        <ele>7.6</ele>
        <time>2023-07-05T08:27:51Z</time>
      </trkpt>
      <trkpt lat="46.8269" lon="-2.13796">
        <ele>7.2</ele>
        <time>2023-07-05T08:27:55Z</time>
      </trkpt>
      <trkpt lat="46.82691" lon="-2.13808">
        <ele>7.1</ele>
        <time>2023-07-05T08:27:58Z</time>
      </trkpt>
      <trkpt lat="46.82691" lon="-2.13813">
        <ele>7</ele>
        <time>2023-07-05T08:27:59Z</time>
      </trkpt>
      <trkpt lat="46.82691" lon="-2.13818">
        <ele>6.9</ele>
        <time>2023-07-05T08:28:00Z</time>
      </trkpt>
      <trkpt lat="46.82694" lon="-2.13829">
        <ele>7</ele>
        <time>2023-07-05T08:28:02Z</time>
      </trkpt>
      <trkpt lat="46.8271" lon="-2.13844">
        <ele>7.3</ele>
        <time>2023-07-05T08:28:07Z</time>
      </trkpt>
      <trkpt lat="46.82729" lon="-2.13861">
        <ele>7.6</ele>
        <time>2023-07-05T08:28:13Z</time>
      </trkpt>
      <trkpt lat="46.82744" lon="-2.13876">
        <ele>7.7</ele>
        <time>2023-07-05T08:28:18Z</time>
      </trkpt>
      <trkpt lat="46.8275" lon="-2.13887">
        <ele>7.8</ele>
        <time>2023-07-05T08:28:22Z</time>
      </trkpt>
      <trkpt lat="46.82741" lon="-2.1391">
        <ele>8.1</ele>
        <time>2023-07-05T08:28:27Z</time>
      </trkpt>
      <trkpt lat="46.82737" lon="-2.13918">
        <ele>8.1</ele>
        <time>2023-07-05T08:28:29Z</time>
      </trkpt>
      <trkpt lat="46.82736" lon="-2.13927">
        <ele>8.2</ele>
        <time>2023-07-05T08:28:31Z</time>
      </trkpt>
      <trkpt lat="46.82735" lon="-2.13932">
        <ele>8.2</ele>
        <time>2023-07-05T08:28:32Z</time>
      </trkpt>
      <trkpt lat="46.82734" lon="-2.13935">
        <ele>8.2</ele>
        <time>2023-07-05T08:28:33Z</time>
      </trkpt>
      <trkpt lat="46.82733" lon="-2.13943">
        <ele>8.2</ele>
        <time>2023-07-05T08:28:35Z</time>
      </trkpt>
      <trkpt lat="46.82736" lon="-2.13944">
        <ele>8.4</ele>
        <time>2023-07-05T08:28:37Z</time>
      </trkpt>
      <trkpt lat="46.8275" lon="-2.13948">
        <ele>9.1</ele>
        <time>2023-07-05T08:28:43Z</time>
      </trkpt>
      <trkpt lat="46.82763" lon="-2.13952">
        <ele>9.4</ele>
        <time>2023-07-05T08:28:48Z</time>
      </trkpt>
      <trkpt lat="46.82778" lon="-2.13954">
        <ele>9.6</ele>
        <time>2023-07-05T08:28:54Z</time>
      </trkpt>
      <trkpt lat="46.82795" lon="-2.13958">
        <ele>9.7</ele>
        <time>2023-07-05T08:28:59Z</time>
      </trkpt>
      <trkpt lat="46.82809" lon="-2.13962">
        <ele>9.8</ele>
        <time>2023-07-05T08:29:03Z</time>
      </trkpt>
      <trkpt lat="46.82826" lon="-2.13963">
        <ele>9.9</ele>
        <time>2023-07-05T08:29:08Z</time>
      </trkpt>
      <trkpt lat="46.82843" lon="-2.1396">
        <ele>9.5</ele>
        <time>2023-07-05T08:29:13Z</time>
      </trkpt>
      <trkpt lat="46.82848" lon="-2.1396">
        <ele>9.4</ele>
        <time>2023-07-05T08:29:14Z</time>
      </trkpt>
      <trkpt lat="46.82858" lon="-2.13959">
        <ele>9</ele>
        <time>2023-07-05T08:29:17Z</time>
      </trkpt>
      <trkpt lat="46.82863" lon="-2.1396">
        <ele>8.8</ele>
        <time>2023-07-05T08:29:19Z</time>
      </trkpt>
      <trkpt lat="46.82872" lon="-2.13961">
        <ele>8.6</ele>
        <time>2023-07-05T08:29:22Z</time>
      </trkpt>
      <trkpt lat="46.82875" lon="-2.13961">
        <ele>8.3</ele>
        <time>2023-07-05T08:29:23Z</time>
      </trkpt>
      <trkpt lat="46.82887" lon="-2.1396">
        <ele>8</ele>
        <time>2023-07-05T08:29:26Z</time>
      </trkpt>
      <trkpt lat="46.82911" lon="-2.13969">
        <ele>7.4</ele>
        <time>2023-07-05T08:29:32Z</time>
      </trkpt>
      <trkpt lat="46.82943" lon="-2.13983">
        <ele>7.2</ele>
        <time>2023-07-05T08:29:39Z</time>
      </trkpt>
      <trkpt lat="46.82966" lon="-2.1399">
        <ele>7.3</ele>
        <time>2023-07-05T08:29:44Z</time>
      </trkpt>
      <trkpt lat="46.82971" lon="-2.1399">
        <ele>7.3</ele>
        <time>2023-07-05T08:29:45Z</time>
      </trkpt>
      <trkpt lat="46.82976" lon="-2.1399">
        <ele>7.4</ele>
        <time>2023-07-05T08:29:46Z</time>
      </trkpt>
      <trkpt lat="46.82992" lon="-2.13995">
        <ele>7.5</ele>
        <time>2023-07-05T08:29:50Z</time>
      </trkpt>
      <trkpt lat="46.82996" lon="-2.13996">
        <ele>7.6</ele>
        <time>2023-07-05T08:29:51Z</time>
      </trkpt>
      <trkpt lat="46.83005" lon="-2.13999">
        <ele>7.6</ele>
        <time>2023-07-05T08:29:53Z</time>
      </trkpt>
      <trkpt lat="46.8301" lon="-2.14">
        <ele>7.7</ele>
        <time>2023-07-05T08:29:54Z</time>
      </trkpt>
      <trkpt lat="46.83015" lon="-2.14002">
        <ele>7.7</ele>
        <time>2023-07-05T08:29:55Z</time>
      </trkpt>
      <trkpt lat="46.8303" lon="-2.14006">
        <ele>7.9</ele>
        <time>2023-07-05T08:29:58Z</time>
      </trkpt>
      <trkpt lat="46.83063" lon="-2.14014">
        <ele>8.5</ele>
        <time>2023-07-05T08:30:05Z</time>
      </trkpt>
      <trkpt lat="46.83077" lon="-2.14018">
        <ele>8.7</ele>
        <time>2023-07-05T08:30:09Z</time>
      </trkpt>
      <trkpt lat="46.83095" lon="-2.14016">
        <ele>9</ele>
        <time>2023-07-05T08:30:14Z</time>
      </trkpt>
      <trkpt lat="46.83111" lon="-2.14012">
        <ele>9.1</ele>
        <time>2023-07-05T08:30:19Z</time>
      </trkpt>
      <trkpt lat="46.83115" lon="-2.14012">
        <ele>9.1</ele>
        <time>2023-07-05T08:30:21Z</time>
      </trkpt>
      <trkpt lat="46.83121" lon="-2.14012">
        <ele>9.3</ele>
        <time>2023-07-05T08:30:24Z</time>
      </trkpt>
      <trkpt lat="46.83123" lon="-2.14012">
        <ele>9.3</ele>
        <time>2023-07-05T08:30:25Z</time>
      </trkpt>
      <trkpt lat="46.8313" lon="-2.1401">
        <ele>9.3</ele>
        <time>2023-07-05T08:30:28Z</time>
      </trkpt>
      <trkpt lat="46.83142" lon="-2.13998">
        <ele>9.3</ele>
        <time>2023-07-05T08:30:33Z</time>
      </trkpt>
      <trkpt lat="46.83157" lon="-2.13987">
        <ele>9.2</ele>
        <time>2023-07-05T08:30:38Z</time>
      </trkpt>
      <trkpt lat="46.8316" lon="-2.13987">
        <ele>9.2</ele>
        <time>2023-07-05T08:30:39Z</time>
      </trkpt>
      <trkpt lat="46.83167" lon="-2.13992">
        <ele>9.3</ele>
        <time>2023-07-05T08:30:41Z</time>
      </trkpt>
      <trkpt lat="46.83169" lon="-2.13996">
        <ele>9.3</ele>
        <time>2023-07-05T08:30:42Z</time>
      </trkpt>
      <trkpt lat="46.83175" lon="-2.14009">
        <ele>9.5</ele>
        <time>2023-07-05T08:30:45Z</time>
      </trkpt>
      <trkpt lat="46.83184" lon="-2.1402">
        <ele>9.8</ele>
        <time>2023-07-05T08:30:48Z</time>
      </trkpt>
      <trkpt lat="46.83185" lon="-2.14027">
        <ele>10</ele>
        <time>2023-07-05T08:30:49Z</time>
      </trkpt>
      <trkpt lat="46.83189" lon="-2.14052">
        <ele>10.4</ele>
        <time>2023-07-05T08:30:54Z</time>
      </trkpt>
      <trkpt lat="46.83188" lon="-2.14069">
        <ele>10.3</ele>
        <time>2023-07-05T08:30:58Z</time>
      </trkpt>
      <trkpt lat="46.83188" lon="-2.1408">
        <ele>10</ele>
        <time>2023-07-05T08:31:01Z</time>
      </trkpt>
      <trkpt lat="46.83188" lon="-2.14082">
        <ele>9.9</ele>
        <time>2023-07-05T08:31:02Z</time>
      </trkpt>
      <trkpt lat="46.83189" lon="-2.14084">
        <ele>9.9</ele>
        <time>2023-07-05T08:31:03Z</time>
      </trkpt>
      <trkpt lat="46.83195" lon="-2.14082">
        <ele>9.9</ele>
        <time>2023-07-05T08:31:05Z</time>
      </trkpt>
      <trkpt lat="46.832" lon="-2.1408">
        <ele>9.9</ele>
        <time>2023-07-05T08:31:07Z</time>
      </trkpt>
      <trkpt lat="46.83205" lon="-2.14079">
        <ele>9.9</ele>
        <time>2023-07-05T08:31:08Z</time>
      </trkpt>
      <trkpt lat="46.83216" lon="-2.1408">
        <ele>9.9</ele>
        <time>2023-07-05T08:31:11Z</time>
      </trkpt>
      <trkpt lat="46.8322" lon="-2.14079">
        <ele>9.8</ele>
        <time>2023-07-05T08:31:12Z</time>
      </trkpt>
      <trkpt lat="46.83234" lon="-2.14078">
        <ele>9.8</ele>
        <time>2023-07-05T08:31:15Z</time>
      </trkpt>
      <trkpt lat="46.83253" lon="-2.14078">
        <ele>9.6</ele>
        <time>2023-07-05T08:31:18Z</time>
      </trkpt>
      <trkpt lat="46.83268" lon="-2.1408">
        <ele>9.5</ele>
        <time>2023-07-05T08:31:22Z</time>
      </trkpt>
      <trkpt lat="46.83272" lon="-2.1408">
        <ele>9.4</ele>
        <time>2023-07-05T08:31:24Z</time>
      </trkpt>
      <trkpt lat="46.83275" lon="-2.1408">
        <ele>9.4</ele>
        <time>2023-07-05T08:31:25Z</time>
      </trkpt>
      <trkpt lat="46.83291" lon="-2.14083">
        <ele>9.2</ele>
        <time>2023-07-05T08:31:29Z</time>
      </trkpt>
      <trkpt lat="46.83303" lon="-2.14084">
        <ele>9.1</ele>
        <time>2023-07-05T08:31:32Z</time>
      </trkpt>
      <trkpt lat="46.83308" lon="-2.14084">
        <ele>9</ele>
        <time>2023-07-05T08:31:33Z</time>
      </trkpt>
      <trkpt lat="46.83314" lon="-2.14085">
        <ele>9</ele>
        <time>2023-07-05T08:31:34Z</time>
      </trkpt>
      <trkpt lat="46.83325" lon="-2.14086">
        <ele>8.9</ele>
        <time>2023-07-05T08:31:36Z</time>
      </trkpt>
      <trkpt lat="46.83332" lon="-2.14087">
        <ele>8.9</ele>
        <time>2023-07-05T08:31:37Z</time>
      </trkpt>
      <trkpt lat="46.83349" lon="-2.14091">
        <ele>8.9</ele>
        <time>2023-07-05T08:31:40Z</time>
      </trkpt>
      <trkpt lat="46.83361" lon="-2.14092">
        <ele>8.9</ele>
        <time>2023-07-05T08:31:44Z</time>
      </trkpt>
      <trkpt lat="46.83378" lon="-2.14098">
        <ele>8.9</ele>
        <time>2023-07-05T08:31:48Z</time>
      </trkpt>
      <trkpt lat="46.83389" lon="-2.14106">
        <ele>8.9</ele>
        <time>2023-07-05T08:31:51Z</time>
      </trkpt>
      <trkpt lat="46.83393" lon="-2.14107">
        <ele>8.8</ele>
        <time>2023-07-05T08:31:52Z</time>
      </trkpt>
      <trkpt lat="46.83401" lon="-2.14111">
        <ele>8.8</ele>
        <time>2023-07-05T08:31:54Z</time>
      </trkpt>
      <trkpt lat="46.83403" lon="-2.14113">
        <ele>8.8</ele>
        <time>2023-07-05T08:31:55Z</time>
      </trkpt>
      <trkpt lat="46.83409" lon="-2.14117">
        <ele>8.7</ele>
        <time>2023-07-05T08:31:58Z</time>
      </trkpt>
      <trkpt lat="46.83412" lon="-2.14119">
        <ele>8.7</ele>
        <time>2023-07-05T08:31:59Z</time>
      </trkpt>
      <trkpt lat="46.83421" lon="-2.14125">
        <ele>8.6</ele>
        <time>2023-07-05T08:32:03Z</time>
      </trkpt>
      <trkpt lat="46.83438" lon="-2.14139">
        <ele>8.4</ele>
        <time>2023-07-05T08:32:08Z</time>
      </trkpt>
      <trkpt lat="46.83451" lon="-2.14142">
        <ele>8.5</ele>
        <time>2023-07-05T08:32:12Z</time>
      </trkpt>
      <trkpt lat="46.83458" lon="-2.14143">
        <ele>8.5</ele>
        <time>2023-07-05T08:32:16Z</time>
      </trkpt>
      <trkpt lat="46.8346" lon="-2.14143">
        <ele>8.5</ele>
        <time>2023-07-05T08:32:17Z</time>
      </trkpt>
      <trkpt lat="46.83464" lon="-2.14143">
        <ele>8.6</ele>
        <time>2023-07-05T08:32:19Z</time>
      </trkpt>
      <trkpt lat="46.8347" lon="-2.14144">
        <ele>8.6</ele>
        <time>2023-07-05T08:32:22Z</time>
      </trkpt>
      <trkpt lat="46.83483" lon="-2.14146">
        <ele>8.7</ele>
        <time>2023-07-05T08:32:27Z</time>
      </trkpt>
      <trkpt lat="46.83504" lon="-2.14152">
        <ele>8.6</ele>
        <time>2023-07-05T08:32:33Z</time>
      </trkpt>
      <trkpt lat="46.83527" lon="-2.14155">
        <ele>8.7</ele>
        <time>2023-07-05T08:32:40Z</time>
      </trkpt>
      <trkpt lat="46.83545" lon="-2.14159">
        <ele>8.8</ele>
        <time>2023-07-05T08:32:45Z</time>
      </trkpt>
      <trkpt lat="46.83561" lon="-2.14163">
        <ele>8.9</ele>
        <time>2023-07-05T08:32:48Z</time>
      </trkpt>
      <trkpt lat="46.83576" lon="-2.14165">
        <ele>8.8</ele>
        <time>2023-07-05T08:32:52Z</time>
      </trkpt>
      <trkpt lat="46.83595" lon="-2.14166">
        <ele>8.2</ele>
        <time>2023-07-05T08:32:57Z</time>
      </trkpt>
      <trkpt lat="46.836" lon="-2.14167">
        <ele>7.9</ele>
        <time>2023-07-05T08:32:58Z</time>
      </trkpt>
      <trkpt lat="46.83611" lon="-2.14169">
        <ele>7.4</ele>
        <time>2023-07-05T08:33:00Z</time>
      </trkpt>
      <trkpt lat="46.83616" lon="-2.1417">
        <ele>7.2</ele>
        <time>2023-07-05T08:33:01Z</time>
      </trkpt>
      <trkpt lat="46.83635" lon="-2.14171">
        <ele>7</ele>
        <time>2023-07-05T08:33:05Z</time>
      </trkpt>
      <trkpt lat="46.83648" lon="-2.14172">
        <ele>7.3</ele>
        <time>2023-07-05T08:33:09Z</time>
      </trkpt>
      <trkpt lat="46.83663" lon="-2.14174">
        <ele>7.7</ele>
        <time>2023-07-05T08:33:13Z</time>
      </trkpt>
      <trkpt lat="46.83686" lon="-2.14171">
        <ele>8.1</ele>
        <time>2023-07-05T08:33:19Z</time>
      </trkpt>
      <trkpt lat="46.83704" lon="-2.14171">
        <ele>7.7</ele>
        <time>2023-07-05T08:33:23Z</time>
      </trkpt>
      <trkpt lat="46.83713" lon="-2.14169">
        <ele>7.3</ele>
        <time>2023-07-05T08:33:25Z</time>
      </trkpt>
      <trkpt lat="46.83715" lon="-2.14166">
        <ele>7.3</ele>
        <time>2023-07-05T08:33:26Z</time>
      </trkpt>
      <trkpt lat="46.83718" lon="-2.14162">
        <ele>7.3</ele>
        <time>2023-07-05T08:33:27Z</time>
      </trkpt>
      <trkpt lat="46.83718" lon="-2.14154">
        <ele>7.2</ele>
        <time>2023-07-05T08:33:29Z</time>
      </trkpt>
      <trkpt lat="46.83717" lon="-2.14134">
        <ele>6.9</ele>
        <time>2023-07-05T08:33:33Z</time>
      </trkpt>
      <trkpt lat="46.83718" lon="-2.14118">
        <ele>6.6</ele>
        <time>2023-07-05T08:33:36Z</time>
      </trkpt>
      <trkpt lat="46.83718" lon="-2.14092">
        <ele>5.9</ele>
        <time>2023-07-05T08:33:40Z</time>
      </trkpt>
      <trkpt lat="46.83717" lon="-2.14085">
        <ele>5.7</ele>
        <time>2023-07-05T08:33:41Z</time>
      </trkpt>
      <trkpt lat="46.83716" lon="-2.14072">
        <ele>5.3</ele>
        <time>2023-07-05T08:33:43Z</time>
      </trkpt>
      <trkpt lat="46.83716" lon="-2.14067">
        <ele>5.2</ele>
        <time>2023-07-05T08:33:44Z</time>
      </trkpt>
      <trkpt lat="46.83716" lon="-2.14041">
        <ele>5.1</ele>
        <time>2023-07-05T08:33:49Z</time>
      </trkpt>
      <trkpt lat="46.83726" lon="-2.14038">
        <ele>5.4</ele>
        <time>2023-07-05T08:33:52Z</time>
      </trkpt>
      <trkpt lat="46.83738" lon="-2.14039">
        <ele>5.7</ele>
        <time>2023-07-05T08:33:57Z</time>
      </trkpt>
      <trkpt lat="46.83755" lon="-2.1404">
        <ele>6.1</ele>
        <time>2023-07-05T08:34:02Z</time>
      </trkpt>
      <trkpt lat="46.83761" lon="-2.14038">
        <ele>6.3</ele>
        <time>2023-07-05T08:34:04Z</time>
      </trkpt>
      <trkpt lat="46.83766" lon="-2.14039">
        <ele>6.5</ele>
        <time>2023-07-05T08:34:06Z</time>
      </trkpt>
      <trkpt lat="46.83779" lon="-2.14039">
        <ele>6.9</ele>
        <time>2023-07-05T08:34:13Z</time>
      </trkpt>
      <trkpt lat="46.83789" lon="-2.1404">
        <ele>7.2</ele>
        <time>2023-07-05T08:34:15Z</time>
      </trkpt>
      <trkpt lat="46.83795" lon="-2.14042">
        <ele>7.4</ele>
        <time>2023-07-05T08:34:16Z</time>
      </trkpt>
      <trkpt lat="46.83801" lon="-2.14045">
        <ele>7.5</ele>
        <time>2023-07-05T08:34:18Z</time>
      </trkpt>
      <trkpt lat="46.83802" lon="-2.14046">
        <ele>7.5</ele>
        <time>2023-07-05T08:34:19Z</time>
      </trkpt>
      <trkpt lat="46.83806" lon="-2.14048">
        <ele>7.6</ele>
        <time>2023-07-05T08:34:21Z</time>
      </trkpt>
      <trkpt lat="46.83811" lon="-2.1405">
        <ele>7.7</ele>
        <time>2023-07-05T08:34:23Z</time>
      </trkpt>
      <trkpt lat="46.83825" lon="-2.14054">
        <ele>7.9</ele>
        <time>2023-07-05T08:34:27Z</time>
      </trkpt>
      <trkpt lat="46.83837" lon="-2.14061">
        <ele>7.9</ele>
        <time>2023-07-05T08:34:30Z</time>
      </trkpt>
      <trkpt lat="46.8385" lon="-2.14062">
        <ele>7.8</ele>
        <time>2023-07-05T08:34:35Z</time>
      </trkpt>
      <trkpt lat="46.83853" lon="-2.14062">
        <ele>7.7</ele>
        <time>2023-07-05T08:34:36Z</time>
      </trkpt>
      <trkpt lat="46.8386" lon="-2.14066">
        <ele>7.7</ele>
        <time>2023-07-05T08:34:39Z</time>
      </trkpt>
      <trkpt lat="46.8387" lon="-2.14069">
        <ele>7.5</ele>
        <time>2023-07-05T08:34:44Z</time>
      </trkpt>
      <trkpt lat="46.83878" lon="-2.14072">
        <ele>7.4</ele>
        <time>2023-07-05T08:34:46Z</time>
      </trkpt>
      <trkpt lat="46.83888" lon="-2.14071">
        <ele>7.3</ele>
        <time>2023-07-05T08:34:48Z</time>
      </trkpt>
      <trkpt lat="46.83897" lon="-2.14073">
        <ele>7.3</ele>
        <time>2023-07-05T08:34:51Z</time>
      </trkpt>
      <trkpt lat="46.83907" lon="-2.14073">
        <ele>7.3</ele>
        <time>2023-07-05T08:34:54Z</time>
      </trkpt>
      <trkpt lat="46.83928" lon="-2.14073">
        <ele>7.5</ele>
        <time>2023-07-05T08:34:59Z</time>
      </trkpt>
      <trkpt lat="46.8395" lon="-2.14074">
        <ele>7.8</ele>
        <time>2023-07-05T08:35:04Z</time>
      </trkpt>
      <trkpt lat="46.83969" lon="-2.14076">
        <ele>8.1</ele>
        <time>2023-07-05T08:35:09Z</time>
      </trkpt>
      <trkpt lat="46.83979" lon="-2.14081">
        <ele>8.2</ele>
        <time>2023-07-05T08:35:13Z</time>
      </trkpt>
      <trkpt lat="46.83981" lon="-2.14081">
        <ele>8.3</ele>
        <time>2023-07-05T08:35:14Z</time>
      </trkpt>
      <trkpt lat="46.83987" lon="-2.14081">
        <ele>8.3</ele>
        <time>2023-07-05T08:35:17Z</time>
      </trkpt>
      <trkpt lat="46.83992" lon="-2.14082">
        <ele>8.4</ele>
        <time>2023-07-05T08:35:19Z</time>
      </trkpt>
      <trkpt lat="46.84" lon="-2.14084">
        <ele>8.5</ele>
        <time>2023-07-05T08:35:23Z</time>
      </trkpt>
      <trkpt lat="46.84004" lon="-2.14085">
        <ele>8.6</ele>
        <time>2023-07-05T08:35:24Z</time>
      </trkpt>
      <trkpt lat="46.84022" lon="-2.14089">
        <ele>8.8</ele>
        <time>2023-07-05T08:35:28Z</time>
      </trkpt>
      <trkpt lat="46.84039" lon="-2.14091">
        <ele>9</ele>
        <time>2023-07-05T08:35:32Z</time>
      </trkpt>
      <trkpt lat="46.84056" lon="-2.141">
        <ele>9.2</ele>
        <time>2023-07-05T08:35:36Z</time>
      </trkpt>
      <trkpt lat="46.84073" lon="-2.14103">
        <ele>9.2</ele>
        <time>2023-07-05T08:35:41Z</time>
      </trkpt>
      <trkpt lat="46.84075" lon="-2.141">
        <ele>9.1</ele>
        <time>2023-07-05T08:35:42Z</time>
      </trkpt>
      <trkpt lat="46.84079" lon="-2.14093">
        <ele>9.1</ele>
        <time>2023-07-05T08:35:44Z</time>
      </trkpt>
      <trkpt lat="46.84087" lon="-2.14079">
        <ele>8.9</ele>
        <time>2023-07-05T08:35:47Z</time>
      </trkpt>
      <trkpt lat="46.8409" lon="-2.14074">
        <ele>8.7</ele>
        <time>2023-07-05T08:35:48Z</time>
      </trkpt>
      <trkpt lat="46.84101" lon="-2.14064">
        <ele>8.4</ele>
        <time>2023-07-05T08:35:51Z</time>
      </trkpt>
      <trkpt lat="46.84117" lon="-2.14072">
        <ele>8.1</ele>
        <time>2023-07-05T08:35:56Z</time>
      </trkpt>
      <trkpt lat="46.84139" lon="-2.14074">
        <ele>7.7</ele>
        <time>2023-07-05T08:36:03Z</time>
      </trkpt>
      <trkpt lat="46.84145" lon="-2.14073">
        <ele>7.6</ele>
        <time>2023-07-05T08:36:05Z</time>
      </trkpt>
      <trkpt lat="46.84149" lon="-2.1407">
        <ele>7.4</ele>
        <time>2023-07-05T08:36:07Z</time>
      </trkpt>
      <trkpt lat="46.84154" lon="-2.14063">
        <ele>7.4</ele>
        <time>2023-07-05T08:36:11Z</time>
      </trkpt>
      <trkpt lat="46.84156" lon="-2.14057">
        <ele>7.4</ele>
        <time>2023-07-05T08:36:14Z</time>
      </trkpt>
      <trkpt lat="46.84157" lon="-2.14055">
        <ele>7.4</ele>
        <time>2023-07-05T08:36:15Z</time>
      </trkpt>
      <trkpt lat="46.84157" lon="-2.14049">
        <ele>7.4</ele>
        <time>2023-07-05T08:36:19Z</time>
      </trkpt>
      <trkpt lat="46.84156" lon="-2.14047">
        <ele>7.4</ele>
        <time>2023-07-05T08:36:20Z</time>
      </trkpt>
      <trkpt lat="46.84154" lon="-2.14035">
        <ele>7.4</ele>
        <time>2023-07-05T08:36:28Z</time>
      </trkpt>
      <trkpt lat="46.84154" lon="-2.14022">
        <ele>7.5</ele>
        <time>2023-07-05T08:36:34Z</time>
      </trkpt>
      <trkpt lat="46.84155" lon="-2.1402">
        <ele>7.5</ele>
        <time>2023-07-05T08:36:35Z</time>
      </trkpt>
      <trkpt lat="46.84155" lon="-2.14018">
        <ele>7.5</ele>
        <time>2023-07-05T08:36:36Z</time>
      </trkpt>
      <trkpt lat="46.84155" lon="-2.14011">
        <ele>7.4</ele>
        <time>2023-07-05T08:36:39Z</time>
      </trkpt>
      <trkpt lat="46.84154" lon="-2.14009">
        <ele>7.4</ele>
        <time>2023-07-05T08:36:40Z</time>
      </trkpt>
      <trkpt lat="46.84154" lon="-2.13998">
        <ele>7.3</ele>
        <time>2023-07-05T08:36:45Z</time>
      </trkpt>
      <trkpt lat="46.84154" lon="-2.13995">
        <ele>7.2</ele>
        <time>2023-07-05T08:36:46Z</time>
      </trkpt>
      <trkpt lat="46.84157" lon="-2.13972">
        <ele>6.9</ele>
        <time>2023-07-05T08:36:51Z</time>
      </trkpt>
      <trkpt lat="46.84161" lon="-2.13943">
        <ele>6.5</ele>
        <time>2023-07-05T08:36:56Z</time>
      </trkpt>
      <trkpt lat="46.84167" lon="-2.1393">
        <ele>6.3</ele>
        <time>2023-07-05T08:37:00Z</time>
      </trkpt>
      <trkpt lat="46.84173" lon="-2.13918">
        <ele>6.2</ele>
        <time>2023-07-05T08:37:04Z</time>
      </trkpt>
      <trkpt lat="46.84174" lon="-2.13895">
        <ele>5.8</ele>
        <time>2023-07-05T08:37:10Z</time>
      </trkpt>
      <trkpt lat="46.84174" lon="-2.1389">
        <ele>5.8</ele>
        <time>2023-07-05T08:37:11Z</time>
      </trkpt>
      <trkpt lat="46.84172" lon="-2.13876">
        <ele>5.5</ele>
        <time>2023-07-05T08:37:14Z</time>
      </trkpt>
      <trkpt lat="46.84165" lon="-2.13842">
        <ele>5.1</ele>
        <time>2023-07-05T08:37:20Z</time>
      </trkpt>
      <trkpt lat="46.84165" lon="-2.13836">
        <ele>5.1</ele>
        <time>2023-07-05T08:37:21Z</time>
      </trkpt>
      <trkpt lat="46.84163" lon="-2.13823">
        <ele>5</ele>
        <time>2023-07-05T08:37:23Z</time>
      </trkpt>
      <trkpt lat="46.84163" lon="-2.13817">
        <ele>5</ele>
        <time>2023-07-05T08:37:24Z</time>
      </trkpt>
      <trkpt lat="46.84163" lon="-2.1381">
        <ele>5</ele>
        <time>2023-07-05T08:37:25Z</time>
      </trkpt>
      <trkpt lat="46.84162" lon="-2.13797">
        <ele>4.9</ele>
        <time>2023-07-05T08:37:27Z</time>
      </trkpt>
      <trkpt lat="46.84162" lon="-2.13762">
        <ele>4.8</ele>
        <time>2023-07-05T08:37:32Z</time>
      </trkpt>
      <trkpt lat="46.84163" lon="-2.13729">
        <ele>4.8</ele>
        <time>2023-07-05T08:37:37Z</time>
      </trkpt>
      <trkpt lat="46.84158" lon="-2.13698">
        <ele>4.8</ele>
        <time>2023-07-05T08:37:41Z</time>
      </trkpt>
      <trkpt lat="46.84158" lon="-2.13682">
        <ele>4.8</ele>
        <time>2023-07-05T08:37:43Z</time>
      </trkpt>
      <trkpt lat="46.84158" lon="-2.13675">
        <ele>4.8</ele>
        <time>2023-07-05T08:37:44Z</time>
      </trkpt>
      <trkpt lat="46.84158" lon="-2.13648">
        <ele>4.9</ele>
        <time>2023-07-05T08:37:48Z</time>
      </trkpt>
      <trkpt lat="46.84159" lon="-2.13638">
        <ele>5</ele>
        <time>2023-07-05T08:37:50Z</time>
      </trkpt>
      <trkpt lat="46.84161" lon="-2.13635">
        <ele>5</ele>
        <time>2023-07-05T08:37:51Z</time>
      </trkpt>
      <trkpt lat="46.84169" lon="-2.13616">
        <ele>5.1</ele>
        <time>2023-07-05T08:37:56Z</time>
      </trkpt>
      <trkpt lat="46.84173" lon="-2.13609">
        <ele>5.3</ele>
        <time>2023-07-05T08:37:59Z</time>
      </trkpt>
      <trkpt lat="46.84175" lon="-2.13608">
        <ele>5.4</ele>
        <time>2023-07-05T08:38:00Z</time>
      </trkpt>
      <trkpt lat="46.84184" lon="-2.13603">
        <ele>5.7</ele>
        <time>2023-07-05T08:38:05Z</time>
      </trkpt>
      <trkpt lat="46.84198" lon="-2.13597">
        <ele>6.2</ele>
        <time>2023-07-05T08:38:09Z</time>
      </trkpt>
      <trkpt lat="46.84202" lon="-2.13597">
        <ele>6.4</ele>
        <time>2023-07-05T08:38:10Z</time>
      </trkpt>
      <trkpt lat="46.84205" lon="-2.13596">
        <ele>6.5</ele>
        <time>2023-07-05T08:38:11Z</time>
      </trkpt>
      <trkpt lat="46.84207" lon="-2.13596">
        <ele>6.7</ele>
        <time>2023-07-05T08:38:12Z</time>
      </trkpt>
      <trkpt lat="46.84228" lon="-2.13596">
        <ele>7.9</ele>
        <time>2023-07-05T08:38:18Z</time>
      </trkpt>
      <trkpt lat="46.84247" lon="-2.13592">
        <ele>9</ele>
        <time>2023-07-05T08:38:24Z</time>
      </trkpt>
      <trkpt lat="46.84253" lon="-2.13588">
        <ele>9</ele>
        <time>2023-07-05T08:38:29Z</time>
      </trkpt>
      <trkpt lat="46.84266" lon="-2.13586">
        <ele>9</ele>
        <time>2023-07-05T08:38:34Z</time>
      </trkpt>
      <trkpt lat="46.84268" lon="-2.13586">
        <ele>8.9</ele>
        <time>2023-07-05T08:38:35Z</time>
      </trkpt>
      <trkpt lat="46.84278" lon="-2.13581">
        <ele>9</ele>
        <time>2023-07-05T08:38:38Z</time>
      </trkpt>
      <trkpt lat="46.843" lon="-2.1357">
        <ele>9.3</ele>
        <time>2023-07-05T08:38:43Z</time>
      </trkpt>
      <trkpt lat="46.84312" lon="-2.13565">
        <ele>9.4</ele>
        <time>2023-07-05T08:38:47Z</time>
      </trkpt>
      <trkpt lat="46.84325" lon="-2.1356">
        <ele>9.4</ele>
        <time>2023-07-05T08:38:52Z</time>
      </trkpt>
      <trkpt lat="46.84333" lon="-2.1356">
        <ele>9.3</ele>
        <time>2023-07-05T08:38:54Z</time>
      </trkpt>
      <trkpt lat="46.84338" lon="-2.13559">
        <ele>9.2</ele>
        <time>2023-07-05T08:38:55Z</time>
      </trkpt>
      <trkpt lat="46.84353" lon="-2.13556">
        <ele>9</ele>
        <time>2023-07-05T08:38:59Z</time>
      </trkpt>
      <trkpt lat="46.84362" lon="-2.1355">
        <ele>8.9</ele>
        <time>2023-07-05T08:39:03Z</time>
      </trkpt>
      <trkpt lat="46.84366" lon="-2.13546">
        <ele>8.8</ele>
        <time>2023-07-05T08:39:04Z</time>
      </trkpt>
      <trkpt lat="46.84375" lon="-2.13533">
        <ele>8.7</ele>
        <time>2023-07-05T08:39:06Z</time>
      </trkpt>
      <trkpt lat="46.84392" lon="-2.1351">
        <ele>8.4</ele>
        <time>2023-07-05T08:39:10Z</time>
      </trkpt>
      <trkpt lat="46.84407" lon="-2.13501">
        <ele>8.1</ele>
        <time>2023-07-05T08:39:14Z</time>
      </trkpt>
      <trkpt lat="46.84417" lon="-2.13497">
        <ele>7.8</ele>
        <time>2023-07-05T08:39:17Z</time>
      </trkpt>
      <trkpt lat="46.84425" lon="-2.13497">
        <ele>7.6</ele>
        <time>2023-07-05T08:39:19Z</time>
      </trkpt>
      <trkpt lat="46.84436" lon="-2.13496">
        <ele>7.4</ele>
        <time>2023-07-05T08:39:22Z</time>
      </trkpt>
      <trkpt lat="46.84444" lon="-2.13495">
        <ele>7.2</ele>
        <time>2023-07-05T08:39:24Z</time>
      </trkpt>
      <trkpt lat="46.84468" lon="-2.13498">
        <ele>6.9</ele>
        <time>2023-07-05T08:39:30Z</time>
      </trkpt>
      <trkpt lat="46.84491" lon="-2.135">
        <ele>6.7</ele>
        <time>2023-07-05T08:39:37Z</time>
      </trkpt>
      <trkpt lat="46.845" lon="-2.13499">
        <ele>6.5</ele>
        <time>2023-07-05T08:39:40Z</time>
      </trkpt>
      <trkpt lat="46.84504" lon="-2.13499">
        <ele>6.4</ele>
        <time>2023-07-05T08:39:41Z</time>
      </trkpt>
      <trkpt lat="46.84509" lon="-2.135">
        <ele>6.2</ele>
        <time>2023-07-05T08:39:42Z</time>
      </trkpt>
      <trkpt lat="46.84519" lon="-2.13503">
        <ele>6</ele>
        <time>2023-07-05T08:39:44Z</time>
      </trkpt>
      <trkpt lat="46.84524" lon="-2.13503">
        <ele>5.9</ele>
        <time>2023-07-05T08:39:45Z</time>
      </trkpt>
      <trkpt lat="46.84528" lon="-2.13504">
        <ele>5.6</ele>
        <time>2023-07-05T08:39:46Z</time>
      </trkpt>
      <trkpt lat="46.8454" lon="-2.13505">
        <ele>5.5</ele>
        <time>2023-07-05T08:39:49Z</time>
      </trkpt>
      <trkpt lat="46.84563" lon="-2.13504">
        <ele>5.5</ele>
        <time>2023-07-05T08:39:55Z</time>
      </trkpt>
      <trkpt lat="46.84585" lon="-2.13503">
        <ele>5.7</ele>
        <time>2023-07-05T08:40:00Z</time>
      </trkpt>
      <trkpt lat="46.84605" lon="-2.13501">
        <ele>5.8</ele>
        <time>2023-07-05T08:40:05Z</time>
      </trkpt>
      <trkpt lat="46.84621" lon="-2.135">
        <ele>5.9</ele>
        <time>2023-07-05T08:40:10Z</time>
      </trkpt>
      <trkpt lat="46.84635" lon="-2.13496">
        <ele>5.9</ele>
        <time>2023-07-05T08:40:14Z</time>
      </trkpt>
      <trkpt lat="46.84643" lon="-2.13488">
        <ele>5.9</ele>
        <time>2023-07-05T08:40:16Z</time>
      </trkpt>
      <trkpt lat="46.84646" lon="-2.13481">
        <ele>5.9</ele>
        <time>2023-07-05T08:40:18Z</time>
      </trkpt>
      <trkpt lat="46.84649" lon="-2.13458">
        <ele>6.1</ele>
        <time>2023-07-05T08:40:24Z</time>
      </trkpt>
      <trkpt lat="46.84651" lon="-2.13449">
        <ele>6.1</ele>
        <time>2023-07-05T08:40:26Z</time>
      </trkpt>
      <trkpt lat="46.84654" lon="-2.13444">
        <ele>6.3</ele>
        <time>2023-07-05T08:40:28Z</time>
      </trkpt>
      <trkpt lat="46.84662" lon="-2.13443">
        <ele>6.3</ele>
        <time>2023-07-05T08:40:32Z</time>
      </trkpt>
      <trkpt lat="46.84674" lon="-2.13438">
        <ele>6.3</ele>
        <time>2023-07-05T08:40:36Z</time>
      </trkpt>
      <trkpt lat="46.84689" lon="-2.13443">
        <ele>6.4</ele>
        <time>2023-07-05T08:40:41Z</time>
      </trkpt>
      <trkpt lat="46.84696" lon="-2.13442">
        <ele>6.5</ele>
        <time>2023-07-05T08:40:43Z</time>
      </trkpt>
      <trkpt lat="46.84703" lon="-2.13442">
        <ele>6.6</ele>
        <time>2023-07-05T08:40:45Z</time>
      </trkpt>
      <trkpt lat="46.84708" lon="-2.1344">
        <ele>6.7</ele>
        <time>2023-07-05T08:40:47Z</time>
      </trkpt>
      <trkpt lat="46.84715" lon="-2.13434">
        <ele>6.9</ele>
        <time>2023-07-05T08:40:49Z</time>
      </trkpt>
      <trkpt lat="46.84724" lon="-2.13421">
        <ele>7.1</ele>
        <time>2023-07-05T08:40:52Z</time>
      </trkpt>
      <trkpt lat="46.84732" lon="-2.13399">
        <ele>7.3</ele>
        <time>2023-07-05T08:40:56Z</time>
      </trkpt>
      <trkpt lat="46.84736" lon="-2.1339">
        <ele>7.3</ele>
        <time>2023-07-05T08:40:58Z</time>
      </trkpt>
      <trkpt lat="46.84743" lon="-2.1338">
        <ele>7.3</ele>
        <time>2023-07-05T08:41:00Z</time>
      </trkpt>
      <trkpt lat="46.84752" lon="-2.13364">
        <ele>7.4</ele>
        <time>2023-07-05T08:41:04Z</time>
      </trkpt>
      <trkpt lat="46.84753" lon="-2.13344">
        <ele>7.6</ele>
        <time>2023-07-05T08:41:08Z</time>
      </trkpt>
      <trkpt lat="46.84752" lon="-2.13321">
        <ele>7.8</ele>
        <time>2023-07-05T08:41:12Z</time>
      </trkpt>
      <trkpt lat="46.84755" lon="-2.13294">
        <ele>8.1</ele>
        <time>2023-07-05T08:41:17Z</time>
      </trkpt>
      <trkpt lat="46.84756" lon="-2.13269">
        <ele>8.6</ele>
        <time>2023-07-05T08:41:22Z</time>
      </trkpt>
      <trkpt lat="46.84762" lon="-2.13249">
        <ele>9.2</ele>
        <time>2023-07-05T08:41:27Z</time>
      </trkpt>
      <trkpt lat="46.84764" lon="-2.13234">
        <ele>8.8</ele>
        <time>2023-07-05T08:41:30Z</time>
      </trkpt>
      <trkpt lat="46.84765" lon="-2.13218">
        <ele>8</ele>
        <time>2023-07-05T08:41:33Z</time>
      </trkpt>
      <trkpt lat="46.84765" lon="-2.13211">
        <ele>7.7</ele>
        <time>2023-07-05T08:41:34Z</time>
      </trkpt>
      <trkpt lat="46.84764" lon="-2.13205">
        <ele>7.5</ele>
        <time>2023-07-05T08:41:35Z</time>
      </trkpt>
      <trkpt lat="46.84763" lon="-2.13186">
        <ele>7</ele>
        <time>2023-07-05T08:41:38Z</time>
      </trkpt>
      <trkpt lat="46.84767" lon="-2.13166">
        <ele>7.1</ele>
        <time>2023-07-05T08:41:42Z</time>
      </trkpt>
      <trkpt lat="46.84774" lon="-2.13143">
        <ele>7.9</ele>
        <time>2023-07-05T08:41:48Z</time>
      </trkpt>
      <trkpt lat="46.84779" lon="-2.13128">
        <ele>8.7</ele>
        <time>2023-07-05T08:41:54Z</time>
      </trkpt>
      <trkpt lat="46.84782" lon="-2.13126">
        <ele>8.9</ele>
        <time>2023-07-05T08:41:56Z</time>
      </trkpt>
      <trkpt lat="46.84789" lon="-2.13122">
        <ele>9.3</ele>
        <time>2023-07-05T08:41:59Z</time>
      </trkpt>
      <trkpt lat="46.84797" lon="-2.13116">
        <ele>9.5</ele>
        <time>2023-07-05T08:42:02Z</time>
      </trkpt>
      <trkpt lat="46.84802" lon="-2.13113">
        <ele>9.4</ele>
        <time>2023-07-05T08:42:03Z</time>
      </trkpt>
      <trkpt lat="46.84807" lon="-2.1311">
        <ele>9.1</ele>
        <time>2023-07-05T08:42:04Z</time>
      </trkpt>
      <trkpt lat="46.84817" lon="-2.13107">
        <ele>8.6</ele>
        <time>2023-07-05T08:42:06Z</time>
      </trkpt>
      <trkpt lat="46.84828" lon="-2.13112">
        <ele>8.9</ele>
        <time>2023-07-05T08:42:10Z</time>
      </trkpt>
      <trkpt lat="46.84841" lon="-2.13116">
        <ele>9</ele>
        <time>2023-07-05T08:42:15Z</time>
      </trkpt>
      <trkpt lat="46.84853" lon="-2.13122">
        <ele>8.8</ele>
        <time>2023-07-05T08:42:19Z</time>
      </trkpt>
      <trkpt lat="46.84869" lon="-2.1313">
        <ele>8.5</ele>
        <time>2023-07-05T08:42:23Z</time>
      </trkpt>
      <trkpt lat="46.84886" lon="-2.13141">
        <ele>8</ele>
        <time>2023-07-05T08:42:28Z</time>
      </trkpt>
      <trkpt lat="46.84896" lon="-2.1315">
        <ele>7.7</ele>
        <time>2023-07-05T08:42:31Z</time>
      </trkpt>
      <trkpt lat="46.84902" lon="-2.13155">
        <ele>7.5</ele>
        <time>2023-07-05T08:42:33Z</time>
      </trkpt>
      <trkpt lat="46.84914" lon="-2.13163">
        <ele>7.3</ele>
        <time>2023-07-05T08:42:37Z</time>
      </trkpt>
      <trkpt lat="46.84917" lon="-2.13162">
        <ele>7.3</ele>
        <time>2023-07-05T08:42:38Z</time>
      </trkpt>
      <trkpt lat="46.84922" lon="-2.13157">
        <ele>7.2</ele>
        <time>2023-07-05T08:42:40Z</time>
      </trkpt>
      <trkpt lat="46.84929" lon="-2.13145">
        <ele>7</ele>
        <time>2023-07-05T08:42:44Z</time>
      </trkpt>
      <trkpt lat="46.84938" lon="-2.13136">
        <ele>7</ele>
        <time>2023-07-05T08:42:48Z</time>
      </trkpt>
      <trkpt lat="46.84951" lon="-2.13141">
        <ele>7.1</ele>
        <time>2023-07-05T08:42:52Z</time>
      </trkpt>
      <trkpt lat="46.84966" lon="-2.13146">
        <ele>7.3</ele>
        <time>2023-07-05T08:42:57Z</time>
      </trkpt>
      <trkpt lat="46.84984" lon="-2.13148">
        <ele>7.6</ele>
        <time>2023-07-05T08:43:03Z</time>
      </trkpt>
      <trkpt lat="46.8499" lon="-2.13145">
        <ele>7.7</ele>
        <time>2023-07-05T08:43:05Z</time>
      </trkpt>
      <trkpt lat="46.84994" lon="-2.13138">
        <ele>7.7</ele>
        <time>2023-07-05T08:43:07Z</time>
      </trkpt>
      <trkpt lat="46.85006" lon="-2.13116">
        <ele>7.6</ele>
        <time>2023-07-05T08:43:12Z</time>
      </trkpt>
      <trkpt lat="46.85008" lon="-2.13112">
        <ele>7.5</ele>
        <time>2023-07-05T08:43:13Z</time>
      </trkpt>
      <trkpt lat="46.85013" lon="-2.13107">
        <ele>7.5</ele>
        <time>2023-07-05T08:43:15Z</time>
      </trkpt>
      <trkpt lat="46.85025" lon="-2.13098">
        <ele>7.5</ele>
        <time>2023-07-05T08:43:19Z</time>
      </trkpt>
      <trkpt lat="46.85034" lon="-2.13087">
        <ele>7.6</ele>
        <time>2023-07-05T08:43:23Z</time>
      </trkpt>
      <trkpt lat="46.85047" lon="-2.1307">
        <ele>7.7</ele>
        <time>2023-07-05T08:43:28Z</time>
      </trkpt>
      <trkpt lat="46.85049" lon="-2.1306">
        <ele>7.7</ele>
        <time>2023-07-05T08:43:30Z</time>
      </trkpt>
      <trkpt lat="46.85048" lon="-2.13049">
        <ele>7.8</ele>
        <time>2023-07-05T08:43:32Z</time>
      </trkpt>
      <trkpt lat="46.85047" lon="-2.13025">
        <ele>8</ele>
        <time>2023-07-05T08:43:37Z</time>
      </trkpt>
      <trkpt lat="46.85049" lon="-2.13011">
        <ele>8.3</ele>
        <time>2023-07-05T08:43:40Z</time>
      </trkpt>
      <trkpt lat="46.85051" lon="-2.13007">
        <ele>8.3</ele>
        <time>2023-07-05T08:43:41Z</time>
      </trkpt>
      <trkpt lat="46.85053" lon="-2.13">
        <ele>8.4</ele>
        <time>2023-07-05T08:43:43Z</time>
      </trkpt>
      <trkpt lat="46.85052" lon="-2.12994">
        <ele>8.4</ele>
        <time>2023-07-05T08:43:44Z</time>
      </trkpt>
      <trkpt lat="46.85052" lon="-2.12977">
        <ele>8.6</ele>
        <time>2023-07-05T08:43:47Z</time>
      </trkpt>
      <trkpt lat="46.85056" lon="-2.12971">
        <ele>8.6</ele>
        <time>2023-07-05T08:43:49Z</time>
      </trkpt>
      <trkpt lat="46.85067" lon="-2.12967">
        <ele>8.5</ele>
        <time>2023-07-05T08:43:53Z</time>
      </trkpt>
      <trkpt lat="46.85089" lon="-2.12966">
        <ele>8.6</ele>
        <time>2023-07-05T08:43:59Z</time>
      </trkpt>
      <trkpt lat="46.85102" lon="-2.12968">
        <ele>9.2</ele>
        <time>2023-07-05T08:44:03Z</time>
      </trkpt>
      <trkpt lat="46.85114" lon="-2.12961">
        <ele>9.8</ele>
        <time>2023-07-05T08:44:07Z</time>
      </trkpt>
      <trkpt lat="46.85125" lon="-2.12951">
        <ele>10</ele>
        <time>2023-07-05T08:44:11Z</time>
      </trkpt>
      <trkpt lat="46.85131" lon="-2.12942">
        <ele>9.7</ele>
        <time>2023-07-05T08:44:13Z</time>
      </trkpt>
      <trkpt lat="46.85138" lon="-2.12933">
        <ele>9.2</ele>
        <time>2023-07-05T08:44:15Z</time>
      </trkpt>
      <trkpt lat="46.85141" lon="-2.12929">
        <ele>8.9</ele>
        <time>2023-07-05T08:44:16Z</time>
      </trkpt>
      <trkpt lat="46.85147" lon="-2.1292">
        <ele>8.4</ele>
        <time>2023-07-05T08:44:18Z</time>
      </trkpt>
      <trkpt lat="46.85159" lon="-2.12914">
        <ele>7.9</ele>
        <time>2023-07-05T08:44:22Z</time>
      </trkpt>
      <trkpt lat="46.85168" lon="-2.12916">
        <ele>7.9</ele>
        <time>2023-07-05T08:44:25Z</time>
      </trkpt>
      <trkpt lat="46.8517" lon="-2.12919">
        <ele>7.9</ele>
        <time>2023-07-05T08:44:26Z</time>
      </trkpt>
      <trkpt lat="46.85181" lon="-2.12928">
        <ele>8.5</ele>
        <time>2023-07-05T08:44:30Z</time>
      </trkpt>
      <trkpt lat="46.85183" lon="-2.1293">
        <ele>8.7</ele>
        <time>2023-07-05T08:44:31Z</time>
      </trkpt>
      <trkpt lat="46.85197" lon="-2.12938">
        <ele>9.7</ele>
        <time>2023-07-05T08:44:37Z</time>
      </trkpt>
      <trkpt lat="46.8521" lon="-2.12943">
        <ele>10</ele>
        <time>2023-07-05T08:44:41Z</time>
      </trkpt>
      <trkpt lat="46.85222" lon="-2.12943">
        <ele>9.7</ele>
        <time>2023-07-05T08:44:44Z</time>
      </trkpt>
      <trkpt lat="46.85227" lon="-2.12945">
        <ele>9.5</ele>
        <time>2023-07-05T08:44:45Z</time>
      </trkpt>
      <trkpt lat="46.85232" lon="-2.12946">
        <ele>9.2</ele>
        <time>2023-07-05T08:44:46Z</time>
      </trkpt>
      <trkpt lat="46.85242" lon="-2.12949">
        <ele>8.7</ele>
        <time>2023-07-05T08:44:48Z</time>
      </trkpt>
      <trkpt lat="46.85246" lon="-2.12953">
        <ele>8.5</ele>
        <time>2023-07-05T08:44:49Z</time>
      </trkpt>
      <trkpt lat="46.85262" lon="-2.12967">
        <ele>8.2</ele>
        <time>2023-07-05T08:44:54Z</time>
      </trkpt>
      <trkpt lat="46.85277" lon="-2.12983">
        <ele>8</ele>
        <time>2023-07-05T08:45:00Z</time>
      </trkpt>
      <trkpt lat="46.85281" lon="-2.12986">
        <ele>8</ele>
        <time>2023-07-05T08:45:03Z</time>
      </trkpt>
      <trkpt lat="46.85281" lon="-2.12986">
        <ele>8</ele>
        <time>2023-07-05T08:45:09Z</time>
      </trkpt>
      <trkpt lat="46.85284" lon="-2.12986">
        <ele>8</ele>
        <time>2023-07-05T08:45:10Z</time>
      </trkpt>
      <trkpt lat="46.85288" lon="-2.12985">
        <ele>7.9</ele>
        <time>2023-07-05T08:45:12Z</time>
      </trkpt>
      <trkpt lat="46.85292" lon="-2.1298">
        <ele>8.1</ele>
        <time>2023-07-05T08:45:14Z</time>
      </trkpt>
      <trkpt lat="46.85304" lon="-2.12959">
        <ele>8.6</ele>
        <time>2023-07-05T08:45:21Z</time>
      </trkpt>
      <trkpt lat="46.85311" lon="-2.12945">
        <ele>9</ele>
        <time>2023-07-05T08:45:26Z</time>
      </trkpt>
      <trkpt lat="46.8532" lon="-2.12925">
        <ele>9</ele>
        <time>2023-07-05T08:45:32Z</time>
      </trkpt>
      <trkpt lat="46.85326" lon="-2.12912">
        <ele>8.7</ele>
        <time>2023-07-05T08:45:35Z</time>
      </trkpt>
      <trkpt lat="46.85327" lon="-2.12906">
        <ele>8.5</ele>
        <time>2023-07-05T08:45:36Z</time>
      </trkpt>
      <trkpt lat="46.85333" lon="-2.12888">
        <ele>8</ele>
        <time>2023-07-05T08:45:39Z</time>
      </trkpt>
      <trkpt lat="46.85338" lon="-2.1286">
        <ele>7.7</ele>
        <time>2023-07-05T08:45:44Z</time>
      </trkpt>
      <trkpt lat="46.85344" lon="-2.12828">
        <ele>7.6</ele>
        <time>2023-07-05T08:45:50Z</time>
      </trkpt>
      <trkpt lat="46.85351" lon="-2.12793">
        <ele>7.5</ele>
        <time>2023-07-05T08:45:57Z</time>
      </trkpt>
      <trkpt lat="46.85361" lon="-2.12769">
        <ele>7.4</ele>
        <time>2023-07-05T08:46:02Z</time>
      </trkpt>
      <trkpt lat="46.85367" lon="-2.12738">
        <ele>7.4</ele>
        <time>2023-07-05T08:46:08Z</time>
      </trkpt>
      <trkpt lat="46.8537" lon="-2.12717">
        <ele>7.9</ele>
        <time>2023-07-05T08:46:13Z</time>
      </trkpt>
      <trkpt lat="46.85368" lon="-2.12699">
        <ele>8.8</ele>
        <time>2023-07-05T08:46:18Z</time>
      </trkpt>
      <trkpt lat="46.85367" lon="-2.12689">
        <ele>9.6</ele>
        <time>2023-07-05T08:46:21Z</time>
      </trkpt>
      <trkpt lat="46.85366" lon="-2.12684">
        <ele>10.1</ele>
        <time>2023-07-05T08:46:23Z</time>
      </trkpt>
      <trkpt lat="46.85365" lon="-2.12675">
        <ele>11</ele>
        <time>2023-07-05T08:46:28Z</time>
      </trkpt>
      <trkpt lat="46.85366" lon="-2.12673">
        <ele>11.3</ele>
        <time>2023-07-05T08:46:29Z</time>
      </trkpt>
      <trkpt lat="46.85369" lon="-2.12668">
        <ele>12</ele>
        <time>2023-07-05T08:46:32Z</time>
      </trkpt>
      <trkpt lat="46.85373" lon="-2.12668">
        <ele>12.6</ele>
        <time>2023-07-05T08:46:35Z</time>
      </trkpt>
      <trkpt lat="46.85374" lon="-2.12668">
        <ele>12.7</ele>
        <time>2023-07-05T08:46:36Z</time>
      </trkpt>
      <trkpt lat="46.85378" lon="-2.1267">
        <ele>13.2</ele>
        <time>2023-07-05T08:46:40Z</time>
      </trkpt>
      <trkpt lat="46.85385" lon="-2.1267">
        <ele>13.8</ele>
        <time>2023-07-05T08:46:46Z</time>
      </trkpt>
      <trkpt lat="46.85391" lon="-2.12671">
        <ele>14.1</ele>
        <time>2023-07-05T08:46:52Z</time>
      </trkpt>
      <trkpt lat="46.85396" lon="-2.12668">
        <ele>14.2</ele>
        <time>2023-07-05T08:46:56Z</time>
      </trkpt>
      <trkpt lat="46.85398" lon="-2.12667">
        <ele>14.2</ele>
        <time>2023-07-05T08:46:58Z</time>
      </trkpt>
      <trkpt lat="46.85399" lon="-2.12667">
        <ele>14.2</ele>
        <time>2023-07-05T08:46:59Z</time>
      </trkpt>
      <trkpt lat="46.85402" lon="-2.12664">
        <ele>14.2</ele>
        <time>2023-07-05T08:47:02Z</time>
      </trkpt>
      <trkpt lat="46.85403" lon="-2.12663">
        <ele>14.2</ele>
        <time>2023-07-05T08:47:03Z</time>
      </trkpt>
      <trkpt lat="46.85412" lon="-2.12658">
        <ele>14</ele>
        <time>2023-07-05T08:47:09Z</time>
      </trkpt>
      <trkpt lat="46.85426" lon="-2.12655">
        <ele>13.7</ele>
        <time>2023-07-05T08:47:14Z</time>
      </trkpt>
      <trkpt lat="46.85439" lon="-2.12653">
        <ele>13.8</ele>
        <time>2023-07-05T08:47:19Z</time>
      </trkpt>
      <trkpt lat="46.85449" lon="-2.12652">
        <ele>14.4</ele>
        <time>2023-07-05T08:47:24Z</time>
      </trkpt>
      <trkpt lat="46.85454" lon="-2.12652">
        <ele>14.9</ele>
        <time>2023-07-05T08:47:27Z</time>
      </trkpt>
      <trkpt lat="46.85455" lon="-2.12652">
        <ele>15</ele>
        <time>2023-07-05T08:47:28Z</time>
      </trkpt>
      <trkpt lat="46.85466" lon="-2.1265">
        <ele>16.2</ele>
        <time>2023-07-05T08:47:34Z</time>
      </trkpt>
      <trkpt lat="46.85477" lon="-2.12645">
        <ele>17.5</ele>
        <time>2023-07-05T08:47:40Z</time>
      </trkpt>
      <trkpt lat="46.85486" lon="-2.12638">
        <ele>18.7</ele>
        <time>2023-07-05T08:47:46Z</time>
      </trkpt>
      <trkpt lat="46.85496" lon="-2.12627">
        <ele>19.6</ele>
        <time>2023-07-05T08:47:53Z</time>
      </trkpt>
      <trkpt lat="46.85507" lon="-2.12623">
        <ele>19.3</ele>
        <time>2023-07-05T08:47:58Z</time>
      </trkpt>
      <trkpt lat="46.85514" lon="-2.12618">
        <ele>18.5</ele>
        <time>2023-07-05T08:48:00Z</time>
      </trkpt>
      <trkpt lat="46.8552" lon="-2.12607">
        <ele>17.6</ele>
        <time>2023-07-05T08:48:02Z</time>
      </trkpt>
      <trkpt lat="46.8552" lon="-2.12595">
        <ele>17.1</ele>
        <time>2023-07-05T08:48:04Z</time>
      </trkpt>
      <trkpt lat="46.85519" lon="-2.1259">
        <ele>17</ele>
        <time>2023-07-05T08:48:05Z</time>
      </trkpt>
      <trkpt lat="46.85516" lon="-2.12571">
        <ele>16.8</ele>
        <time>2023-07-05T08:48:10Z</time>
      </trkpt>
      <trkpt lat="46.85508" lon="-2.1255">
        <ele>16.5</ele>
        <time>2023-07-05T08:48:16Z</time>
      </trkpt>
      <trkpt lat="46.85506" lon="-2.1254">
        <ele>16.2</ele>
        <time>2023-07-05T08:48:18Z</time>
      </trkpt>
      <trkpt lat="46.85506" lon="-2.12533">
        <ele>16</ele>
        <time>2023-07-05T08:48:19Z</time>
      </trkpt>
      <trkpt lat="46.85506" lon="-2.12525">
        <ele>15.5</ele>
        <time>2023-07-05T08:48:20Z</time>
      </trkpt>
      <trkpt lat="46.85508" lon="-2.12497">
        <ele>13.6</ele>
        <time>2023-07-05T08:48:23Z</time>
      </trkpt>
      <trkpt lat="46.85514" lon="-2.12478">
        <ele>12.1</ele>
        <time>2023-07-05T08:48:26Z</time>
      </trkpt>
      <trkpt lat="46.85519" lon="-2.12468">
        <ele>11.2</ele>
        <time>2023-07-05T08:48:28Z</time>
      </trkpt>
      <trkpt lat="46.85526" lon="-2.12458">
        <ele>10.3</ele>
        <time>2023-07-05T08:48:30Z</time>
      </trkpt>
      <trkpt lat="46.85531" lon="-2.12453">
        <ele>9.8</ele>
        <time>2023-07-05T08:48:31Z</time>
      </trkpt>
      <trkpt lat="46.85546" lon="-2.12441">
        <ele>8.7</ele>
        <time>2023-07-05T08:48:34Z</time>
      </trkpt>
      <trkpt lat="46.8556" lon="-2.12427">
        <ele>8.3</ele>
        <time>2023-07-05T08:48:38Z</time>
      </trkpt>
      <trkpt lat="46.85575" lon="-2.12412">
        <ele>8.2</ele>
        <time>2023-07-05T08:48:43Z</time>
      </trkpt>
      <trkpt lat="46.85585" lon="-2.12405">
        <ele>8.1</ele>
        <time>2023-07-05T08:48:47Z</time>
      </trkpt>
      <trkpt lat="46.85602" lon="-2.12399">
        <ele>8.1</ele>
        <time>2023-07-05T08:48:53Z</time>
      </trkpt>
      <trkpt lat="46.85611" lon="-2.12398">
        <ele>8.4</ele>
        <time>2023-07-05T08:48:57Z</time>
      </trkpt>
      <trkpt lat="46.85615" lon="-2.12399">
        <ele>8.5</ele>
        <time>2023-07-05T08:48:59Z</time>
      </trkpt>
      <trkpt lat="46.85619" lon="-2.12399">
        <ele>8.6</ele>
        <time>2023-07-05T08:49:01Z</time>
      </trkpt>
      <trkpt lat="46.85629" lon="-2.12405">
        <ele>8.9</ele>
        <time>2023-07-05T08:49:07Z</time>
      </trkpt>
      <trkpt lat="46.85638" lon="-2.12413">
        <ele>8.8</ele>
        <time>2023-07-05T08:49:12Z</time>
      </trkpt>
      <trkpt lat="46.85648" lon="-2.1242">
        <ele>8.5</ele>
        <time>2023-07-05T08:49:16Z</time>
      </trkpt>
      <trkpt lat="46.85662" lon="-2.12428">
        <ele>7.9</ele>
        <time>2023-07-05T08:49:20Z</time>
      </trkpt>
      <trkpt lat="46.85681" lon="-2.12435">
        <ele>7.3</ele>
        <time>2023-07-05T08:49:25Z</time>
      </trkpt>
      <trkpt lat="46.8569" lon="-2.12438">
        <ele>7.3</ele>
        <time>2023-07-05T08:49:29Z</time>
      </trkpt>
      <trkpt lat="46.857" lon="-2.12438">
        <ele>7.4</ele>
        <time>2023-07-05T08:49:33Z</time>
      </trkpt>
      <trkpt lat="46.85703" lon="-2.12437">
        <ele>7.4</ele>
        <time>2023-07-05T08:49:34Z</time>
      </trkpt>
      <trkpt lat="46.85713" lon="-2.12425">
        <ele>7.9</ele>
        <time>2023-07-05T08:49:40Z</time>
      </trkpt>
      <trkpt lat="46.85713" lon="-2.12423">
        <ele>8</ele>
        <time>2023-07-05T08:49:41Z</time>
      </trkpt>
      <trkpt lat="46.85714" lon="-2.12421">
        <ele>8</ele>
        <time>2023-07-05T08:49:42Z</time>
      </trkpt>
      <trkpt lat="46.85714" lon="-2.12409">
        <ele>8.4</ele>
        <time>2023-07-05T08:49:46Z</time>
      </trkpt>
      <trkpt lat="46.85716" lon="-2.12391">
        <ele>8.6</ele>
        <time>2023-07-05T08:49:51Z</time>
      </trkpt>
      <trkpt lat="46.85716" lon="-2.12365">
        <ele>8.3</ele>
        <time>2023-07-05T08:49:56Z</time>
      </trkpt>
      <trkpt lat="46.85718" lon="-2.12341">
        <ele>7.8</ele>
        <time>2023-07-05T08:50:01Z</time>
      </trkpt>
      <trkpt lat="46.85719" lon="-2.12315">
        <ele>7.5</ele>
        <time>2023-07-05T08:50:07Z</time>
      </trkpt>
      <trkpt lat="46.8572" lon="-2.12306">
        <ele>7.4</ele>
        <time>2023-07-05T08:50:09Z</time>
      </trkpt>
      <trkpt lat="46.85722" lon="-2.12298">
        <ele>7.4</ele>
        <time>2023-07-05T08:50:11Z</time>
      </trkpt>
      <trkpt lat="46.85731" lon="-2.12285">
        <ele>7.2</ele>
        <time>2023-07-05T08:50:16Z</time>
      </trkpt>
      <trkpt lat="46.85741" lon="-2.12275">
        <ele>7.2</ele>
        <time>2023-07-05T08:50:21Z</time>
      </trkpt>
      <trkpt lat="46.8575" lon="-2.12265">
        <ele>7.4</ele>
        <time>2023-07-05T08:50:27Z</time>
      </trkpt>
      <trkpt lat="46.85756" lon="-2.12245">
        <ele>7.5</ele>
        <time>2023-07-05T08:50:32Z</time>
      </trkpt>
      <trkpt lat="46.85758" lon="-2.12229">
        <ele>7.4</ele>
        <time>2023-07-05T08:50:36Z</time>
      </trkpt>
      <trkpt lat="46.85761" lon="-2.12214">
        <ele>7.3</ele>
        <time>2023-07-05T08:50:40Z</time>
      </trkpt>
      <trkpt lat="46.85766" lon="-2.12188">
        <ele>7.1</ele>
        <time>2023-07-05T08:50:45Z</time>
      </trkpt>
      <trkpt lat="46.85772" lon="-2.12159">
        <ele>6.9</ele>
        <time>2023-07-05T08:50:51Z</time>
      </trkpt>
      <trkpt lat="46.85777" lon="-2.12143">
        <ele>6.9</ele>
        <time>2023-07-05T08:50:55Z</time>
      </trkpt>
      <trkpt lat="46.85783" lon="-2.12126">
        <ele>7</ele>
        <time>2023-07-05T08:50:59Z</time>
      </trkpt>
      <trkpt lat="46.85792" lon="-2.12105">
        <ele>7.2</ele>
        <time>2023-07-05T08:51:04Z</time>
      </trkpt>
      <trkpt lat="46.85798" lon="-2.12087">
        <ele>7.5</ele>
        <time>2023-07-05T08:51:09Z</time>
      </trkpt>
      <trkpt lat="46.85806" lon="-2.12069">
        <ele>8.1</ele>
        <time>2023-07-05T08:51:15Z</time>
      </trkpt>
      <trkpt lat="46.8581" lon="-2.1206">
        <ele>8.3</ele>
        <time>2023-07-05T08:51:20Z</time>
      </trkpt>
      <trkpt lat="46.85811" lon="-2.12059">
        <ele>8.4</ele>
        <time>2023-07-05T08:51:21Z</time>
      </trkpt>
      <trkpt lat="46.85822" lon="-2.12058">
        <ele>8.8</ele>
        <time>2023-07-05T08:51:26Z</time>
      </trkpt>
      <trkpt lat="46.85834" lon="-2.1206">
        <ele>9.1</ele>
        <time>2023-07-05T08:51:32Z</time>
      </trkpt>
      <trkpt lat="46.85844" lon="-2.12055">
        <ele>9.4</ele>
        <time>2023-07-05T08:51:38Z</time>
      </trkpt>
      <trkpt lat="46.85853" lon="-2.12045">
        <ele>9.8</ele>
        <time>2023-07-05T08:51:45Z</time>
      </trkpt>
      <trkpt lat="46.85859" lon="-2.12036">
        <ele>10.1</ele>
        <time>2023-07-05T08:51:52Z</time>
      </trkpt>
      <trkpt lat="46.85861" lon="-2.12032">
        <ele>10.3</ele>
        <time>2023-07-05T08:51:54Z</time>
      </trkpt>
      <trkpt lat="46.85864" lon="-2.12024">
        <ele>10.4</ele>
        <time>2023-07-05T08:51:57Z</time>
      </trkpt>
      <trkpt lat="46.85865" lon="-2.12009">
        <ele>10.6</ele>
        <time>2023-07-05T08:52:02Z</time>
      </trkpt>
      <trkpt lat="46.85866" lon="-2.12005">
        <ele>10.6</ele>
        <time>2023-07-05T08:52:03Z</time>
      </trkpt>
      <trkpt lat="46.85867" lon="-2.11985">
        <ele>10.5</ele>
        <time>2023-07-05T08:52:08Z</time>
      </trkpt>
      <trkpt lat="46.85868" lon="-2.11982">
        <ele>10.4</ele>
        <time>2023-07-05T08:52:09Z</time>
      </trkpt>
      <trkpt lat="46.85871" lon="-2.11975">
        <ele>10.3</ele>
        <time>2023-07-05T08:52:12Z</time>
      </trkpt>
      <trkpt lat="46.85878" lon="-2.11965">
        <ele>10.1</ele>
        <time>2023-07-05T08:52:15Z</time>
      </trkpt>
      <trkpt lat="46.85882" lon="-2.11965">
        <ele>7.6</ele>
        <time>2023-07-05T08:52:16Z</time>
      </trkpt>
      <trkpt lat="46.85886" lon="-2.11965">
        <ele>7.4</ele>
        <time>2023-07-05T08:52:17Z</time>
      </trkpt>
      <trkpt lat="46.85892" lon="-2.11967">
        <ele>7.1</ele>
        <time>2023-07-05T08:52:19Z</time>
      </trkpt>
      <trkpt lat="46.85895" lon="-2.11969">
        <ele>7</ele>
        <time>2023-07-05T08:52:20Z</time>
      </trkpt>
      <trkpt lat="46.85902" lon="-2.11973">
        <ele>6.8</ele>
        <time>2023-07-05T08:52:22Z</time>
      </trkpt>
      <trkpt lat="46.85905" lon="-2.11975">
        <ele>6.7</ele>
        <time>2023-07-05T08:52:23Z</time>
      </trkpt>
      <trkpt lat="46.85922" lon="-2.11994">
        <ele>6.7</ele>
        <time>2023-07-05T08:52:29Z</time>
      </trkpt>
      <trkpt lat="46.85933" lon="-2.12007">
        <ele>7.3</ele>
        <time>2023-07-05T08:52:33Z</time>
      </trkpt>
      <trkpt lat="46.85938" lon="-2.12018">
        <ele>8</ele>
        <time>2023-07-05T08:52:36Z</time>
      </trkpt>
      <trkpt lat="46.85941" lon="-2.12024">
        <ele>8.4</ele>
        <time>2023-07-05T08:52:38Z</time>
      </trkpt>
      <trkpt lat="46.8595" lon="-2.12038">
        <ele>9.4</ele>
        <time>2023-07-05T08:52:44Z</time>
      </trkpt>
      <trkpt lat="46.85955" lon="-2.12052">
        <ele>10</ele>
        <time>2023-07-05T08:52:50Z</time>
      </trkpt>
      <trkpt lat="46.85965" lon="-2.12059">
        <ele>9.9</ele>
        <time>2023-07-05T08:52:56Z</time>
      </trkpt>
      <trkpt lat="46.85978" lon="-2.12064">
        <ele>9.1</ele>
        <time>2023-07-05T08:53:01Z</time>
      </trkpt>
      <trkpt lat="46.85982" lon="-2.12065">
        <ele>8.8</ele>
        <time>2023-07-05T08:53:02Z</time>
      </trkpt>
      <trkpt lat="46.85991" lon="-2.12069">
        <ele>8.2</ele>
        <time>2023-07-05T08:53:04Z</time>
      </trkpt>
      <trkpt lat="46.86007" lon="-2.12078">
        <ele>7.5</ele>
        <time>2023-07-05T08:53:07Z</time>
      </trkpt>
      <trkpt lat="46.86016" lon="-2.12086">
        <ele>7.5</ele>
        <time>2023-07-05T08:53:09Z</time>
      </trkpt>
      <trkpt lat="46.86029" lon="-2.12102">
        <ele>7.9</ele>
        <time>2023-07-05T08:53:13Z</time>
      </trkpt>
      <trkpt lat="46.86037" lon="-2.12124">
        <ele>8.1</ele>
        <time>2023-07-05T08:53:18Z</time>
      </trkpt>
      <trkpt lat="46.86039" lon="-2.12128">
        <ele>8.1</ele>
        <time>2023-07-05T08:53:19Z</time>
      </trkpt>
      <trkpt lat="46.86042" lon="-2.12132">
        <ele>8</ele>
        <time>2023-07-05T08:53:21Z</time>
      </trkpt>
      <trkpt lat="46.86045" lon="-2.12134">
        <ele>8</ele>
        <time>2023-07-05T08:53:22Z</time>
      </trkpt>
      <trkpt lat="46.86049" lon="-2.1214">
        <ele>8</ele>
        <time>2023-07-05T08:53:24Z</time>
      </trkpt>
      <trkpt lat="46.86051" lon="-2.12145">
        <ele>8</ele>
        <time>2023-07-05T08:53:25Z</time>
      </trkpt>
      <trkpt lat="46.86057" lon="-2.12162">
        <ele>8.2</ele>
        <time>2023-07-05T08:53:30Z</time>
      </trkpt>
      <trkpt lat="46.86057" lon="-2.12167">
        <ele>8.3</ele>
        <time>2023-07-05T08:53:32Z</time>
      </trkpt>
      <trkpt lat="46.86061" lon="-2.12172">
        <ele>8.3</ele>
        <time>2023-07-05T08:53:35Z</time>
      </trkpt>
      <trkpt lat="46.86076" lon="-2.12194">
        <ele>7.9</ele>
        <time>2023-07-05T08:53:41Z</time>
      </trkpt>
      <trkpt lat="46.86085" lon="-2.12203">
        <ele>7.6</ele>
        <time>2023-07-05T08:53:44Z</time>
      </trkpt>
      <trkpt lat="46.8609" lon="-2.12204">
        <ele>7.5</ele>
        <time>2023-07-05T08:53:45Z</time>
      </trkpt>
      <trkpt lat="46.86095" lon="-2.12206">
        <ele>7.3</ele>
        <time>2023-07-05T08:53:46Z</time>
      </trkpt>
      <trkpt lat="46.86111" lon="-2.12209">
        <ele>7.1</ele>
        <time>2023-07-05T08:53:50Z</time>
      </trkpt>
      <trkpt lat="46.86131" lon="-2.1221">
        <ele>7.3</ele>
        <time>2023-07-05T08:53:56Z</time>
      </trkpt>
      <trkpt lat="46.86144" lon="-2.12211">
        <ele>7.3</ele>
        <time>2023-07-05T08:54:00Z</time>
      </trkpt>
      <trkpt lat="46.86157" lon="-2.12213">
        <ele>7.3</ele>
        <time>2023-07-05T08:54:03Z</time>
      </trkpt>
      <trkpt lat="46.86165" lon="-2.12213">
        <ele>7.4</ele>
        <time>2023-07-05T08:54:05Z</time>
      </trkpt>
      <trkpt lat="46.86181" lon="-2.12216">
        <ele>7.5</ele>
        <time>2023-07-05T08:54:10Z</time>
      </trkpt>
      <trkpt lat="46.86196" lon="-2.12218">
        <ele>7.5</ele>
        <time>2023-07-05T08:54:14Z</time>
      </trkpt>
      <trkpt lat="46.86201" lon="-2.12218">
        <ele>7.4</ele>
        <time>2023-07-05T08:54:15Z</time>
      </trkpt>
      <trkpt lat="46.86218" lon="-2.12218">
        <ele>7.1</ele>
        <time>2023-07-05T08:54:19Z</time>
      </trkpt>
      <trkpt lat="46.86227" lon="-2.12219">
        <ele>7.1</ele>
        <time>2023-07-05T08:54:24Z</time>
      </trkpt>
      <trkpt lat="46.8624" lon="-2.12212">
        <ele>7.3</ele>
        <time>2023-07-05T08:54:29Z</time>
      </trkpt>
      <trkpt lat="46.86252" lon="-2.12202">
        <ele>7.3</ele>
        <time>2023-07-05T08:54:34Z</time>
      </trkpt>
      <trkpt lat="46.86256" lon="-2.12197">
        <ele>7.3</ele>
        <time>2023-07-05T08:54:36Z</time>
      </trkpt>
      <trkpt lat="46.8626" lon="-2.12195">
        <ele>7.2</ele>
        <time>2023-07-05T08:54:38Z</time>
      </trkpt>
      <trkpt lat="46.86266" lon="-2.12191">
        <ele>7</ele>
        <time>2023-07-05T08:54:41Z</time>
      </trkpt>
      <trkpt lat="46.86268" lon="-2.12192">
        <ele>6.9</ele>
        <time>2023-07-05T08:54:42Z</time>
      </trkpt>
      <trkpt lat="46.86274" lon="-2.12204">
        <ele>6.5</ele>
        <time>2023-07-05T08:54:47Z</time>
      </trkpt>
      <trkpt lat="46.86278" lon="-2.12224">
        <ele>6.3</ele>
        <time>2023-07-05T08:54:53Z</time>
      </trkpt>
      <trkpt lat="46.86279" lon="-2.12234">
        <ele>6.3</ele>
        <time>2023-07-05T08:54:55Z</time>
      </trkpt>
      <trkpt lat="46.86282" lon="-2.12241">
        <ele>6.3</ele>
        <time>2023-07-05T08:54:57Z</time>
      </trkpt>
      <trkpt lat="46.86288" lon="-2.12263">
        <ele>6.4</ele>
        <time>2023-07-05T08:55:03Z</time>
      </trkpt>
      <trkpt lat="46.86289" lon="-2.12267">
        <ele>6.4</ele>
        <time>2023-07-05T08:55:04Z</time>
      </trkpt>
      <trkpt lat="46.863" lon="-2.12294">
        <ele>6.5</ele>
        <time>2023-07-05T08:55:10Z</time>
      </trkpt>
      <trkpt lat="46.86308" lon="-2.12317">
        <ele>6.4</ele>
        <time>2023-07-05T08:55:15Z</time>
      </trkpt>
      <trkpt lat="46.86319" lon="-2.12336">
        <ele>6.4</ele>
        <time>2023-07-05T08:55:20Z</time>
      </trkpt>
      <trkpt lat="46.86323" lon="-2.12339">
        <ele>6.6</ele>
        <time>2023-07-05T08:55:23Z</time>
      </trkpt>
      <trkpt lat="46.86326" lon="-2.12337">
        <ele>6.6</ele>
        <time>2023-07-05T08:55:25Z</time>
      </trkpt>
      <trkpt lat="46.86331" lon="-2.12337">
        <ele>6.7</ele>
        <time>2023-07-05T08:55:27Z</time>
      </trkpt>
      <trkpt lat="46.86337" lon="-2.12337">
        <ele>6.7</ele>
        <time>2023-07-05T08:55:29Z</time>
      </trkpt>
      <trkpt lat="46.86345" lon="-2.12339">
        <ele>6.7</ele>
        <time>2023-07-05T08:55:31Z</time>
      </trkpt>
      <trkpt lat="46.86355" lon="-2.12346">
        <ele>6.8</ele>
        <time>2023-07-05T08:55:34Z</time>
      </trkpt>
      <trkpt lat="46.86359" lon="-2.12349">
        <ele>6.8</ele>
        <time>2023-07-05T08:55:35Z</time>
      </trkpt>
      <trkpt lat="46.86363" lon="-2.12351">
        <ele>6.9</ele>
        <time>2023-07-05T08:55:36Z</time>
      </trkpt>
      <trkpt lat="46.86372" lon="-2.12355">
        <ele>6.9</ele>
        <time>2023-07-05T08:55:39Z</time>
      </trkpt>
      <trkpt lat="46.86387" lon="-2.12358">
        <ele>6.7</ele>
        <time>2023-07-05T08:55:43Z</time>
      </trkpt>
      <trkpt lat="46.86392" lon="-2.12361">
        <ele>6.8</ele>
        <time>2023-07-05T08:55:45Z</time>
      </trkpt>
      <trkpt lat="46.86396" lon="-2.12368">
        <ele>6.8</ele>
        <time>2023-07-05T08:55:47Z</time>
      </trkpt>
      <trkpt lat="46.86399" lon="-2.12372">
        <ele>6.9</ele>
        <time>2023-07-05T08:55:48Z</time>
      </trkpt>
      <trkpt lat="46.86408" lon="-2.12381">
        <ele>6.9</ele>
        <time>2023-07-05T08:55:51Z</time>
      </trkpt>
      <trkpt lat="46.86412" lon="-2.12384">
        <ele>6.9</ele>
        <time>2023-07-05T08:55:52Z</time>
      </trkpt>
      <trkpt lat="46.86423" lon="-2.1239">
        <ele>6.9</ele>
        <time>2023-07-05T08:55:55Z</time>
      </trkpt>
      <trkpt lat="46.86429" lon="-2.12394">
        <ele>6.9</ele>
        <time>2023-07-05T08:55:57Z</time>
      </trkpt>
      <trkpt lat="46.86434" lon="-2.12401">
        <ele>7</ele>
        <time>2023-07-05T08:55:59Z</time>
      </trkpt>
      <trkpt lat="46.86444" lon="-2.12406">
        <ele>7</ele>
        <time>2023-07-05T08:56:02Z</time>
      </trkpt>
      <trkpt lat="46.86452" lon="-2.12406">
        <ele>7</ele>
        <time>2023-07-05T08:56:04Z</time>
      </trkpt>
      <trkpt lat="46.8646" lon="-2.12411">
        <ele>7.1</ele>
        <time>2023-07-05T08:56:06Z</time>
      </trkpt>
      <trkpt lat="46.86464" lon="-2.12412">
        <ele>7.2</ele>
        <time>2023-07-05T08:56:07Z</time>
      </trkpt>
      <trkpt lat="46.86475" lon="-2.12419">
        <ele>7.4</ele>
        <time>2023-07-05T08:56:11Z</time>
      </trkpt>
      <trkpt lat="46.86487" lon="-2.1244">
        <ele>8</ele>
        <time>2023-07-05T08:56:16Z</time>
      </trkpt>
      <trkpt lat="46.86487" lon="-2.12445">
        <ele>8.1</ele>
        <time>2023-07-05T08:56:17Z</time>
      </trkpt>
      <trkpt lat="46.8649" lon="-2.12456">
        <ele>8.4</ele>
        <time>2023-07-05T08:56:20Z</time>
      </trkpt>
      <trkpt lat="46.86493" lon="-2.12465">
        <ele>8.8</ele>
        <time>2023-07-05T08:56:23Z</time>
      </trkpt>
      <trkpt lat="46.86501" lon="-2.12474">
        <ele>9.3</ele>
        <time>2023-07-05T08:56:27Z</time>
      </trkpt>
      <trkpt lat="46.86508" lon="-2.12484">
        <ele>9.8</ele>
        <time>2023-07-05T08:56:32Z</time>
      </trkpt>
      <trkpt lat="46.86514" lon="-2.12504">
        <ele>10.5</ele>
        <time>2023-07-05T08:56:37Z</time>
      </trkpt>
      <trkpt lat="46.86521" lon="-2.12509">
        <ele>11.3</ele>
        <time>2023-07-05T08:56:40Z</time>
      </trkpt>
      <trkpt lat="46.86533" lon="-2.12516">
        <ele>12.5</ele>
        <time>2023-07-05T08:56:45Z</time>
      </trkpt>
      <trkpt lat="46.86547" lon="-2.12516">
        <ele>13.3</ele>
        <time>2023-07-05T08:56:50Z</time>
      </trkpt>
      <trkpt lat="46.86556" lon="-2.12515">
        <ele>13.7</ele>
        <time>2023-07-05T08:56:55Z</time>
      </trkpt>
      <trkpt lat="46.86566" lon="-2.1251">
        <ele>14</ele>
        <time>2023-07-05T08:57:00Z</time>
      </trkpt>
      <trkpt lat="46.86576" lon="-2.12495">
        <ele>14.1</ele>
        <time>2023-07-05T08:57:05Z</time>
      </trkpt>
      <trkpt lat="46.86585" lon="-2.12481">
        <ele>13.8</ele>
        <time>2023-07-05T08:57:09Z</time>
      </trkpt>
      <trkpt lat="46.86596" lon="-2.12464">
        <ele>13.3</ele>
        <time>2023-07-05T08:57:13Z</time>
      </trkpt>
      <trkpt lat="46.86608" lon="-2.12461">
        <ele>13.2</ele>
        <time>2023-07-05T08:57:17Z</time>
      </trkpt>
      <trkpt lat="46.86622" lon="-2.12462">
        <ele>13.1</ele>
        <time>2023-07-05T08:57:21Z</time>
      </trkpt>
      <trkpt lat="46.86634" lon="-2.1247">
        <ele>13.6</ele>
        <time>2023-07-05T08:57:25Z</time>
      </trkpt>
      <trkpt lat="46.86642" lon="-2.12476">
        <ele>14.4</ele>
        <time>2023-07-05T08:57:29Z</time>
      </trkpt>
      <trkpt lat="46.86654" lon="-2.12482">
        <ele>15.5</ele>
        <time>2023-07-05T08:57:34Z</time>
      </trkpt>
      <trkpt lat="46.86656" lon="-2.12484">
        <ele>15.7</ele>
        <time>2023-07-05T08:57:35Z</time>
      </trkpt>
      <trkpt lat="46.86666" lon="-2.12497">
        <ele>16.6</ele>
        <time>2023-07-05T08:57:41Z</time>
      </trkpt>
      <trkpt lat="46.86674" lon="-2.12513">
        <ele>17.2</ele>
        <time>2023-07-05T08:57:46Z</time>
      </trkpt>
      <trkpt lat="46.8668" lon="-2.12525">
        <ele>17.6</ele>
        <time>2023-07-05T08:57:51Z</time>
      </trkpt>
      <trkpt lat="46.86689" lon="-2.12532">
        <ele>17.6</ele>
        <time>2023-07-05T08:57:55Z</time>
      </trkpt>
      <trkpt lat="46.86691" lon="-2.12535">
        <ele>17.5</ele>
        <time>2023-07-05T08:57:56Z</time>
      </trkpt>
      <trkpt lat="46.86695" lon="-2.12538">
        <ele>17.3</ele>
        <time>2023-07-05T08:57:57Z</time>
      </trkpt>
      <trkpt lat="46.86704" lon="-2.12541">
        <ele>16.6</ele>
        <time>2023-07-05T08:57:59Z</time>
      </trkpt>
      <trkpt lat="46.86715" lon="-2.12545">
        <ele>15.7</ele>
        <time>2023-07-05T08:58:01Z</time>
      </trkpt>
      <trkpt lat="46.86725" lon="-2.12544">
        <ele>15.2</ele>
        <time>2023-07-05T08:58:03Z</time>
      </trkpt>
      <trkpt lat="46.86735" lon="-2.12545">
        <ele>14.9</ele>
        <time>2023-07-05T08:58:05Z</time>
      </trkpt>
      <trkpt lat="46.86744" lon="-2.1255">
        <ele>14.8</ele>
        <time>2023-07-05T08:58:07Z</time>
      </trkpt>
      <trkpt lat="46.8675" lon="-2.12555">
        <ele>14.7</ele>
        <time>2023-07-05T08:58:09Z</time>
      </trkpt>
      <trkpt lat="46.86753" lon="-2.12556">
        <ele>14.7</ele>
        <time>2023-07-05T08:58:10Z</time>
      </trkpt>
      <trkpt lat="46.86759" lon="-2.12557">
        <ele>14.7</ele>
        <time>2023-07-05T08:58:12Z</time>
      </trkpt>
      <trkpt lat="46.86762" lon="-2.12559">
        <ele>14.6</ele>
        <time>2023-07-05T08:58:13Z</time>
      </trkpt>
      <trkpt lat="46.86774" lon="-2.12565">
        <ele>14.7</ele>
        <time>2023-07-05T08:58:17Z</time>
      </trkpt>
      <trkpt lat="46.86792" lon="-2.12575">
        <ele>14.8</ele>
        <time>2023-07-05T08:58:25Z</time>
      </trkpt>
      <trkpt lat="46.86801" lon="-2.12576">
        <ele>14.3</ele>
        <time>2023-07-05T08:58:28Z</time>
      </trkpt>
      <trkpt lat="46.86809" lon="-2.12574">
        <ele>13.5</ele>
        <time>2023-07-05T08:58:30Z</time>
      </trkpt>
      <trkpt lat="46.86823" lon="-2.12569">
        <ele>13.2</ele>
        <time>2023-07-05T08:58:34Z</time>
      </trkpt>
      <trkpt lat="46.86826" lon="-2.12569">
        <ele>13.2</ele>
        <time>2023-07-05T08:58:35Z</time>
      </trkpt>
      <trkpt lat="46.86838" lon="-2.1257">
        <ele>13.4</ele>
        <time>2023-07-05T08:58:40Z</time>
      </trkpt>
      <trkpt lat="46.86853" lon="-2.12571">
        <ele>13.6</ele>
        <time>2023-07-05T08:58:46Z</time>
      </trkpt>
      <trkpt lat="46.86855" lon="-2.1257">
        <ele>13.6</ele>
        <time>2023-07-05T08:58:47Z</time>
      </trkpt>
      <trkpt lat="46.8686" lon="-2.12563">
        <ele>13.6</ele>
        <time>2023-07-05T08:58:50Z</time>
      </trkpt>
      <trkpt lat="46.86865" lon="-2.12555">
        <ele>13.5</ele>
        <time>2023-07-05T08:58:52Z</time>
      </trkpt>
      <trkpt lat="46.86868" lon="-2.12552">
        <ele>13.4</ele>
        <time>2023-07-05T08:58:53Z</time>
      </trkpt>
      <trkpt lat="46.86873" lon="-2.12549">
        <ele>13.5</ele>
        <time>2023-07-05T08:58:55Z</time>
      </trkpt>
      <trkpt lat="46.8688" lon="-2.1255">
        <ele>13.6</ele>
        <time>2023-07-05T08:58:58Z</time>
      </trkpt>
      <trkpt lat="46.86883" lon="-2.12552">
        <ele>13.7</ele>
        <time>2023-07-05T08:59:00Z</time>
      </trkpt>
      <trkpt lat="46.86887" lon="-2.12554">
        <ele>13.9</ele>
        <time>2023-07-05T08:59:03Z</time>
      </trkpt>
      <trkpt lat="46.8689" lon="-2.12555">
        <ele>14</ele>
        <time>2023-07-05T08:59:05Z</time>
      </trkpt>
      <trkpt lat="46.86895" lon="-2.12562">
        <ele>14.4</ele>
        <time>2023-07-05T08:59:09Z</time>
      </trkpt>
      <trkpt lat="46.86896" lon="-2.12564">
        <ele>14.4</ele>
        <time>2023-07-05T08:59:10Z</time>
      </trkpt>
      <trkpt lat="46.86898" lon="-2.12565">
        <ele>14.5</ele>
        <time>2023-07-05T08:59:11Z</time>
      </trkpt>
      <trkpt lat="46.86906" lon="-2.12571">
        <ele>14.9</ele>
        <time>2023-07-05T08:59:15Z</time>
      </trkpt>
      <trkpt lat="46.86915" lon="-2.12579">
        <ele>15.4</ele>
        <time>2023-07-05T08:59:21Z</time>
      </trkpt>
      <trkpt lat="46.86916" lon="-2.12581">
        <ele>15.4</ele>
        <time>2023-07-05T08:59:22Z</time>
      </trkpt>
      <trkpt lat="46.86917" lon="-2.12584">
        <ele>15.4</ele>
        <time>2023-07-05T08:59:24Z</time>
      </trkpt>
      <trkpt lat="46.86919" lon="-2.12587">
        <ele>15.3</ele>
        <time>2023-07-05T08:59:26Z</time>
      </trkpt>
      <trkpt lat="46.86922" lon="-2.12591">
        <ele>15.2</ele>
        <time>2023-07-05T08:59:29Z</time>
      </trkpt>
      <trkpt lat="46.86923" lon="-2.12595">
        <ele>15</ele>
        <time>2023-07-05T08:59:31Z</time>
      </trkpt>
      <trkpt lat="46.86923" lon="-2.12596">
        <ele>14.9</ele>
        <time>2023-07-05T08:59:37Z</time>
      </trkpt>
      <trkpt lat="46.86923" lon="-2.12596">
        <ele>14.9</ele>
        <time>2023-07-05T08:59:52Z</time>
      </trkpt>
      <trkpt lat="46.86923" lon="-2.12596">
        <ele>14.9</ele>
        <time>2023-07-05T09:00:12Z</time>
      </trkpt>
      <trkpt lat="46.86925" lon="-2.12597">
        <ele>14.8</ele>
        <time>2023-07-05T09:00:13Z</time>
      </trkpt>
      <trkpt lat="46.86934" lon="-2.12596">
        <ele>13.7</ele>
        <time>2023-07-05T09:00:16Z</time>
      </trkpt>
      <trkpt lat="46.86955" lon="-2.12598">
        <ele>10.6</ele>
        <time>2023-07-05T09:00:20Z</time>
      </trkpt>
      <trkpt lat="46.86969" lon="-2.12591">
        <ele>9.1</ele>
        <time>2023-07-05T09:00:22Z</time>
      </trkpt>
      <trkpt lat="46.86974" lon="-2.12584">
        <ele>8.7</ele>
        <time>2023-07-05T09:00:23Z</time>
      </trkpt>
      <trkpt lat="46.8698" lon="-2.12578">
        <ele>8.7</ele>
        <time>2023-07-05T09:00:24Z</time>
      </trkpt>
      <trkpt lat="46.86991" lon="-2.12574">
        <ele>8.8</ele>
        <time>2023-07-05T09:00:26Z</time>
      </trkpt>
      <trkpt lat="46.87008" lon="-2.12567">
        <ele>9</ele>
        <time>2023-07-05T09:00:31Z</time>
      </trkpt>
      <trkpt lat="46.87023" lon="-2.12552">
        <ele>9.5</ele>
        <time>2023-07-05T09:00:37Z</time>
      </trkpt>
      <trkpt lat="46.87031" lon="-2.12556">
        <ele>10.2</ele>
        <time>2023-07-05T09:00:41Z</time>
      </trkpt>
      <trkpt lat="46.8704" lon="-2.12559">
        <ele>11.4</ele>
        <time>2023-07-05T09:00:47Z</time>
      </trkpt>
      <trkpt lat="46.87044" lon="-2.12564">
        <ele>12.7</ele>
        <time>2023-07-05T09:00:53Z</time>
      </trkpt>
      <trkpt lat="46.87049" lon="-2.12569">
        <ele>13.9</ele>
        <time>2023-07-05T09:00:59Z</time>
      </trkpt>
      <trkpt lat="46.8705" lon="-2.12571">
        <ele>14.2</ele>
        <time>2023-07-05T09:01:00Z</time>
      </trkpt>
      <trkpt lat="46.87052" lon="-2.12574">
        <ele>14.9</ele>
        <time>2023-07-05T09:01:03Z</time>
      </trkpt>
      <trkpt lat="46.87054" lon="-2.12578">
        <ele>15.5</ele>
        <time>2023-07-05T09:01:05Z</time>
      </trkpt>
      <trkpt lat="46.87055" lon="-2.12579">
        <ele>15.7</ele>
        <time>2023-07-05T09:01:06Z</time>
      </trkpt>
      <trkpt lat="46.87058" lon="-2.12583">
        <ele>16.5</ele>
        <time>2023-07-05T09:01:10Z</time>
      </trkpt>
      <trkpt lat="46.87062" lon="-2.12587">
        <ele>17.2</ele>
        <time>2023-07-05T09:01:18Z</time>
      </trkpt>
      <trkpt lat="46.87066" lon="-2.12592">
        <ele>17.8</ele>
        <time>2023-07-05T09:01:24Z</time>
      </trkpt>
      <trkpt lat="46.87067" lon="-2.12593">
        <ele>18</ele>
        <time>2023-07-05T09:01:25Z</time>
      </trkpt>
      <trkpt lat="46.8707" lon="-2.12595">
        <ele>18.2</ele>
        <time>2023-07-05T09:01:27Z</time>
      </trkpt>
      <trkpt lat="46.87072" lon="-2.12596">
        <ele>18.4</ele>
        <time>2023-07-05T09:01:31Z</time>
      </trkpt>
      <trkpt lat="46.87076" lon="-2.12601">
        <ele>18.8</ele>
        <time>2023-07-05T09:01:35Z</time>
      </trkpt>
      <trkpt lat="46.87079" lon="-2.12605">
        <ele>19.1</ele>
        <time>2023-07-05T09:01:38Z</time>
      </trkpt>
      <trkpt lat="46.87089" lon="-2.12613">
        <ele>19.9</ele>
        <time>2023-07-05T09:01:45Z</time>
      </trkpt>
      <trkpt lat="46.87098" lon="-2.12618">
        <ele>20.5</ele>
        <time>2023-07-05T09:01:53Z</time>
      </trkpt>
      <trkpt lat="46.87106" lon="-2.12626">
        <ele>21</ele>
        <time>2023-07-05T09:02:02Z</time>
      </trkpt>
      <trkpt lat="46.87114" lon="-2.12629">
        <ele>21.2</ele>
        <time>2023-07-05T09:02:09Z</time>
      </trkpt>
      <trkpt lat="46.8712" lon="-2.1263">
        <ele>21.1</ele>
        <time>2023-07-05T09:02:13Z</time>
      </trkpt>
      <trkpt lat="46.87122" lon="-2.12632">
        <ele>21.1</ele>
        <time>2023-07-05T09:02:14Z</time>
      </trkpt>
      <trkpt lat="46.87133" lon="-2.12637">
        <ele>21</ele>
        <time>2023-07-05T09:02:17Z</time>
      </trkpt>
      <trkpt lat="46.87143" lon="-2.1264">
        <ele>21.2</ele>
        <time>2023-07-05T09:02:21Z</time>
      </trkpt>
      <trkpt lat="46.87152" lon="-2.12645">
        <ele>21.6</ele>
        <time>2023-07-05T09:02:27Z</time>
      </trkpt>
      <trkpt lat="46.87163" lon="-2.12652">
        <ele>21.5</ele>
        <time>2023-07-05T09:02:34Z</time>
      </trkpt>
      <trkpt lat="46.87167" lon="-2.12654">
        <ele>21.4</ele>
        <time>2023-07-05T09:02:35Z</time>
      </trkpt>
      <trkpt lat="46.87174" lon="-2.12658">
        <ele>21</ele>
        <time>2023-07-05T09:02:37Z</time>
      </trkpt>
      <trkpt lat="46.87194" lon="-2.12666">
        <ele>20</ele>
        <time>2023-07-05T09:02:41Z</time>
      </trkpt>
      <trkpt lat="46.872" lon="-2.12667">
        <ele>19.9</ele>
        <time>2023-07-05T09:02:42Z</time>
      </trkpt>
      <trkpt lat="46.87211" lon="-2.12669">
        <ele>20.4</ele>
        <time>2023-07-05T09:02:45Z</time>
      </trkpt>
      <trkpt lat="46.87215" lon="-2.12671">
        <ele>20.8</ele>
        <time>2023-07-05T09:02:47Z</time>
      </trkpt>
      <trkpt lat="46.87218" lon="-2.12673">
        <ele>21.1</ele>
        <time>2023-07-05T09:02:49Z</time>
      </trkpt>
      <trkpt lat="46.8722" lon="-2.12674">
        <ele>21.3</ele>
        <time>2023-07-05T09:02:50Z</time>
      </trkpt>
      <trkpt lat="46.87225" lon="-2.12681">
        <ele>22</ele>
        <time>2023-07-05T09:02:54Z</time>
      </trkpt>
      <trkpt lat="46.87227" lon="-2.12684">
        <ele>22.2</ele>
        <time>2023-07-05T09:02:56Z</time>
      </trkpt>
      <trkpt lat="46.87231" lon="-2.12686">
        <ele>22.4</ele>
        <time>2023-07-05T09:02:58Z</time>
      </trkpt>
      <trkpt lat="46.87241" lon="-2.12689">
        <ele>22.5</ele>
        <time>2023-07-05T09:03:03Z</time>
      </trkpt>
      <trkpt lat="46.87252" lon="-2.12691">
        <ele>21.9</ele>
        <time>2023-07-05T09:03:06Z</time>
      </trkpt>
      <trkpt lat="46.87276" lon="-2.12698">
        <ele>19.8</ele>
        <time>2023-07-05T09:03:10Z</time>
      </trkpt>
      <trkpt lat="46.87302" lon="-2.12705">
        <ele>20</ele>
        <time>2023-07-05T09:03:15Z</time>
      </trkpt>
      <trkpt lat="46.87306" lon="-2.12706">
        <ele>20</ele>
        <time>2023-07-05T09:03:17Z</time>
      </trkpt>
      <trkpt lat="46.87306" lon="-2.12708">
        <ele>20</ele>
        <time>2023-07-05T09:03:19Z</time>
      </trkpt>
      <trkpt lat="46.87308" lon="-2.12708">
        <ele>20</ele>
        <time>2023-07-05T09:03:20Z</time>
      </trkpt>
      <trkpt lat="46.8731" lon="-2.12709">
        <ele>19.9</ele>
        <time>2023-07-05T09:03:24Z</time>
      </trkpt>
      <trkpt lat="46.87312" lon="-2.12708">
        <ele>19.8</ele>
        <time>2023-07-05T09:03:25Z</time>
      </trkpt>
      <trkpt lat="46.87317" lon="-2.12702">
        <ele>19.1</ele>
        <time>2023-07-05T09:03:28Z</time>
      </trkpt>
      <trkpt lat="46.87325" lon="-2.12696">
        <ele>17.9</ele>
        <time>2023-07-05T09:03:31Z</time>
      </trkpt>
      <trkpt lat="46.87333" lon="-2.12683">
        <ele>16.5</ele>
        <time>2023-07-05T09:03:34Z</time>
      </trkpt>
      <trkpt lat="46.87336" lon="-2.1268">
        <ele>16.2</ele>
        <time>2023-07-05T09:03:35Z</time>
      </trkpt>
      <trkpt lat="46.87345" lon="-2.12672">
        <ele>15.6</ele>
        <time>2023-07-05T09:03:39Z</time>
      </trkpt>
      <trkpt lat="46.87355" lon="-2.12664">
        <ele>15.2</ele>
        <time>2023-07-05T09:03:43Z</time>
      </trkpt>
      <trkpt lat="46.87372" lon="-2.12662">
        <ele>14.6</ele>
        <time>2023-07-05T09:03:48Z</time>
      </trkpt>
      <trkpt lat="46.87378" lon="-2.12657">
        <ele>14.5</ele>
        <time>2023-07-05T09:03:50Z</time>
      </trkpt>
      <trkpt lat="46.8738" lon="-2.12657">
        <ele>14.5</ele>
        <time>2023-07-05T09:03:54Z</time>
      </trkpt>
      <trkpt lat="46.8738" lon="-2.12657">
        <ele>14.5</ele>
        <time>2023-07-05T09:04:00Z</time>
      </trkpt>
      <trkpt lat="46.8738" lon="-2.12657">
        <ele>14.5</ele>
        <time>2023-07-05T09:04:01Z</time>
      </trkpt>
      <trkpt lat="46.87385" lon="-2.12645">
        <ele>14.5</ele>
        <time>2023-07-05T09:04:06Z</time>
      </trkpt>
      <trkpt lat="46.87387" lon="-2.12636">
        <ele>14.5</ele>
        <time>2023-07-05T09:04:09Z</time>
      </trkpt>
      <trkpt lat="46.87388" lon="-2.12632">
        <ele>14.5</ele>
        <time>2023-07-05T09:04:10Z</time>
      </trkpt>
      <trkpt lat="46.87393" lon="-2.12611">
        <ele>13.9</ele>
        <time>2023-07-05T09:04:14Z</time>
      </trkpt>
      <trkpt lat="46.87395" lon="-2.12603">
        <ele>13.5</ele>
        <time>2023-07-05T09:04:15Z</time>
      </trkpt>
      <trkpt lat="46.87401" lon="-2.12588">
        <ele>12.7</ele>
        <time>2023-07-05T09:04:17Z</time>
      </trkpt>
      <trkpt lat="46.87405" lon="-2.12583">
        <ele>12.5</ele>
        <time>2023-07-05T09:04:18Z</time>
      </trkpt>
      <trkpt lat="46.87416" lon="-2.12569">
        <ele>12.2</ele>
        <time>2023-07-05T09:04:22Z</time>
      </trkpt>
      <trkpt lat="46.87423" lon="-2.12557">
        <ele>12</ele>
        <time>2023-07-05T09:04:25Z</time>
      </trkpt>
      <trkpt lat="46.87426" lon="-2.12552">
        <ele>11.8</ele>
        <time>2023-07-05T09:04:26Z</time>
      </trkpt>
      <trkpt lat="46.87442" lon="-2.12524">
        <ele>11.2</ele>
        <time>2023-07-05T09:04:31Z</time>
      </trkpt>
      <trkpt lat="46.87454" lon="-2.12497">
        <ele>11.7</ele>
        <time>2023-07-05T09:04:36Z</time>
      </trkpt>
      <trkpt lat="46.87465" lon="-2.12469">
        <ele>12.7</ele>
        <time>2023-07-05T09:04:41Z</time>
      </trkpt>
      <trkpt lat="46.87476" lon="-2.12457">
        <ele>13.6</ele>
        <time>2023-07-05T09:04:45Z</time>
      </trkpt>
      <trkpt lat="46.87488" lon="-2.12456">
        <ele>14.6</ele>
        <time>2023-07-05T09:04:50Z</time>
      </trkpt>
      <trkpt lat="46.87501" lon="-2.12455">
        <ele>15.9</ele>
        <time>2023-07-05T09:04:57Z</time>
      </trkpt>
      <trkpt lat="46.87507" lon="-2.12458">
        <ele>16.6</ele>
        <time>2023-07-05T09:05:02Z</time>
      </trkpt>
      <trkpt lat="46.87508" lon="-2.12459">
        <ele>16.7</ele>
        <time>2023-07-05T09:05:03Z</time>
      </trkpt>
      <trkpt lat="46.87508" lon="-2.12462">
        <ele>17</ele>
        <time>2023-07-05T09:05:05Z</time>
      </trkpt>
      <trkpt lat="46.87509" lon="-2.12464">
        <ele>17.2</ele>
        <time>2023-07-05T09:05:06Z</time>
      </trkpt>
      <trkpt lat="46.8751" lon="-2.12465">
        <ele>17.4</ele>
        <time>2023-07-05T09:05:07Z</time>
      </trkpt>
      <trkpt lat="46.87518" lon="-2.12473">
        <ele>18.7</ele>
        <time>2023-07-05T09:05:13Z</time>
      </trkpt>
      <trkpt lat="46.87521" lon="-2.12479">
        <ele>19.4</ele>
        <time>2023-07-05T09:05:16Z</time>
      </trkpt>
      <trkpt lat="46.87524" lon="-2.12483">
        <ele>20</ele>
        <time>2023-07-05T09:05:19Z</time>
      </trkpt>
      <trkpt lat="46.87525" lon="-2.12484">
        <ele>20.3</ele>
        <time>2023-07-05T09:05:24Z</time>
      </trkpt>
      <trkpt lat="46.87525" lon="-2.12484">
        <ele>20.3</ele>
        <time>2023-07-05T09:05:26Z</time>
      </trkpt>
      <trkpt lat="46.87527" lon="-2.12484">
        <ele>20.6</ele>
        <time>2023-07-05T09:05:28Z</time>
      </trkpt>
      <trkpt lat="46.87529" lon="-2.12484">
        <ele>21</ele>
        <time>2023-07-05T09:05:30Z</time>
      </trkpt>
      <trkpt lat="46.87533" lon="-2.1248">
        <ele>21.8</ele>
        <time>2023-07-05T09:05:36Z</time>
      </trkpt>
      <trkpt lat="46.87537" lon="-2.12476">
        <ele>22.7</ele>
        <time>2023-07-05T09:05:42Z</time>
      </trkpt>
      <trkpt lat="46.87542" lon="-2.12474">
        <ele>23.6</ele>
        <time>2023-07-05T09:05:48Z</time>
      </trkpt>
      <trkpt lat="46.87549" lon="-2.12471">
        <ele>24.9</ele>
        <time>2023-07-05T09:05:55Z</time>
      </trkpt>
      <trkpt lat="46.87558" lon="-2.12467">
        <ele>26.1</ele>
        <time>2023-07-05T09:06:01Z</time>
      </trkpt>
      <trkpt lat="46.87561" lon="-2.1247">
        <ele>26.4</ele>
        <time>2023-07-05T09:06:06Z</time>
      </trkpt>
      <trkpt lat="46.87561" lon="-2.1247">
        <ele>26.4</ele>
        <time>2023-07-05T09:06:12Z</time>
      </trkpt>
      <trkpt lat="46.87561" lon="-2.1247">
        <ele>26.4</ele>
        <time>2023-07-05T09:06:18Z</time>
      </trkpt>
      <trkpt lat="46.87561" lon="-2.1247">
        <ele>26.4</ele>
        <time>2023-07-05T09:06:35Z</time>
      </trkpt>
      <trkpt lat="46.87561" lon="-2.1247">
        <ele>26.4</ele>
        <time>2023-07-05T09:06:57Z</time>
      </trkpt>
      <trkpt lat="46.87561" lon="-2.1247">
        <ele>26.4</ele>
        <time>2023-07-05T09:07:19Z</time>
      </trkpt>
      <trkpt lat="46.87561" lon="-2.12469">
        <ele>26.5</ele>
        <time>2023-07-05T09:07:25Z</time>
      </trkpt>
      <trkpt lat="46.87564" lon="-2.12465">
        <ele>26.7</ele>
        <time>2023-07-05T09:07:27Z</time>
      </trkpt>
      <trkpt lat="46.87574" lon="-2.12463">
        <ele>26.8</ele>
        <time>2023-07-05T09:07:30Z</time>
      </trkpt>
      <trkpt lat="46.87581" lon="-2.12466">
        <ele>26.8</ele>
        <time>2023-07-05T09:07:34Z</time>
      </trkpt>
      <trkpt lat="46.87596" lon="-2.12469">
        <ele>27.5</ele>
        <time>2023-07-05T09:07:42Z</time>
      </trkpt>
      <trkpt lat="46.876" lon="-2.12469">
        <ele>27.6</ele>
        <time>2023-07-05T09:07:44Z</time>
      </trkpt>
      <trkpt lat="46.87603" lon="-2.12468">
        <ele>27.6</ele>
        <time>2023-07-05T09:07:46Z</time>
      </trkpt>
      <trkpt lat="46.87613" lon="-2.12474">
        <ele>27.1</ele>
        <time>2023-07-05T09:07:48Z</time>
      </trkpt>
      <trkpt lat="46.87625" lon="-2.12486">
        <ele>26.2</ele>
        <time>2023-07-05T09:07:51Z</time>
      </trkpt>
      <trkpt lat="46.87631" lon="-2.12497">
        <ele>26.1</ele>
        <time>2023-07-05T09:07:54Z</time>
      </trkpt>
      <trkpt lat="46.87633" lon="-2.12501">
        <ele>26.1</ele>
        <time>2023-07-05T09:07:55Z</time>
      </trkpt>
      <trkpt lat="46.8764" lon="-2.12505">
        <ele>26.2</ele>
        <time>2023-07-05T09:07:57Z</time>
      </trkpt>
      <trkpt lat="46.87646" lon="-2.12508">
        <ele>26.1</ele>
        <time>2023-07-05T09:07:59Z</time>
      </trkpt>
      <trkpt lat="46.87658" lon="-2.12523">
        <ele>25.7</ele>
        <time>2023-07-05T09:08:03Z</time>
      </trkpt>
      <trkpt lat="46.87665" lon="-2.12529">
        <ele>25.8</ele>
        <time>2023-07-05T09:08:05Z</time>
      </trkpt>
      <trkpt lat="46.87671" lon="-2.12532">
        <ele>26.1</ele>
        <time>2023-07-05T09:08:07Z</time>
      </trkpt>
      <trkpt lat="46.87678" lon="-2.12537">
        <ele>26.3</ele>
        <time>2023-07-05T09:08:09Z</time>
      </trkpt>
      <trkpt lat="46.87682" lon="-2.12541">
        <ele>26.3</ele>
        <time>2023-07-05T09:08:10Z</time>
      </trkpt>
      <trkpt lat="46.87693" lon="-2.1255">
        <ele>26.1</ele>
        <time>2023-07-05T09:08:14Z</time>
      </trkpt>
      <trkpt lat="46.877" lon="-2.12557">
        <ele>25.9</ele>
        <time>2023-07-05T09:08:16Z</time>
      </trkpt>
      <trkpt lat="46.87704" lon="-2.12561">
        <ele>25.9</ele>
        <time>2023-07-05T09:08:17Z</time>
      </trkpt>
      <trkpt lat="46.87712" lon="-2.12567">
        <ele>25.9</ele>
        <time>2023-07-05T09:08:20Z</time>
      </trkpt>
      <trkpt lat="46.87719" lon="-2.12577">
        <ele>26.6</ele>
        <time>2023-07-05T09:08:24Z</time>
      </trkpt>
      <trkpt lat="46.87721" lon="-2.12578">
        <ele>26.8</ele>
        <time>2023-07-05T09:08:25Z</time>
      </trkpt>
      <trkpt lat="46.87722" lon="-2.12579">
        <ele>26.9</ele>
        <time>2023-07-05T09:08:26Z</time>
      </trkpt>
      <trkpt lat="46.87724" lon="-2.12584">
        <ele>27.3</ele>
        <time>2023-07-05T09:08:28Z</time>
      </trkpt>
      <trkpt lat="46.87725" lon="-2.12585">
        <ele>27.5</ele>
        <time>2023-07-05T09:08:29Z</time>
      </trkpt>
      <trkpt lat="46.87728" lon="-2.12589">
        <ele>27.8</ele>
        <time>2023-07-05T09:08:31Z</time>
      </trkpt>
      <trkpt lat="46.8773" lon="-2.12597">
        <ele>28.4</ele>
        <time>2023-07-05T09:08:35Z</time>
      </trkpt>
      <trkpt lat="46.8773" lon="-2.12604">
        <ele>28.7</ele>
        <time>2023-07-05T09:08:37Z</time>
      </trkpt>
      <trkpt lat="46.8773" lon="-2.12614">
        <ele>28.9</ele>
        <time>2023-07-05T09:08:40Z</time>
      </trkpt>
      <trkpt lat="46.87732" lon="-2.12621">
        <ele>28.8</ele>
        <time>2023-07-05T09:08:42Z</time>
      </trkpt>
      <trkpt lat="46.87736" lon="-2.12629">
        <ele>28.7</ele>
        <time>2023-07-05T09:08:45Z</time>
      </trkpt>
      <trkpt lat="46.87745" lon="-2.12636">
        <ele>27.8</ele>
        <time>2023-07-05T09:08:51Z</time>
      </trkpt>
      <trkpt lat="46.87752" lon="-2.12635">
        <ele>27.5</ele>
        <time>2023-07-05T09:08:54Z</time>
      </trkpt>
      <trkpt lat="46.87773" lon="-2.12625">
        <ele>27.3</ele>
        <time>2023-07-05T09:09:00Z</time>
      </trkpt>
      <trkpt lat="46.87787" lon="-2.12616">
        <ele>28.2</ele>
        <time>2023-07-05T09:09:05Z</time>
      </trkpt>
      <trkpt lat="46.87793" lon="-2.12615">
        <ele>28.6</ele>
        <time>2023-07-05T09:09:09Z</time>
      </trkpt>
      <trkpt lat="46.87794" lon="-2.12613">
        <ele>28.6</ele>
        <time>2023-07-05T09:09:10Z</time>
      </trkpt>
      <trkpt lat="46.87795" lon="-2.12611">
        <ele>28.4</ele>
        <time>2023-07-05T09:09:15Z</time>
      </trkpt>
      <trkpt lat="46.87798" lon="-2.12611">
        <ele>28.2</ele>
        <time>2023-07-05T09:09:20Z</time>
      </trkpt>
      <trkpt lat="46.87798" lon="-2.12611">
        <ele>28.2</ele>
        <time>2023-07-05T09:09:42Z</time>
      </trkpt>
      <trkpt lat="46.87798" lon="-2.1261">
        <ele>28.1</ele>
        <time>2023-07-05T09:10:06Z</time>
      </trkpt>
      <trkpt lat="46.87798" lon="-2.1261">
        <ele>28.1</ele>
        <time>2023-07-05T09:10:31Z</time>
      </trkpt>
      <trkpt lat="46.87798" lon="-2.1261">
        <ele>28.1</ele>
        <time>2023-07-05T09:10:55Z</time>
      </trkpt>
      <trkpt lat="46.87799" lon="-2.12611">
        <ele>28.1</ele>
        <time>2023-07-05T09:11:18Z</time>
      </trkpt>
      <trkpt lat="46.87799" lon="-2.12611">
        <ele>28.1</ele>
        <time>2023-07-05T09:11:44Z</time>
      </trkpt>
      <trkpt lat="46.87799" lon="-2.12611">
        <ele>28</ele>
        <time>2023-07-05T09:12:06Z</time>
      </trkpt>
      <trkpt lat="46.87799" lon="-2.12611">
        <ele>28</ele>
        <time>2023-07-05T09:12:28Z</time>
      </trkpt>
      <trkpt lat="46.87799" lon="-2.12611">
        <ele>28</ele>
        <time>2023-07-05T09:12:52Z</time>
      </trkpt>
      <trkpt lat="46.87799" lon="-2.12611">
        <ele>28</ele>
        <time>2023-07-05T09:13:14Z</time>
      </trkpt>
      <trkpt lat="46.878" lon="-2.1261">
        <ele>27.9</ele>
        <time>2023-07-05T09:13:38Z</time>
      </trkpt>
      <trkpt lat="46.878" lon="-2.1261">
        <ele>27.9</ele>
        <time>2023-07-05T09:14:01Z</time>
      </trkpt>
      <trkpt lat="46.878" lon="-2.1261">
        <ele>27.9</ele>
        <time>2023-07-05T09:14:22Z</time>
      </trkpt>
      <trkpt lat="46.878" lon="-2.12609">
        <ele>27.8</ele>
        <time>2023-07-05T09:14:44Z</time>
      </trkpt>
      <trkpt lat="46.878" lon="-2.12609">
        <ele>27.8</ele>
        <time>2023-07-05T09:15:03Z</time>
      </trkpt>
      <trkpt lat="46.878" lon="-2.1261">
        <ele>27.8</ele>
        <time>2023-07-05T09:15:24Z</time>
      </trkpt>
      <trkpt lat="46.878" lon="-2.1261">
        <ele>27.8</ele>
        <time>2023-07-05T09:15:52Z</time>
      </trkpt>
      <trkpt lat="46.878" lon="-2.1261">
        <ele>27.7</ele>
        <time>2023-07-05T09:16:18Z</time>
      </trkpt>
      <trkpt lat="46.87801" lon="-2.12609">
        <ele>27.7</ele>
        <time>2023-07-05T09:16:39Z</time>
      </trkpt>
      <trkpt lat="46.878" lon="-2.1261">
        <ele>27.6</ele>
        <time>2023-07-05T09:16:59Z</time>
      </trkpt>
      <trkpt lat="46.87799" lon="-2.12611">
        <ele>27.5</ele>
        <time>2023-07-05T09:17:00Z</time>
      </trkpt>
      <trkpt lat="46.87798" lon="-2.12614">
        <ele>27.2</ele>
        <time>2023-07-05T09:17:06Z</time>
      </trkpt>
      <trkpt lat="46.87798" lon="-2.12614">
        <ele>27.2</ele>
        <time>2023-07-05T09:17:15Z</time>
      </trkpt>
      <trkpt lat="46.87797" lon="-2.12614">
        <ele>27</ele>
        <time>2023-07-05T09:17:29Z</time>
      </trkpt>
      <trkpt lat="46.87797" lon="-2.12609">
        <ele>26.6</ele>
        <time>2023-07-05T09:17:35Z</time>
      </trkpt>
      <trkpt lat="46.87797" lon="-2.12609">
        <ele>26.6</ele>
        <time>2023-07-05T09:17:52Z</time>
      </trkpt>
      <trkpt lat="46.87797" lon="-2.12609">
        <ele>26.6</ele>
        <time>2023-07-05T09:18:13Z</time>
      </trkpt>
      <trkpt lat="46.87797" lon="-2.12609">
        <ele>26.6</ele>
        <time>2023-07-05T09:18:28Z</time>
      </trkpt>
      <trkpt lat="46.87797" lon="-2.12609">
        <ele>26.6</ele>
        <time>2023-07-05T09:18:37Z</time>
      </trkpt>
      <trkpt lat="46.87798" lon="-2.12609">
        <ele>26.5</ele>
        <time>2023-07-05T09:18:38Z</time>
      </trkpt>
      <trkpt lat="46.87798" lon="-2.12612">
        <ele>26.2</ele>
        <time>2023-07-05T09:18:40Z</time>
      </trkpt>
      <trkpt lat="46.87802" lon="-2.12627">
        <ele>24.4</ele>
        <time>2023-07-05T09:18:44Z</time>
      </trkpt>
      <trkpt lat="46.87805" lon="-2.12634">
        <ele>23.4</ele>
        <time>2023-07-05T09:18:45Z</time>
      </trkpt>
      <trkpt lat="46.87812" lon="-2.12654">
        <ele>20.8</ele>
        <time>2023-07-05T09:18:47Z</time>
      </trkpt>
      <trkpt lat="46.87823" lon="-2.12693">
        <ele>15.7</ele>
        <time>2023-07-05T09:18:51Z</time>
      </trkpt>
      <trkpt lat="46.87823" lon="-2.12712">
        <ele>13</ele>
        <time>2023-07-05T09:18:54Z</time>
      </trkpt>
      <trkpt lat="46.87818" lon="-2.12719">
        <ele>12</ele>
        <time>2023-07-05T09:18:56Z</time>
      </trkpt>
      <trkpt lat="46.8781" lon="-2.12727">
        <ele>10.8</ele>
        <time>2023-07-05T09:18:58Z</time>
      </trkpt>
      <trkpt lat="46.87801" lon="-2.12737">
        <ele>9.8</ele>
        <time>2023-07-05T09:19:00Z</time>
      </trkpt>
      <trkpt lat="46.87788" lon="-2.12756">
        <ele>8.9</ele>
        <time>2023-07-05T09:19:03Z</time>
      </trkpt>
      <trkpt lat="46.87771" lon="-2.1278">
        <ele>8.6</ele>
        <time>2023-07-05T09:19:08Z</time>
      </trkpt>
      <trkpt lat="46.87763" lon="-2.12795">
        <ele>8.3</ele>
        <time>2023-07-05T09:19:11Z</time>
      </trkpt>
      <trkpt lat="46.8776" lon="-2.12801">
        <ele>8.2</ele>
        <time>2023-07-05T09:19:12Z</time>
      </trkpt>
      <trkpt lat="46.87751" lon="-2.12827">
        <ele>7.9</ele>
        <time>2023-07-05T09:19:16Z</time>
      </trkpt>
      <trkpt lat="46.87744" lon="-2.12847">
        <ele>8.5</ele>
        <time>2023-07-05T09:19:21Z</time>
      </trkpt>
      <trkpt lat="46.87737" lon="-2.1286">
        <ele>9.1</ele>
        <time>2023-07-05T09:19:25Z</time>
      </trkpt>
      <trkpt lat="46.87731" lon="-2.12869">
        <ele>9.4</ele>
        <time>2023-07-05T09:19:28Z</time>
      </trkpt>
      <trkpt lat="46.87729" lon="-2.12873">
        <ele>9.5</ele>
        <time>2023-07-05T09:19:29Z</time>
      </trkpt>
      <trkpt lat="46.87719" lon="-2.12899">
        <ele>9</ele>
        <time>2023-07-05T09:19:34Z</time>
      </trkpt>
      <trkpt lat="46.87711" lon="-2.12918">
        <ele>8.1</ele>
        <time>2023-07-05T09:19:37Z</time>
      </trkpt>
      <trkpt lat="46.87704" lon="-2.12932">
        <ele>7.5</ele>
        <time>2023-07-05T09:19:39Z</time>
      </trkpt>
      <trkpt lat="46.87692" lon="-2.12961">
        <ele>7.3</ele>
        <time>2023-07-05T09:19:44Z</time>
      </trkpt>
      <trkpt lat="46.8769" lon="-2.12963">
        <ele>7.3</ele>
        <time>2023-07-05T09:19:45Z</time>
      </trkpt>
      <trkpt lat="46.87688" lon="-2.12965">
        <ele>7.3</ele>
        <time>2023-07-05T09:19:47Z</time>
      </trkpt>
      <trkpt lat="46.87684" lon="-2.12974">
        <ele>7.3</ele>
        <time>2023-07-05T09:19:50Z</time>
      </trkpt>
      <trkpt lat="46.87671" lon="-2.13004">
        <ele>6.6</ele>
        <time>2023-07-05T09:19:56Z</time>
      </trkpt>
      <trkpt lat="46.87669" lon="-2.1301">
        <ele>6.2</ele>
        <time>2023-07-05T09:19:57Z</time>
      </trkpt>
      <trkpt lat="46.87666" lon="-2.13024">
        <ele>5.2</ele>
        <time>2023-07-05T09:19:59Z</time>
      </trkpt>
      <trkpt lat="46.8767" lon="-2.13037">
        <ele>4.7</ele>
        <time>2023-07-05T09:20:01Z</time>
      </trkpt>
      <trkpt lat="46.87673" lon="-2.13041">
        <ele>4.5</ele>
        <time>2023-07-05T09:20:02Z</time>
      </trkpt>
      <trkpt lat="46.87677" lon="-2.13043">
        <ele>4.4</ele>
        <time>2023-07-05T09:20:03Z</time>
      </trkpt>
      <trkpt lat="46.87693" lon="-2.13054">
        <ele>3.8</ele>
        <time>2023-07-05T09:20:07Z</time>
      </trkpt>
      <trkpt lat="46.87708" lon="-2.13066">
        <ele>3.7</ele>
        <time>2023-07-05T09:20:11Z</time>
      </trkpt>
      <trkpt lat="46.87711" lon="-2.1307">
        <ele>3.6</ele>
        <time>2023-07-05T09:20:12Z</time>
      </trkpt>
      <trkpt lat="46.87719" lon="-2.13079">
        <ele>3.6</ele>
        <time>2023-07-05T09:20:14Z</time>
      </trkpt>
      <trkpt lat="46.87723" lon="-2.13084">
        <ele>3.5</ele>
        <time>2023-07-05T09:20:15Z</time>
      </trkpt>
      <trkpt lat="46.87744" lon="-2.13113">
        <ele>3.9</ele>
        <time>2023-07-05T09:20:21Z</time>
      </trkpt>
      <trkpt lat="46.87748" lon="-2.13121">
        <ele>4.1</ele>
        <time>2023-07-05T09:20:23Z</time>
      </trkpt>
      <trkpt lat="46.87752" lon="-2.13125">
        <ele>4.2</ele>
        <time>2023-07-05T09:20:24Z</time>
      </trkpt>
      <trkpt lat="46.87755" lon="-2.13129">
        <ele>4.4</ele>
        <time>2023-07-05T09:20:25Z</time>
      </trkpt>
      <trkpt lat="46.87768" lon="-2.13146">
        <ele>5.3</ele>
        <time>2023-07-05T09:20:29Z</time>
      </trkpt>
      <trkpt lat="46.87782" lon="-2.13164">
        <ele>6.3</ele>
        <time>2023-07-05T09:20:35Z</time>
      </trkpt>
      <trkpt lat="46.87794" lon="-2.13179">
        <ele>7.1</ele>
        <time>2023-07-05T09:20:40Z</time>
      </trkpt>
      <trkpt lat="46.87802" lon="-2.13185">
        <ele>7.4</ele>
        <time>2023-07-05T09:20:44Z</time>
      </trkpt>
      <trkpt lat="46.87804" lon="-2.13187">
        <ele>7.5</ele>
        <time>2023-07-05T09:20:45Z</time>
      </trkpt>
      <trkpt lat="46.8781" lon="-2.13205">
        <ele>7</ele>
        <time>2023-07-05T09:20:50Z</time>
      </trkpt>
      <trkpt lat="46.87816" lon="-2.13221">
        <ele>6.3</ele>
        <time>2023-07-05T09:20:53Z</time>
      </trkpt>
      <trkpt lat="46.87821" lon="-2.13233">
        <ele>5.9</ele>
        <time>2023-07-05T09:20:55Z</time>
      </trkpt>
      <trkpt lat="46.87825" lon="-2.13246">
        <ele>5.5</ele>
        <time>2023-07-05T09:20:57Z</time>
      </trkpt>
      <trkpt lat="46.87827" lon="-2.13252">
        <ele>5.4</ele>
        <time>2023-07-05T09:20:58Z</time>
      </trkpt>
      <trkpt lat="46.87834" lon="-2.13271">
        <ele>5</ele>
        <time>2023-07-05T09:21:01Z</time>
      </trkpt>
      <trkpt lat="46.87839" lon="-2.13282">
        <ele>4.9</ele>
        <time>2023-07-05T09:21:03Z</time>
      </trkpt>
      <trkpt lat="46.87841" lon="-2.13287">
        <ele>4.9</ele>
        <time>2023-07-05T09:21:04Z</time>
      </trkpt>
      <trkpt lat="46.87846" lon="-2.13297">
        <ele>4.8</ele>
        <time>2023-07-05T09:21:06Z</time>
      </trkpt>
      <trkpt lat="46.87851" lon="-2.13319">
        <ele>4.7</ele>
        <time>2023-07-05T09:21:10Z</time>
      </trkpt>
      <trkpt lat="46.87858" lon="-2.13352">
        <ele>4.7</ele>
        <time>2023-07-05T09:21:16Z</time>
      </trkpt>
      <trkpt lat="46.87861" lon="-2.13382">
        <ele>4.9</ele>
        <time>2023-07-05T09:21:22Z</time>
      </trkpt>
      <trkpt lat="46.87866" lon="-2.13406">
        <ele>5</ele>
        <time>2023-07-05T09:21:27Z</time>
      </trkpt>
      <trkpt lat="46.87871" lon="-2.13436">
        <ele>5</ele>
        <time>2023-07-05T09:21:33Z</time>
      </trkpt>
      <trkpt lat="46.87875" lon="-2.13467">
        <ele>4.8</ele>
        <time>2023-07-05T09:21:38Z</time>
      </trkpt>
      <trkpt lat="46.87878" lon="-2.13483">
        <ele>4.6</ele>
        <time>2023-07-05T09:21:41Z</time>
      </trkpt>
      <trkpt lat="46.87879" lon="-2.13487">
        <ele>4.6</ele>
        <time>2023-07-05T09:21:42Z</time>
      </trkpt>
      <trkpt lat="46.8788" lon="-2.13491">
        <ele>4.7</ele>
        <time>2023-07-05T09:21:43Z</time>
      </trkpt>
      <trkpt lat="46.87885" lon="-2.13503">
        <ele>4.6</ele>
        <time>2023-07-05T09:21:46Z</time>
      </trkpt>
      <trkpt lat="46.87891" lon="-2.13518">
        <ele>4.4</ele>
        <time>2023-07-05T09:21:50Z</time>
      </trkpt>
      <trkpt lat="46.87893" lon="-2.13522">
        <ele>4.5</ele>
        <time>2023-07-05T09:21:51Z</time>
      </trkpt>
      <trkpt lat="46.87901" lon="-2.13547">
        <ele>4.6</ele>
        <time>2023-07-05T09:21:56Z</time>
      </trkpt>
      <trkpt lat="46.87903" lon="-2.13552">
        <ele>4.6</ele>
        <time>2023-07-05T09:21:57Z</time>
      </trkpt>
      <trkpt lat="46.87911" lon="-2.13558">
        <ele>4.5</ele>
        <time>2023-07-05T09:21:59Z</time>
      </trkpt>
      <trkpt lat="46.87919" lon="-2.13566">
        <ele>4.4</ele>
        <time>2023-07-05T09:22:01Z</time>
      </trkpt>
      <trkpt lat="46.87928" lon="-2.13572">
        <ele>4.5</ele>
        <time>2023-07-05T09:22:03Z</time>
      </trkpt>
      <trkpt lat="46.87942" lon="-2.13589">
        <ele>5</ele>
        <time>2023-07-05T09:22:07Z</time>
      </trkpt>
      <trkpt lat="46.87958" lon="-2.13613">
        <ele>6.5</ele>
        <time>2023-07-05T09:22:13Z</time>
      </trkpt>
      <trkpt lat="46.87962" lon="-2.13621">
        <ele>6.9</ele>
        <time>2023-07-05T09:22:15Z</time>
      </trkpt>
      <trkpt lat="46.87968" lon="-2.13625">
        <ele>7.2</ele>
        <time>2023-07-05T09:22:17Z</time>
      </trkpt>
      <trkpt lat="46.87985" lon="-2.13634">
        <ele>7.8</ele>
        <time>2023-07-05T09:22:22Z</time>
      </trkpt>
      <trkpt lat="46.87993" lon="-2.13644">
        <ele>8.2</ele>
        <time>2023-07-05T09:22:25Z</time>
      </trkpt>
      <trkpt lat="46.88004" lon="-2.1366">
        <ele>9</ele>
        <time>2023-07-05T09:22:31Z</time>
      </trkpt>
      <trkpt lat="46.88017" lon="-2.13671">
        <ele>9.7</ele>
        <time>2023-07-05T09:22:36Z</time>
      </trkpt>
      <trkpt lat="46.88025" lon="-2.1368">
        <ele>10</ele>
        <time>2023-07-05T09:22:39Z</time>
      </trkpt>
      <trkpt lat="46.88029" lon="-2.13682">
        <ele>10.1</ele>
        <time>2023-07-05T09:22:40Z</time>
      </trkpt>
      <trkpt lat="46.88039" lon="-2.13683">
        <ele>10.3</ele>
        <time>2023-07-05T09:22:44Z</time>
      </trkpt>
      <trkpt lat="46.88056" lon="-2.13689">
        <ele>10.8</ele>
        <time>2023-07-05T09:22:50Z</time>
      </trkpt>
      <trkpt lat="46.88073" lon="-2.13695">
        <ele>11</ele>
        <time>2023-07-05T09:22:55Z</time>
      </trkpt>
      <trkpt lat="46.88085" lon="-2.13698">
        <ele>11.1</ele>
        <time>2023-07-05T09:22:59Z</time>
      </trkpt>
      <trkpt lat="46.88103" lon="-2.13698">
        <ele>11.3</ele>
        <time>2023-07-05T09:23:04Z</time>
      </trkpt>
      <trkpt lat="46.8811" lon="-2.13696">
        <ele>11.4</ele>
        <time>2023-07-05T09:23:08Z</time>
      </trkpt>
      <trkpt lat="46.88119" lon="-2.13695">
        <ele>11.5</ele>
        <time>2023-07-05T09:23:11Z</time>
      </trkpt>
      <trkpt lat="46.8813" lon="-2.13689">
        <ele>11.6</ele>
        <time>2023-07-05T09:23:14Z</time>
      </trkpt>
      <trkpt lat="46.88134" lon="-2.13689">
        <ele>11.6</ele>
        <time>2023-07-05T09:23:15Z</time>
      </trkpt>
      <trkpt lat="46.88149" lon="-2.13688">
        <ele>11.3</ele>
        <time>2023-07-05T09:23:19Z</time>
      </trkpt>
      <trkpt lat="46.88156" lon="-2.13689">
        <ele>11.2</ele>
        <time>2023-07-05T09:23:21Z</time>
      </trkpt>
      <trkpt lat="46.88162" lon="-2.13693">
        <ele>11.4</ele>
        <time>2023-07-05T09:23:23Z</time>
      </trkpt>
      <trkpt lat="46.88166" lon="-2.13696">
        <ele>11.6</ele>
        <time>2023-07-05T09:23:25Z</time>
      </trkpt>
      <trkpt lat="46.88172" lon="-2.13697">
        <ele>11.9</ele>
        <time>2023-07-05T09:23:27Z</time>
      </trkpt>
      <trkpt lat="46.88183" lon="-2.13694">
        <ele>12.7</ele>
        <time>2023-07-05T09:23:31Z</time>
      </trkpt>
      <trkpt lat="46.88198" lon="-2.1369">
        <ele>13.4</ele>
        <time>2023-07-05T09:23:37Z</time>
      </trkpt>
      <trkpt lat="46.88216" lon="-2.13688">
        <ele>13.7</ele>
        <time>2023-07-05T09:23:43Z</time>
      </trkpt>
      <trkpt lat="46.88226" lon="-2.13686">
        <ele>14.1</ele>
        <time>2023-07-05T09:23:47Z</time>
      </trkpt>
      <trkpt lat="46.88237" lon="-2.13675">
        <ele>14.6</ele>
        <time>2023-07-05T09:23:51Z</time>
      </trkpt>
      <trkpt lat="46.8824" lon="-2.13673">
        <ele>14.7</ele>
        <time>2023-07-05T09:23:52Z</time>
      </trkpt>
      <trkpt lat="46.88245" lon="-2.13672">
        <ele>14.8</ele>
        <time>2023-07-05T09:23:54Z</time>
      </trkpt>
      <trkpt lat="46.88249" lon="-2.13675">
        <ele>14.8</ele>
        <time>2023-07-05T09:23:56Z</time>
      </trkpt>
      <trkpt lat="46.8825" lon="-2.13677">
        <ele>14.8</ele>
        <time>2023-07-05T09:23:57Z</time>
      </trkpt>
      <trkpt lat="46.88264" lon="-2.1368">
        <ele>14.5</ele>
        <time>2023-07-05T09:24:00Z</time>
      </trkpt>
      <trkpt lat="46.88268" lon="-2.13686">
        <ele>12.3</ele>
        <time>2023-07-05T09:24:02Z</time>
      </trkpt>
      <trkpt lat="46.88273" lon="-2.13707">
        <ele>9.5</ele>
        <time>2023-07-05T09:24:07Z</time>
      </trkpt>
      <trkpt lat="46.88276" lon="-2.13733">
        <ele>6.9</ele>
        <time>2023-07-05T09:24:10Z</time>
      </trkpt>
      <trkpt lat="46.8828" lon="-2.1377">
        <ele>6.6</ele>
        <time>2023-07-05T09:24:14Z</time>
      </trkpt>
      <trkpt lat="46.88281" lon="-2.13778">
        <ele>6.5</ele>
        <time>2023-07-05T09:24:15Z</time>
      </trkpt>
      <trkpt lat="46.88285" lon="-2.13813">
        <ele>6.4</ele>
        <time>2023-07-05T09:24:20Z</time>
      </trkpt>
      <trkpt lat="46.88288" lon="-2.13829">
        <ele>6.5</ele>
        <time>2023-07-05T09:24:24Z</time>
      </trkpt>
      <trkpt lat="46.88291" lon="-2.13848">
        <ele>6.6</ele>
        <time>2023-07-05T09:24:28Z</time>
      </trkpt>
      <trkpt lat="46.88298" lon="-2.13871">
        <ele>6.8</ele>
        <time>2023-07-05T09:24:34Z</time>
      </trkpt>
      <trkpt lat="46.883" lon="-2.13893">
        <ele>7.4</ele>
        <time>2023-07-05T09:24:40Z</time>
      </trkpt>
      <trkpt lat="46.88301" lon="-2.13908">
        <ele>8.2</ele>
        <time>2023-07-05T09:24:44Z</time>
      </trkpt>
      <trkpt lat="46.88302" lon="-2.13918">
        <ele>8.8</ele>
        <time>2023-07-05T09:24:46Z</time>
      </trkpt>
      <trkpt lat="46.88303" lon="-2.13925">
        <ele>9.3</ele>
        <time>2023-07-05T09:24:48Z</time>
      </trkpt>
      <trkpt lat="46.88305" lon="-2.13946">
        <ele>10.2</ele>
        <time>2023-07-05T09:24:55Z</time>
      </trkpt>
      <trkpt lat="46.88307" lon="-2.13952">
        <ele>10.4</ele>
        <time>2023-07-05T09:24:58Z</time>
      </trkpt>
      <trkpt lat="46.88307" lon="-2.13956">
        <ele>10.4</ele>
        <time>2023-07-05T09:25:00Z</time>
      </trkpt>
      <trkpt lat="46.88306" lon="-2.13961">
        <ele>10.4</ele>
        <time>2023-07-05T09:25:01Z</time>
      </trkpt>
      <trkpt lat="46.88305" lon="-2.13966">
        <ele>10.4</ele>
        <time>2023-07-05T09:25:03Z</time>
      </trkpt>
      <trkpt lat="46.88305" lon="-2.1397">
        <ele>10.4</ele>
        <time>2023-07-05T09:25:05Z</time>
      </trkpt>
      <trkpt lat="46.88306" lon="-2.13974">
        <ele>10.4</ele>
        <time>2023-07-05T09:25:07Z</time>
      </trkpt>
      <trkpt lat="46.88306" lon="-2.13975">
        <ele>10.3</ele>
        <time>2023-07-05T09:25:09Z</time>
      </trkpt>
      <trkpt lat="46.88305" lon="-2.13977">
        <ele>10.3</ele>
        <time>2023-07-05T09:25:16Z</time>
      </trkpt>
      <trkpt lat="46.88305" lon="-2.13977">
        <ele>10.3</ele>
        <time>2023-07-05T09:25:25Z</time>
      </trkpt>
      <trkpt lat="46.88305" lon="-2.13977">
        <ele>10.3</ele>
        <time>2023-07-05T09:25:26Z</time>
      </trkpt>
      <trkpt lat="46.88306" lon="-2.13986">
        <ele>10.1</ele>
        <time>2023-07-05T09:25:30Z</time>
      </trkpt>
      <trkpt lat="46.88308" lon="-2.14014">
        <ele>9</ele>
        <time>2023-07-05T09:25:37Z</time>
      </trkpt>
      <trkpt lat="46.8831" lon="-2.14044">
        <ele>7.6</ele>
        <time>2023-07-05T09:25:42Z</time>
      </trkpt>
      <trkpt lat="46.88311" lon="-2.14052">
        <ele>7.3</ele>
        <time>2023-07-05T09:25:43Z</time>
      </trkpt>
      <trkpt lat="46.88316" lon="-2.14075">
        <ele>6.3</ele>
        <time>2023-07-05T09:25:46Z</time>
      </trkpt>
      <trkpt lat="46.88317" lon="-2.14083">
        <ele>6.1</ele>
        <time>2023-07-05T09:25:47Z</time>
      </trkpt>
      <trkpt lat="46.88325" lon="-2.14134">
        <ele>5</ele>
        <time>2023-07-05T09:25:54Z</time>
      </trkpt>
      <trkpt lat="46.88331" lon="-2.14165">
        <ele>4.8</ele>
        <time>2023-07-05T09:26:00Z</time>
      </trkpt>
      <trkpt lat="46.88335" lon="-2.14192">
        <ele>4.6</ele>
        <time>2023-07-05T09:26:05Z</time>
      </trkpt>
      <trkpt lat="46.88337" lon="-2.1423">
        <ele>4.4</ele>
        <time>2023-07-05T09:26:12Z</time>
      </trkpt>
      <trkpt lat="46.88337" lon="-2.14246">
        <ele>4.3</ele>
        <time>2023-07-05T09:26:16Z</time>
      </trkpt>
      <trkpt lat="46.88338" lon="-2.14249">
        <ele>4.3</ele>
        <time>2023-07-05T09:26:17Z</time>
      </trkpt>
      <trkpt lat="46.88347" lon="-2.14267">
        <ele>4.1</ele>
        <time>2023-07-05T09:26:22Z</time>
      </trkpt>
      <trkpt lat="46.8835" lon="-2.14298">
        <ele>4</ele>
        <time>2023-07-05T09:26:29Z</time>
      </trkpt>
      <trkpt lat="46.88354" lon="-2.14329">
        <ele>4</ele>
        <time>2023-07-05T09:26:36Z</time>
      </trkpt>
      <trkpt lat="46.88358" lon="-2.14356">
        <ele>4</ele>
        <time>2023-07-05T09:26:42Z</time>
      </trkpt>
      <trkpt lat="46.88363" lon="-2.14394">
        <ele>4.1</ele>
        <time>2023-07-05T09:26:50Z</time>
      </trkpt>
      <trkpt lat="46.88368" lon="-2.14432">
        <ele>4.1</ele>
        <time>2023-07-05T09:26:58Z</time>
      </trkpt>
      <trkpt lat="46.88373" lon="-2.14462">
        <ele>4</ele>
        <time>2023-07-05T09:27:04Z</time>
      </trkpt>
      <trkpt lat="46.88378" lon="-2.14492">
        <ele>4</ele>
        <time>2023-07-05T09:27:10Z</time>
      </trkpt>
      <trkpt lat="46.88383" lon="-2.14525">
        <ele>4</ele>
        <time>2023-07-05T09:27:17Z</time>
      </trkpt>
      <trkpt lat="46.88384" lon="-2.14553">
        <ele>4</ele>
        <time>2023-07-05T09:27:23Z</time>
      </trkpt>
      <trkpt lat="46.88389" lon="-2.14594">
        <ele>4.1</ele>
        <time>2023-07-05T09:27:32Z</time>
      </trkpt>
      <trkpt lat="46.88392" lon="-2.14639">
        <ele>4.4</ele>
        <time>2023-07-05T09:27:41Z</time>
      </trkpt>
      <trkpt lat="46.88391" lon="-2.14682">
        <ele>4.7</ele>
        <time>2023-07-05T09:27:50Z</time>
      </trkpt>
      <trkpt lat="46.88393" lon="-2.14713">
        <ele>4.7</ele>
        <time>2023-07-05T09:27:56Z</time>
      </trkpt>
      <trkpt lat="46.88393" lon="-2.14736">
        <ele>4.7</ele>
        <time>2023-07-05T09:28:00Z</time>
      </trkpt>
      <trkpt lat="46.88397" lon="-2.1477">
        <ele>4.5</ele>
        <time>2023-07-05T09:28:06Z</time>
      </trkpt>
      <trkpt lat="46.88408" lon="-2.14819">
        <ele>4.4</ele>
        <time>2023-07-05T09:28:15Z</time>
      </trkpt>
      <trkpt lat="46.88417" lon="-2.14852">
        <ele>4.7</ele>
        <time>2023-07-05T09:28:21Z</time>
      </trkpt>
      <trkpt lat="46.88428" lon="-2.14882">
        <ele>5.5</ele>
        <time>2023-07-05T09:28:27Z</time>
      </trkpt>
      <trkpt lat="46.88438" lon="-2.14905">
        <ele>6.9</ele>
        <time>2023-07-05T09:28:33Z</time>
      </trkpt>
      <trkpt lat="46.88451" lon="-2.14915">
        <ele>8.3</ele>
        <time>2023-07-05T09:28:38Z</time>
      </trkpt>
      <trkpt lat="46.88455" lon="-2.14918">
        <ele>8.4</ele>
        <time>2023-07-05T09:28:40Z</time>
      </trkpt>
      <trkpt lat="46.88457" lon="-2.14925">
        <ele>8.4</ele>
        <time>2023-07-05T09:28:42Z</time>
      </trkpt>
      <trkpt lat="46.88459" lon="-2.14938">
        <ele>7.8</ele>
        <time>2023-07-05T09:28:46Z</time>
      </trkpt>
      <trkpt lat="46.88463" lon="-2.14946">
        <ele>7.4</ele>
        <time>2023-07-05T09:28:48Z</time>
      </trkpt>
      <trkpt lat="46.8847" lon="-2.14955">
        <ele>6.9</ele>
        <time>2023-07-05T09:28:50Z</time>
      </trkpt>
      <trkpt lat="46.88474" lon="-2.1496">
        <ele>6.7</ele>
        <time>2023-07-05T09:28:51Z</time>
      </trkpt>
      <trkpt lat="46.88489" lon="-2.14976">
        <ele>6.2</ele>
        <time>2023-07-05T09:28:55Z</time>
      </trkpt>
      <trkpt lat="46.8851" lon="-2.15002">
        <ele>6</ele>
        <time>2023-07-05T09:29:02Z</time>
      </trkpt>
      <trkpt lat="46.88524" lon="-2.15016">
        <ele>5.9</ele>
        <time>2023-07-05T09:29:07Z</time>
      </trkpt>
      <trkpt lat="46.88527" lon="-2.15021">
        <ele>5.8</ele>
        <time>2023-07-05T09:29:09Z</time>
      </trkpt>
      <trkpt lat="46.88529" lon="-2.1502">
        <ele>5.8</ele>
        <time>2023-07-05T09:29:11Z</time>
      </trkpt>
    </trkseg>
  </trk>
</gpx>